<?xml version='1.0' encoding='UTF-8'?><gpx version="1.1" creator="JPX - https://github.com/jenetics/jpx" xmlns="http://www.topografix.com/GPX/1/1"><trk><trkseg><trkpt lat="45.05273010973645" lon="9.64827762459813"><ele>60.0</ele><time>2026-04-04T11:59:55Z</time></trkpt><trkpt lat="45.05279981791823" lon="9.648221657860777"><ele>60.0</ele><time>2026-04-04T11:59:59Z</time></trkpt><trkpt lat="45.05285792141088" lon="9.64810517431488"><ele>60.0</ele><time>2026-04-04T12:00:01Z</time></trkpt><trkpt lat="45.05290886761406" lon="9.648031982126506"><ele>60.0</ele><time>2026-04-04T12:00:03Z</time></trkpt><trkpt lat="45.05296002158324" lon="9.647933471603272"><ele>60.0</ele><time>2026-04-04T12:00:05Z</time></trkpt><trkpt lat="45.05298877196053" lon="9.64783352067337"><ele>60.0</ele><time>2026-04-04T12:00:07Z</time></trkpt><trkpt lat="45.052994911317974" lon="9.647740803897268"><ele>60.0</ele><time>2026-04-04T12:00:09Z</time></trkpt><trkpt lat="45.05300806522986" lon="9.647597275525005"><ele>60.0</ele><time>2026-04-04T12:00:12Z</time></trkpt><trkpt lat="45.05302404413782" lon="9.647491029375091"><ele>60.0</ele><time>2026-04-04T12:00:14Z</time></trkpt><trkpt lat="45.05302956968467" lon="9.64739164344507"><ele>60.0</ele><time>2026-04-04T12:00:16Z</time></trkpt><trkpt lat="45.053029063677954" lon="9.647282333909319"><ele>60.0</ele><time>2026-04-04T12:00:18Z</time></trkpt><trkpt lat="45.053042987710754" lon="9.647162377753395"><ele>60.0</ele><time>2026-04-04T12:00:20Z</time></trkpt><trkpt lat="45.05305579392733" lon="9.647052579804772"><ele>60.166666666666664</ele><time>2026-04-04T12:00:22Z</time></trkpt><trkpt lat="45.05305890444479" lon="9.646948990772145"><ele>60.33333333333333</ele><time>2026-04-04T12:00:24Z</time></trkpt><trkpt lat="45.05306553308616" lon="9.646842081016782"><ele>60.5</ele><time>2026-04-04T12:00:26Z</time></trkpt><trkpt lat="45.053088960360235" lon="9.646748447923938"><ele>60.666666666666664</ele><time>2026-04-04T12:00:28Z</time></trkpt><trkpt lat="45.053099824855" lon="9.646644820035084"><ele>60.83333333333333</ele><time>2026-04-04T12:00:30Z</time></trkpt><trkpt lat="45.053108447886764" lon="9.646528039611669"><ele>61.0</ele><time>2026-04-04T12:00:32Z</time></trkpt><trkpt lat="45.053107545737205" lon="9.64639286648702"><ele>60.99999999999999</ele><time>2026-04-04T12:00:34Z</time></trkpt><trkpt lat="45.05311449014367" lon="9.646278165941167"><ele>61.0</ele><time>2026-04-04T12:00:36Z</time></trkpt><trkpt lat="45.05313427510938" lon="9.646157338407246"><ele>61.0</ele><time>2026-04-04T12:00:38Z</time></trkpt><trkpt lat="45.0531448707541" lon="9.646059978391252"><ele>61.0</ele><time>2026-04-04T12:00:40Z</time></trkpt><trkpt lat="45.05321640355145" lon="9.64604389822705"><ele>60.99999999999999</ele><time>2026-04-04T12:00:42Z</time></trkpt><trkpt lat="45.05330614274785" lon="9.646045212659926"><ele>61.0</ele><time>2026-04-04T12:00:45Z</time></trkpt><trkpt lat="45.05337322360399" lon="9.646040628241613"><ele>60.83333333333333</ele><time>2026-04-04T12:00:47Z</time></trkpt><trkpt lat="45.053457553824515" lon="9.64607288963385"><ele>60.666666666666664</ele><time>2026-04-04T12:00:49Z</time></trkpt><trkpt lat="45.0535349810311" lon="9.646078576647525"><ele>60.5</ele><time>2026-04-04T12:00:51Z</time></trkpt><trkpt lat="45.053603271793264" lon="9.646089212033056"><ele>60.33333333333333</ele><time>2026-04-04T12:00:53Z</time></trkpt><trkpt lat="45.05368473937388" lon="9.64611130026135"><ele>60.166666666666664</ele><time>2026-04-04T12:00:55Z</time></trkpt><trkpt lat="45.05378239206027" lon="9.646136874202073"><ele>60.0</ele><time>2026-04-04T12:00:57Z</time></trkpt><trkpt lat="45.053859195413644" lon="9.646155468902041"><ele>60.0</ele><time>2026-04-04T12:00:59Z</time></trkpt><trkpt lat="45.053971302938585" lon="9.646165919788348"><ele>60.0</ele><time>2026-04-04T12:01:02Z</time></trkpt><trkpt lat="45.054052325659114" lon="9.64619358996176"><ele>60.0</ele><time>2026-04-04T12:01:04Z</time></trkpt><trkpt lat="45.054150919601724" lon="9.646174527963659"><ele>60.0</ele><time>2026-04-04T12:01:06Z</time></trkpt><trkpt lat="45.054199482088976" lon="9.64609310068219"><ele>60.0</ele><time>2026-04-04T12:01:08Z</time></trkpt><trkpt lat="45.054213836790865" lon="9.645988731051945"><ele>60.0</ele><time>2026-04-04T12:01:10Z</time></trkpt><trkpt lat="45.054235903770106" lon="9.645875109983102"><ele>60.0</ele><time>2026-04-04T12:01:12Z</time></trkpt><trkpt lat="45.054247391916206" lon="9.645760882340424"><ele>60.0</ele><time>2026-04-04T12:01:14Z</time></trkpt><trkpt lat="45.05426500234551" lon="9.64564308027859"><ele>60.0</ele><time>2026-04-04T12:01:16Z</time></trkpt><trkpt lat="45.05427178118265" lon="9.645520592987443"><ele>60.0</ele><time>2026-04-04T12:01:18Z</time></trkpt><trkpt lat="45.05427868589569" lon="9.645404956039375"><ele>60.0</ele><time>2026-04-04T12:01:20Z</time></trkpt><trkpt lat="45.054291817724675" lon="9.645276604213251"><ele>60.0</ele><time>2026-04-04T12:01:22Z</time></trkpt><trkpt lat="45.05429498663575" lon="9.645152749528439"><ele>59.833333333333336</ele><time>2026-04-04T12:01:24Z</time></trkpt><trkpt lat="45.054304958672546" lon="9.645033098875839"><ele>59.66666666666667</ele><time>2026-04-04T12:01:26Z</time></trkpt><trkpt lat="45.054323161722934" lon="9.644909805740888"><ele>59.5</ele><time>2026-04-04T12:01:28Z</time></trkpt><trkpt lat="45.05431888265814" lon="9.644774558722363"><ele>59.333333333333336</ele><time>2026-04-04T12:01:30Z</time></trkpt><trkpt lat="45.0543290917502" lon="9.644649395527647"><ele>59.16666666666667</ele><time>2026-04-04T12:01:32Z</time></trkpt><trkpt lat="45.05434647724925" lon="9.644524080299362"><ele>59.0</ele><time>2026-04-04T12:01:34Z</time></trkpt><trkpt lat="45.05436761673506" lon="9.644411870358084"><ele>59.0</ele><time>2026-04-04T12:01:36Z</time></trkpt><trkpt lat="45.05437446704428" lon="9.644306405695765"><ele>59.0</ele><time>2026-04-04T12:01:38Z</time></trkpt><trkpt lat="45.05438437362787" lon="9.644200062072866"><ele>59.0</ele><time>2026-04-04T12:01:40Z</time></trkpt><trkpt lat="45.05438735812994" lon="9.644107517534696"><ele>59.0</ele><time>2026-04-04T12:01:42Z</time></trkpt><trkpt lat="45.05437738309663" lon="9.644018214162758"><ele>59.0</ele><time>2026-04-04T12:01:44Z</time></trkpt><trkpt lat="45.0543453275349" lon="9.643939370357423"><ele>59.0</ele><time>2026-04-04T12:01:46Z</time></trkpt><trkpt lat="45.05425043463554" lon="9.643924951691218"><ele>59.0</ele><time>2026-04-04T12:01:48Z</time></trkpt><trkpt lat="45.05416512228367" lon="9.643903678126126"><ele>59.0</ele><time>2026-04-04T12:01:50Z</time></trkpt><trkpt lat="45.054100936872366" lon="9.64383873957761"><ele>59.00000000000001</ele><time>2026-04-04T12:01:52Z</time></trkpt><trkpt lat="45.05411848807695" lon="9.643696609466769"><ele>59.00000000000001</ele><time>2026-04-04T12:01:54Z</time></trkpt><trkpt lat="45.05413259041453" lon="9.64355848738032"><ele>59.0</ele><time>2026-04-04T12:01:56.001Z</time></trkpt><trkpt lat="45.05415041083426" lon="9.643412759764788"><ele>59.0</ele><time>2026-04-04T12:01:58.001Z</time></trkpt><trkpt lat="45.05415987476962" lon="9.643268851633843"><ele>58.800000000000004</ele><time>2026-04-04T12:02:00.001Z</time></trkpt><trkpt lat="45.05417181882556" lon="9.643112379167825"><ele>58.60000000000001</ele><time>2026-04-04T12:02:02.001Z</time></trkpt><trkpt lat="45.054181509963996" lon="9.642957543066924"><ele>58.4</ele><time>2026-04-04T12:02:04.001Z</time></trkpt><trkpt lat="45.05420211389006" lon="9.642817706523921"><ele>58.2</ele><time>2026-04-04T12:02:06.001Z</time></trkpt><trkpt lat="45.05421428224226" lon="9.642668249992607"><ele>58.0</ele><time>2026-04-04T12:02:08.001Z</time></trkpt><trkpt lat="45.05422493492674" lon="9.642515543282599"><ele>58.0</ele><time>2026-04-04T12:02:10.001Z</time></trkpt><trkpt lat="45.054232416361884" lon="9.642361223028605"><ele>58.0</ele><time>2026-04-04T12:02:12.001Z</time></trkpt><trkpt lat="45.05424431783168" lon="9.642211832645767"><ele>58.0</ele><time>2026-04-04T12:02:14.001Z</time></trkpt><trkpt lat="45.05425162277668" lon="9.642058781934756"><ele>58.0</ele><time>2026-04-04T12:02:16.001Z</time></trkpt><trkpt lat="45.05426061072888" lon="9.641909489603416"><ele>58.0</ele><time>2026-04-04T12:02:18.001Z</time></trkpt><trkpt lat="45.05428230038418" lon="9.64174664503906"><ele>58.0</ele><time>2026-04-04T12:02:20.001Z</time></trkpt><trkpt lat="45.05429288297769" lon="9.641590478908352"><ele>58.0</ele><time>2026-04-04T12:02:22.001Z</time></trkpt><trkpt lat="45.05430220276365" lon="9.641434098973917"><ele>58.0</ele><time>2026-04-04T12:02:24.001Z</time></trkpt><trkpt lat="45.05431209404168" lon="9.64127891947576"><ele>58.0</ele><time>2026-04-04T12:02:26.001Z</time></trkpt><trkpt lat="45.054321702839516" lon="9.641136079816915"><ele>58.0</ele><time>2026-04-04T12:02:28.001Z</time></trkpt><trkpt lat="45.054336691497255" lon="9.640987562774283"><ele>58.2</ele><time>2026-04-04T12:02:30.001Z</time></trkpt><trkpt lat="45.05434918701815" lon="9.640863753321353"><ele>58.4</ele><time>2026-04-04T12:02:32.001Z</time></trkpt><trkpt lat="45.054364083488316" lon="9.64072423171649"><ele>58.60000000000001</ele><time>2026-04-04T12:02:34.001Z</time></trkpt><trkpt lat="45.05437781730238" lon="9.640574903154565"><ele>58.800000000000004</ele><time>2026-04-04T12:02:36.001Z</time></trkpt><trkpt lat="45.054373849418134" lon="9.640434961229529"><ele>59.0</ele><time>2026-04-04T12:02:38.001Z</time></trkpt><trkpt lat="45.05437975236349" lon="9.640297180281761"><ele>59.00000000000001</ele><time>2026-04-04T12:02:40.001Z</time></trkpt><trkpt lat="45.05439197740181" lon="9.640158262050562"><ele>59.0</ele><time>2026-04-04T12:02:42.001Z</time></trkpt><trkpt lat="45.05440776944086" lon="9.640042996503293"><ele>59.0</ele><time>2026-04-04T12:02:44.001Z</time></trkpt><trkpt lat="45.054410844659884" lon="9.639914747454156"><ele>59.0</ele><time>2026-04-04T12:02:46.001Z</time></trkpt><trkpt lat="45.054414185339596" lon="9.639787288650222"><ele>59.00000000000001</ele><time>2026-04-04T12:02:48.001Z</time></trkpt><trkpt lat="45.05443966493238" lon="9.639675918020853"><ele>59.0</ele><time>2026-04-04T12:02:50.001Z</time></trkpt><trkpt lat="45.05450694940202" lon="9.639600251659665"><ele>59.00000000000001</ele><time>2026-04-04T12:02:53.001Z</time></trkpt><trkpt lat="45.05457159689813" lon="9.639612066919186"><ele>59.0</ele><time>2026-04-04T12:02:55.001Z</time></trkpt><trkpt lat="45.05464766708274" lon="9.639631820092825"><ele>59.0</ele><time>2026-04-04T12:02:57.001Z</time></trkpt><trkpt lat="45.054747834782866" lon="9.639658280964527"><ele>59.0</ele><time>2026-04-04T12:02:59.001Z</time></trkpt><trkpt lat="45.05483091945144" lon="9.63969973638636"><ele>59.00000000000001</ele><time>2026-04-04T12:03:01.001Z</time></trkpt><trkpt lat="45.054917857076184" lon="9.639733148205874"><ele>59.0</ele><time>2026-04-04T12:03:03.001Z</time></trkpt><trkpt lat="45.0549969627811" lon="9.639716408696941"><ele>59.16666666666667</ele><time>2026-04-04T12:03:05.001Z</time></trkpt><trkpt lat="45.05503259123728" lon="9.63962784190067"><ele>59.333333333333336</ele><time>2026-04-04T12:03:07.001Z</time></trkpt><trkpt lat="45.05504075534747" lon="9.639513752982827"><ele>59.5</ele><time>2026-04-04T12:03:10.001Z</time></trkpt><trkpt lat="45.05506009933978" lon="9.63938647402138"><ele>59.66666666666667</ele><time>2026-04-04T12:03:13.001Z</time></trkpt><trkpt lat="45.05506649489039" lon="9.639274404547649"><ele>59.833333333333336</ele><time>2026-04-04T12:03:16.001Z</time></trkpt><trkpt lat="45.05507075954069" lon="9.639178050579313"><ele>60.0</ele><time>2026-04-04T12:03:20.001Z</time></trkpt><trkpt lat="45.05503429426815" lon="9.639078337186342"><ele>60.0</ele><time>2026-04-04T12:03:32.001Z</time></trkpt><trkpt lat="45.05497814170917" lon="9.638998671561396"><ele>60.0</ele><time>2026-04-04T12:03:37.001Z</time></trkpt><trkpt lat="45.05491268881223" lon="9.638955172505248"><ele>60.0</ele><time>2026-04-04T12:03:40.001Z</time></trkpt><trkpt lat="45.054843309897386" lon="9.638923663795401"><ele>60.0</ele><time>2026-04-04T12:03:43.001Z</time></trkpt><trkpt lat="45.054830568016506" lon="9.638815366538534"><ele>60.0</ele><time>2026-04-04T12:03:46.001Z</time></trkpt><trkpt lat="45.05481796763999" lon="9.638722141583653"><ele>60.0</ele><time>2026-04-04T12:03:49.001Z</time></trkpt><trkpt lat="45.054822439935" lon="9.638618808916272"><ele>60.0</ele><time>2026-04-04T12:03:52.001Z</time></trkpt><trkpt lat="45.054893051838924" lon="9.638581404629333"><ele>60.166666666666664</ele><time>2026-04-04T12:03:54.001Z</time></trkpt><trkpt lat="45.05495454708012" lon="9.638504968985117"><ele>60.33333333333333</ele><time>2026-04-04T12:03:56.001Z</time></trkpt><trkpt lat="45.055012392351024" lon="9.638412659815243"><ele>60.5</ele><time>2026-04-04T12:03:58.001Z</time></trkpt><trkpt lat="45.05506196374697" lon="9.638322710277576"><ele>60.666666666666664</ele><time>2026-04-04T12:04:00.001Z</time></trkpt><trkpt lat="45.05510966215777" lon="9.638223507373814"><ele>60.83333333333333</ele><time>2026-04-04T12:04:02.001Z</time></trkpt><trkpt lat="45.05514653272971" lon="9.638114198916067"><ele>61.0</ele><time>2026-04-04T12:04:04.001Z</time></trkpt><trkpt lat="45.05516827127364" lon="9.638009485291638"><ele>60.99999999999999</ele><time>2026-04-04T12:04:06.001Z</time></trkpt><trkpt lat="45.055182802149304" lon="9.637902776882358"><ele>61.0</ele><time>2026-04-04T12:04:08.001Z</time></trkpt><trkpt lat="45.05520290602244" lon="9.637788479418122"><ele>61.0</ele><time>2026-04-04T12:04:10.001Z</time></trkpt><trkpt lat="45.05520101352736" lon="9.63767072761221"><ele>61.0</ele><time>2026-04-04T12:04:12.001Z</time></trkpt><trkpt lat="45.05521779501543" lon="9.637557144882098"><ele>60.99999999999999</ele><time>2026-04-04T12:04:14.001Z</time></trkpt><trkpt lat="45.055226336816006" lon="9.637443323247622"><ele>61.0</ele><time>2026-04-04T12:04:16.001Z</time></trkpt><trkpt lat="45.05523574115452" lon="9.63732557048029"><ele>60.666666666666664</ele><time>2026-04-04T12:04:18.001Z</time></trkpt><trkpt lat="45.05524483440384" lon="9.63721411224753"><ele>60.33333333333333</ele><time>2026-04-04T12:04:20.001Z</time></trkpt><trkpt lat="45.05524799273688" lon="9.637096240300815"><ele>60.0</ele><time>2026-04-04T12:04:22.001Z</time></trkpt><trkpt lat="45.05525001178582" lon="9.636978936283235"><ele>59.66666666666667</ele><time>2026-04-04T12:04:24.001Z</time></trkpt><trkpt lat="45.055259759757575" lon="9.636876341633045"><ele>59.333333333333336</ele><time>2026-04-04T12:04:26.001Z</time></trkpt><trkpt lat="45.05526268813177" lon="9.63675382616988"><ele>59.0</ele><time>2026-04-04T12:04:28.001Z</time></trkpt><trkpt lat="45.0552599242663" lon="9.63664567967469"><ele>58.6</ele><time>2026-04-04T12:04:30.001Z</time></trkpt><trkpt lat="45.05526699689326" lon="9.636524798194872"><ele>58.2</ele><time>2026-04-04T12:04:32.001Z</time></trkpt><trkpt lat="45.05526797890207" lon="9.636396077818235"><ele>57.800000000000004</ele><time>2026-04-04T12:04:34.001Z</time></trkpt><trkpt lat="45.05527150789639" lon="9.63626465127501"><ele>57.400000000000006</ele><time>2026-04-04T12:04:36.001Z</time></trkpt><trkpt lat="45.055273047923706" lon="9.636128817712672"><ele>57.0</ele><time>2026-04-04T12:04:38.001Z</time></trkpt><trkpt lat="45.05528120808121" lon="9.635992704555681"><ele>56.8</ele><time>2026-04-04T12:04:40.001Z</time></trkpt><trkpt lat="45.05528278559344" lon="9.635860852057236"><ele>56.6</ele><time>2026-04-04T12:04:42.001Z</time></trkpt><trkpt lat="45.055285834650185" lon="9.635731154977675"><ele>56.39999999999999</ele><time>2026-04-04T12:04:44.001Z</time></trkpt><trkpt lat="45.05528653435493" lon="9.635604324054299"><ele>56.199999999999996</ele><time>2026-04-04T12:04:46.001Z</time></trkpt><trkpt lat="45.05529153517835" lon="9.635486170543706"><ele>56.0</ele><time>2026-04-04T12:04:48.001Z</time></trkpt><trkpt lat="45.055293108735924" lon="9.635352862389533"><ele>55.8</ele><time>2026-04-04T12:04:50.002Z</time></trkpt><trkpt lat="45.05530353322387" lon="9.63521607155843"><ele>55.599999999999994</ele><time>2026-04-04T12:04:52.002Z</time></trkpt><trkpt lat="45.05530559737991" lon="9.635086474998936"><ele>55.4</ele><time>2026-04-04T12:04:54.002Z</time></trkpt><trkpt lat="45.055304047364146" lon="9.634954309386657"><ele>55.2</ele><time>2026-04-04T12:04:56.002Z</time></trkpt><trkpt lat="45.055306179607726" lon="9.634820380275677"><ele>55.0</ele><time>2026-04-04T12:04:58.002Z</time></trkpt><trkpt lat="45.055312398505166" lon="9.634685567088242"><ele>55.0</ele><time>2026-04-04T12:05:00.002Z</time></trkpt><trkpt lat="45.055314841038516" lon="9.634555297204434"><ele>55.0</ele><time>2026-04-04T12:05:02.002Z</time></trkpt><trkpt lat="45.05531739046118" lon="9.634424004839342"><ele>55.0</ele><time>2026-04-04T12:05:04.002Z</time></trkpt><trkpt lat="45.05531344982171" lon="9.634296062889872"><ele>55.0</ele><time>2026-04-04T12:05:06.002Z</time></trkpt><trkpt lat="45.055322447988225" lon="9.634161041876018"><ele>55.0</ele><time>2026-04-04T12:05:08.002Z</time></trkpt><trkpt lat="45.0553260799015" lon="9.634027661379843"><ele>54.6</ele><time>2026-04-04T12:05:10.002Z</time></trkpt><trkpt lat="45.05533521410628" lon="9.633887583832099"><ele>54.2</ele><time>2026-04-04T12:05:12.002Z</time></trkpt><trkpt lat="45.055337370224265" lon="9.633755754945254"><ele>53.8</ele><time>2026-04-04T12:05:14.002Z</time></trkpt><trkpt lat="45.05534477497267" lon="9.633625291573843"><ele>53.4</ele><time>2026-04-04T12:05:16.002Z</time></trkpt><trkpt lat="45.05534510880519" lon="9.633489426520264"><ele>53.0</ele><time>2026-04-04T12:05:18.002Z</time></trkpt><trkpt lat="45.055348466651196" lon="9.633356663066042"><ele>53.0</ele><time>2026-04-04T12:05:20.002Z</time></trkpt><trkpt lat="45.05535193361936" lon="9.633215217510772"><ele>53.0</ele><time>2026-04-04T12:05:22.002Z</time></trkpt><trkpt lat="45.055356355599265" lon="9.633070016543645"><ele>53.0</ele><time>2026-04-04T12:05:24.002Z</time></trkpt><trkpt lat="45.055361706694804" lon="9.632926536602813"><ele>53.0</ele><time>2026-04-04T12:05:26.002Z</time></trkpt><trkpt lat="45.05543515575647" lon="9.632859946853587"><ele>53.0</ele><time>2026-04-04T12:05:27.002Z</time></trkpt><trkpt lat="45.05543898988814" lon="9.6327185590987"><ele>52.8</ele><time>2026-04-04T12:05:29.002Z</time></trkpt><trkpt lat="45.0554428019927" lon="9.632577983560497"><ele>52.599999999999994</ele><time>2026-04-04T12:05:31.002Z</time></trkpt><trkpt lat="45.05544675227834" lon="9.632432312468008"><ele>52.400000000000006</ele><time>2026-04-04T12:05:33.002Z</time></trkpt><trkpt lat="45.055450583675025" lon="9.632291025590115"><ele>52.2</ele><time>2026-04-04T12:05:35.002Z</time></trkpt><trkpt lat="45.05545427384183" lon="9.632154946634383"><ele>52.0</ele><time>2026-04-04T12:05:37.002Z</time></trkpt><trkpt lat="45.055458338668736" lon="9.632005051713564"><ele>52.2</ele><time>2026-04-04T12:05:39.002Z</time></trkpt><trkpt lat="45.0554622181449" lon="9.631861991833299"><ele>52.400000000000006</ele><time>2026-04-04T12:05:41.002Z</time></trkpt><trkpt lat="45.05546599844907" lon="9.631722588966232"><ele>52.599999999999994</ele><time>2026-04-04T12:05:43.002Z</time></trkpt><trkpt lat="45.0554698607735" lon="9.631580161607067"><ele>52.8</ele><time>2026-04-04T12:05:45.002Z</time></trkpt><trkpt lat="45.055473657234735" lon="9.631440163027904"><ele>53.0</ele><time>2026-04-04T12:05:47.002Z</time></trkpt><trkpt lat="45.05547741171418" lon="9.631301712554937"><ele>53.0</ele><time>2026-04-04T12:05:49.002Z</time></trkpt><trkpt lat="45.05548110802731" lon="9.631165407017145"><ele>53.0</ele><time>2026-04-04T12:05:51.002Z</time></trkpt><trkpt lat="45.05548469097286" lon="9.63103328202806"><ele>53.0</ele><time>2026-04-04T12:05:53.002Z</time></trkpt><trkpt lat="45.055443371994066" lon="9.630891954817859"><ele>53.0</ele><time>2026-04-04T12:05:55.002Z</time></trkpt><trkpt lat="45.05544591829632" lon="9.630751929519423"><ele>53.0</ele><time>2026-04-04T12:05:57.002Z</time></trkpt><trkpt lat="45.05544472639948" lon="9.630613519512455"><ele>53.4</ele><time>2026-04-04T12:05:59.002Z</time></trkpt><trkpt lat="45.055440265384505" lon="9.630471524121306"><ele>53.8</ele><time>2026-04-04T12:06:01.002Z</time></trkpt><trkpt lat="45.05543942970532" lon="9.63034486698598"><ele>54.2</ele><time>2026-04-04T12:06:03.002Z</time></trkpt><trkpt lat="45.05550688774147" lon="9.630213505603665"><ele>54.6</ele><time>2026-04-04T12:06:05.002Z</time></trkpt><trkpt lat="45.05551031385039" lon="9.630075625625361"><ele>55.0</ele><time>2026-04-04T12:06:07.002Z</time></trkpt><trkpt lat="45.05551363140021" lon="9.629942114461711"><ele>55.2</ele><time>2026-04-04T12:06:09.002Z</time></trkpt><trkpt lat="45.05551686948441" lon="9.629802011946438"><ele>55.4</ele><time>2026-04-04T12:06:11.002Z</time></trkpt><trkpt lat="45.055519826057676" lon="9.629668784682961"><ele>55.599999999999994</ele><time>2026-04-04T12:06:13.002Z</time></trkpt><trkpt lat="45.055522842545905" lon="9.629532857495795"><ele>55.8</ele><time>2026-04-04T12:06:15.002Z</time></trkpt><trkpt lat="45.05552582373204" lon="9.629398521028774"><ele>56.0</ele><time>2026-04-04T12:06:17.002Z</time></trkpt><trkpt lat="45.05552909722752" lon="9.629273208978248"><ele>56.00000000000001</ele><time>2026-04-04T12:06:19.002Z</time></trkpt><trkpt lat="45.055531582723795" lon="9.629180495398865"><ele>56.0</ele><time>2026-04-04T12:06:21.002Z</time></trkpt><trkpt lat="45.05553420254383" lon="9.629082771255765"><ele>56.0</ele><time>2026-04-04T12:06:23.002Z</time></trkpt><trkpt lat="45.05553661268258" lon="9.628992868556157"><ele>56.0</ele><time>2026-04-04T12:06:25.002Z</time></trkpt><trkpt lat="45.055540386784365" lon="9.628852087355664"><ele>56.00000000000001</ele><time>2026-04-04T12:06:28.002Z</time></trkpt><trkpt lat="45.0555434584419" lon="9.62873750882566"><ele>56.0</ele><time>2026-04-04T12:06:30.002Z</time></trkpt><trkpt lat="45.05540827295307" lon="9.628672846458274"><ele>56.0</ele><time>2026-04-04T12:06:31.002Z</time></trkpt><trkpt lat="45.055403917165" lon="9.628542929472369"><ele>55.99999999999999</ele><time>2026-04-04T12:06:33.002Z</time></trkpt><trkpt lat="45.05540600655246" lon="9.62841459584543"><ele>55.99999999999999</ele><time>2026-04-04T12:06:35.002Z</time></trkpt><trkpt lat="45.05540990077207" lon="9.628286764093366"><ele>56.0</ele><time>2026-04-04T12:06:37.002Z</time></trkpt><trkpt lat="45.05541699012575" lon="9.628161616614914"><ele>56.0</ele><time>2026-04-04T12:06:39.002Z</time></trkpt><trkpt lat="45.055432575054205" lon="9.628037690892889"><ele>56.00000000000001</ele><time>2026-04-04T12:06:41.002Z</time></trkpt><trkpt lat="45.05543263724779" lon="9.627935915194714"><ele>56.0</ele><time>2026-04-04T12:06:43.002Z</time></trkpt><trkpt lat="45.05544972929923" lon="9.627842050128503"><ele>56.0</ele><time>2026-04-04T12:06:46.002Z</time></trkpt><trkpt lat="45.05538212596741" lon="9.627801477506306"><ele>56.0</ele><time>2026-04-04T12:06:49.002Z</time></trkpt><trkpt lat="45.05541709865511" lon="9.627694930120319"><ele>56.00000000000001</ele><time>2026-04-04T12:06:52.002Z</time></trkpt><trkpt lat="45.05543962289024" lon="9.627581593144075"><ele>56.0</ele><time>2026-04-04T12:06:54.002Z</time></trkpt><trkpt lat="45.055480028401284" lon="9.627461939577987"><ele>55.8</ele><time>2026-04-04T12:06:56.002Z</time></trkpt><trkpt lat="45.055507240396636" lon="9.627332729078486"><ele>55.599999999999994</ele><time>2026-04-04T12:06:58.002Z</time></trkpt><trkpt lat="45.05551326443588" lon="9.627210242482706"><ele>55.4</ele><time>2026-04-04T12:07:00.002Z</time></trkpt><trkpt lat="45.055517842779125" lon="9.627069661982773"><ele>55.2</ele><time>2026-04-04T12:07:02.002Z</time></trkpt><trkpt lat="45.05551848734196" lon="9.626927586718477"><ele>55.0</ele><time>2026-04-04T12:07:04.002Z</time></trkpt><trkpt lat="45.05552252481779" lon="9.62678823035578"><ele>54.8</ele><time>2026-04-04T12:07:06.002Z</time></trkpt><trkpt lat="45.055525535821644" lon="9.626642191538398"><ele>54.6</ele><time>2026-04-04T12:07:08.002Z</time></trkpt><trkpt lat="45.05552727587925" lon="9.626502796644607"><ele>54.400000000000006</ele><time>2026-04-04T12:07:10.002Z</time></trkpt><trkpt lat="45.05553727532957" lon="9.62635754628897"><ele>54.2</ele><time>2026-04-04T12:07:12.002Z</time></trkpt><trkpt lat="45.055608537538156" lon="9.626283858034704"><ele>54.0</ele><time>2026-04-04T12:07:13.002Z</time></trkpt><trkpt lat="45.05561249901948" lon="9.626125103514845"><ele>54.0</ele><time>2026-04-04T12:07:15.002Z</time></trkpt><trkpt lat="45.055616073523574" lon="9.625981856866643"><ele>54.0</ele><time>2026-04-04T12:07:17.002Z</time></trkpt><trkpt lat="45.05555485951652" lon="9.625828314280648"><ele>54.0</ele><time>2026-04-04T12:07:19.002Z</time></trkpt><trkpt lat="45.055550111035075" lon="9.625675262476756"><ele>54.0</ele><time>2026-04-04T12:07:21.002Z</time></trkpt><trkpt lat="45.05562732773843" lon="9.625528723140736"><ele>54.0</ele><time>2026-04-04T12:07:23.002Z</time></trkpt><trkpt lat="45.05563123795057" lon="9.62537102044758"><ele>54.00000000000001</ele><time>2026-04-04T12:07:25.002Z</time></trkpt><trkpt lat="45.05563493677075" lon="9.625221842965157"><ele>54.00000000000001</ele><time>2026-04-04T12:07:27.002Z</time></trkpt><trkpt lat="45.05563897259176" lon="9.625077427729764"><ele>54.0</ele><time>2026-04-04T12:07:29.002Z</time></trkpt><trkpt lat="45.05564277184951" lon="9.624936353878676"><ele>54.0</ele><time>2026-04-04T12:07:31.002Z</time></trkpt><trkpt lat="45.05564679166035" lon="9.624787090363453"><ele>54.400000000000006</ele><time>2026-04-04T12:07:33.002Z</time></trkpt><trkpt lat="45.05565075159169" lon="9.62464005037753"><ele>54.800000000000004</ele><time>2026-04-04T12:07:35.002Z</time></trkpt><trkpt lat="45.05565460453636" lon="9.624496982953195"><ele>55.199999999999996</ele><time>2026-04-04T12:07:37.002Z</time></trkpt><trkpt lat="45.0556585793821" lon="9.62434938915368"><ele>55.599999999999994</ele><time>2026-04-04T12:07:39.002Z</time></trkpt><trkpt lat="45.05566270407981" lon="9.624196231038109"><ele>56.0</ele><time>2026-04-04T12:07:41.002Z</time></trkpt><trkpt lat="45.05561210208281" lon="9.624123011300401"><ele>56.0</ele><time>2026-04-04T12:07:42.002Z</time></trkpt><trkpt lat="45.055668257094936" lon="9.623979412255206"><ele>55.99999999999999</ele><time>2026-04-04T12:07:44.002Z</time></trkpt><trkpt lat="45.05567126903851" lon="9.623832777488646"><ele>55.99999999999999</ele><time>2026-04-04T12:07:46.003Z</time></trkpt><trkpt lat="45.05567589284809" lon="9.623688750798232"><ele>56.0</ele><time>2026-04-04T12:07:48.003Z</time></trkpt><trkpt lat="45.05567997311256" lon="9.623539812619924"><ele>56.0</ele><time>2026-04-04T12:07:50.003Z</time></trkpt><trkpt lat="45.055684156951145" lon="9.623387093726887"><ele>56.0</ele><time>2026-04-04T12:07:52.003Z</time></trkpt><trkpt lat="45.055688091897295" lon="9.62324345987787"><ele>55.99999999999999</ele><time>2026-04-04T12:07:54.003Z</time></trkpt><trkpt lat="45.0556919799921" lon="9.623101536245894"><ele>55.99999999999999</ele><time>2026-04-04T12:07:56.003Z</time></trkpt><trkpt lat="45.05569592832682" lon="9.622957413721263"><ele>56.0</ele><time>2026-04-04T12:07:58.003Z</time></trkpt><trkpt lat="45.05569999302508" lon="9.622809043681825"><ele>56.0</ele><time>2026-04-04T12:08:00.003Z</time></trkpt><trkpt lat="45.05570378337649" lon="9.622670687827386"><ele>56.199999999999996</ele><time>2026-04-04T12:08:02.003Z</time></trkpt><trkpt lat="45.055707481397924" lon="9.62253570222472"><ele>56.39999999999999</ele><time>2026-04-04T12:08:04.003Z</time></trkpt><trkpt lat="45.05571110047976" lon="9.622403598101807"><ele>56.6</ele><time>2026-04-04T12:08:06.003Z</time></trkpt><trkpt lat="45.0557149708323" lon="9.622262322064136"><ele>56.8</ele><time>2026-04-04T12:08:08.003Z</time></trkpt><trkpt lat="45.05571882806301" lon="9.622116765975544"><ele>57.0</ele><time>2026-04-04T12:08:10.003Z</time></trkpt><trkpt lat="45.05572252455842" lon="9.621973815091422"><ele>57.2</ele><time>2026-04-04T12:08:12.003Z</time></trkpt><trkpt lat="45.055726244276315" lon="9.62182996611449"><ele>57.400000000000006</ele><time>2026-04-04T12:08:14.003Z</time></trkpt><trkpt lat="45.05568884587996" lon="9.621757177541822"><ele>57.599999999999994</ele><time>2026-04-04T12:08:15.003Z</time></trkpt><trkpt lat="45.05568234712287" lon="9.621608121921389"><ele>57.8</ele><time>2026-04-04T12:08:17.003Z</time></trkpt><trkpt lat="45.05568243153488" lon="9.621462749908758"><ele>58.0</ele><time>2026-04-04T12:08:19.003Z</time></trkpt><trkpt lat="45.05567432882658" lon="9.621313145948722"><ele>58.0</ele><time>2026-04-04T12:08:21.003Z</time></trkpt><trkpt lat="45.05574328894894" lon="9.62117081447056"><ele>58.0</ele><time>2026-04-04T12:08:23.003Z</time></trkpt><trkpt lat="45.055747144725636" lon="9.621021703853074"><ele>58.0</ele><time>2026-04-04T12:08:25.003Z</time></trkpt><trkpt lat="45.055751064102765" lon="9.620870133664072"><ele>58.0</ele><time>2026-04-04T12:08:27.003Z</time></trkpt><trkpt lat="45.055754748581684" lon="9.62072764756104"><ele>58.0</ele><time>2026-04-04T12:08:29.003Z</time></trkpt><trkpt lat="45.055758333394586" lon="9.620589015697636"><ele>58.0</ele><time>2026-04-04T12:08:31.003Z</time></trkpt><trkpt lat="45.055761711857734" lon="9.620458363748057"><ele>58.0</ele><time>2026-04-04T12:08:33.003Z</time></trkpt><trkpt lat="45.05576490559277" lon="9.620334855664193"><ele>58.0</ele><time>2026-04-04T12:08:35.003Z</time></trkpt><trkpt lat="45.05576805207017" lon="9.620213175131525"><ele>58.0</ele><time>2026-04-04T12:08:37.003Z</time></trkpt><trkpt lat="45.05577155478962" lon="9.620077717961736"><ele>58.0</ele><time>2026-04-04T12:08:39.003Z</time></trkpt><trkpt lat="45.055775133589634" lon="9.619939318646205"><ele>58.0</ele><time>2026-04-04T12:08:41.003Z</time></trkpt><trkpt lat="45.05577885979009" lon="9.619795219052822"><ele>58.0</ele><time>2026-04-04T12:08:43.003Z</time></trkpt><trkpt lat="45.055782622025575" lon="9.619650965479556"><ele>58.0</ele><time>2026-04-04T12:08:45.003Z</time></trkpt><trkpt lat="45.05578648079472" lon="9.619503111199787"><ele>58.0</ele><time>2026-04-04T12:08:47.003Z</time></trkpt><trkpt lat="45.05579005627303" lon="9.619366111513747"><ele>58.0</ele><time>2026-04-04T12:08:49.003Z</time></trkpt><trkpt lat="45.0557933196671" lon="9.619241069862278"><ele>57.99999999999999</ele><time>2026-04-04T12:08:51.003Z</time></trkpt><trkpt lat="45.055698622028586" lon="9.619171128685958"><ele>58.0</ele><time>2026-04-04T12:08:52.003Z</time></trkpt><trkpt lat="45.05570400046151" lon="9.619046178837365"><ele>58.0</ele><time>2026-04-04T12:08:54.003Z</time></trkpt><trkpt lat="45.055654439953635" lon="9.618957785532638"><ele>58.0</ele><time>2026-04-04T12:08:56.003Z</time></trkpt><trkpt lat="45.055565487522216" lon="9.618940126568816"><ele>57.99999999999999</ele><time>2026-04-04T12:08:58.003Z</time></trkpt><trkpt lat="45.055491997757876" lon="9.61890268667494"><ele>58.0</ele><time>2026-04-04T12:09:00.003Z</time></trkpt><trkpt lat="45.05539834088292" lon="9.618882998546312"><ele>58.0</ele><time>2026-04-04T12:09:02.003Z</time></trkpt><trkpt lat="45.0552983707794" lon="9.61888006182132"><ele>58.0</ele><time>2026-04-04T12:09:04.003Z</time></trkpt><trkpt lat="45.055199764407426" lon="9.618894352321881"><ele>58.0</ele><time>2026-04-04T12:09:06.003Z</time></trkpt><trkpt lat="45.05509087812955" lon="9.61890106361972"><ele>58.0</ele><time>2026-04-04T12:09:08.003Z</time></trkpt><trkpt lat="45.054983723349764" lon="9.618904336235612"><ele>58.0</ele><time>2026-04-04T12:09:10.003Z</time></trkpt><trkpt lat="45.054877904716804" lon="9.61890929805181"><ele>58.0</ele><time>2026-04-04T12:09:12.003Z</time></trkpt><trkpt lat="45.05477073242155" lon="9.618913907544915"><ele>58.0</ele><time>2026-04-04T12:09:14.003Z</time></trkpt><trkpt lat="45.05465194493883" lon="9.618933942851116"><ele>58.0</ele><time>2026-04-04T12:09:16.003Z</time></trkpt><trkpt lat="45.05454169648356" lon="9.618941035977608"><ele>58.0</ele><time>2026-04-04T12:09:18.003Z</time></trkpt><trkpt lat="45.054427659259794" lon="9.618948431388048"><ele>58.0</ele><time>2026-04-04T12:09:20.003Z</time></trkpt><trkpt lat="45.054307249480296" lon="9.618957374855322"><ele>58.0</ele><time>2026-04-04T12:09:22.003Z</time></trkpt><trkpt lat="45.054179905260845" lon="9.618967350579476"><ele>58.0</ele><time>2026-04-04T12:09:24.003Z</time></trkpt><trkpt lat="45.054055067093394" lon="9.618974106034413"><ele>58.0</ele><time>2026-04-04T12:09:26.003Z</time></trkpt><trkpt lat="45.05393635165397" lon="9.618979341341264"><ele>57.83333333333333</ele><time>2026-04-04T12:09:28.003Z</time></trkpt><trkpt lat="45.053871838607634" lon="9.618978790197726"><ele>57.666666666666664</ele><time>2026-04-04T12:09:29.003Z</time></trkpt><trkpt lat="45.053748175468606" lon="9.618987120220043"><ele>57.5</ele><time>2026-04-04T12:09:31.003Z</time></trkpt><trkpt lat="45.05362259848624" lon="9.619001218120625"><ele>57.33333333333333</ele><time>2026-04-04T12:09:33.003Z</time></trkpt><trkpt lat="45.05355951523375" lon="9.619001645654334"><ele>57.166666666666664</ele><time>2026-04-04T12:09:34.003Z</time></trkpt><trkpt lat="45.05349417364382" lon="9.619009419013713"><ele>57.0</ele><time>2026-04-04T12:09:35.003Z</time></trkpt><trkpt lat="45.05336943911951" lon="9.618993772407082"><ele>57.400000000000006</ele><time>2026-04-04T12:09:37.003Z</time></trkpt><trkpt lat="45.053254022360946" lon="9.618975864489542"><ele>57.800000000000004</ele><time>2026-04-04T12:09:39.003Z</time></trkpt><trkpt lat="45.05319191681388" lon="9.618959562678688"><ele>58.2</ele><time>2026-04-04T12:09:40.003Z</time></trkpt><trkpt lat="45.05307566279125" lon="9.618922178914403"><ele>58.6</ele><time>2026-04-04T12:09:42.003Z</time></trkpt><trkpt lat="45.05296502896655" lon="9.618869500564617"><ele>59.0</ele><time>2026-04-04T12:09:44.003Z</time></trkpt><trkpt lat="45.05287703843991" lon="9.61879148211939"><ele>59.0</ele><time>2026-04-04T12:09:46.003Z</time></trkpt><trkpt lat="45.05278114974356" lon="9.618740468852181"><ele>59.00000000000001</ele><time>2026-04-04T12:09:48.003Z</time></trkpt><trkpt lat="45.05269789643863" lon="9.618675539636078"><ele>59.00000000000001</ele><time>2026-04-04T12:09:50.003Z</time></trkpt><trkpt lat="45.05260453240516" lon="9.618607176800436"><ele>59.0</ele><time>2026-04-04T12:09:52.003Z</time></trkpt><trkpt lat="45.05251109312548" lon="9.618532592809395"><ele>59.0</ele><time>2026-04-04T12:09:54.003Z</time></trkpt><trkpt lat="45.05242105909616" lon="9.618457828730026"><ele>59.0</ele><time>2026-04-04T12:09:56.003Z</time></trkpt><trkpt lat="45.0523424398095" lon="9.618367099880977"><ele>59.00000000000001</ele><time>2026-04-04T12:09:58.003Z</time></trkpt><trkpt lat="45.05225457630574" lon="9.618293289985607"><ele>59.00000000000001</ele><time>2026-04-04T12:10:00.003Z</time></trkpt><trkpt lat="45.05218736896655" lon="9.618237848293694"><ele>59.0</ele><time>2026-04-04T12:10:02.003Z</time></trkpt><trkpt lat="45.05210634585044" lon="9.618168874196613"><ele>59.0</ele><time>2026-04-04T12:10:05.003Z</time></trkpt><trkpt lat="45.05205010920284" lon="9.618088026666685"><ele>59.0</ele><time>2026-04-04T12:10:07.003Z</time></trkpt><trkpt lat="45.05206138785204" lon="9.617947769335405"><ele>59.00000000000001</ele><time>2026-04-04T12:10:09.003Z</time></trkpt><trkpt lat="45.05209940394782" lon="9.617810612542845"><ele>59.00000000000001</ele><time>2026-04-04T12:10:11.003Z</time></trkpt><trkpt lat="45.05212644193688" lon="9.617671527309602"><ele>59.0</ele><time>2026-04-04T12:10:13.003Z</time></trkpt><trkpt lat="45.05215029388052" lon="9.617527292021148"><ele>59.0</ele><time>2026-04-04T12:10:15.003Z</time></trkpt><trkpt lat="45.05217464700374" lon="9.617386774401528"><ele>59.0</ele><time>2026-04-04T12:10:17.003Z</time></trkpt><trkpt lat="45.05218894068368" lon="9.617265238508534"><ele>59.00000000000001</ele><time>2026-04-04T12:10:19.003Z</time></trkpt><trkpt lat="45.05222207395941" lon="9.617129884231385"><ele>59.00000000000001</ele><time>2026-04-04T12:10:21.003Z</time></trkpt><trkpt lat="45.05224573155669" lon="9.617003175737057"><ele>59.0</ele><time>2026-04-04T12:10:23.003Z</time></trkpt><trkpt lat="45.052271800641925" lon="9.616867946893581"><ele>59.0</ele><time>2026-04-04T12:10:25.003Z</time></trkpt><trkpt lat="45.05228196167686" lon="9.616762201690634"><ele>59.0</ele><time>2026-04-04T12:10:27.003Z</time></trkpt><trkpt lat="45.05227658161522" lon="9.616642856648536"><ele>59.00000000000001</ele><time>2026-04-04T12:10:29.003Z</time></trkpt><trkpt lat="45.052210592097275" lon="9.61652306258596"><ele>59.00000000000001</ele><time>2026-04-04T12:10:31.003Z</time></trkpt><trkpt lat="45.052126384565916" lon="9.616462266999934"><ele>59.0</ele><time>2026-04-04T12:10:33.003Z</time></trkpt><trkpt lat="45.052029794947536" lon="9.616453042927592"><ele>59.0</ele><time>2026-04-04T12:10:35.003Z</time></trkpt><trkpt lat="45.0519340953856" lon="9.616433563766542"><ele>59.0</ele><time>2026-04-04T12:10:37.003Z</time></trkpt><trkpt lat="45.05190433554197" lon="9.61633410199357"><ele>59.00000000000001</ele><time>2026-04-04T12:10:39.004Z</time></trkpt><trkpt lat="45.05194496118866" lon="9.61619352176345"><ele>59.00000000000001</ele><time>2026-04-04T12:10:41.004Z</time></trkpt><trkpt lat="45.05196352050782" lon="9.616058575880931"><ele>59.0</ele><time>2026-04-04T12:10:43.004Z</time></trkpt><trkpt lat="45.05199791695066" lon="9.615913014225043"><ele>59.0</ele><time>2026-04-04T12:10:45.004Z</time></trkpt><trkpt lat="45.05201366295718" lon="9.615750850716687"><ele>59.2</ele><time>2026-04-04T12:10:47.004Z</time></trkpt><trkpt lat="45.052041807361476" lon="9.61560591730737"><ele>59.400000000000006</ele><time>2026-04-04T12:10:49.004Z</time></trkpt><trkpt lat="45.0520659017227" lon="9.615461138579168"><ele>59.6</ele><time>2026-04-04T12:10:51.004Z</time></trkpt><trkpt lat="45.052095437871486" lon="9.615319002674601"><ele>59.8</ele><time>2026-04-04T12:10:53.004Z</time></trkpt><trkpt lat="45.05212573928298" lon="9.61518813418822"><ele>60.0</ele><time>2026-04-04T12:10:55.004Z</time></trkpt><trkpt lat="45.05214734103598" lon="9.615046625795053"><ele>60.0</ele><time>2026-04-04T12:10:57.004Z</time></trkpt><trkpt lat="45.052182257340554" lon="9.614904547525269"><ele>60.0</ele><time>2026-04-04T12:10:59.004Z</time></trkpt><trkpt lat="45.052206679401266" lon="9.614756142325712"><ele>60.0</ele><time>2026-04-04T12:11:01.004Z</time></trkpt><trkpt lat="45.05222841822977" lon="9.614618418309977"><ele>60.0</ele><time>2026-04-04T12:11:03.004Z</time></trkpt><trkpt lat="45.05224964162809" lon="9.614485274452056"><ele>60.0</ele><time>2026-04-04T12:11:05.004Z</time></trkpt><trkpt lat="45.052274846730946" lon="9.614352133439432"><ele>60.0</ele><time>2026-04-04T12:11:07.004Z</time></trkpt><trkpt lat="45.05229383314522" lon="9.614216449280157"><ele>60.0</ele><time>2026-04-04T12:11:09.004Z</time></trkpt><trkpt lat="45.05232280736419" lon="9.61407779909369"><ele>60.0</ele><time>2026-04-04T12:11:11.004Z</time></trkpt><trkpt lat="45.052351924390514" lon="9.61393736957992"><ele>60.0</ele><time>2026-04-04T12:11:13.004Z</time></trkpt><trkpt lat="45.052385659918684" lon="9.61378853613602"><ele>60.0</ele><time>2026-04-04T12:11:15.004Z</time></trkpt><trkpt lat="45.05240766111419" lon="9.61365037102788"><ele>59.8</ele><time>2026-04-04T12:11:17.004Z</time></trkpt><trkpt lat="45.05243451245048" lon="9.613505315097948"><ele>59.6</ele><time>2026-04-04T12:11:19.004Z</time></trkpt><trkpt lat="45.052460311656716" lon="9.613359092859948"><ele>59.400000000000006</ele><time>2026-04-04T12:11:21.004Z</time></trkpt><trkpt lat="45.052481077450615" lon="9.613206454185471"><ele>59.2</ele><time>2026-04-04T12:11:23.004Z</time></trkpt><trkpt lat="45.052511096587104" lon="9.613059893085875"><ele>59.0</ele><time>2026-04-04T12:11:25.004Z</time></trkpt><trkpt lat="45.05253555108743" lon="9.612905989687516"><ele>59.2</ele><time>2026-04-04T12:11:27.004Z</time></trkpt><trkpt lat="45.05255585610817" lon="9.61275884132418"><ele>59.400000000000006</ele><time>2026-04-04T12:11:29.004Z</time></trkpt><trkpt lat="45.05258396376905" lon="9.612617315537129"><ele>59.6</ele><time>2026-04-04T12:11:31.004Z</time></trkpt><trkpt lat="45.05260844544258" lon="9.612475932980091"><ele>59.8</ele><time>2026-04-04T12:11:33.004Z</time></trkpt><trkpt lat="45.05264658678745" lon="9.612348917128413"><ele>60.0</ele><time>2026-04-04T12:11:35.004Z</time></trkpt><trkpt lat="45.05266295189379" lon="9.612200710498495"><ele>60.0</ele><time>2026-04-04T12:11:37.004Z</time></trkpt><trkpt lat="45.05268575447102" lon="9.612048942820364"><ele>60.0</ele><time>2026-04-04T12:11:39.004Z</time></trkpt><trkpt lat="45.05270781184456" lon="9.611902026820554"><ele>60.0</ele><time>2026-04-04T12:11:41.004Z</time></trkpt><trkpt lat="45.052727604417086" lon="9.611746182155823"><ele>60.0</ele><time>2026-04-04T12:11:43.004Z</time></trkpt><trkpt lat="45.052733848491066" lon="9.611609307874144"><ele>60.0</ele><time>2026-04-04T12:11:45.004Z</time></trkpt><trkpt lat="45.05275096760343" lon="9.611462861784757"><ele>60.0</ele><time>2026-04-04T12:11:47.004Z</time></trkpt><trkpt lat="45.05275351018237" lon="9.61130352477336"><ele>60.0</ele><time>2026-04-04T12:11:49.004Z</time></trkpt><trkpt lat="45.052768944192984" lon="9.61115829210084"><ele>60.0</ele><time>2026-04-04T12:11:51.004Z</time></trkpt><trkpt lat="45.052772525104" lon="9.611007463144528"><ele>60.0</ele><time>2026-04-04T12:11:53.004Z</time></trkpt><trkpt lat="45.05277275004957" lon="9.610861331058517"><ele>60.0</ele><time>2026-04-04T12:11:55.004Z</time></trkpt><trkpt lat="45.052780242122225" lon="9.61071445166285"><ele>60.0</ele><time>2026-04-04T12:11:57.004Z</time></trkpt><trkpt lat="45.05278140358194" lon="9.61057451520967"><ele>60.0</ele><time>2026-04-04T12:11:59.004Z</time></trkpt><trkpt lat="45.05278820396139" lon="9.610437331462641"><ele>60.0</ele><time>2026-04-04T12:12:01.004Z</time></trkpt><trkpt lat="45.05278972096225" lon="9.610345727156444"><ele>60.0</ele><time>2026-04-04T12:12:03.004Z</time></trkpt><trkpt lat="45.05279698346389" lon="9.610255089510533"><ele>60.0</ele><time>2026-04-04T12:12:05.004Z</time></trkpt><trkpt lat="45.052786523128006" lon="9.610150995974399"><ele>60.0</ele><time>2026-04-04T12:12:07.004Z</time></trkpt><trkpt lat="45.05279498728269" lon="9.610037318306444"><ele>60.0</ele><time>2026-04-04T12:12:09.004Z</time></trkpt><trkpt lat="45.05279546023596" lon="9.609901480093148"><ele>60.0</ele><time>2026-04-04T12:12:11.004Z</time></trkpt><trkpt lat="45.05279549800836" lon="9.609769365408447"><ele>60.0</ele><time>2026-04-04T12:12:13.004Z</time></trkpt><trkpt lat="45.05279918301761" lon="9.60962608848466"><ele>60.0</ele><time>2026-04-04T12:12:15.004Z</time></trkpt><trkpt lat="45.052799150684024" lon="9.609480076891844"><ele>60.0</ele><time>2026-04-04T12:12:17.004Z</time></trkpt><trkpt lat="45.05279745988542" lon="9.609346782753459"><ele>60.0</ele><time>2026-04-04T12:12:19.004Z</time></trkpt><trkpt lat="45.05280373688415" lon="9.609211300066038"><ele>60.0</ele><time>2026-04-04T12:12:21.004Z</time></trkpt><trkpt lat="45.0528061797139" lon="9.609049405157533"><ele>60.0</ele><time>2026-04-04T12:12:23.004Z</time></trkpt><trkpt lat="45.05280891935035" lon="9.608895711451297"><ele>60.0</ele><time>2026-04-04T12:12:25.004Z</time></trkpt><trkpt lat="45.052825039006855" lon="9.6087571291988"><ele>60.0</ele><time>2026-04-04T12:12:27.004Z</time></trkpt><trkpt lat="45.052831384532354" lon="9.608621044208403"><ele>59.8</ele><time>2026-04-04T12:12:29.004Z</time></trkpt><trkpt lat="45.0528344097735" lon="9.608474737025894"><ele>59.6</ele><time>2026-04-04T12:12:31.004Z</time></trkpt><trkpt lat="45.052844436181466" lon="9.608319328811563"><ele>59.400000000000006</ele><time>2026-04-04T12:12:33.004Z</time></trkpt><trkpt lat="45.052849528979195" lon="9.608175096662755"><ele>59.2</ele><time>2026-04-04T12:12:35.004Z</time></trkpt><trkpt lat="45.052856060242895" lon="9.608035212071323"><ele>59.0</ele><time>2026-04-04T12:12:37.004Z</time></trkpt><trkpt lat="45.05286555280019" lon="9.607905427237425"><ele>59.2</ele><time>2026-04-04T12:12:39.004Z</time></trkpt><trkpt lat="45.05287423900362" lon="9.607763707668838"><ele>59.400000000000006</ele><time>2026-04-04T12:12:41.004Z</time></trkpt><trkpt lat="45.05287967861796" lon="9.607622931300083"><ele>59.6</ele><time>2026-04-04T12:12:43.004Z</time></trkpt><trkpt lat="45.05288044887505" lon="9.607480255703962"><ele>59.8</ele><time>2026-04-04T12:12:45.004Z</time></trkpt><trkpt lat="45.05288532222577" lon="9.607335846377136"><ele>60.0</ele><time>2026-04-04T12:12:47.004Z</time></trkpt><trkpt lat="45.05289491043146" lon="9.607196148099746"><ele>60.0</ele><time>2026-04-04T12:12:49.004Z</time></trkpt><trkpt lat="45.05289759995383" lon="9.607046378622702"><ele>60.0</ele><time>2026-04-04T12:12:51.004Z</time></trkpt><trkpt lat="45.052889728441286" lon="9.606887779558468"><ele>60.0</ele><time>2026-04-04T12:12:53.004Z</time></trkpt><trkpt lat="45.05289381286737" lon="9.606733904089952"><ele>60.0</ele><time>2026-04-04T12:12:55.004Z</time></trkpt><trkpt lat="45.05289832454054" lon="9.606588332766833"><ele>60.0</ele><time>2026-04-04T12:12:57.004Z</time></trkpt><trkpt lat="45.05290456955249" lon="9.606426422914486"><ele>60.2</ele><time>2026-04-04T12:12:59.004Z</time></trkpt><trkpt lat="45.052909378135595" lon="9.60627645251622"><ele>60.4</ele><time>2026-04-04T12:13:01.004Z</time></trkpt><trkpt lat="45.052909257734555" lon="9.60614031598475"><ele>60.599999999999994</ele><time>2026-04-04T12:13:03.004Z</time></trkpt><trkpt lat="45.05290392974579" lon="9.6060160755065"><ele>60.8</ele><time>2026-04-04T12:13:05.004Z</time></trkpt><trkpt lat="45.05290229905712" lon="9.605874457596125"><ele>61.0</ele><time>2026-04-04T12:13:07.004Z</time></trkpt><trkpt lat="45.05290944574723" lon="9.605721768930604"><ele>61.0</ele><time>2026-04-04T12:13:09.004Z</time></trkpt><trkpt lat="45.052913923492" lon="9.60558185111295"><ele>60.99999999999999</ele><time>2026-04-04T12:13:11.004Z</time></trkpt><trkpt lat="45.052919204054554" lon="9.60544590314439"><ele>60.99999999999999</ele><time>2026-04-04T12:13:13.004Z</time></trkpt><trkpt lat="45.052920166725656" lon="9.605308127450792"><ele>61.0</ele><time>2026-04-04T12:13:15.004Z</time></trkpt><trkpt lat="45.05292968344746" lon="9.605180111934745"><ele>61.0</ele><time>2026-04-04T12:13:17.004Z</time></trkpt><trkpt lat="45.05293455731652" lon="9.60503231996727"><ele>61.0</ele><time>2026-04-04T12:13:19.004Z</time></trkpt><trkpt lat="45.052937897354944" lon="9.604891942843354"><ele>60.99999999999999</ele><time>2026-04-04T12:13:21.004Z</time></trkpt><trkpt lat="45.05294084159302" lon="9.604768200787378"><ele>60.99999999999999</ele><time>2026-04-04T12:13:23.004Z</time></trkpt><trkpt lat="45.052943478856605" lon="9.604657360498793"><ele>61.0</ele><time>2026-04-04T12:13:25.004Z</time></trkpt><trkpt lat="45.052873307981486" lon="9.604566804214285"><ele>61.0</ele><time>2026-04-04T12:13:27.004Z</time></trkpt><trkpt lat="45.052776137497716" lon="9.604562762416917"><ele>60.99999999999999</ele><time>2026-04-04T12:13:29.004Z</time></trkpt><trkpt lat="45.052680409485916" lon="9.604564318594997"><ele>61.0</ele><time>2026-04-04T12:13:31.004Z</time></trkpt><trkpt lat="45.05259164309554" lon="9.60456343686788"><ele>61.0</ele><time>2026-04-04T12:13:33.005Z</time></trkpt><trkpt lat="45.05252081623284" lon="9.604539243786553"><ele>61.0</ele><time>2026-04-04T12:13:35.005Z</time></trkpt><trkpt lat="45.05244636377453" lon="9.604531807517198"><ele>60.99999999999999</ele><time>2026-04-04T12:13:37.005Z</time></trkpt><trkpt lat="45.052386514072836" lon="9.604468155800454"><ele>61.0</ele><time>2026-04-04T12:13:39.005Z</time></trkpt><trkpt lat="45.05240544399529" lon="9.604337663258297"><ele>60.8</ele><time>2026-04-04T12:13:41.005Z</time></trkpt><trkpt lat="45.05243967095901" lon="9.604206708181293"><ele>60.599999999999994</ele><time>2026-04-04T12:13:43.005Z</time></trkpt><trkpt lat="45.05246018260612" lon="9.604073984144767"><ele>60.4</ele><time>2026-04-04T12:13:45.005Z</time></trkpt><trkpt lat="45.052478630642334" lon="9.60393452240567"><ele>60.2</ele><time>2026-04-04T12:13:47.005Z</time></trkpt><trkpt lat="45.052489677087294" lon="9.603798260946395"><ele>60.0</ele><time>2026-04-04T12:13:49.005Z</time></trkpt><trkpt lat="45.05251135014402" lon="9.603655231652404"><ele>59.8</ele><time>2026-04-04T12:13:51.005Z</time></trkpt><trkpt lat="45.0525218101797" lon="9.603511277740113"><ele>59.6</ele><time>2026-04-04T12:13:53.005Z</time></trkpt><trkpt lat="45.05253239367592" lon="9.60337120453283"><ele>59.400000000000006</ele><time>2026-04-04T12:13:55.005Z</time></trkpt><trkpt lat="45.052544565434154" lon="9.603233435693612"><ele>59.2</ele><time>2026-04-04T12:13:57.005Z</time></trkpt><trkpt lat="45.052569634750746" lon="9.603082419808851"><ele>59.0</ele><time>2026-04-04T12:13:59.005Z</time></trkpt><trkpt lat="45.05258310147295" lon="9.602947535471316"><ele>59.0</ele><time>2026-04-04T12:14:01.005Z</time></trkpt><trkpt lat="45.052590309787924" lon="9.602805317326167"><ele>59.00000000000001</ele><time>2026-04-04T12:14:03.005Z</time></trkpt><trkpt lat="45.052605752509415" lon="9.602661238996829"><ele>59.00000000000001</ele><time>2026-04-04T12:14:05.005Z</time></trkpt><trkpt lat="45.05262571734187" lon="9.602510248037113"><ele>59.0</ele><time>2026-04-04T12:14:07.005Z</time></trkpt><trkpt lat="45.05263685916232" lon="9.602371906107367"><ele>59.0</ele><time>2026-04-04T12:14:09.005Z</time></trkpt><trkpt lat="45.05266191467699" lon="9.602223548879694"><ele>59.0</ele><time>2026-04-04T12:14:11.005Z</time></trkpt><trkpt lat="45.05267994094376" lon="9.602075953022304"><ele>59.00000000000001</ele><time>2026-04-04T12:14:13.005Z</time></trkpt><trkpt lat="45.05268689062388" lon="9.601923470609208"><ele>59.00000000000001</ele><time>2026-04-04T12:14:15.005Z</time></trkpt><trkpt lat="45.05269794766808" lon="9.601776283282426"><ele>59.0</ele><time>2026-04-04T12:14:17.005Z</time></trkpt><trkpt lat="45.05271109494154" lon="9.601643849569287"><ele>59.0</ele><time>2026-04-04T12:14:19.005Z</time></trkpt><trkpt lat="45.05270968274307" lon="9.601494412474297"><ele>59.0</ele><time>2026-04-04T12:14:21.005Z</time></trkpt><trkpt lat="45.05271606576038" lon="9.601345110011414"><ele>59.00000000000001</ele><time>2026-04-04T12:14:23.005Z</time></trkpt><trkpt lat="45.052719440052975" lon="9.601183487045702"><ele>59.00000000000001</ele><time>2026-04-04T12:14:25.005Z</time></trkpt><trkpt lat="45.052722980763384" lon="9.601027032791269"><ele>59.0</ele><time>2026-04-04T12:14:27.005Z</time></trkpt><trkpt lat="45.05272710075758" lon="9.600876089448736"><ele>59.0</ele><time>2026-04-04T12:14:29.005Z</time></trkpt><trkpt lat="45.05273251590371" lon="9.600720817543806"><ele>59.2</ele><time>2026-04-04T12:14:31.005Z</time></trkpt><trkpt lat="45.05273094188633" lon="9.600561965272616"><ele>59.400000000000006</ele><time>2026-04-04T12:14:33.005Z</time></trkpt><trkpt lat="45.05273759757097" lon="9.600413536779497"><ele>59.6</ele><time>2026-04-04T12:14:35.005Z</time></trkpt><trkpt lat="45.05274257116961" lon="9.600262714877811"><ele>59.8</ele><time>2026-04-04T12:14:37.005Z</time></trkpt><trkpt lat="45.05275171721847" lon="9.600113753865744"><ele>60.0</ele><time>2026-04-04T12:14:39.005Z</time></trkpt><trkpt lat="45.052742287248286" lon="9.599984540014654"><ele>60.6</ele><time>2026-04-04T12:14:41.005Z</time></trkpt><trkpt lat="45.05274302621267" lon="9.599844903573747"><ele>61.2</ele><time>2026-04-04T12:14:43.005Z</time></trkpt><trkpt lat="45.05274518380594" lon="9.599698698140381"><ele>61.8</ele><time>2026-04-04T12:14:45.005Z</time></trkpt><trkpt lat="45.0527443745965" lon="9.599542002480796"><ele>62.4</ele><time>2026-04-04T12:14:47.005Z</time></trkpt><trkpt lat="45.05273631781206" lon="9.599396850254989"><ele>63.0</ele><time>2026-04-04T12:14:49.005Z</time></trkpt><trkpt lat="45.052723081173475" lon="9.599259267128645"><ele>63.166666666666664</ele><time>2026-04-04T12:14:51.005Z</time></trkpt><trkpt lat="45.05270636869708" lon="9.599130979817886"><ele>63.33333333333333</ele><time>2026-04-04T12:14:53.005Z</time></trkpt><trkpt lat="45.05265034649686" lon="9.599087168693448"><ele>63.5</ele><time>2026-04-04T12:14:54.005Z</time></trkpt><trkpt lat="45.05263415193915" lon="9.598975230379018"><ele>63.666666666666664</ele><time>2026-04-04T12:14:56.005Z</time></trkpt><trkpt lat="45.052612827922516" lon="9.598873228413165"><ele>63.83333333333333</ele><time>2026-04-04T12:14:58.005Z</time></trkpt><trkpt lat="45.05257138865491" lon="9.59879654231786"><ele>64.0</ele><time>2026-04-04T12:15:00.005Z</time></trkpt><trkpt lat="45.052497250251456" lon="9.598776059120304"><ele>63.49999999999999</ele><time>2026-04-04T12:15:02.005Z</time></trkpt><trkpt lat="45.052417064419565" lon="9.59878434509967"><ele>63.0</ele><time>2026-04-04T12:15:04.005Z</time></trkpt><trkpt lat="45.05234421094587" lon="9.59879073521989"><ele>62.5</ele><time>2026-04-04T12:15:06.005Z</time></trkpt><trkpt lat="45.05224509986525" lon="9.59878758182058"><ele>62.0</ele><time>2026-04-04T12:15:09.005Z</time></trkpt><trkpt lat="45.05216888878234" lon="9.598783499309599"><ele>61.49999999999999</ele><time>2026-04-04T12:15:11.005Z</time></trkpt><trkpt lat="45.052081967972185" lon="9.598782383554598"><ele>61.0</ele><time>2026-04-04T12:15:14.005Z</time></trkpt><trkpt lat="45.05201696231758" lon="9.598723221712643"><ele>60.666666666666664</ele><time>2026-04-04T12:15:17.005Z</time></trkpt><trkpt lat="45.052004322689875" lon="9.598610145918073"><ele>60.33333333333333</ele><time>2026-04-04T12:15:20.005Z</time></trkpt><trkpt lat="45.05200179380398" lon="9.598505283142753"><ele>60.0</ele><time>2026-04-04T12:15:23.005Z</time></trkpt><trkpt lat="45.05199034457752" lon="9.598414066118933"><ele>59.66666666666667</ele><time>2026-04-04T12:15:26.005Z</time></trkpt><trkpt lat="45.051950750696896" lon="9.59829699586451"><ele>59.333333333333336</ele><time>2026-04-04T12:16:04.005Z</time></trkpt><trkpt lat="45.051964404348894" lon="9.598199161319737"><ele>59.0</ele><time>2026-04-04T12:16:10.005Z</time></trkpt><trkpt lat="45.051981519996765" lon="9.598079696659715"><ele>59.00000000000001</ele><time>2026-04-04T12:16:14.005Z</time></trkpt><trkpt lat="45.051981343510846" lon="9.597965572452942"><ele>59.0</ele><time>2026-04-04T12:16:17.005Z</time></trkpt><trkpt lat="45.05197225161248" lon="9.597834844395393"><ele>59.0</ele><time>2026-04-04T12:16:20.005Z</time></trkpt><trkpt lat="45.051972306853756" lon="9.597745349810705"><ele>59.0</ele><time>2026-04-04T12:16:22.005Z</time></trkpt><trkpt lat="45.05197346990315" lon="9.597623984622192"><ele>59.00000000000001</ele><time>2026-04-04T12:16:25.005Z</time></trkpt><trkpt lat="45.05197127226979" lon="9.597498226694272"><ele>59.0</ele><time>2026-04-04T12:16:28.006Z</time></trkpt><trkpt lat="45.05197068005901" lon="9.59736892970082"><ele>59.0</ele><time>2026-04-04T12:16:31.006Z</time></trkpt><trkpt lat="45.05196490074871" lon="9.597277372104305"><ele>59.0</ele><time>2026-04-04T12:16:33.006Z</time></trkpt><trkpt lat="45.05197362655146" lon="9.597151846621657"><ele>59.0</ele><time>2026-04-04T12:16:36.006Z</time></trkpt><trkpt lat="45.052025575468164" lon="9.597060890564425"><ele>59.0</ele><time>2026-04-04T12:16:39.006Z</time></trkpt><trkpt lat="45.052093366209625" lon="9.59706382975468"><ele>59.0</ele><time>2026-04-04T12:16:41.006Z</time></trkpt><trkpt lat="45.05215648553248" lon="9.597057504241565"><ele>59.0</ele><time>2026-04-04T12:16:43.006Z</time></trkpt><trkpt lat="45.05221850323042" lon="9.597038409695466"><ele>59.0</ele><time>2026-04-04T12:16:45.006Z</time></trkpt><trkpt lat="45.052290421204184" lon="9.596978449985368"><ele>59.16666666666667</ele><time>2026-04-04T12:16:48.006Z</time></trkpt><trkpt lat="45.052292448495464" lon="9.596843938093349"><ele>59.333333333333336</ele><time>2026-04-04T12:16:51.006Z</time></trkpt><trkpt lat="45.05227429494719" lon="9.596749317495474"><ele>59.5</ele><time>2026-04-04T12:16:53.006Z</time></trkpt><trkpt lat="45.05225642253933" lon="9.596643814113014"><ele>59.66666666666667</ele><time>2026-04-04T12:16:55.006Z</time></trkpt><trkpt lat="45.052235149657925" lon="9.596537592276073"><ele>59.833333333333336</ele><time>2026-04-04T12:16:57.006Z</time></trkpt><trkpt lat="45.05221233204248" lon="9.59643942589564"><ele>60.0</ele><time>2026-04-04T12:16:59.006Z</time></trkpt><trkpt lat="45.05220269463693" lon="9.596341468007497"><ele>60.0</ele><time>2026-04-04T12:17:01.006Z</time></trkpt><trkpt lat="45.05217991335686" lon="9.596211926825111"><ele>60.0</ele><time>2026-04-04T12:17:04.006Z</time></trkpt><trkpt lat="45.052157701944054" lon="9.59611710490586"><ele>60.0</ele><time>2026-04-04T12:17:06.006Z</time></trkpt><trkpt lat="45.052141802692276" lon="9.596015451571553"><ele>60.0</ele><time>2026-04-04T12:17:08.006Z</time></trkpt><trkpt lat="45.05213626200897" lon="9.595898777653662"><ele>60.0</ele><time>2026-04-04T12:17:10.006Z</time></trkpt><trkpt lat="45.052130414676675" lon="9.595783241534088"><ele>60.0</ele><time>2026-04-04T12:17:12.006Z</time></trkpt><trkpt lat="45.052117375297385" lon="9.59566308754772"><ele>60.0</ele><time>2026-04-04T12:17:14.006Z</time></trkpt><trkpt lat="45.052116877051425" lon="9.595545849243063"><ele>60.0</ele><time>2026-04-04T12:17:16.006Z</time></trkpt><trkpt lat="45.0521240050968" lon="9.595429562397415"><ele>60.0</ele><time>2026-04-04T12:17:18.006Z</time></trkpt><trkpt lat="45.052129573734476" lon="9.595309358281629"><ele>60.0</ele><time>2026-04-04T12:17:20.006Z</time></trkpt><trkpt lat="45.05213391173154" lon="9.59518483079784"><ele>60.0</ele><time>2026-04-04T12:17:22.006Z</time></trkpt><trkpt lat="45.052134055099465" lon="9.595062588844035"><ele>60.0</ele><time>2026-04-04T12:17:24.006Z</time></trkpt><trkpt lat="45.05212715403449" lon="9.594950922433252"><ele>60.0</ele><time>2026-04-04T12:17:26.006Z</time></trkpt><trkpt lat="45.052126242772545" lon="9.594846569416145"><ele>60.0</ele><time>2026-04-04T12:17:28.006Z</time></trkpt><trkpt lat="45.05213203915965" lon="9.594724339373638"><ele>60.0</ele><time>2026-04-04T12:17:30.006Z</time></trkpt><trkpt lat="45.05212838183558" lon="9.594601939181"><ele>60.0</ele><time>2026-04-04T12:17:32.006Z</time></trkpt><trkpt lat="45.0521369541942" lon="9.594474339866284"><ele>60.0</ele><time>2026-04-04T12:17:34.006Z</time></trkpt><trkpt lat="45.0521385635919" lon="9.594346698673627"><ele>60.0</ele><time>2026-04-04T12:17:36.006Z</time></trkpt><trkpt lat="45.052138159672495" lon="9.594215963300162"><ele>59.8</ele><time>2026-04-04T12:17:38.006Z</time></trkpt><trkpt lat="45.05214162892902" lon="9.594082975147439"><ele>59.6</ele><time>2026-04-04T12:17:40.006Z</time></trkpt><trkpt lat="45.052141205985976" lon="9.5939530928641"><ele>59.400000000000006</ele><time>2026-04-04T12:17:42.006Z</time></trkpt><trkpt lat="45.052143492404625" lon="9.59381860901638"><ele>59.2</ele><time>2026-04-04T12:17:44.006Z</time></trkpt><trkpt lat="45.052148740851706" lon="9.593687851407344"><ele>59.0</ele><time>2026-04-04T12:17:46.006Z</time></trkpt><trkpt lat="45.052146506004966" lon="9.593562170421066"><ele>59.0</ele><time>2026-04-04T12:17:48.006Z</time></trkpt><trkpt lat="45.05215857978946" lon="9.593433024502492"><ele>59.00000000000001</ele><time>2026-04-04T12:17:50.006Z</time></trkpt><trkpt lat="45.052154330352174" lon="9.593300538163206"><ele>59.00000000000001</ele><time>2026-04-04T12:17:52.006Z</time></trkpt><trkpt lat="45.05215608783137" lon="9.593169987549867"><ele>59.0</ele><time>2026-04-04T12:17:54.006Z</time></trkpt><trkpt lat="45.05215262085426" lon="9.593041913722095"><ele>59.0</ele><time>2026-04-04T12:17:56.006Z</time></trkpt><trkpt lat="45.0521491836903" lon="9.592917446708972"><ele>59.2</ele><time>2026-04-04T12:17:58.006Z</time></trkpt><trkpt lat="45.05214811143684" lon="9.592786000269301"><ele>59.400000000000006</ele><time>2026-04-04T12:18:00.006Z</time></trkpt><trkpt lat="45.05215034096699" lon="9.592657576679528"><ele>59.6</ele><time>2026-04-04T12:18:02.006Z</time></trkpt><trkpt lat="45.052144981431354" lon="9.592528707006007"><ele>59.8</ele><time>2026-04-04T12:18:04.006Z</time></trkpt><trkpt lat="45.0521350845468" lon="9.592399783943787"><ele>60.0</ele><time>2026-04-04T12:18:06.006Z</time></trkpt><trkpt lat="45.05212848790231" lon="9.592265642865613"><ele>60.0</ele><time>2026-04-04T12:18:08.006Z</time></trkpt><trkpt lat="45.05211713063102" lon="9.592138094335745"><ele>60.0</ele><time>2026-04-04T12:18:10.006Z</time></trkpt><trkpt lat="45.05209894731071" lon="9.592016687323524"><ele>60.0</ele><time>2026-04-04T12:18:12.006Z</time></trkpt><trkpt lat="45.05208247152864" lon="9.591888773584284"><ele>60.0</ele><time>2026-04-04T12:18:14.006Z</time></trkpt><trkpt lat="45.05206583865259" lon="9.591756978503273"><ele>60.0</ele><time>2026-04-04T12:18:16.006Z</time></trkpt><trkpt lat="45.05205518802496" lon="9.591620570352156"><ele>60.4</ele><time>2026-04-04T12:18:18.006Z</time></trkpt><trkpt lat="45.05203904163623" lon="9.591485634690429"><ele>60.8</ele><time>2026-04-04T12:18:20.006Z</time></trkpt><trkpt lat="45.052024456743375" lon="9.591346699294034"><ele>61.2</ele><time>2026-04-04T12:18:22.006Z</time></trkpt><trkpt lat="45.052013934741844" lon="9.591207267406329"><ele>61.6</ele><time>2026-04-04T12:18:24.006Z</time></trkpt><trkpt lat="45.05199999672357" lon="9.591070280471834"><ele>62.0</ele><time>2026-04-04T12:18:26.006Z</time></trkpt><trkpt lat="45.05198304779842" lon="9.59093580151252"><ele>62.0</ele><time>2026-04-04T12:18:28.006Z</time></trkpt><trkpt lat="45.051991513541836" lon="9.590795682166123"><ele>62.0</ele><time>2026-04-04T12:18:30.006Z</time></trkpt><trkpt lat="45.05197733361473" lon="9.590660094224681"><ele>62.0</ele><time>2026-04-04T12:18:32.006Z</time></trkpt><trkpt lat="45.051954704902954" lon="9.59052721676631"><ele>62.0</ele><time>2026-04-04T12:18:34.006Z</time></trkpt><trkpt lat="45.05193938250846" lon="9.590389011677154"><ele>62.0</ele><time>2026-04-04T12:18:36.006Z</time></trkpt><trkpt lat="45.051923368435304" lon="9.590257331159359"><ele>62.400000000000006</ele><time>2026-04-04T12:18:38.006Z</time></trkpt><trkpt lat="45.05191013173523" lon="9.59012259326115"><ele>62.800000000000004</ele><time>2026-04-04T12:18:40.006Z</time></trkpt><trkpt lat="45.05189382441715" lon="9.589992992684618"><ele>63.2</ele><time>2026-04-04T12:18:42.006Z</time></trkpt><trkpt lat="45.051889268922494" lon="9.589860634386339"><ele>63.6</ele><time>2026-04-04T12:18:44.006Z</time></trkpt><trkpt lat="45.05187159832454" lon="9.58973829999767"><ele>64.0</ele><time>2026-04-04T12:18:46.006Z</time></trkpt><trkpt lat="45.051856576208905" lon="9.589613833453136"><ele>63.49999999999999</ele><time>2026-04-04T12:18:48.006Z</time></trkpt><trkpt lat="45.05185142817668" lon="9.589485897230517"><ele>63.0</ele><time>2026-04-04T12:18:50.006Z</time></trkpt><trkpt lat="45.05183192289464" lon="9.58936209202043"><ele>62.5</ele><time>2026-04-04T12:18:52.006Z</time></trkpt><trkpt lat="45.05183745465872" lon="9.589244004246535"><ele>62.0</ele><time>2026-04-04T12:18:54.006Z</time></trkpt><trkpt lat="45.05183311664942" lon="9.589139891575694"><ele>61.49999999999999</ele><time>2026-04-04T12:18:56.006Z</time></trkpt><trkpt lat="45.051750002438084" lon="9.58908881729425"><ele>61.0</ele><time>2026-04-04T12:18:57.006Z</time></trkpt><trkpt lat="45.05171239491186" lon="9.588963490653903"><ele>61.0</ele><time>2026-04-04T12:18:59.006Z</time></trkpt><trkpt lat="45.051674059640966" lon="9.588849671542208"><ele>60.99999999999999</ele><time>2026-04-04T12:19:01.006Z</time></trkpt><trkpt lat="45.051629496046054" lon="9.58873255576251"><ele>60.99999999999999</ele><time>2026-04-04T12:19:03.006Z</time></trkpt><trkpt lat="45.05157481859555" lon="9.588625288459827"><ele>61.0</ele><time>2026-04-04T12:19:05.006Z</time></trkpt><trkpt lat="45.0515122711289" lon="9.588530135646307"><ele>61.0</ele><time>2026-04-04T12:19:07.006Z</time></trkpt><trkpt lat="45.051450862130594" lon="9.588432324402484"><ele>61.4</ele><time>2026-04-04T12:19:09.006Z</time></trkpt><trkpt lat="45.05138653962368" lon="9.588335522745597"><ele>61.8</ele><time>2026-04-04T12:19:11.006Z</time></trkpt><trkpt lat="45.05131999270946" lon="9.588242702029655"><ele>62.199999999999996</ele><time>2026-04-04T12:19:13.006Z</time></trkpt><trkpt lat="45.051254892320536" lon="9.588153111690449"><ele>62.599999999999994</ele><time>2026-04-04T12:19:15.006Z</time></trkpt><trkpt lat="45.05118021909037" lon="9.588064003570473"><ele>63.0</ele><time>2026-04-04T12:19:17.006Z</time></trkpt><trkpt lat="45.05110799859001" lon="9.587974862202891"><ele>63.0</ele><time>2026-04-04T12:19:19.006Z</time></trkpt><trkpt lat="45.05104005242229" lon="9.587882010528535"><ele>63.0</ele><time>2026-04-04T12:19:21.006Z</time></trkpt><trkpt lat="45.050971101043665" lon="9.587786507726218"><ele>63.0</ele><time>2026-04-04T12:19:23.007Z</time></trkpt><trkpt lat="45.05090105928428" lon="9.587694810951719"><ele>63.0</ele><time>2026-04-04T12:19:25.007Z</time></trkpt><trkpt lat="45.05083151690615" lon="9.587602706976144"><ele>63.0</ele><time>2026-04-04T12:19:27.007Z</time></trkpt><trkpt lat="45.05076178124476" lon="9.587515273729004"><ele>62.8</ele><time>2026-04-04T12:19:29.007Z</time></trkpt><trkpt lat="45.05069537069973" lon="9.587419917321009"><ele>62.599999999999994</ele><time>2026-04-04T12:19:31.007Z</time></trkpt><trkpt lat="45.050627307024385" lon="9.587322206876113"><ele>62.400000000000006</ele><time>2026-04-04T12:19:33.007Z</time></trkpt><trkpt lat="45.05055592049728" lon="9.587238107543666"><ele>62.2</ele><time>2026-04-04T12:19:35.007Z</time></trkpt><trkpt lat="45.05049760269375" lon="9.587145908720304"><ele>62.0</ele><time>2026-04-04T12:19:37.007Z</time></trkpt><trkpt lat="45.050435784892045" lon="9.587061754199516"><ele>61.6</ele><time>2026-04-04T12:19:39.007Z</time></trkpt><trkpt lat="45.05036719124544" lon="9.586968129039889"><ele>61.2</ele><time>2026-04-04T12:19:41.007Z</time></trkpt><trkpt lat="45.050293064958296" lon="9.586880863058818"><ele>60.8</ele><time>2026-04-04T12:19:43.007Z</time></trkpt><trkpt lat="45.05022188968628" lon="9.586787877251384"><ele>60.4</ele><time>2026-04-04T12:19:44.999Z</time></trkpt><trkpt lat="45.05015350325899" lon="9.586689418606547"><ele>60.0</ele><time>2026-04-04T12:19:46.999Z</time></trkpt><trkpt lat="45.05008412262756" lon="9.586599039200639"><ele>60.0</ele><time>2026-04-04T12:19:48.999Z</time></trkpt><trkpt lat="45.05001670281496" lon="9.586504726749439"><ele>60.0</ele><time>2026-04-04T12:19:50.999Z</time></trkpt><trkpt lat="45.049946578878846" lon="9.58642090240576"><ele>60.0</ele><time>2026-04-04T12:19:52.999Z</time></trkpt><trkpt lat="45.049875007303335" lon="9.586328377597177"><ele>60.0</ele><time>2026-04-04T12:19:54.999Z</time></trkpt><trkpt lat="45.04979809769523" lon="9.586239810476068"><ele>60.0</ele><time>2026-04-04T12:19:56.999Z</time></trkpt><trkpt lat="45.04973481347184" lon="9.586140865479864"><ele>60.4</ele><time>2026-04-04T12:19:58.999Z</time></trkpt><trkpt lat="45.04966213480832" lon="9.58604461676264"><ele>60.8</ele><time>2026-04-04T12:20:00.999Z</time></trkpt><trkpt lat="45.049600929795226" lon="9.585938522726071"><ele>61.2</ele><time>2026-04-04T12:20:02.999Z</time></trkpt><trkpt lat="45.04954344208739" lon="9.585819599049838"><ele>61.6</ele><time>2026-04-04T12:20:04.999Z</time></trkpt><trkpt lat="45.04949551185312" lon="9.585691175577757"><ele>62.0</ele><time>2026-04-04T12:20:06.999Z</time></trkpt><trkpt lat="45.049441984345194" lon="9.585560844245647"><ele>62.0</ele><time>2026-04-04T12:20:08.999Z</time></trkpt><trkpt lat="45.049396356669305" lon="9.58543678247425"><ele>62.0</ele><time>2026-04-04T12:20:10.999Z</time></trkpt><trkpt lat="45.04934148442798" lon="9.585330128712087"><ele>62.0</ele><time>2026-04-04T12:20:12.999Z</time></trkpt><trkpt lat="45.04929354420023" lon="9.585228717408844"><ele>62.0</ele><time>2026-04-04T12:20:14.999Z</time></trkpt><trkpt lat="45.04924602922201" lon="9.58511493513328"><ele>62.0</ele><time>2026-04-04T12:20:16.999Z</time></trkpt><trkpt lat="45.049191233889815" lon="9.585000805379432"><ele>62.0</ele><time>2026-04-04T12:20:18.999Z</time></trkpt><trkpt lat="45.04914707144741" lon="9.584878593060623"><ele>62.0</ele><time>2026-04-04T12:20:20.999Z</time></trkpt><trkpt lat="45.04909809962106" lon="9.584764396760782"><ele>62.0</ele><time>2026-04-04T12:20:22.999Z</time></trkpt><trkpt lat="45.049048522367066" lon="9.584643657620651"><ele>62.0</ele><time>2026-04-04T12:20:24.999Z</time></trkpt><trkpt lat="45.04899534265144" lon="9.584529364804602"><ele>62.0</ele><time>2026-04-04T12:20:26.999Z</time></trkpt><trkpt lat="45.04895040653527" lon="9.584414072861366"><ele>62.0</ele><time>2026-04-04T12:20:28.999Z</time></trkpt><trkpt lat="45.04890450507031" lon="9.584293107282322"><ele>62.0</ele><time>2026-04-04T12:20:31Z</time></trkpt><trkpt lat="45.048857689787035" lon="9.584179847852818"><ele>62.0</ele><time>2026-04-04T12:20:32.999Z</time></trkpt><trkpt lat="45.04880512373728" lon="9.584066944709678"><ele>62.0</ele><time>2026-04-04T12:20:34.999Z</time></trkpt><trkpt lat="45.04875355480517" lon="9.583945687990544"><ele>62.0</ele><time>2026-04-04T12:20:37Z</time></trkpt><trkpt lat="45.04870213928285" lon="9.583827307365146"><ele>62.0</ele><time>2026-04-04T12:20:38.999Z</time></trkpt><trkpt lat="45.048654317628035" lon="9.583707119787622"><ele>62.0</ele><time>2026-04-04T12:20:40.999Z</time></trkpt><trkpt lat="45.04860118752697" lon="9.583588164505569"><ele>62.0</ele><time>2026-04-04T12:20:42.999Z</time></trkpt><trkpt lat="45.048551526576176" lon="9.58347422040225"><ele>62.0</ele><time>2026-04-04T12:20:44.999Z</time></trkpt><trkpt lat="45.04850851548773" lon="9.583355662574357"><ele>62.0</ele><time>2026-04-04T12:20:46.999Z</time></trkpt><trkpt lat="45.04846579352308" lon="9.583228725615738"><ele>62.0</ele><time>2026-04-04T12:20:48.999Z</time></trkpt><trkpt lat="45.04841419911069" lon="9.58312193006533"><ele>62.0</ele><time>2026-04-04T12:20:50.999Z</time></trkpt><trkpt lat="45.04836884232008" lon="9.583009908862234"><ele>62.0</ele><time>2026-04-04T12:20:52.999Z</time></trkpt><trkpt lat="45.04831832190189" lon="9.582898062286663"><ele>62.0</ele><time>2026-04-04T12:20:54.999Z</time></trkpt><trkpt lat="45.04827253067688" lon="9.582775634982236"><ele>62.0</ele><time>2026-04-04T12:20:56.999Z</time></trkpt><trkpt lat="45.04821978143979" lon="9.582665991623209"><ele>62.2</ele><time>2026-04-04T12:20:58.999Z</time></trkpt><trkpt lat="45.04817518796867" lon="9.582557282490349"><ele>62.400000000000006</ele><time>2026-04-04T12:21:00.999Z</time></trkpt><trkpt lat="45.048136679690664" lon="9.582453186764964"><ele>62.599999999999994</ele><time>2026-04-04T12:21:02.999Z</time></trkpt><trkpt lat="45.048087605104406" lon="9.58234031257197"><ele>62.8</ele><time>2026-04-04T12:21:04.999Z</time></trkpt><trkpt lat="45.048034441933574" lon="9.582227882474461"><ele>63.0</ele><time>2026-04-04T12:21:06.999Z</time></trkpt><trkpt lat="45.047983328667485" lon="9.58210770090523"><ele>63.0</ele><time>2026-04-04T12:21:08.999Z</time></trkpt><trkpt lat="45.04793468583269" lon="9.581996826574816"><ele>63.0</ele><time>2026-04-04T12:21:10.999Z</time></trkpt><trkpt lat="45.04788463800787" lon="9.581871913491806"><ele>63.0</ele><time>2026-04-04T12:21:12.999Z</time></trkpt><trkpt lat="45.047825287755856" lon="9.581745034315139"><ele>63.0</ele><time>2026-04-04T12:21:14.999Z</time></trkpt><trkpt lat="45.047776768759846" lon="9.581620566057092"><ele>63.0</ele><time>2026-04-04T12:21:16.999Z</time></trkpt><trkpt lat="45.04774323029859" lon="9.581480211923887"><ele>63.0</ele><time>2026-04-04T12:21:18.999Z</time></trkpt><trkpt lat="45.04769246900077" lon="9.58136026868873"><ele>63.0</ele><time>2026-04-04T12:21:20.999Z</time></trkpt><trkpt lat="45.04764204418365" lon="9.581241120516077"><ele>63.0</ele><time>2026-04-04T12:21:22.999Z</time></trkpt><trkpt lat="45.04758010003698" lon="9.581130186257466"><ele>63.0</ele><time>2026-04-04T12:21:24.999Z</time></trkpt><trkpt lat="45.047535738323525" lon="9.581003552601306"><ele>63.0</ele><time>2026-04-04T12:21:26.999Z</time></trkpt><trkpt lat="45.04748415305757" lon="9.58088180149128"><ele>63.0</ele><time>2026-04-04T12:21:28.999Z</time></trkpt><trkpt lat="45.04743278496554" lon="9.580768759427054"><ele>63.0</ele><time>2026-04-04T12:21:30.999Z</time></trkpt><trkpt lat="45.04738050613053" lon="9.580651058761749"><ele>63.0</ele><time>2026-04-04T12:21:32.999Z</time></trkpt><trkpt lat="45.0473383207492" lon="9.580525662880497"><ele>63.0</ele><time>2026-04-04T12:21:34.999Z</time></trkpt><trkpt lat="45.04728429005754" lon="9.580408827870219"><ele>63.0</ele><time>2026-04-04T12:21:36.999Z</time></trkpt><trkpt lat="45.04723435340153" lon="9.580296521397724"><ele>62.8</ele><time>2026-04-04T12:21:38.998Z</time></trkpt><trkpt lat="45.04718985553962" lon="9.580174530195375"><ele>62.599999999999994</ele><time>2026-04-04T12:21:40.998Z</time></trkpt><trkpt lat="45.04714192740808" lon="9.580058406990975"><ele>62.400000000000006</ele><time>2026-04-04T12:21:42.998Z</time></trkpt><trkpt lat="45.04709012693724" lon="9.579941374883525"><ele>62.2</ele><time>2026-04-04T12:21:44.997Z</time></trkpt><trkpt lat="45.047034867650616" lon="9.579826842574441"><ele>62.0</ele><time>2026-04-04T12:21:46.997Z</time></trkpt><trkpt lat="45.04697658426627" lon="9.579700021718754"><ele>62.0</ele><time>2026-04-04T12:21:48.997Z</time></trkpt><trkpt lat="45.04694457327664" lon="9.579568587125697"><ele>62.0</ele><time>2026-04-04T12:21:50.997Z</time></trkpt><trkpt lat="45.04688720594511" lon="9.579443765735903"><ele>62.0</ele><time>2026-04-04T12:21:52.996Z</time></trkpt><trkpt lat="45.04683281185552" lon="9.579321009512332"><ele>62.0</ele><time>2026-04-04T12:21:54.996Z</time></trkpt><trkpt lat="45.04678113870193" lon="9.579198891294038"><ele>62.0</ele><time>2026-04-04T12:21:56.996Z</time></trkpt><trkpt lat="45.04673172610405" lon="9.579076809660696"><ele>62.0</ele><time>2026-04-04T12:21:58.996Z</time></trkpt><trkpt lat="45.04669011078186" lon="9.578952477210334"><ele>62.0</ele><time>2026-04-04T12:22:00.996Z</time></trkpt><trkpt lat="45.04664626347941" lon="9.578820559833849"><ele>62.0</ele><time>2026-04-04T12:22:02.996Z</time></trkpt><trkpt lat="45.04660404050202" lon="9.578690702956894"><ele>62.0</ele><time>2026-04-04T12:22:04.996Z</time></trkpt><trkpt lat="45.04656437183958" lon="9.578565836927064"><ele>62.0</ele><time>2026-04-04T12:22:06.995Z</time></trkpt><trkpt lat="45.04652501255289" lon="9.578437351458108"><ele>62.0</ele><time>2026-04-04T12:22:08.995Z</time></trkpt><trkpt lat="45.046484510596585" lon="9.57831154316547"><ele>62.0</ele><time>2026-04-04T12:22:10.995Z</time></trkpt><trkpt lat="45.0464468713597" lon="9.578185985007972"><ele>62.0</ele><time>2026-04-04T12:22:12.995Z</time></trkpt><trkpt lat="45.046406852965276" lon="9.578066969490086"><ele>62.0</ele><time>2026-04-04T12:22:14.995Z</time></trkpt><trkpt lat="45.046368553391915" lon="9.577944793396833"><ele>62.0</ele><time>2026-04-04T12:22:16.995Z</time></trkpt><trkpt lat="45.04632643317556" lon="9.577824836326252"><ele>61.8</ele><time>2026-04-04T12:22:18.995Z</time></trkpt><trkpt lat="45.0462856519763" lon="9.57770372127387"><ele>61.6</ele><time>2026-04-04T12:22:20.995Z</time></trkpt><trkpt lat="45.04624056663537" lon="9.577587778979632"><ele>61.39999999999999</ele><time>2026-04-04T12:22:22.995Z</time></trkpt><trkpt lat="45.04620174351066" lon="9.577462483235601"><ele>61.199999999999996</ele><time>2026-04-04T12:22:24.995Z</time></trkpt><trkpt lat="45.046164683236924" lon="9.577344385286787"><ele>61.0</ele><time>2026-04-04T12:22:26.995Z</time></trkpt><trkpt lat="45.04613095043907" lon="9.577223472742858"><ele>60.99999999999999</ele><time>2026-04-04T12:22:28.995Z</time></trkpt><trkpt lat="45.04609214316604" lon="9.577108495586197"><ele>61.0</ele><time>2026-04-04T12:22:30.995Z</time></trkpt><trkpt lat="45.04606034543116" lon="9.576995344841944"><ele>61.0</ele><time>2026-04-04T12:22:32.995Z</time></trkpt><trkpt lat="45.046026941761724" lon="9.576882944215722"><ele>61.0</ele><time>2026-04-04T12:22:34.995Z</time></trkpt><trkpt lat="45.04598846103873" lon="9.576770734541487"><ele>60.99999999999999</ele><time>2026-04-04T12:22:36.995Z</time></trkpt><trkpt lat="45.04595075479505" lon="9.576657260738006"><ele>61.0</ele><time>2026-04-04T12:22:38.994Z</time></trkpt><trkpt lat="45.04590775748784" lon="9.576537799577373"><ele>61.199999999999996</ele><time>2026-04-04T12:22:40.994Z</time></trkpt><trkpt lat="45.045863741490415" lon="9.576419477964903"><ele>61.39999999999999</ele><time>2026-04-04T12:22:42.995Z</time></trkpt><trkpt lat="45.0458224581552" lon="9.576304442811953"><ele>61.6</ele><time>2026-04-04T12:22:44.994Z</time></trkpt><trkpt lat="45.045782937719814" lon="9.576183802417203"><ele>61.8</ele><time>2026-04-04T12:22:46.995Z</time></trkpt><trkpt lat="45.04573932763517" lon="9.576060022710223"><ele>62.0</ele><time>2026-04-04T12:22:48.995Z</time></trkpt><trkpt lat="45.0456967950087" lon="9.57593767326603"><ele>62.2</ele><time>2026-04-04T12:22:50.995Z</time></trkpt><trkpt lat="45.045655724055486" lon="9.575814622703533"><ele>62.400000000000006</ele><time>2026-04-04T12:22:52.995Z</time></trkpt><trkpt lat="45.04561407276715" lon="9.575692109220643"><ele>62.599999999999994</ele><time>2026-04-04T12:22:54.995Z</time></trkpt><trkpt lat="45.04557962275744" lon="9.575569122336699"><ele>62.8</ele><time>2026-04-04T12:22:56.995Z</time></trkpt><trkpt lat="45.045540131728785" lon="9.575447404182052"><ele>63.0</ele><time>2026-04-04T12:22:58.995Z</time></trkpt><trkpt lat="45.045502488116085" lon="9.575321638252435"><ele>63.2</ele><time>2026-04-04T12:23:00.995Z</time></trkpt><trkpt lat="45.045458604176446" lon="9.575195640889948"><ele>63.4</ele><time>2026-04-04T12:23:02.995Z</time></trkpt><trkpt lat="45.04541220673353" lon="9.575062603950665"><ele>63.60000000000001</ele><time>2026-04-04T12:23:04.995Z</time></trkpt><trkpt lat="45.04537584795137" lon="9.574921197960121"><ele>63.800000000000004</ele><time>2026-04-04T12:23:06.995Z</time></trkpt><trkpt lat="45.04533407661583" lon="9.57479004856582"><ele>64.0</ele><time>2026-04-04T12:23:08.995Z</time></trkpt><trkpt lat="45.045295032073504" lon="9.574663970091008"><ele>64.0</ele><time>2026-04-04T12:23:10.995Z</time></trkpt><trkpt lat="45.045254814817305" lon="9.574530743201578"><ele>64.0</ele><time>2026-04-04T12:23:12.995Z</time></trkpt><trkpt lat="45.04521447071621" lon="9.574406175709425"><ele>64.0</ele><time>2026-04-04T12:23:14.995Z</time></trkpt><trkpt lat="45.04517802424974" lon="9.574281437538684"><ele>64.0</ele><time>2026-04-04T12:23:16.995Z</time></trkpt><trkpt lat="45.045137632309356" lon="9.574159310442097"><ele>64.0</ele><time>2026-04-04T12:23:18.995Z</time></trkpt><trkpt lat="45.04510234533681" lon="9.574042589077932"><ele>64.0</ele><time>2026-04-04T12:23:20.995Z</time></trkpt><trkpt lat="45.04505659380164" lon="9.573908428645636"><ele>64.0</ele><time>2026-04-04T12:23:22.995Z</time></trkpt><trkpt lat="45.04501081110291" lon="9.57377998833733"><ele>64.0</ele><time>2026-04-04T12:23:24.995Z</time></trkpt><trkpt lat="45.04498240613015" lon="9.573645062045692"><ele>64.0</ele><time>2026-04-04T12:23:26.995Z</time></trkpt><trkpt lat="45.044940649687845" lon="9.573516065560527"><ele>64.0</ele><time>2026-04-04T12:23:28.995Z</time></trkpt><trkpt lat="45.04489028989852" lon="9.573389344050145"><ele>63.800000000000004</ele><time>2026-04-04T12:23:30.995Z</time></trkpt><trkpt lat="45.04484484594655" lon="9.57325689123162"><ele>63.60000000000001</ele><time>2026-04-04T12:23:32.995Z</time></trkpt><trkpt lat="45.04480179766177" lon="9.573129066201972"><ele>63.4</ele><time>2026-04-04T12:23:34.995Z</time></trkpt><trkpt lat="45.04477376866631" lon="9.57299494722172"><ele>63.2</ele><time>2026-04-04T12:23:36.995Z</time></trkpt><trkpt lat="45.04472396308231" lon="9.57287612219588"><ele>63.0</ele><time>2026-04-04T12:23:38.995Z</time></trkpt><trkpt lat="45.04469583181852" lon="9.572740088262757"><ele>63.0</ele><time>2026-04-04T12:23:40.995Z</time></trkpt><trkpt lat="45.04470564657799" lon="9.572603842244984"><ele>63.0</ele><time>2026-04-04T12:23:42.995Z</time></trkpt><trkpt lat="45.044719829028786" lon="9.572477607841675"><ele>63.0</ele><time>2026-04-04T12:23:44.995Z</time></trkpt><trkpt lat="45.044720642531345" lon="9.572342688340118"><ele>63.0</ele><time>2026-04-04T12:23:46.995Z</time></trkpt><trkpt lat="45.04473969383482" lon="9.572208559756664"><ele>63.0</ele><time>2026-04-04T12:23:48.995Z</time></trkpt><trkpt lat="45.04475526128506" lon="9.572071845003524"><ele>63.0</ele><time>2026-04-04T12:23:50.995Z</time></trkpt><trkpt lat="45.0447708588656" lon="9.57193141328166"><ele>63.0</ele><time>2026-04-04T12:23:52.995Z</time></trkpt><trkpt lat="45.044786782552286" lon="9.571791962095457"><ele>63.0</ele><time>2026-04-04T12:23:54.995Z</time></trkpt><trkpt lat="45.04480063103983" lon="9.571653791768655"><ele>63.0</ele><time>2026-04-04T12:23:56.995Z</time></trkpt><trkpt lat="45.044807187399215" lon="9.571514336705507"><ele>63.0</ele><time>2026-04-04T12:23:58.995Z</time></trkpt><trkpt lat="45.04480512749866" lon="9.571377565630673"><ele>63.0</ele><time>2026-04-04T12:24:00.995Z</time></trkpt><trkpt lat="45.04479152934314" lon="9.571245047891102"><ele>63.0</ele><time>2026-04-04T12:24:02.995Z</time></trkpt><trkpt lat="45.044754325865206" lon="9.571119595620205"><ele>63.0</ele><time>2026-04-04T12:24:04.995Z</time></trkpt><trkpt lat="45.04469434246127" lon="9.57100980635805"><ele>63.0</ele><time>2026-04-04T12:24:06.995Z</time></trkpt><trkpt lat="45.04462993300538" lon="9.570899523888526"><ele>63.0</ele><time>2026-04-04T12:24:08.995Z</time></trkpt><trkpt lat="45.04456712259961" lon="9.570782665147807"><ele>63.2</ele><time>2026-04-04T12:24:10.995Z</time></trkpt><trkpt lat="45.0445024445345" lon="9.570675953903848"><ele>63.4</ele><time>2026-04-04T12:24:12.995Z</time></trkpt><trkpt lat="45.04443964935705" lon="9.570558125152555"><ele>63.60000000000001</ele><time>2026-04-04T12:24:14.995Z</time></trkpt><trkpt lat="45.04439354822749" lon="9.570427463072988"><ele>63.800000000000004</ele><time>2026-04-04T12:24:16.995Z</time></trkpt><trkpt lat="45.04433404914327" lon="9.570315955779064"><ele>64.0</ele><time>2026-04-04T12:24:18.995Z</time></trkpt><trkpt lat="45.04427297341297" lon="9.570201368860163"><ele>64.0</ele><time>2026-04-04T12:24:20.995Z</time></trkpt><trkpt lat="45.044206420753355" lon="9.57009466975853"><ele>64.0</ele><time>2026-04-04T12:24:22.995Z</time></trkpt><trkpt lat="45.044143795982784" lon="9.5699773706944"><ele>64.0</ele><time>2026-04-04T12:24:24.995Z</time></trkpt><trkpt lat="45.044087018302804" lon="9.569853994006689"><ele>64.0</ele><time>2026-04-04T12:24:26.995Z</time></trkpt><trkpt lat="45.044022550077266" lon="9.569734806870049"><ele>64.0</ele><time>2026-04-04T12:24:28.995Z</time></trkpt><trkpt lat="45.04396956368752" lon="9.56961105397663"><ele>63.800000000000004</ele><time>2026-04-04T12:24:30.995Z</time></trkpt><trkpt lat="45.043909538795454" lon="9.569501697958765"><ele>63.60000000000001</ele><time>2026-04-04T12:24:32.995Z</time></trkpt><trkpt lat="45.0438602657824" lon="9.569367979514174"><ele>63.4</ele><time>2026-04-04T12:24:34.995Z</time></trkpt><trkpt lat="45.04379601545451" lon="9.569254934188633"><ele>63.2</ele><time>2026-04-04T12:24:36.995Z</time></trkpt><trkpt lat="45.04373480123069" lon="9.56913423903054"><ele>63.0</ele><time>2026-04-04T12:24:38.995Z</time></trkpt><trkpt lat="45.04368176015366" lon="9.569015287661204"><ele>63.0</ele><time>2026-04-04T12:24:40.995Z</time></trkpt><trkpt lat="45.04362287378319" lon="9.568900116764578"><ele>63.0</ele><time>2026-04-04T12:24:42.994Z</time></trkpt><trkpt lat="45.04356358450988" lon="9.568778592134114"><ele>63.0</ele><time>2026-04-04T12:24:44.994Z</time></trkpt><trkpt lat="45.04351087740952" lon="9.568654894857268"><ele>63.0</ele><time>2026-04-04T12:24:46.994Z</time></trkpt><trkpt lat="45.043453210966945" lon="9.568543016086553"><ele>63.0</ele><time>2026-04-04T12:24:48.994Z</time></trkpt><trkpt lat="45.04339753801239" lon="9.56843312076458"><ele>63.2</ele><time>2026-04-04T12:24:50.993Z</time></trkpt><trkpt lat="45.04334526323154" lon="9.568310249459486"><ele>63.4</ele><time>2026-04-04T12:24:52.994Z</time></trkpt><trkpt lat="45.04328152785946" lon="9.568197563326502"><ele>63.60000000000001</ele><time>2026-04-04T12:24:54.994Z</time></trkpt><trkpt lat="45.04323627604707" lon="9.568066521754337"><ele>63.800000000000004</ele><time>2026-04-04T12:24:56.993Z</time></trkpt><trkpt lat="45.043178498660154" lon="9.567951348700952"><ele>64.0</ele><time>2026-04-04T12:24:58.993Z</time></trkpt><trkpt lat="45.04310928160864" lon="9.567847949661838"><ele>64.0</ele><time>2026-04-04T12:25:00.993Z</time></trkpt><trkpt lat="45.043049313544955" lon="9.56773282415974"><ele>64.0</ele><time>2026-04-04T12:25:02.993Z</time></trkpt><trkpt lat="45.042991808396884" lon="9.567614758557507"><ele>64.0</ele><time>2026-04-04T12:25:04.993Z</time></trkpt><trkpt lat="45.04293704315551" lon="9.567501940876596"><ele>64.0</ele><time>2026-04-04T12:25:06.993Z</time></trkpt><trkpt lat="45.04288065389421" lon="9.567393340953315"><ele>64.0</ele><time>2026-04-04T12:25:08.993Z</time></trkpt><trkpt lat="45.04282275443704" lon="9.567279067790025"><ele>64.0</ele><time>2026-04-04T12:25:10.993Z</time></trkpt><trkpt lat="45.04276669860231" lon="9.567159538856053"><ele>64.0</ele><time>2026-04-04T12:25:12.994Z</time></trkpt><trkpt lat="45.04271569962575" lon="9.56703181984246"><ele>64.0</ele><time>2026-04-04T12:25:14.994Z</time></trkpt><trkpt lat="45.04265806082235" lon="9.566907121125029"><ele>64.0</ele><time>2026-04-04T12:25:16.994Z</time></trkpt><trkpt lat="45.04260649483556" lon="9.566785855911874"><ele>64.0</ele><time>2026-04-04T12:25:18.994Z</time></trkpt><trkpt lat="45.04256120423095" lon="9.566671128426234"><ele>64.0</ele><time>2026-04-04T12:25:20.994Z</time></trkpt><trkpt lat="45.042518865720425" lon="9.566561998757734"><ele>64.0</ele><time>2026-04-04T12:25:22.994Z</time></trkpt><trkpt lat="45.042470964853216" lon="9.56644108476681"><ele>64.0</ele><time>2026-04-04T12:25:24.994Z</time></trkpt><trkpt lat="45.04242296599433" lon="9.566321637624096"><ele>64.0</ele><time>2026-04-04T12:25:26.994Z</time></trkpt><trkpt lat="45.042368659763696" lon="9.566198296529732"><ele>64.0</ele><time>2026-04-04T12:25:28.994Z</time></trkpt><trkpt lat="45.04232041944922" lon="9.56607925327984"><ele>64.4</ele><time>2026-04-04T12:25:30.994Z</time></trkpt><trkpt lat="45.04226959628314" lon="9.565967728967763"><ele>64.80000000000001</ele><time>2026-04-04T12:25:32.994Z</time></trkpt><trkpt lat="45.04221888548461" lon="9.56584174945626"><ele>65.19999999999999</ele><time>2026-04-04T12:25:34.994Z</time></trkpt><trkpt lat="45.042166702121335" lon="9.565714714683365"><ele>65.6</ele><time>2026-04-04T12:25:36.994Z</time></trkpt><trkpt lat="45.04213007550693" lon="9.56557907587759"><ele>66.0</ele><time>2026-04-04T12:25:38.994Z</time></trkpt><trkpt lat="45.04207895627016" lon="9.565451366779811"><ele>66.16666666666667</ele><time>2026-04-04T12:25:40.994Z</time></trkpt><trkpt lat="45.042031983646595" lon="9.565334016995127"><ele>66.33333333333333</ele><time>2026-04-04T12:25:42.994Z</time></trkpt><trkpt lat="45.04198606552207" lon="9.565217021991899"><ele>66.5</ele><time>2026-04-04T12:25:44.994Z</time></trkpt><trkpt lat="45.04192276921723" lon="9.565118200973373"><ele>66.66666666666666</ele><time>2026-04-04T12:25:46.994Z</time></trkpt><trkpt lat="45.04187830049055" lon="9.565023257156238"><ele>66.83333333333333</ele><time>2026-04-04T12:25:48.994Z</time></trkpt><trkpt lat="45.041851549749616" lon="9.564918019102166"><ele>67.0</ele><time>2026-04-04T12:25:50.994Z</time></trkpt><trkpt lat="45.04182645604897" lon="9.564814826219383"><ele>67.0</ele><time>2026-04-04T12:25:52.994Z</time></trkpt><trkpt lat="45.04181082843028" lon="9.564719720695816"><ele>67.0</ele><time>2026-04-04T12:25:54.994Z</time></trkpt><trkpt lat="45.04178717113663" lon="9.56462363220792"><ele>67.0</ele><time>2026-04-04T12:25:56.994Z</time></trkpt><trkpt lat="45.04175764161678" lon="9.564510632819795"><ele>67.0</ele><time>2026-04-04T12:25:58.994Z</time></trkpt><trkpt lat="45.0417212690287" lon="9.564368965202398"><ele>67.0</ele><time>2026-04-04T12:26:00.994Z</time></trkpt><trkpt lat="45.04170885316732" lon="9.564208850264214"><ele>67.0</ele><time>2026-04-04T12:26:02.994Z</time></trkpt><trkpt lat="45.041676440405894" lon="9.564056667623742"><ele>66.6</ele><time>2026-04-04T12:26:04.994Z</time></trkpt><trkpt lat="45.0416429870542" lon="9.563908602466507"><ele>66.2</ele><time>2026-04-04T12:26:06.994Z</time></trkpt><trkpt lat="45.04160230920626" lon="9.563767316705745"><ele>65.8</ele><time>2026-04-04T12:26:08.994Z</time></trkpt><trkpt lat="45.041567614125405" lon="9.563623509707314"><ele>65.4</ele><time>2026-04-04T12:26:10.994Z</time></trkpt><trkpt lat="45.04153684472338" lon="9.563487986303297"><ele>65.0</ele><time>2026-04-04T12:26:12.994Z</time></trkpt><trkpt lat="45.04150934145567" lon="9.563346868136856"><ele>64.8</ele><time>2026-04-04T12:26:14.994Z</time></trkpt><trkpt lat="45.041478183754926" lon="9.56320655390366"><ele>64.6</ele><time>2026-04-04T12:26:16.994Z</time></trkpt><trkpt lat="45.04144566227972" lon="9.563062436991718"><ele>64.4</ele><time>2026-04-04T12:26:18.994Z</time></trkpt><trkpt lat="45.0414107823981" lon="9.562914616913377"><ele>64.2</ele><time>2026-04-04T12:26:20.994Z</time></trkpt><trkpt lat="45.04138096425639" lon="9.562767078141624"><ele>64.0</ele><time>2026-04-04T12:26:22.994Z</time></trkpt><trkpt lat="45.04134821190699" lon="9.562621790360856"><ele>64.0</ele><time>2026-04-04T12:26:24.994Z</time></trkpt><trkpt lat="45.0413176591174" lon="9.562478230280696"><ele>64.0</ele><time>2026-04-04T12:26:26.994Z</time></trkpt><trkpt lat="45.04128651027698" lon="9.562338436369728"><ele>64.0</ele><time>2026-04-04T12:26:28.994Z</time></trkpt><trkpt lat="45.041255580304274" lon="9.562197776131699"><ele>64.0</ele><time>2026-04-04T12:26:30.994Z</time></trkpt><trkpt lat="45.04122808732167" lon="9.562056308894798"><ele>64.0</ele><time>2026-04-04T12:26:32.994Z</time></trkpt><trkpt lat="45.04119399346648" lon="9.56190906244269"><ele>64.2</ele><time>2026-04-04T12:26:34.994Z</time></trkpt><trkpt lat="45.04116667155316" lon="9.561772380420866"><ele>64.4</ele><time>2026-04-04T12:26:36.994Z</time></trkpt><trkpt lat="45.041137222454225" lon="9.561643433525292"><ele>64.6</ele><time>2026-04-04T12:26:38.994Z</time></trkpt><trkpt lat="45.04110596687047" lon="9.561509032619638"><ele>64.8</ele><time>2026-04-04T12:26:40.994Z</time></trkpt><trkpt lat="45.041071887712874" lon="9.56137902344899"><ele>65.0</ele><time>2026-04-04T12:26:42.994Z</time></trkpt><trkpt lat="45.04103999738471" lon="9.561244620283114"><ele>65.0</ele><time>2026-04-04T12:26:44.994Z</time></trkpt><trkpt lat="45.041001264694025" lon="9.56110861431983"><ele>65.0</ele><time>2026-04-04T12:26:46.994Z</time></trkpt><trkpt lat="45.04096288747416" lon="9.560965095467129"><ele>65.0</ele><time>2026-04-04T12:26:48.994Z</time></trkpt><trkpt lat="45.040925616369975" lon="9.560824079452523"><ele>65.0</ele><time>2026-04-04T12:26:50.993Z</time></trkpt><trkpt lat="45.04088687990766" lon="9.560678456309173"><ele>65.0</ele><time>2026-04-04T12:26:52.993Z</time></trkpt><trkpt lat="45.040847908652566" lon="9.56054043617589"><ele>65.0</ele><time>2026-04-04T12:26:54.993Z</time></trkpt><trkpt lat="45.040809871054805" lon="9.560399509768061"><ele>65.0</ele><time>2026-04-04T12:26:56.993Z</time></trkpt><trkpt lat="45.040773320179845" lon="9.560260184408824"><ele>65.0</ele><time>2026-04-04T12:26:58.993Z</time></trkpt><trkpt lat="45.04073886924511" lon="9.56012044391953"><ele>65.0</ele><time>2026-04-04T12:27:00.993Z</time></trkpt><trkpt lat="45.04069593220932" lon="9.559975535807167"><ele>65.0</ele><time>2026-04-04T12:27:02.993Z</time></trkpt><trkpt lat="45.04065571626851" lon="9.55982844595808"><ele>65.4</ele><time>2026-04-04T12:27:04.993Z</time></trkpt><trkpt lat="45.04061884709174" lon="9.559679841754395"><ele>65.8</ele><time>2026-04-04T12:27:06.993Z</time></trkpt><trkpt lat="45.04058348732962" lon="9.55953885783889"><ele>66.2</ele><time>2026-04-04T12:27:08.993Z</time></trkpt><trkpt lat="45.040544113090846" lon="9.559403381695036"><ele>66.6</ele><time>2026-04-04T12:27:10.993Z</time></trkpt><trkpt lat="45.040527949572684" lon="9.559255930777734"><ele>67.0</ele><time>2026-04-04T12:27:12.993Z</time></trkpt><trkpt lat="45.0405537101584" lon="9.55910518488079"><ele>67.2</ele><time>2026-04-04T12:27:14.993Z</time></trkpt><trkpt lat="45.04056046138979" lon="9.558960110510526"><ele>67.4</ele><time>2026-04-04T12:27:16.993Z</time></trkpt><trkpt lat="45.040584787454165" lon="9.558823145473195"><ele>67.6</ele><time>2026-04-04T12:27:18.993Z</time></trkpt><trkpt lat="45.04060363568276" lon="9.55868313656918"><ele>67.8</ele><time>2026-04-04T12:27:20.994Z</time></trkpt><trkpt lat="45.04062453241326" lon="9.558538951482257"><ele>68.0</ele><time>2026-04-04T12:27:22.994Z</time></trkpt><trkpt lat="45.04064472708732" lon="9.558396103032372"><ele>67.6</ele><time>2026-04-04T12:27:24.994Z</time></trkpt><trkpt lat="45.04066425038821" lon="9.558255251976444"><ele>67.19999999999999</ele><time>2026-04-04T12:27:26.994Z</time></trkpt><trkpt lat="45.040690835330736" lon="9.558110301114763"><ele>66.8</ele><time>2026-04-04T12:27:28.994Z</time></trkpt><trkpt lat="45.04070780295413" lon="9.55796109484651"><ele>66.39999999999999</ele><time>2026-04-04T12:27:30.994Z</time></trkpt><trkpt lat="45.04072508409126" lon="9.55781626714618"><ele>66.0</ele><time>2026-04-04T12:27:32.994Z</time></trkpt><trkpt lat="45.040743826469416" lon="9.55768157449911"><ele>66.0</ele><time>2026-04-04T12:27:34.994Z</time></trkpt><trkpt lat="45.040765390281116" lon="9.557552282753282"><ele>66.0</ele><time>2026-04-04T12:27:36.994Z</time></trkpt><trkpt lat="45.040781687081626" lon="9.557416814065768"><ele>66.0</ele><time>2026-04-04T12:27:38.994Z</time></trkpt><trkpt lat="45.04080366300658" lon="9.557273104119998"><ele>66.0</ele><time>2026-04-04T12:27:40.994Z</time></trkpt><trkpt lat="45.04082189229759" lon="9.55712048490658"><ele>66.0</ele><time>2026-04-04T12:27:42.994Z</time></trkpt><trkpt lat="45.040844483253814" lon="9.556963412626484"><ele>65.8</ele><time>2026-04-04T12:27:44.994Z</time></trkpt><trkpt lat="45.04086522404956" lon="9.556814252432702"><ele>65.6</ele><time>2026-04-04T12:27:46.994Z</time></trkpt><trkpt lat="45.040882613314736" lon="9.556658930408746"><ele>65.4</ele><time>2026-04-04T12:27:48.994Z</time></trkpt><trkpt lat="45.04089965776492" lon="9.556502161723866"><ele>65.2</ele><time>2026-04-04T12:27:50.994Z</time></trkpt><trkpt lat="45.040910144730645" lon="9.556348666125247"><ele>65.0</ele><time>2026-04-04T12:27:52.994Z</time></trkpt><trkpt lat="45.04091943353612" lon="9.556199551075693"><ele>65.6</ele><time>2026-04-04T12:27:54.994Z</time></trkpt><trkpt lat="45.04093518202303" lon="9.556053269569704"><ele>66.2</ele><time>2026-04-04T12:27:56.994Z</time></trkpt><trkpt lat="45.04094991867225" lon="9.555895498011397"><ele>66.8</ele><time>2026-04-04T12:27:58.994Z</time></trkpt><trkpt lat="45.040959611366205" lon="9.555735425160119"><ele>67.4</ele><time>2026-04-04T12:28:00.994Z</time></trkpt><trkpt lat="45.04097115934523" lon="9.555573335230244"><ele>68.0</ele><time>2026-04-04T12:28:02.994Z</time></trkpt><trkpt lat="45.04098270268654" lon="9.555414796182058"><ele>68.2</ele><time>2026-04-04T12:28:04.994Z</time></trkpt><trkpt lat="45.04099423959453" lon="9.555260045384433"><ele>68.4</ele><time>2026-04-04T12:28:06.994Z</time></trkpt><trkpt lat="45.041004866086666" lon="9.555114106955441"><ele>68.60000000000001</ele><time>2026-04-04T12:28:08.994Z</time></trkpt><trkpt lat="45.041016407105595" lon="9.554962843451106"><ele>68.8</ele><time>2026-04-04T12:28:10.994Z</time></trkpt><trkpt lat="45.041017499329975" lon="9.554807503298887"><ele>69.0</ele><time>2026-04-04T12:28:12.994Z</time></trkpt><trkpt lat="45.04101093007718" lon="9.554645320768744"><ele>69.25</ele><time>2026-04-04T12:28:14.994Z</time></trkpt><trkpt lat="45.04099978347661" lon="9.554483617225502"><ele>69.5</ele><time>2026-04-04T12:28:16.994Z</time></trkpt><trkpt lat="45.040974244194295" lon="9.554324908783547"><ele>69.75</ele><time>2026-04-04T12:28:18.994Z</time></trkpt><trkpt lat="45.040943387995945" lon="9.554176292615242"><ele>70.0</ele><time>2026-04-04T12:28:20.994Z</time></trkpt><trkpt lat="45.04091513499533" lon="9.554020970690967"><ele>70.0</ele><time>2026-04-04T12:28:22.994Z</time></trkpt><trkpt lat="45.04089405611474" lon="9.55385541941192"><ele>70.0</ele><time>2026-04-04T12:28:24.994Z</time></trkpt><trkpt lat="45.04084781117803" lon="9.553705488012131"><ele>70.0</ele><time>2026-04-04T12:28:26.994Z</time></trkpt><trkpt lat="45.0408304930021" lon="9.553565305901033"><ele>70.0</ele><time>2026-04-04T12:28:28.994Z</time></trkpt><trkpt lat="45.04079969206322" lon="9.553431087248743"><ele>70.0</ele><time>2026-04-04T12:28:30.994Z</time></trkpt><trkpt lat="45.0407687152276" lon="9.553299079100205"><ele>70.0</ele><time>2026-04-04T12:28:32.994Z</time></trkpt><trkpt lat="45.04074137005194" lon="9.553184780541988"><ele>70.0</ele><time>2026-04-04T12:28:34.994Z</time></trkpt><trkpt lat="45.04071237606935" lon="9.55306000804135"><ele>70.0</ele><time>2026-04-04T12:28:36.994Z</time></trkpt><trkpt lat="45.04068698773236" lon="9.552940176111848"><ele>70.0</ele><time>2026-04-04T12:28:38.994Z</time></trkpt><trkpt lat="45.04066064988882" lon="9.552830846259786"><ele>70.0</ele><time>2026-04-04T12:28:40.994Z</time></trkpt><trkpt lat="45.04063318004171" lon="9.55269863046073"><ele>70.0</ele><time>2026-04-04T12:28:42.994Z</time></trkpt><trkpt lat="45.04060601389824" lon="9.552558490302546"><ele>70.0</ele><time>2026-04-04T12:28:44.994Z</time></trkpt><trkpt lat="45.04059597218704" lon="9.552426596954785"><ele>70.0</ele><time>2026-04-04T12:28:46.994Z</time></trkpt><trkpt lat="45.04057082904775" lon="9.552284965236815"><ele>70.0</ele><time>2026-04-04T12:28:48.994Z</time></trkpt><trkpt lat="45.040559538240686" lon="9.55215814422729"><ele>70.0</ele><time>2026-04-04T12:28:50.994Z</time></trkpt><trkpt lat="45.04054003191733" lon="9.552028279532875"><ele>70.0</ele><time>2026-04-04T12:28:52.994Z</time></trkpt><trkpt lat="45.04050570632376" lon="9.551906767960563"><ele>69.8</ele><time>2026-04-04T12:28:54.994Z</time></trkpt><trkpt lat="45.04050124443132" lon="9.551775613204233"><ele>69.6</ele><time>2026-04-04T12:28:56.994Z</time></trkpt><trkpt lat="45.04048091458119" lon="9.551653692219528"><ele>69.4</ele><time>2026-04-04T12:28:58.993Z</time></trkpt><trkpt lat="45.04046007859059" lon="9.551534060492083"><ele>69.2</ele><time>2026-04-04T12:29:00.993Z</time></trkpt><trkpt lat="45.04043231598676" lon="9.551404934974409"><ele>69.0</ele><time>2026-04-04T12:29:02.992Z</time></trkpt><trkpt lat="45.0404120077408" lon="9.551275439073784"><ele>69.2</ele><time>2026-04-04T12:29:04.993Z</time></trkpt><trkpt lat="45.04038577465049" lon="9.551155865399886"><ele>69.4</ele><time>2026-04-04T12:29:06.993Z</time></trkpt><trkpt lat="45.0403633172759" lon="9.551030810319245"><ele>69.6</ele><time>2026-04-04T12:29:08.993Z</time></trkpt><trkpt lat="45.04034163718321" lon="9.550901409226313"><ele>69.8</ele><time>2026-04-04T12:29:10.993Z</time></trkpt><trkpt lat="45.04032084048927" lon="9.55077000888506"><ele>70.0</ele><time>2026-04-04T12:29:12.993Z</time></trkpt><trkpt lat="45.04029490158098" lon="9.550642494475687"><ele>70.0</ele><time>2026-04-04T12:29:14.993Z</time></trkpt><trkpt lat="45.04028062284514" lon="9.550503460489203"><ele>70.0</ele><time>2026-04-04T12:29:16.993Z</time></trkpt><trkpt lat="45.04026829658552" lon="9.55037816039532"><ele>70.0</ele><time>2026-04-04T12:29:18.993Z</time></trkpt><trkpt lat="45.040238301528326" lon="9.550239047243252"><ele>70.0</ele><time>2026-04-04T12:29:20.993Z</time></trkpt><trkpt lat="45.040207564397925" lon="9.550102898999063"><ele>70.0</ele><time>2026-04-04T12:29:22.993Z</time></trkpt><trkpt lat="45.040175909659744" lon="9.549954499377554"><ele>70.0</ele><time>2026-04-04T12:29:24.993Z</time></trkpt><trkpt lat="45.0401644611239" lon="9.549809933490017"><ele>70.0</ele><time>2026-04-04T12:29:26.993Z</time></trkpt><trkpt lat="45.04014149297934" lon="9.549672856710357"><ele>70.0</ele><time>2026-04-04T12:29:28.993Z</time></trkpt><trkpt lat="45.04010730489649" lon="9.549551190849527"><ele>70.0</ele><time>2026-04-04T12:29:30.993Z</time></trkpt><trkpt lat="45.0400721300157" lon="9.549434245930934"><ele>70.0</ele><time>2026-04-04T12:29:32.993Z</time></trkpt><trkpt lat="45.040049342393836" lon="9.54930888167468"><ele>70.0</ele><time>2026-04-04T12:29:34.993Z</time></trkpt><trkpt lat="45.03999399925267" lon="9.549168270760685"><ele>70.0</ele><time>2026-04-04T12:29:36.993Z</time></trkpt><trkpt lat="45.03994296846207" lon="9.549059174021368"><ele>70.0</ele><time>2026-04-04T12:29:38.993Z</time></trkpt><trkpt lat="45.039882912844114" lon="9.548942710773575"><ele>70.0</ele><time>2026-04-04T12:29:40.993Z</time></trkpt><trkpt lat="45.039820617423445" lon="9.54882542209471"><ele>70.0</ele><time>2026-04-04T12:29:42.993Z</time></trkpt><trkpt lat="45.03975695295109" lon="9.548708631730813"><ele>69.4</ele><time>2026-04-04T12:29:44.993Z</time></trkpt><trkpt lat="45.03968882390313" lon="9.54859775256255"><ele>68.8</ele><time>2026-04-04T12:29:46.993Z</time></trkpt><trkpt lat="45.03962339913256" lon="9.548485226008218"><ele>68.2</ele><time>2026-04-04T12:29:48.993Z</time></trkpt><trkpt lat="45.0395557817536" lon="9.548377636924405"><ele>67.6</ele><time>2026-04-04T12:29:50.993Z</time></trkpt><trkpt lat="45.03948724039303" lon="9.548285660585407"><ele>67.0</ele><time>2026-04-04T12:29:52.993Z</time></trkpt><trkpt lat="45.03939911693493" lon="9.548229005681694"><ele>67.0</ele><time>2026-04-04T12:29:54.993Z</time></trkpt><trkpt lat="45.03929537689252" lon="9.548214047896638"><ele>67.0</ele><time>2026-04-04T12:29:56.993Z</time></trkpt><trkpt lat="45.039191800603994" lon="9.548215535122191"><ele>67.0</ele><time>2026-04-04T12:29:58.993Z</time></trkpt><trkpt lat="45.03909078428531" lon="9.54821302462528"><ele>67.0</ele><time>2026-04-04T12:30:00.993Z</time></trkpt><trkpt lat="45.038984120203196" lon="9.54822115954074"><ele>67.0</ele><time>2026-04-04T12:30:02.993Z</time></trkpt><trkpt lat="45.03888152324389" lon="9.548222117934076"><ele>67.4</ele><time>2026-04-04T12:30:04.993Z</time></trkpt><trkpt lat="45.03878344338634" lon="9.548205397368335"><ele>67.80000000000001</ele><time>2026-04-04T12:30:06.993Z</time></trkpt><trkpt lat="45.03868725854019" lon="9.54820498228643"><ele>68.2</ele><time>2026-04-04T12:30:08.993Z</time></trkpt><trkpt lat="45.03858773312344" lon="9.548204552789374"><ele>68.60000000000001</ele><time>2026-04-04T12:30:10.993Z</time></trkpt><trkpt lat="45.038493663640736" lon="9.548223976150604"><ele>69.0</ele><time>2026-04-04T12:30:12.993Z</time></trkpt><trkpt lat="45.038396059463196" lon="9.548221664227883"><ele>69.4</ele><time>2026-04-04T12:30:14.993Z</time></trkpt><trkpt lat="45.038297246264044" lon="9.548210677889037"><ele>69.80000000000001</ele><time>2026-04-04T12:30:16.993Z</time></trkpt><trkpt lat="45.03820274700339" lon="9.548209923895607"><ele>70.19999999999999</ele><time>2026-04-04T12:30:18.993Z</time></trkpt><trkpt lat="45.038104344823594" lon="9.548216318516108"><ele>70.6</ele><time>2026-04-04T12:30:20.993Z</time></trkpt><trkpt lat="45.03800150401764" lon="9.548218146680835"><ele>71.0</ele><time>2026-04-04T12:30:22.993Z</time></trkpt><trkpt lat="45.03790155686528" lon="9.548213969327504"><ele>71.0</ele><time>2026-04-04T12:30:24.993Z</time></trkpt><trkpt lat="45.037802285169526" lon="9.54821739805415"><ele>71.0</ele><time>2026-04-04T12:30:26.993Z</time></trkpt><trkpt lat="45.03770212193112" lon="9.548214170801943"><ele>71.0</ele><time>2026-04-04T12:30:28.993Z</time></trkpt><trkpt lat="45.037603055547095" lon="9.548210388556946"><ele>71.0</ele><time>2026-04-04T12:30:30.993Z</time></trkpt><trkpt lat="45.0375062192939" lon="9.548210062939551"><ele>71.0</ele><time>2026-04-04T12:30:32.993Z</time></trkpt><trkpt lat="45.037406928066304" lon="9.548214842485468"><ele>70.8</ele><time>2026-04-04T12:30:34.993Z</time></trkpt><trkpt lat="45.037305686420126" lon="9.548207589678011"><ele>70.6</ele><time>2026-04-04T12:30:36.993Z</time></trkpt><trkpt lat="45.03720541343359" lon="9.548204252196697"><ele>70.4</ele><time>2026-04-04T12:30:38.993Z</time></trkpt><trkpt lat="45.037103974756604" lon="9.548207611738242"><ele>70.2</ele><time>2026-04-04T12:30:40.993Z</time></trkpt><trkpt lat="45.037002672745835" lon="9.548212399809833"><ele>70.0</ele><time>2026-04-04T12:30:42.993Z</time></trkpt><trkpt lat="45.03689936680345" lon="9.548211259394987"><ele>70.0</ele><time>2026-04-04T12:30:44.993Z</time></trkpt><trkpt lat="45.03679558578522" lon="9.548212700227408"><ele>70.0</ele><time>2026-04-04T12:30:46.993Z</time></trkpt><trkpt lat="45.036690719822815" lon="9.548215983535535"><ele>70.0</ele><time>2026-04-04T12:30:48.993Z</time></trkpt><trkpt lat="45.036585696146055" lon="9.54820114030605"><ele>70.0</ele><time>2026-04-04T12:30:50.993Z</time></trkpt><trkpt lat="45.03648117672752" lon="9.5482043599445"><ele>70.0</ele><time>2026-04-04T12:30:52.993Z</time></trkpt><trkpt lat="45.03637978240024" lon="9.548208615960517"><ele>70.0</ele><time>2026-04-04T12:30:54.993Z</time></trkpt><trkpt lat="45.036278240493054" lon="9.54820668176022"><ele>70.0</ele><time>2026-04-04T12:30:56.993Z</time></trkpt><trkpt lat="45.03617542643518" lon="9.548202641048084"><ele>70.0</ele><time>2026-04-04T12:30:58.993Z</time></trkpt><trkpt lat="45.036076814217424" lon="9.548203279344053"><ele>70.0</ele><time>2026-04-04T12:31:00.993Z</time></trkpt><trkpt lat="45.035979104036606" lon="9.548203869382638"><ele>70.0</ele><time>2026-04-04T12:31:02.992Z</time></trkpt><trkpt lat="45.03588057063804" lon="9.548203116179959"><ele>70.2</ele><time>2026-04-04T12:31:04.992Z</time></trkpt><trkpt lat="45.035782897752576" lon="9.548202244406196"><ele>70.4</ele><time>2026-04-04T12:31:06.993Z</time></trkpt><trkpt lat="45.035688003778816" lon="9.548198624976449"><ele>70.6</ele><time>2026-04-04T12:31:08.993Z</time></trkpt><trkpt lat="45.035589435406685" lon="9.548193489373768"><ele>70.8</ele><time>2026-04-04T12:31:10.992Z</time></trkpt><trkpt lat="45.035484390041944" lon="9.548190661007547"><ele>71.0</ele><time>2026-04-04T12:31:12.993Z</time></trkpt><trkpt lat="45.03538342278651" lon="9.548189355276294"><ele>71.0</ele><time>2026-04-04T12:31:14.992Z</time></trkpt><trkpt lat="45.03528153929483" lon="9.548192988219071"><ele>71.0</ele><time>2026-04-04T12:31:16.992Z</time></trkpt><trkpt lat="45.03518124383555" lon="9.548190726496246"><ele>71.0</ele><time>2026-04-04T12:31:18.992Z</time></trkpt><trkpt lat="45.03508516127931" lon="9.548190771380265"><ele>71.0</ele><time>2026-04-04T12:31:20.992Z</time></trkpt><trkpt lat="45.034983897110976" lon="9.548189373218642"><ele>71.0</ele><time>2026-04-04T12:31:22.992Z</time></trkpt><trkpt lat="45.034883104385166" lon="9.548188448386359"><ele>70.8</ele><time>2026-04-04T12:31:24.992Z</time></trkpt><trkpt lat="45.03478259652196" lon="9.548185839696275"><ele>70.6</ele><time>2026-04-04T12:31:26.992Z</time></trkpt><trkpt lat="45.034683143648984" lon="9.548191413223226"><ele>70.4</ele><time>2026-04-04T12:31:28.992Z</time></trkpt><trkpt lat="45.03458428311324" lon="9.548189087478422"><ele>70.2</ele><time>2026-04-04T12:31:30.992Z</time></trkpt><trkpt lat="45.03448383257101" lon="9.548185846868606"><ele>70.0</ele><time>2026-04-04T12:31:32.992Z</time></trkpt><trkpt lat="45.03438410453767" lon="9.548181105857271"><ele>70.0</ele><time>2026-04-04T12:31:34.992Z</time></trkpt><trkpt lat="45.034286882956295" lon="9.548179640787904"><ele>70.0</ele><time>2026-04-04T12:31:36.992Z</time></trkpt><trkpt lat="45.03418686599775" lon="9.548182901058388"><ele>70.0</ele><time>2026-04-04T12:31:38.992Z</time></trkpt><trkpt lat="45.0340883867616" lon="9.548178124330033"><ele>70.0</ele><time>2026-04-04T12:31:40.992Z</time></trkpt><trkpt lat="45.03399231137615" lon="9.548179480309017"><ele>70.0</ele><time>2026-04-04T12:31:42.992Z</time></trkpt><trkpt lat="45.033891186887935" lon="9.548195739439025"><ele>70.0</ele><time>2026-04-04T12:31:44.992Z</time></trkpt><trkpt lat="45.03378545331192" lon="9.548209575806341"><ele>70.0</ele><time>2026-04-04T12:31:46.992Z</time></trkpt><trkpt lat="45.03368224118918" lon="9.54822998602882"><ele>70.0</ele><time>2026-04-04T12:31:48.992Z</time></trkpt><trkpt lat="45.033574325582606" lon="9.548259246034537"><ele>70.0</ele><time>2026-04-04T12:31:50.992Z</time></trkpt><trkpt lat="45.033469168246775" lon="9.548284149565482"><ele>70.0</ele><time>2026-04-04T12:31:52.992Z</time></trkpt><trkpt lat="45.033369862438" lon="9.548305471116766"><ele>70.0</ele><time>2026-04-04T12:31:54.992Z</time></trkpt><trkpt lat="45.033272415449474" lon="9.54832891160705"><ele>70.0</ele><time>2026-04-04T12:31:56.992Z</time></trkpt><trkpt lat="45.03317423574676" lon="9.548351477268563"><ele>70.0</ele><time>2026-04-04T12:31:58.992Z</time></trkpt><trkpt lat="45.03307243850826" lon="9.548380351735798"><ele>70.0</ele><time>2026-04-04T12:32:00.992Z</time></trkpt><trkpt lat="45.03296670690542" lon="9.54840311555482"><ele>70.0</ele><time>2026-04-04T12:32:02.992Z</time></trkpt><trkpt lat="45.03286653946545" lon="9.548430277045787"><ele>70.0</ele><time>2026-04-04T12:32:04.992Z</time></trkpt><trkpt lat="45.03276195637322" lon="9.548454429301298"><ele>70.0</ele><time>2026-04-04T12:32:06.992Z</time></trkpt><trkpt lat="45.03265916979712" lon="9.54848281602035"><ele>70.0</ele><time>2026-04-04T12:32:08.992Z</time></trkpt><trkpt lat="45.0325521033054" lon="9.548509489685076"><ele>70.0</ele><time>2026-04-04T12:32:10.992Z</time></trkpt><trkpt lat="45.032448866466794" lon="9.548534832963668"><ele>70.0</ele><time>2026-04-04T12:32:12.992Z</time></trkpt><trkpt lat="45.03234187235516" lon="9.548558641781257"><ele>70.2</ele><time>2026-04-04T12:32:14.992Z</time></trkpt><trkpt lat="45.03223764358797" lon="9.548585226952643"><ele>70.4</ele><time>2026-04-04T12:32:16.992Z</time></trkpt><trkpt lat="45.03213382086013" lon="9.548612593796564"><ele>70.6</ele><time>2026-04-04T12:32:18.992Z</time></trkpt><trkpt lat="45.032032923986186" lon="9.548632599465606"><ele>70.8</ele><time>2026-04-04T12:32:20.992Z</time></trkpt><trkpt lat="45.031936555318" lon="9.54865920378427"><ele>71.0</ele><time>2026-04-04T12:32:22.992Z</time></trkpt><trkpt lat="45.03183853376805" lon="9.548684365620533"><ele>71.0</ele><time>2026-04-04T12:32:24.992Z</time></trkpt><trkpt lat="45.031737380410995" lon="9.54870342800673"><ele>71.0</ele><time>2026-04-04T12:32:26.992Z</time></trkpt><trkpt lat="45.03164020391473" lon="9.548729771679543"><ele>71.0</ele><time>2026-04-04T12:32:28.992Z</time></trkpt><trkpt lat="45.03153928209857" lon="9.548755200818357"><ele>71.0</ele><time>2026-04-04T12:32:30.992Z</time></trkpt><trkpt lat="45.03143784139785" lon="9.54877911460324"><ele>71.0</ele><time>2026-04-04T12:32:32.992Z</time></trkpt><trkpt lat="45.03133596901663" lon="9.548809553599797"><ele>71.0</ele><time>2026-04-04T12:32:34.992Z</time></trkpt><trkpt lat="45.03123275910494" lon="9.548833399509435"><ele>71.0</ele><time>2026-04-04T12:32:36.992Z</time></trkpt><trkpt lat="45.031135400862965" lon="9.548859908181335"><ele>71.0</ele><time>2026-04-04T12:32:38.992Z</time></trkpt><trkpt lat="45.03103668092023" lon="9.548882142753934"><ele>71.0</ele><time>2026-04-04T12:32:40.992Z</time></trkpt><trkpt lat="45.03093599689481" lon="9.548906585540855"><ele>71.0</ele><time>2026-04-04T12:32:42.992Z</time></trkpt><trkpt lat="45.03083304947156" lon="9.548928551043762"><ele>71.0</ele><time>2026-04-04T12:32:44.992Z</time></trkpt><trkpt lat="45.030727659017124" lon="9.548952254606624"><ele>71.0</ele><time>2026-04-04T12:32:46.992Z</time></trkpt><trkpt lat="45.03062968447941" lon="9.54897476975664"><ele>71.0</ele><time>2026-04-04T12:32:48.992Z</time></trkpt><trkpt lat="45.03053077877817" lon="9.5489998026593"><ele>71.0</ele><time>2026-04-04T12:32:50.992Z</time></trkpt><trkpt lat="45.030429610412334" lon="9.54902377702198"><ele>71.0</ele><time>2026-04-04T12:32:52.992Z</time></trkpt><trkpt lat="45.03033034176928" lon="9.549047872912244"><ele>71.0</ele><time>2026-04-04T12:32:54.992Z</time></trkpt><trkpt lat="45.03022827746901" lon="9.549072916636376"><ele>71.0</ele><time>2026-04-04T12:32:56.992Z</time></trkpt><trkpt lat="45.03012460573782" lon="9.549098322250071"><ele>71.0</ele><time>2026-04-04T12:32:58.992Z</time></trkpt><trkpt lat="45.03002181840183" lon="9.549123716187584"><ele>71.0</ele><time>2026-04-04T12:33:00.992Z</time></trkpt><trkpt lat="45.02992127693943" lon="9.54915084436097"><ele>71.0</ele><time>2026-04-04T12:33:02.992Z</time></trkpt><trkpt lat="45.029820875088255" lon="9.549170973772373"><ele>71.2</ele><time>2026-04-04T12:33:04.992Z</time></trkpt><trkpt lat="45.029720425632206" lon="9.549202960975288"><ele>71.39999999999999</ele><time>2026-04-04T12:33:06.992Z</time></trkpt><trkpt lat="45.02961738744543" lon="9.549228305228523"><ele>71.6</ele><time>2026-04-04T12:33:08.992Z</time></trkpt><trkpt lat="45.02951468869702" lon="9.549255154914741"><ele>71.8</ele><time>2026-04-04T12:33:10.993Z</time></trkpt><trkpt lat="45.029414241309446" lon="9.549271567195577"><ele>72.0</ele><time>2026-04-04T12:33:12.992Z</time></trkpt><trkpt lat="45.02931225445299" lon="9.549297670612754"><ele>72.0</ele><time>2026-04-04T12:33:14.992Z</time></trkpt><trkpt lat="45.02920756986393" lon="9.549324117912436"><ele>72.0</ele><time>2026-04-04T12:33:16.992Z</time></trkpt><trkpt lat="45.029103844328574" lon="9.549349735584842"><ele>72.0</ele><time>2026-04-04T12:33:18.993Z</time></trkpt><trkpt lat="45.029006332652166" lon="9.549377481940624"><ele>72.0</ele><time>2026-04-04T12:33:20.992Z</time></trkpt><trkpt lat="45.02890439954341" lon="9.549398234946903"><ele>72.0</ele><time>2026-04-04T12:33:22.992Z</time></trkpt><trkpt lat="45.02880700655267" lon="9.549422645252022"><ele>71.8</ele><time>2026-04-04T12:33:24.992Z</time></trkpt><trkpt lat="45.0287103982122" lon="9.549442693411017"><ele>71.6</ele><time>2026-04-04T12:33:26.992Z</time></trkpt><trkpt lat="45.02861045739844" lon="9.549467846731444"><ele>71.39999999999999</ele><time>2026-04-04T12:33:28.992Z</time></trkpt><trkpt lat="45.02851000115815" lon="9.5494955536595"><ele>71.2</ele><time>2026-04-04T12:33:30.992Z</time></trkpt><trkpt lat="45.028410510602534" lon="9.549515186389796"><ele>71.0</ele><time>2026-04-04T12:33:32.992Z</time></trkpt><trkpt lat="45.0283125862372" lon="9.549537499143174"><ele>71.2</ele><time>2026-04-04T12:33:34.992Z</time></trkpt><trkpt lat="45.028212874673756" lon="9.549564015457031"><ele>71.39999999999999</ele><time>2026-04-04T12:33:36.992Z</time></trkpt><trkpt lat="45.02810975139428" lon="9.549593126232761"><ele>71.6</ele><time>2026-04-04T12:33:38.992Z</time></trkpt><trkpt lat="45.02800446251615" lon="9.549614469467317"><ele>71.8</ele><time>2026-04-04T12:33:40.992Z</time></trkpt><trkpt lat="45.02790393232215" lon="9.549637815885744"><ele>72.0</ele><time>2026-04-04T12:33:42.992Z</time></trkpt><trkpt lat="45.02780250900826" lon="9.54966252627637"><ele>72.0</ele><time>2026-04-04T12:33:44.992Z</time></trkpt><trkpt lat="45.02770125784809" lon="9.549687072797521"><ele>72.0</ele><time>2026-04-04T12:33:46.992Z</time></trkpt><trkpt lat="45.02759852943802" lon="9.549711729848196"><ele>72.0</ele><time>2026-04-04T12:33:48.992Z</time></trkpt><trkpt lat="45.02749868668768" lon="9.54973516320043"><ele>72.0</ele><time>2026-04-04T12:33:50.992Z</time></trkpt><trkpt lat="45.027401937684694" lon="9.549758894725755"><ele>72.0</ele><time>2026-04-04T12:33:52.992Z</time></trkpt><trkpt lat="45.0272985880159" lon="9.549788450397024"><ele>72.8</ele><time>2026-04-04T12:33:54.992Z</time></trkpt><trkpt lat="45.027197117525354" lon="9.549810575881422"><ele>73.6</ele><time>2026-04-04T12:33:56.992Z</time></trkpt><trkpt lat="45.02709597164782" lon="9.54982866888887"><ele>74.39999999999999</ele><time>2026-04-04T12:33:58.992Z</time></trkpt><trkpt lat="45.02699893041807" lon="9.549855781798952"><ele>75.2</ele><time>2026-04-04T12:34:00.992Z</time></trkpt><trkpt lat="45.02689979456667" lon="9.549881340215084"><ele>76.0</ele><time>2026-04-04T12:34:02.992Z</time></trkpt><trkpt lat="45.02680549906844" lon="9.549913946263574"><ele>76.0</ele><time>2026-04-04T12:34:04.992Z</time></trkpt><trkpt lat="45.02671691806978" lon="9.549934170075113"><ele>76.0</ele><time>2026-04-04T12:34:06.992Z</time></trkpt><trkpt lat="45.02662548617457" lon="9.549952783355566"><ele>76.0</ele><time>2026-04-04T12:34:08.992Z</time></trkpt><trkpt lat="45.0265317570727" lon="9.549971913378084"><ele>76.0</ele><time>2026-04-04T12:34:10.992Z</time></trkpt><trkpt lat="45.026431248564066" lon="9.550004154506555"><ele>76.0</ele><time>2026-04-04T12:34:12.992Z</time></trkpt><trkpt lat="45.02634189978403" lon="9.550049994682869"><ele>75.8</ele><time>2026-04-04T12:34:14.992Z</time></trkpt><trkpt lat="45.02623547995758" lon="9.550067074179463"><ele>75.6</ele><time>2026-04-04T12:34:16.992Z</time></trkpt><trkpt lat="45.02614451596506" lon="9.55010592643574"><ele>75.4</ele><time>2026-04-04T12:34:18.992Z</time></trkpt><trkpt lat="45.026053937978716" lon="9.550135098482103"><ele>75.2</ele><time>2026-04-04T12:34:20.992Z</time></trkpt><trkpt lat="45.025956025307536" lon="9.550161365166343"><ele>75.0</ele><time>2026-04-04T12:34:22.992Z</time></trkpt><trkpt lat="45.025856848057934" lon="9.55010945891726"><ele>75.0</ele><time>2026-04-04T12:34:24.992Z</time></trkpt><trkpt lat="45.02578169777207" lon="9.550011098524113"><ele>75.0</ele><time>2026-04-04T12:34:26.992Z</time></trkpt><trkpt lat="45.02570402286125" lon="9.549905655862538"><ele>75.0</ele><time>2026-04-04T12:34:28.992Z</time></trkpt><trkpt lat="45.025685588858494" lon="9.549736987433281"><ele>75.0</ele><time>2026-04-04T12:34:30.992Z</time></trkpt><trkpt lat="45.02564479184282" lon="9.549599015384835"><ele>75.0</ele><time>2026-04-04T12:34:32.992Z</time></trkpt><trkpt lat="45.02560095343897" lon="9.549467198582175"><ele>75.0</ele><time>2026-04-04T12:34:34.992Z</time></trkpt><trkpt lat="45.02557165368431" lon="9.549319989070536"><ele>75.0</ele><time>2026-04-04T12:34:36.992Z</time></trkpt><trkpt lat="45.02553807828832" lon="9.549183049394571"><ele>75.0</ele><time>2026-04-04T12:34:38.992Z</time></trkpt><trkpt lat="45.02551763039592" lon="9.549030793414843"><ele>75.0</ele><time>2026-04-04T12:34:40.992Z</time></trkpt><trkpt lat="45.02549023306839" lon="9.548890455501983"><ele>75.0</ele><time>2026-04-04T12:34:42.992Z</time></trkpt><trkpt lat="45.0254596813734" lon="9.548744606995843"><ele>75.0</ele><time>2026-04-04T12:34:44.992Z</time></trkpt><trkpt lat="45.025425067888655" lon="9.548606740830584"><ele>75.0</ele><time>2026-04-04T12:34:46.992Z</time></trkpt><trkpt lat="45.02538873937585" lon="9.548466929003702"><ele>75.0</ele><time>2026-04-04T12:34:48.992Z</time></trkpt><trkpt lat="45.02535232831447" lon="9.548334321342173"><ele>75.0</ele><time>2026-04-04T12:34:50.992Z</time></trkpt><trkpt lat="45.02531076863052" lon="9.548205785966244"><ele>75.0</ele><time>2026-04-04T12:34:52.992Z</time></trkpt><trkpt lat="45.025265238859305" lon="9.54809041290324"><ele>75.0</ele><time>2026-04-04T12:34:54.992Z</time></trkpt><trkpt lat="45.02521687202804" lon="9.547976383768233"><ele>75.0</ele><time>2026-04-04T12:34:56.992Z</time></trkpt><trkpt lat="45.0251659188492" lon="9.54786350918945"><ele>75.0</ele><time>2026-04-04T12:34:58.992Z</time></trkpt><trkpt lat="45.02511620430829" lon="9.54774767610534"><ele>75.0</ele><time>2026-04-04T12:35:00.992Z</time></trkpt><trkpt lat="45.02506199630056" lon="9.547631709133537"><ele>75.0</ele><time>2026-04-04T12:35:02.992Z</time></trkpt><trkpt lat="45.025007832505736" lon="9.5475200703411"><ele>75.2</ele><time>2026-04-04T12:35:04.993Z</time></trkpt><trkpt lat="45.024948362459796" lon="9.54741054568128"><ele>75.4</ele><time>2026-04-04T12:35:06.993Z</time></trkpt><trkpt lat="45.02489454331485" lon="9.547289605400051"><ele>75.6</ele><time>2026-04-04T12:35:08.993Z</time></trkpt><trkpt lat="45.024826869212" lon="9.54717500428399"><ele>75.8</ele><time>2026-04-04T12:35:10.993Z</time></trkpt><trkpt lat="45.02477012654644" lon="9.547057030483415"><ele>76.0</ele><time>2026-04-04T12:35:12.992Z</time></trkpt><trkpt lat="45.02471226164614" lon="9.546944807033874"><ele>76.39999999999999</ele><time>2026-04-04T12:35:14.992Z</time></trkpt><trkpt lat="45.024651348279015" lon="9.546831982659741"><ele>76.8</ele><time>2026-04-04T12:35:16.992Z</time></trkpt><trkpt lat="45.024592344628566" lon="9.54671573204187"><ele>77.19999999999999</ele><time>2026-04-04T12:35:18.991Z</time></trkpt><trkpt lat="45.024529269620764" lon="9.546595787808426"><ele>77.6</ele><time>2026-04-04T12:35:20.992Z</time></trkpt><trkpt lat="45.0244694483612" lon="9.546485417890441"><ele>78.0</ele><time>2026-04-04T12:35:22.992Z</time></trkpt><trkpt lat="45.02440981847945" lon="9.546371866749274"><ele>78.0</ele><time>2026-04-04T12:35:24.992Z</time></trkpt><trkpt lat="45.02434407090304" lon="9.546268998510003"><ele>78.0</ele><time>2026-04-04T12:35:26.992Z</time></trkpt><trkpt lat="45.02427711033785" lon="9.546161701877466"><ele>78.0</ele><time>2026-04-04T12:35:28.992Z</time></trkpt><trkpt lat="45.02420740872392" lon="9.546055549044349"><ele>78.0</ele><time>2026-04-04T12:35:30.992Z</time></trkpt><trkpt lat="45.024134284826694" lon="9.54594912446643"><ele>78.0</ele><time>2026-04-04T12:35:32.992Z</time></trkpt><trkpt lat="45.02406874599479" lon="9.54585498964646"><ele>77.6</ele><time>2026-04-04T12:35:34.992Z</time></trkpt><trkpt lat="45.023998880971185" lon="9.545761888169102"><ele>77.19999999999999</ele><time>2026-04-04T12:35:36.992Z</time></trkpt><trkpt lat="45.023925263381045" lon="9.545652646032346"><ele>76.8</ele><time>2026-04-04T12:35:38.992Z</time></trkpt><trkpt lat="45.023856446819174" lon="9.545550905774245"><ele>76.39999999999999</ele><time>2026-04-04T12:35:40.992Z</time></trkpt><trkpt lat="45.02379241406947" lon="9.54545382243766"><ele>76.0</ele><time>2026-04-04T12:35:42.992Z</time></trkpt><trkpt lat="45.023717579140026" lon="9.545356726310336"><ele>76.0</ele><time>2026-04-04T12:35:44.992Z</time></trkpt><trkpt lat="45.0236528125021" lon="9.54523452577099"><ele>76.0</ele><time>2026-04-04T12:35:46.992Z</time></trkpt><trkpt lat="45.02356621476582" lon="9.545138462654759"><ele>76.0</ele><time>2026-04-04T12:35:48.992Z</time></trkpt><trkpt lat="45.02349676311289" lon="9.545031311375789"><ele>76.0</ele><time>2026-04-04T12:35:50.992Z</time></trkpt><trkpt lat="45.02342290089003" lon="9.544919344060684"><ele>76.0</ele><time>2026-04-04T12:35:52.992Z</time></trkpt><trkpt lat="45.02335336924022" lon="9.5448155974826"><ele>76.0</ele><time>2026-04-04T12:35:54.992Z</time></trkpt><trkpt lat="45.02328603891451" lon="9.544710651193968"><ele>76.0</ele><time>2026-04-04T12:35:56.992Z</time></trkpt><trkpt lat="45.02321598197802" lon="9.544606438735915"><ele>76.0</ele><time>2026-04-04T12:35:58.992Z</time></trkpt><trkpt lat="45.02315133841385" lon="9.544514560360703"><ele>76.0</ele><time>2026-04-04T12:36:00.992Z</time></trkpt><trkpt lat="45.02308092203035" lon="9.544412081165685"><ele>76.0</ele><time>2026-04-04T12:36:02.992Z</time></trkpt><trkpt lat="45.023020139185526" lon="9.544318000996066"><ele>76.0</ele><time>2026-04-04T12:36:04.992Z</time></trkpt><trkpt lat="45.02295765195179" lon="9.54423011377315"><ele>76.0</ele><time>2026-04-04T12:36:06.992Z</time></trkpt><trkpt lat="45.02290636142504" lon="9.544133126602894"><ele>76.0</ele><time>2026-04-04T12:36:08.992Z</time></trkpt><trkpt lat="45.022812390149376" lon="9.544113937147687"><ele>76.0</ele><time>2026-04-04T12:36:10.992Z</time></trkpt><trkpt lat="45.02272518057078" lon="9.544076359058492"><ele>76.0</ele><time>2026-04-04T12:36:12.992Z</time></trkpt><trkpt lat="45.02266783841465" lon="9.544171137225227"><ele>76.0</ele><time>2026-04-04T12:36:13.992Z</time></trkpt><trkpt lat="45.02256947370724" lon="9.544227182505386"><ele>75.8</ele><time>2026-04-04T12:36:15.992Z</time></trkpt><trkpt lat="45.02246851874491" lon="9.54428477253145"><ele>75.6</ele><time>2026-04-04T12:36:17.992Z</time></trkpt><trkpt lat="45.02236899732289" lon="9.54433861881617"><ele>75.4</ele><time>2026-04-04T12:36:19.992Z</time></trkpt><trkpt lat="45.022269652855826" lon="9.544394494649271"><ele>75.2</ele><time>2026-04-04T12:36:21.992Z</time></trkpt><trkpt lat="45.022170486154735" lon="9.544444223168004"><ele>75.0</ele><time>2026-04-04T12:36:23.992Z</time></trkpt><trkpt lat="45.02207097705221" lon="9.544499444043277"><ele>75.0</ele><time>2026-04-04T12:36:25.992Z</time></trkpt><trkpt lat="45.021974436669154" lon="9.544548614727612"><ele>75.0</ele><time>2026-04-04T12:36:27.992Z</time></trkpt><trkpt lat="45.02187438872792" lon="9.544599155146082"><ele>75.0</ele><time>2026-04-04T12:36:29.992Z</time></trkpt><trkpt lat="45.02177950032503" lon="9.544650470369989"><ele>75.0</ele><time>2026-04-04T12:36:31.992Z</time></trkpt><trkpt lat="45.02168667858053" lon="9.544699674827578"><ele>75.0</ele><time>2026-04-04T12:36:33.992Z</time></trkpt><trkpt lat="45.021594991202406" lon="9.544751826997484"><ele>75.0</ele><time>2026-04-04T12:36:35.992Z</time></trkpt><trkpt lat="45.02150188351167" lon="9.544803427704458"><ele>75.0</ele><time>2026-04-04T12:36:37.992Z</time></trkpt><trkpt lat="45.02140215354006" lon="9.544845817719537"><ele>75.0</ele><time>2026-04-04T12:36:39.992Z</time></trkpt><trkpt lat="45.02130697299038" lon="9.544900294961291"><ele>75.0</ele><time>2026-04-04T12:36:41.992Z</time></trkpt><trkpt lat="45.02121174115669" lon="9.544954642332792"><ele>75.0</ele><time>2026-04-04T12:36:43.992Z</time></trkpt><trkpt lat="45.021116600097585" lon="9.545006559477272"><ele>75.0</ele><time>2026-04-04T12:36:45.992Z</time></trkpt><trkpt lat="45.021018724845895" lon="9.545056622261713"><ele>75.0</ele><time>2026-04-04T12:36:47.992Z</time></trkpt><trkpt lat="45.020922663221164" lon="9.545102858534458"><ele>75.0</ele><time>2026-04-04T12:36:49.992Z</time></trkpt><trkpt lat="45.02082362563086" lon="9.545155051389346"><ele>75.0</ele><time>2026-04-04T12:36:51.992Z</time></trkpt><trkpt lat="45.02072671963528" lon="9.545206473061608"><ele>75.0</ele><time>2026-04-04T12:36:53.992Z</time></trkpt><trkpt lat="45.020631903823855" lon="9.545254736941004"><ele>74.8</ele><time>2026-04-04T12:36:55.992Z</time></trkpt><trkpt lat="45.02053850912344" lon="9.545302597441449"><ele>74.6</ele><time>2026-04-04T12:36:57.992Z</time></trkpt><trkpt lat="45.02044504602744" lon="9.545351680130008"><ele>74.4</ele><time>2026-04-04T12:36:59.992Z</time></trkpt><trkpt lat="45.020352889965686" lon="9.545403963354303"><ele>74.2</ele><time>2026-04-04T12:37:01.992Z</time></trkpt><trkpt lat="45.020258522998944" lon="9.545453502148456"><ele>74.0</ele><time>2026-04-04T12:37:03.992Z</time></trkpt><trkpt lat="45.020164928953946" lon="9.545501313759342"><ele>74.0</ele><time>2026-04-04T12:37:05.992Z</time></trkpt><trkpt lat="45.020070834733836" lon="9.545551196502963"><ele>74.0</ele><time>2026-04-04T12:37:07.992Z</time></trkpt><trkpt lat="45.01997205764036" lon="9.54560583832323"><ele>74.0</ele><time>2026-04-04T12:37:09.992Z</time></trkpt><trkpt lat="45.01987465600604" lon="9.545656214224055"><ele>74.0</ele><time>2026-04-04T12:37:11.992Z</time></trkpt><trkpt lat="45.0197811438668" lon="9.545711239736619"><ele>74.0</ele><time>2026-04-04T12:37:13.992Z</time></trkpt><trkpt lat="45.01968669883929" lon="9.545757892725586"><ele>74.2</ele><time>2026-04-04T12:37:15.992Z</time></trkpt><trkpt lat="45.01959282799856" lon="9.545803809411012"><ele>74.4</ele><time>2026-04-04T12:37:17.992Z</time></trkpt><trkpt lat="45.019500821044566" lon="9.545856449926069"><ele>74.6</ele><time>2026-04-04T12:37:19.992Z</time></trkpt><trkpt lat="45.019408754684804" lon="9.545905465565667"><ele>74.8</ele><time>2026-04-04T12:37:21.991Z</time></trkpt><trkpt lat="45.019316103312576" lon="9.545950562837366"><ele>75.0</ele><time>2026-04-04T12:37:23.991Z</time></trkpt><trkpt lat="45.01922544428781" lon="9.545999002995949"><ele>74.8</ele><time>2026-04-04T12:37:25.991Z</time></trkpt><trkpt lat="45.01913333956372" lon="9.546049015393484"><ele>74.6</ele><time>2026-04-04T12:37:27.991Z</time></trkpt><trkpt lat="45.0190438733595" lon="9.54609675501262"><ele>74.4</ele><time>2026-04-04T12:37:29.991Z</time></trkpt><trkpt lat="45.018958890919954" lon="9.546144035716388"><ele>74.2</ele><time>2026-04-04T12:37:31.991Z</time></trkpt><trkpt lat="45.01886861190151" lon="9.546171957762242"><ele>74.0</ele><time>2026-04-04T12:37:33.991Z</time></trkpt><trkpt lat="45.01877313499013" lon="9.546184399588572"><ele>74.0</ele><time>2026-04-04T12:37:35.991Z</time></trkpt><trkpt lat="45.018679257014284" lon="9.54618270783892"><ele>74.0</ele><time>2026-04-04T12:37:37.991Z</time></trkpt><trkpt lat="45.01859566243608" lon="9.54613987366633"><ele>74.0</ele><time>2026-04-04T12:37:39.99Z</time></trkpt><trkpt lat="45.018522038387864" lon="9.546104917549414"><ele>74.0</ele><time>2026-04-04T12:37:41.989Z</time></trkpt><trkpt lat="45.018451932109" lon="9.54607466303158"><ele>74.0</ele><time>2026-04-04T12:37:43.988Z</time></trkpt><trkpt lat="45.018377087522886" lon="9.546038347450601"><ele>74.0</ele><time>2026-04-04T12:37:45.988Z</time></trkpt><trkpt lat="45.01830085413925" lon="9.546017219704165"><ele>74.33333333333334</ele><time>2026-04-04T12:37:47.987Z</time></trkpt><trkpt lat="45.018220782992955" lon="9.546006194419805"><ele>74.66666666666667</ele><time>2026-04-04T12:37:49.986Z</time></trkpt><trkpt lat="45.018133756830466" lon="9.546017650856001"><ele>75.0</ele><time>2026-04-04T12:37:51.986Z</time></trkpt><trkpt lat="45.01804692583946" lon="9.54603206089798"><ele>75.33333333333333</ele><time>2026-04-04T12:37:53.985Z</time></trkpt><trkpt lat="45.01795845907481" lon="9.546003113991562"><ele>75.66666666666666</ele><time>2026-04-04T12:37:55.985Z</time></trkpt><trkpt lat="45.017871437972914" lon="9.545953301762243"><ele>76.0</ele><time>2026-04-04T12:37:57.984Z</time></trkpt><trkpt lat="45.017780586105744" lon="9.54593797565351"><ele>76.0</ele><time>2026-04-04T12:37:59.984Z</time></trkpt><trkpt lat="45.0176851139919" lon="9.545936716976536"><ele>76.0</ele><time>2026-04-04T12:38:01.984Z</time></trkpt><trkpt lat="45.01759040011496" lon="9.545991201713669"><ele>76.0</ele><time>2026-04-04T12:38:03.984Z</time></trkpt><trkpt lat="45.017510283751676" lon="9.546069734685023"><ele>76.0</ele><time>2026-04-04T12:38:05.983Z</time></trkpt><trkpt lat="45.01743645335312" lon="9.546159902661673"><ele>76.0</ele><time>2026-04-04T12:38:07.983Z</time></trkpt><trkpt lat="45.0173538516034" lon="9.546233830441098"><ele>76.2</ele><time>2026-04-04T12:38:09.983Z</time></trkpt><trkpt lat="45.017261797148706" lon="9.5462606978339"><ele>76.39999999999999</ele><time>2026-04-04T12:38:11.983Z</time></trkpt><trkpt lat="45.01716454150092" lon="9.546273108051228"><ele>76.6</ele><time>2026-04-04T12:38:13.983Z</time></trkpt><trkpt lat="45.017066669666356" lon="9.54626793250442"><ele>76.8</ele><time>2026-04-04T12:38:15.983Z</time></trkpt><trkpt lat="45.01697231613301" lon="9.546273567795941"><ele>77.0</ele><time>2026-04-04T12:38:17.982Z</time></trkpt><trkpt lat="45.01686706487323" lon="9.546267902566681"><ele>77.0</ele><time>2026-04-04T12:38:19.982Z</time></trkpt><trkpt lat="45.016764785967126" lon="9.546270053632611"><ele>77.0</ele><time>2026-04-04T12:38:21.982Z</time></trkpt><trkpt lat="45.01666746693256" lon="9.546273133094115"><ele>77.0</ele><time>2026-04-04T12:38:23.982Z</time></trkpt><trkpt lat="45.016573770844786" lon="9.546277239824109"><ele>77.0</ele><time>2026-04-04T12:38:25.982Z</time></trkpt><trkpt lat="45.01648449575434" lon="9.5462821789644"><ele>77.0</ele><time>2026-04-04T12:38:27.982Z</time></trkpt><trkpt lat="45.01639063710258" lon="9.546284790280833"><ele>77.0</ele><time>2026-04-04T12:38:29.982Z</time></trkpt><trkpt lat="45.01629039074392" lon="9.546286040056733"><ele>77.0</ele><time>2026-04-04T12:38:31.982Z</time></trkpt><trkpt lat="45.01618915346661" lon="9.546293012624155"><ele>77.0</ele><time>2026-04-04T12:38:33.982Z</time></trkpt><trkpt lat="45.01609285403025" lon="9.546304083234277"><ele>77.0</ele><time>2026-04-04T12:38:35.982Z</time></trkpt><trkpt lat="45.0159980283612" lon="9.546308735061688"><ele>77.0</ele><time>2026-04-04T12:38:37.982Z</time></trkpt><trkpt lat="45.01589981624112" lon="9.546307672357006"><ele>76.8</ele><time>2026-04-04T12:38:39.982Z</time></trkpt><trkpt lat="45.01579481740417" lon="9.546309917711545"><ele>76.6</ele><time>2026-04-04T12:38:41.982Z</time></trkpt><trkpt lat="45.0156926801236" lon="9.54630457824358"><ele>76.39999999999999</ele><time>2026-04-04T12:38:43.982Z</time></trkpt><trkpt lat="45.015584384413714" lon="9.54631464648155"><ele>76.2</ele><time>2026-04-04T12:38:45.982Z</time></trkpt><trkpt lat="45.015471412675716" lon="9.546315934492943"><ele>76.0</ele><time>2026-04-04T12:38:47.982Z</time></trkpt><trkpt lat="45.01536717901559" lon="9.5463205859623"><ele>76.0</ele><time>2026-04-04T12:38:49.982Z</time></trkpt><trkpt lat="45.015265659454954" lon="9.546324350959969"><ele>76.0</ele><time>2026-04-04T12:38:51.982Z</time></trkpt><trkpt lat="45.01516042312743" lon="9.546328934408098"><ele>76.0</ele><time>2026-04-04T12:38:53.982Z</time></trkpt><trkpt lat="45.015059607452116" lon="9.546328931268052"><ele>76.0</ele><time>2026-04-04T12:38:55.982Z</time></trkpt><trkpt lat="45.01495918541384" lon="9.546336557683373"><ele>76.0</ele><time>2026-04-04T12:38:57.982Z</time></trkpt><trkpt lat="45.014858766477026" lon="9.546332167891403"><ele>76.2</ele><time>2026-04-04T12:38:59.982Z</time></trkpt><trkpt lat="45.01475880869042" lon="9.546339683448672"><ele>76.39999999999999</ele><time>2026-04-04T12:39:01.982Z</time></trkpt><trkpt lat="45.014658099685796" lon="9.54634628870364"><ele>76.6</ele><time>2026-04-04T12:39:03.982Z</time></trkpt><trkpt lat="45.014559628140105" lon="9.54635043506131"><ele>76.8</ele><time>2026-04-04T12:39:05.982Z</time></trkpt><trkpt lat="45.01446025816556" lon="9.54634633413054"><ele>77.0</ele><time>2026-04-04T12:39:07.982Z</time></trkpt><trkpt lat="45.01436014922441" lon="9.546351344508937"><ele>77.0</ele><time>2026-04-04T12:39:09.982Z</time></trkpt><trkpt lat="45.01426329571828" lon="9.54635218888004"><ele>77.0</ele><time>2026-04-04T12:39:11.982Z</time></trkpt><trkpt lat="45.01416441988957" lon="9.546357695283168"><ele>77.0</ele><time>2026-04-04T12:39:13.982Z</time></trkpt><trkpt lat="45.014065716324225" lon="9.546362094794494"><ele>77.0</ele><time>2026-04-04T12:39:15.982Z</time></trkpt><trkpt lat="45.013965266568995" lon="9.546367465917061"><ele>77.0</ele><time>2026-04-04T12:39:17.982Z</time></trkpt><trkpt lat="45.013867952890784" lon="9.546374787662513"><ele>77.4</ele><time>2026-04-04T12:39:19.982Z</time></trkpt><trkpt lat="45.01376962663325" lon="9.546373465488829"><ele>77.80000000000001</ele><time>2026-04-04T12:39:21.982Z</time></trkpt><trkpt lat="45.013674825649346" lon="9.54638218632417"><ele>78.2</ele><time>2026-04-04T12:39:23.982Z</time></trkpt><trkpt lat="45.013584032974535" lon="9.546379251962286"><ele>78.60000000000001</ele><time>2026-04-04T12:39:25.98Z</time></trkpt><trkpt lat="45.01348816000356" lon="9.546388897382936"><ele>79.0</ele><time>2026-04-04T12:39:27.982Z</time></trkpt><trkpt lat="45.01339195885353" lon="9.546389345120776"><ele>78.8</ele><time>2026-04-04T12:39:29.981Z</time></trkpt><trkpt lat="45.013293927314656" lon="9.5463877743133"><ele>78.60000000000001</ele><time>2026-04-04T12:39:31.981Z</time></trkpt><trkpt lat="45.01318969130032" lon="9.54639447228106"><ele>78.4</ele><time>2026-04-04T12:39:33.982Z</time></trkpt><trkpt lat="45.01308818362249" lon="9.546396925074019"><ele>78.2</ele><time>2026-04-04T12:39:35.981Z</time></trkpt><trkpt lat="45.012987227617074" lon="9.546402701296886"><ele>78.0</ele><time>2026-04-04T12:39:37.981Z</time></trkpt><trkpt lat="45.01288769870684" lon="9.546402404793305"><ele>78.0</ele><time>2026-04-04T12:39:39.98Z</time></trkpt><trkpt lat="45.01278838623892" lon="9.546407909354867"><ele>78.0</ele><time>2026-04-04T12:39:41.98Z</time></trkpt><trkpt lat="45.01269203201476" lon="9.546407087478526"><ele>78.0</ele><time>2026-04-04T12:39:43.98Z</time></trkpt><trkpt lat="45.01259681440854" lon="9.546411968015422"><ele>78.0</ele><time>2026-04-04T12:39:45.98Z</time></trkpt><trkpt lat="45.012499953001786" lon="9.546407810082345"><ele>78.0</ele><time>2026-04-04T12:39:47.98Z</time></trkpt><trkpt lat="45.0124097948469" lon="9.546409318448218"><ele>77.8</ele><time>2026-04-04T12:39:49.98Z</time></trkpt><trkpt lat="45.01232120572447" lon="9.546404090619383"><ele>77.6</ele><time>2026-04-04T12:39:51.98Z</time></trkpt><trkpt lat="45.01223054179138" lon="9.546403364256724"><ele>77.4</ele><time>2026-04-04T12:39:53.98Z</time></trkpt><trkpt lat="45.012136527484714" lon="9.54639923988153"><ele>77.2</ele><time>2026-04-04T12:39:55.98Z</time></trkpt><trkpt lat="45.012038411632254" lon="9.546392078266706"><ele>77.0</ele><time>2026-04-04T12:39:57.98Z</time></trkpt><trkpt lat="45.01194921420062" lon="9.546391099063404"><ele>77.0</ele><time>2026-04-04T12:39:59.98Z</time></trkpt><trkpt lat="45.01185207570999" lon="9.546379606672494"><ele>77.0</ele><time>2026-04-04T12:40:01.98Z</time></trkpt><trkpt lat="45.01175142203156" lon="9.546373568877991"><ele>77.0</ele><time>2026-04-04T12:40:03.98Z</time></trkpt><trkpt lat="45.01164900806611" lon="9.546367061742604"><ele>77.0</ele><time>2026-04-04T12:40:05.98Z</time></trkpt><trkpt lat="45.01155021684561" lon="9.546359538425389"><ele>77.0</ele><time>2026-04-04T12:40:07.98Z</time></trkpt><trkpt lat="45.01144912075279" lon="9.546353576349984"><ele>77.4</ele><time>2026-04-04T12:40:09.98Z</time></trkpt><trkpt lat="45.011348948266715" lon="9.54634887267531"><ele>77.80000000000001</ele><time>2026-04-04T12:40:11.98Z</time></trkpt><trkpt lat="45.01124587700076" lon="9.546344595355801"><ele>78.2</ele><time>2026-04-04T12:40:13.98Z</time></trkpt><trkpt lat="45.01114052084083" lon="9.546337380028476"><ele>78.60000000000001</ele><time>2026-04-04T12:40:15.98Z</time></trkpt><trkpt lat="45.011039738513034" lon="9.546332350796446"><ele>79.0</ele><time>2026-04-04T12:40:17.98Z</time></trkpt><trkpt lat="45.010940529288604" lon="9.546318264475408"><ele>79.0</ele><time>2026-04-04T12:40:19.98Z</time></trkpt><trkpt lat="45.010836814163525" lon="9.546318838410613"><ele>79.0</ele><time>2026-04-04T12:40:21.98Z</time></trkpt><trkpt lat="45.01073575294828" lon="9.546305192455725"><ele>79.0</ele><time>2026-04-04T12:40:23.98Z</time></trkpt><trkpt lat="45.01063845176713" lon="9.546297895959377"><ele>79.0</ele><time>2026-04-04T12:40:25.98Z</time></trkpt><trkpt lat="45.01053966886489" lon="9.546296176112815"><ele>79.0</ele><time>2026-04-04T12:40:27.98Z</time></trkpt><trkpt lat="45.01044404600616" lon="9.546292756512306"><ele>78.8</ele><time>2026-04-04T12:40:29.98Z</time></trkpt><trkpt lat="45.01034558106174" lon="9.546279149436634"><ele>78.60000000000001</ele><time>2026-04-04T12:40:31.98Z</time></trkpt><trkpt lat="45.01024313283259" lon="9.54627824506548"><ele>78.4</ele><time>2026-04-04T12:40:33.98Z</time></trkpt><trkpt lat="45.010145272051375" lon="9.546278760619312"><ele>78.2</ele><time>2026-04-04T12:40:35.98Z</time></trkpt><trkpt lat="45.010045940822025" lon="9.54627056528026"><ele>78.0</ele><time>2026-04-04T12:40:37.98Z</time></trkpt><trkpt lat="45.00994511052305" lon="9.546254211475702"><ele>78.4</ele><time>2026-04-04T12:40:39.98Z</time></trkpt><trkpt lat="45.00984222982764" lon="9.546250242035693"><ele>78.8</ele><time>2026-04-04T12:40:41.98Z</time></trkpt><trkpt lat="45.009738980701" lon="9.546242682907685"><ele>79.2</ele><time>2026-04-04T12:40:43.98Z</time></trkpt><trkpt lat="45.00963041180234" lon="9.546237307738553"><ele>79.6</ele><time>2026-04-04T12:40:45.98Z</time></trkpt><trkpt lat="45.00953196899982" lon="9.546231406052842"><ele>80.0</ele><time>2026-04-04T12:40:47.98Z</time></trkpt><trkpt lat="45.00943241692878" lon="9.54622892042404"><ele>80.0</ele><time>2026-04-04T12:40:49.98Z</time></trkpt><trkpt lat="45.00933224876321" lon="9.54622285182946"><ele>80.0</ele><time>2026-04-04T12:40:51.98Z</time></trkpt><trkpt lat="45.00923415290106" lon="9.546216955554279"><ele>80.0</ele><time>2026-04-04T12:40:53.98Z</time></trkpt><trkpt lat="45.00913605769542" lon="9.54620959068302"><ele>80.0</ele><time>2026-04-04T12:40:55.98Z</time></trkpt><trkpt lat="45.0090364619459" lon="9.546202864867327"><ele>80.0</ele><time>2026-04-04T12:40:57.98Z</time></trkpt><trkpt lat="45.00893759247693" lon="9.546195089674834"><ele>80.2</ele><time>2026-04-04T12:40:59.98Z</time></trkpt><trkpt lat="45.008840417580096" lon="9.54619331796362"><ele>80.4</ele><time>2026-04-04T12:41:01.98Z</time></trkpt><trkpt lat="45.0087423104212" lon="9.54617987670927"><ele>80.6</ele><time>2026-04-04T12:41:03.98Z</time></trkpt><trkpt lat="45.008644849510304" lon="9.546174663519652"><ele>80.8</ele><time>2026-04-04T12:41:05.98Z</time></trkpt><trkpt lat="45.00854461722391" lon="9.546167376602114"><ele>81.0</ele><time>2026-04-04T12:41:07.98Z</time></trkpt><trkpt lat="45.00844902533788" lon="9.546160920718586"><ele>81.0</ele><time>2026-04-04T12:41:09.98Z</time></trkpt><trkpt lat="45.00835319163214" lon="9.546156522474456"><ele>81.0</ele><time>2026-04-04T12:41:11.98Z</time></trkpt><trkpt lat="45.00825568700371" lon="9.546149855125726"><ele>81.0</ele><time>2026-04-04T12:41:13.98Z</time></trkpt><trkpt lat="45.00815908774441" lon="9.546145147973569"><ele>81.0</ele><time>2026-04-04T12:41:15.98Z</time></trkpt><trkpt lat="45.008063089460755" lon="9.546129804628977"><ele>81.0</ele><time>2026-04-04T12:41:17.98Z</time></trkpt><trkpt lat="45.00796330214737" lon="9.546127957589649"><ele>81.0</ele><time>2026-04-04T12:41:19.98Z</time></trkpt><trkpt lat="45.00786191588764" lon="9.546124534330085"><ele>81.0</ele><time>2026-04-04T12:41:21.98Z</time></trkpt><trkpt lat="45.00776664855924" lon="9.546117456825085"><ele>81.0</ele><time>2026-04-04T12:41:23.98Z</time></trkpt><trkpt lat="45.00766692284672" lon="9.546113344246715"><ele>81.0</ele><time>2026-04-04T12:41:25.98Z</time></trkpt><trkpt lat="45.00756730526733" lon="9.546106890970897"><ele>81.0</ele><time>2026-04-04T12:41:27.98Z</time></trkpt><trkpt lat="45.00746320662673" lon="9.5461034442111"><ele>81.0</ele><time>2026-04-04T12:41:29.98Z</time></trkpt><trkpt lat="45.00735990707008" lon="9.546103987466317"><ele>81.0</ele><time>2026-04-04T12:41:31.98Z</time></trkpt><trkpt lat="45.00725902681742" lon="9.546108036219938"><ele>81.0</ele><time>2026-04-04T12:41:33.98Z</time></trkpt><trkpt lat="45.00716116513877" lon="9.546110990824458"><ele>81.0</ele><time>2026-04-04T12:41:35.98Z</time></trkpt><trkpt lat="45.00706650058379" lon="9.546112828246931"><ele>81.0</ele><time>2026-04-04T12:41:37.98Z</time></trkpt><trkpt lat="45.00696569132262" lon="9.546116115295806"><ele>81.0</ele><time>2026-04-04T12:41:39.98Z</time></trkpt><trkpt lat="45.00686632239794" lon="9.54610856085475"><ele>81.0</ele><time>2026-04-04T12:41:41.98Z</time></trkpt><trkpt lat="45.00677401072138" lon="9.546105014090871"><ele>81.0</ele><time>2026-04-04T12:41:43.98Z</time></trkpt><trkpt lat="45.006676421013275" lon="9.546101110304642"><ele>81.0</ele><time>2026-04-04T12:41:45.98Z</time></trkpt><trkpt lat="45.00658441996186" lon="9.546106596994"><ele>81.0</ele><time>2026-04-04T12:41:47.98Z</time></trkpt><trkpt lat="45.00648661865857" lon="9.546101328530474"><ele>81.6</ele><time>2026-04-04T12:41:49.98Z</time></trkpt><trkpt lat="45.006390848142345" lon="9.546115742829109"><ele>82.19999999999999</ele><time>2026-04-04T12:41:51.98Z</time></trkpt><trkpt lat="45.00629465801316" lon="9.54611231349836"><ele>82.80000000000001</ele><time>2026-04-04T12:41:53.98Z</time></trkpt><trkpt lat="45.00619506478087" lon="9.546117843381118"><ele>83.4</ele><time>2026-04-04T12:41:55.98Z</time></trkpt><trkpt lat="45.006091846988326" lon="9.546114319089048"><ele>84.0</ele><time>2026-04-04T12:41:57.98Z</time></trkpt><trkpt lat="45.005987687289284" lon="9.546117995248716"><ele>84.0</ele><time>2026-04-04T12:41:59.98Z</time></trkpt><trkpt lat="45.00588972639765" lon="9.546122077211743"><ele>84.0</ele><time>2026-04-04T12:42:01.98Z</time></trkpt><trkpt lat="45.005789934082486" lon="9.546122664261222"><ele>84.0</ele><time>2026-04-04T12:42:03.98Z</time></trkpt><trkpt lat="45.005689658692326" lon="9.546121112520181"><ele>84.0</ele><time>2026-04-04T12:42:05.98Z</time></trkpt><trkpt lat="45.00559336395815" lon="9.546119757514699"><ele>84.0</ele><time>2026-04-04T12:42:07.98Z</time></trkpt><trkpt lat="45.00549291041418" lon="9.546123157522429"><ele>83.6</ele><time>2026-04-04T12:42:09.98Z</time></trkpt><trkpt lat="45.00539619073506" lon="9.54612099816462"><ele>83.2</ele><time>2026-04-04T12:42:11.98Z</time></trkpt><trkpt lat="45.00529040302727" lon="9.546121880794109"><ele>82.8</ele><time>2026-04-04T12:42:13.98Z</time></trkpt><trkpt lat="45.00519049543323" lon="9.54612441335692"><ele>82.39999999999999</ele><time>2026-04-04T12:42:15.98Z</time></trkpt><trkpt lat="45.00509481320447" lon="9.54612371936466"><ele>82.0</ele><time>2026-04-04T12:42:17.98Z</time></trkpt><trkpt lat="45.005002922220456" lon="9.546120066644459"><ele>82.19999999999999</ele><time>2026-04-04T12:42:19.98Z</time></trkpt><trkpt lat="45.004903542282854" lon="9.546123902975891"><ele>82.4</ele><time>2026-04-04T12:42:21.98Z</time></trkpt><trkpt lat="45.004807434172506" lon="9.546129244048972"><ele>82.6</ele><time>2026-04-04T12:42:23.98Z</time></trkpt><trkpt lat="45.00471380732287" lon="9.546127658881996"><ele>82.80000000000001</ele><time>2026-04-04T12:42:25.98Z</time></trkpt><trkpt lat="45.004620989683026" lon="9.546128983262921"><ele>83.0</ele><time>2026-04-04T12:42:27.98Z</time></trkpt><trkpt lat="45.004527283871084" lon="9.546131402022109"><ele>83.0</ele><time>2026-04-04T12:42:29.98Z</time></trkpt><trkpt lat="45.00443225377977" lon="9.546130517813797"><ele>83.0</ele><time>2026-04-04T12:42:31.98Z</time></trkpt><trkpt lat="45.004330554249016" lon="9.546131003559665"><ele>83.0</ele><time>2026-04-04T12:42:33.98Z</time></trkpt><trkpt lat="45.0042278949012" lon="9.546129169222564"><ele>83.0</ele><time>2026-04-04T12:42:35.98Z</time></trkpt><trkpt lat="45.004126784406466" lon="9.546129782425963"><ele>83.0</ele><time>2026-04-04T12:42:37.98Z</time></trkpt><trkpt lat="45.00403061586735" lon="9.546136832714463"><ele>83.4</ele><time>2026-04-04T12:42:39.98Z</time></trkpt><trkpt lat="45.00393669752415" lon="9.546135326215666"><ele>83.80000000000001</ele><time>2026-04-04T12:42:41.98Z</time></trkpt><trkpt lat="45.00384375032792" lon="9.54613567120826"><ele>84.2</ele><time>2026-04-04T12:42:43.98Z</time></trkpt><trkpt lat="45.003746729198724" lon="9.546145696509026"><ele>84.6</ele><time>2026-04-04T12:42:45.98Z</time></trkpt><trkpt lat="45.00365605447249" lon="9.546140039734874"><ele>85.0</ele><time>2026-04-04T12:42:47.98Z</time></trkpt><trkpt lat="45.003563150505116" lon="9.546143091154734"><ele>85.0</ele><time>2026-04-04T12:42:49.98Z</time></trkpt><trkpt lat="45.00347358368995" lon="9.546143782038124"><ele>85.0</ele><time>2026-04-04T12:42:51.98Z</time></trkpt><trkpt lat="45.0033836601339" lon="9.546146214463008"><ele>85.0</ele><time>2026-04-04T12:42:53.98Z</time></trkpt><trkpt lat="45.00328938895891" lon="9.546146078360808"><ele>85.0</ele><time>2026-04-04T12:42:55.98Z</time></trkpt><trkpt lat="45.00319301296761" lon="9.546153719975733"><ele>85.0</ele><time>2026-04-04T12:42:57.98Z</time></trkpt><trkpt lat="45.003106341019205" lon="9.546150196305222"><ele>85.16666666666666</ele><time>2026-04-04T12:42:59.98Z</time></trkpt><trkpt lat="45.00304403664964" lon="9.54607114422236"><ele>85.33333333333333</ele><time>2026-04-04T12:43:01.98Z</time></trkpt><trkpt lat="45.0030150534324" lon="9.54595375977576"><ele>85.5</ele><time>2026-04-04T12:43:03.98Z</time></trkpt><trkpt lat="45.002977543384425" lon="9.545834168474741"><ele>85.66666666666667</ele><time>2026-04-04T12:43:05.98Z</time></trkpt><trkpt lat="45.00294246713892" lon="9.545715152332678"><ele>85.83333333333334</ele><time>2026-04-04T12:43:07.98Z</time></trkpt><trkpt lat="45.00290324205193" lon="9.54560368787318"><ele>86.0</ele><time>2026-04-04T12:43:09.98Z</time></trkpt><trkpt lat="45.00286481026872" lon="9.545490253305957"><ele>86.0</ele><time>2026-04-04T12:43:11.98Z</time></trkpt><trkpt lat="45.00281962235107" lon="9.545381345310451"><ele>86.0</ele><time>2026-04-04T12:43:13.98Z</time></trkpt><trkpt lat="45.00277789336729" lon="9.545262078897343"><ele>86.0</ele><time>2026-04-04T12:43:15.98Z</time></trkpt><trkpt lat="45.002734530811416" lon="9.545137938587231"><ele>86.0</ele><time>2026-04-04T12:43:17.98Z</time></trkpt><trkpt lat="45.0026978474903" lon="9.54501133494266"><ele>86.0</ele><time>2026-04-04T12:43:19.98Z</time></trkpt><trkpt lat="45.00264889493947" lon="9.544891923760087"><ele>86.0</ele><time>2026-04-04T12:43:21.98Z</time></trkpt><trkpt lat="45.0026135259793" lon="9.544765848133036"><ele>86.0</ele><time>2026-04-04T12:43:23.98Z</time></trkpt><trkpt lat="45.00257343240804" lon="9.544647192109057"><ele>86.0</ele><time>2026-04-04T12:43:25.98Z</time></trkpt><trkpt lat="45.00253184672871" lon="9.544530058435054"><ele>86.0</ele><time>2026-04-04T12:43:27.98Z</time></trkpt><trkpt lat="45.00249109427288" lon="9.544412395810786"><ele>86.0</ele><time>2026-04-04T12:43:29.98Z</time></trkpt><trkpt lat="45.00244971884029" lon="9.544290034251135"><ele>86.19999999999999</ele><time>2026-04-04T12:43:31.98Z</time></trkpt><trkpt lat="45.00240377509163" lon="9.544163761140235"><ele>86.39999999999999</ele><time>2026-04-04T12:43:33.98Z</time></trkpt><trkpt lat="45.00236058628515" lon="9.544036116073004"><ele>86.6</ele><time>2026-04-04T12:43:35.98Z</time></trkpt><trkpt lat="45.00231862916797" lon="9.543909464517172"><ele>86.8</ele><time>2026-04-04T12:43:37.979Z</time></trkpt><trkpt lat="45.00227392847151" lon="9.543783122805225"><ele>87.0</ele><time>2026-04-04T12:43:39.979Z</time></trkpt><trkpt lat="45.00222913917414" lon="9.543658540520711"><ele>86.6</ele><time>2026-04-04T12:43:41.979Z</time></trkpt><trkpt lat="45.00218688926483" lon="9.543542672658084"><ele>86.19999999999999</ele><time>2026-04-04T12:43:43.979Z</time></trkpt><trkpt lat="45.00214019374505" lon="9.543424888557169"><ele>85.8</ele><time>2026-04-04T12:43:45.979Z</time></trkpt><trkpt lat="45.00209642823019" lon="9.543303443522246"><ele>85.4</ele><time>2026-04-04T12:43:47.979Z</time></trkpt><trkpt lat="45.00205641613889" lon="9.543179337749221"><ele>85.0</ele><time>2026-04-04T12:43:49.979Z</time></trkpt><trkpt lat="45.002016476581765" lon="9.543057850596089"><ele>85.0</ele><time>2026-04-04T12:43:51.979Z</time></trkpt><trkpt lat="45.00197359649442" lon="9.542931297294116"><ele>85.0</ele><time>2026-04-04T12:43:53.979Z</time></trkpt><trkpt lat="45.00192692103099" lon="9.542806701237087"><ele>85.0</ele><time>2026-04-04T12:43:55.979Z</time></trkpt><trkpt lat="45.001885260737225" lon="9.542684636291039"><ele>85.0</ele><time>2026-04-04T12:43:57.979Z</time></trkpt><trkpt lat="45.001841141414054" lon="9.542559962369282"><ele>85.0</ele><time>2026-04-04T12:43:59.979Z</time></trkpt><trkpt lat="45.00179992859669" lon="9.542436529945778"><ele>85.0</ele><time>2026-04-04T12:44:01.979Z</time></trkpt><trkpt lat="45.00175728003124" lon="9.542315766009551"><ele>85.0</ele><time>2026-04-04T12:44:03.979Z</time></trkpt><trkpt lat="45.00171626767616" lon="9.542198608869802"><ele>85.0</ele><time>2026-04-04T12:44:05.979Z</time></trkpt><trkpt lat="45.001674898644595" lon="9.542073666180825"><ele>85.0</ele><time>2026-04-04T12:44:07.979Z</time></trkpt><trkpt lat="45.00163413005056" lon="9.541961657223602"><ele>85.0</ele><time>2026-04-04T12:44:09.979Z</time></trkpt><trkpt lat="45.001595762475766" lon="9.541860684948432"><ele>85.5</ele><time>2026-04-04T12:44:11.979Z</time></trkpt><trkpt lat="45.00155477733393" lon="9.541746340505426"><ele>86.0</ele><time>2026-04-04T12:44:13.979Z</time></trkpt><trkpt lat="45.001513743939356" lon="9.541639067258657"><ele>86.5</ele><time>2026-04-04T12:44:15.979Z</time></trkpt><trkpt lat="45.001476210300204" lon="9.541534833236868"><ele>87.0</ele><time>2026-04-04T12:44:17.979Z</time></trkpt><trkpt lat="45.001438518032344" lon="9.541419203499528"><ele>87.5</ele><time>2026-04-04T12:44:19.979Z</time></trkpt><trkpt lat="45.00139810085051" lon="9.541306968458688"><ele>88.0</ele><time>2026-04-04T12:44:21.979Z</time></trkpt><trkpt lat="45.00136116584193" lon="9.541194709476649"><ele>88.0</ele><time>2026-04-04T12:44:23.979Z</time></trkpt><trkpt lat="45.00131820438064" lon="9.541079661557085"><ele>88.0</ele><time>2026-04-04T12:44:25.979Z</time></trkpt><trkpt lat="45.0012823380495" lon="9.540962519073352"><ele>88.0</ele><time>2026-04-04T12:44:27.979Z</time></trkpt><trkpt lat="45.0012401966804" lon="9.540848118753374"><ele>88.0</ele><time>2026-04-04T12:44:29.979Z</time></trkpt><trkpt lat="45.00119967279367" lon="9.540729975060822"><ele>88.0</ele><time>2026-04-04T12:44:31.979Z</time></trkpt><trkpt lat="45.001156185787565" lon="9.540618587474237"><ele>88.0</ele><time>2026-04-04T12:44:33.979Z</time></trkpt><trkpt lat="45.00111699349341" lon="9.540498121668096"><ele>88.0</ele><time>2026-04-04T12:44:35.979Z</time></trkpt><trkpt lat="45.001081009714085" lon="9.540376290536585"><ele>88.0</ele><time>2026-04-04T12:44:37.979Z</time></trkpt><trkpt lat="45.00104101614437" lon="9.54025874256907"><ele>88.0</ele><time>2026-04-04T12:44:39.979Z</time></trkpt><trkpt lat="45.00099644386867" lon="9.540140756719714"><ele>88.0</ele><time>2026-04-04T12:44:41.979Z</time></trkpt><trkpt lat="45.000954223816024" lon="9.540026060884905"><ele>88.2</ele><time>2026-04-04T12:44:43.979Z</time></trkpt><trkpt lat="45.00091811773415" lon="9.539905441965585"><ele>88.4</ele><time>2026-04-04T12:44:45.979Z</time></trkpt><trkpt lat="45.000882597763336" lon="9.539791610238211"><ele>88.60000000000001</ele><time>2026-04-04T12:44:47.979Z</time></trkpt><trkpt lat="45.00083773643582" lon="9.539673459618935"><ele>88.80000000000001</ele><time>2026-04-04T12:44:49.979Z</time></trkpt><trkpt lat="45.00079146641732" lon="9.539563507923098"><ele>89.0</ele><time>2026-04-04T12:44:51.979Z</time></trkpt><trkpt lat="45.00075030855636" lon="9.539440209454057"><ele>89.2</ele><time>2026-04-04T12:44:53.979Z</time></trkpt><trkpt lat="45.000702198906005" lon="9.539322619547638"><ele>89.4</ele><time>2026-04-04T12:44:55.979Z</time></trkpt><trkpt lat="45.00066477765053" lon="9.539204606390165"><ele>89.6</ele><time>2026-04-04T12:44:57.979Z</time></trkpt><trkpt lat="45.000621850751976" lon="9.539086820774369"><ele>89.8</ele><time>2026-04-04T12:44:59.979Z</time></trkpt><trkpt lat="45.00058266568671" lon="9.53897051251282"><ele>90.0</ele><time>2026-04-04T12:45:01.979Z</time></trkpt><trkpt lat="45.00054454150559" lon="9.538866086345875"><ele>90.0</ele><time>2026-04-04T12:45:03.979Z</time></trkpt><trkpt lat="45.00050537037936" lon="9.538765269072725"><ele>90.0</ele><time>2026-04-04T12:45:05.979Z</time></trkpt><trkpt lat="45.00047035664622" lon="9.538662023835474"><ele>90.0</ele><time>2026-04-04T12:45:07.979Z</time></trkpt><trkpt lat="45.00043279138392" lon="9.538548774604184"><ele>90.0</ele><time>2026-04-04T12:45:09.979Z</time></trkpt><trkpt lat="45.00039482612499" lon="9.53843881456473"><ele>90.0</ele><time>2026-04-04T12:45:11.979Z</time></trkpt><trkpt lat="45.00036220627936" lon="9.538335347074732"><ele>90.0</ele><time>2026-04-04T12:45:13.979Z</time></trkpt><trkpt lat="45.0003294910111" lon="9.538225939298776"><ele>90.0</ele><time>2026-04-04T12:45:15.979Z</time></trkpt><trkpt lat="45.00029535446634" lon="9.538126171243109"><ele>90.0</ele><time>2026-04-04T12:45:17.979Z</time></trkpt><trkpt lat="45.000262645997154" lon="9.538023705280096"><ele>90.0</ele><time>2026-04-04T12:45:19.979Z</time></trkpt><trkpt lat="45.000230163210965" lon="9.537906424692272"><ele>90.0</ele><time>2026-04-04T12:45:21.979Z</time></trkpt><trkpt lat="45.00019530472115" lon="9.537805803592747"><ele>90.0</ele><time>2026-04-04T12:45:23.979Z</time></trkpt><trkpt lat="45.00016673209951" lon="9.537696793321077"><ele>90.0</ele><time>2026-04-04T12:45:25.979Z</time></trkpt><trkpt lat="45.000130008185224" lon="9.537580911181069"><ele>90.0</ele><time>2026-04-04T12:45:27.979Z</time></trkpt><trkpt lat="45.000093005063775" lon="9.537458188986019"><ele>90.0</ele><time>2026-04-04T12:45:29.979Z</time></trkpt><trkpt lat="45.00005830596659" lon="9.53733417407257"><ele>90.0</ele><time>2026-04-04T12:45:31.979Z</time></trkpt><trkpt lat="45.0000242569851" lon="9.537211765448733"><ele>90.0</ele><time>2026-04-04T12:45:33.979Z</time></trkpt><trkpt lat="44.99999240764793" lon="9.53709023700364"><ele>90.0</ele><time>2026-04-04T12:45:35.979Z</time></trkpt><trkpt lat="44.999962444710846" lon="9.536973155539393"><ele>90.0</ele><time>2026-04-04T12:45:37.979Z</time></trkpt><trkpt lat="44.99992985933642" lon="9.536853527657897"><ele>90.0</ele><time>2026-04-04T12:45:39.979Z</time></trkpt><trkpt lat="44.9999020964065" lon="9.536729797810255"><ele>90.0</ele><time>2026-04-04T12:45:41.979Z</time></trkpt><trkpt lat="44.99986516397478" lon="9.536602895205625"><ele>90.0</ele><time>2026-04-04T12:45:43.978Z</time></trkpt><trkpt lat="44.99983629432684" lon="9.536474566794698"><ele>90.0</ele><time>2026-04-04T12:45:45.979Z</time></trkpt><trkpt lat="44.99979926691356" lon="9.536340918976649"><ele>89.8</ele><time>2026-04-04T12:45:47.978Z</time></trkpt><trkpt lat="44.99975672963656" lon="9.536214888263768"><ele>89.6</ele><time>2026-04-04T12:45:49.978Z</time></trkpt><trkpt lat="44.99972285868449" lon="9.53608702231067"><ele>89.4</ele><time>2026-04-04T12:45:51.978Z</time></trkpt><trkpt lat="44.99969057936802" lon="9.535958300057052"><ele>89.2</ele><time>2026-04-04T12:45:53.978Z</time></trkpt><trkpt lat="44.99965129731924" lon="9.53583641748608"><ele>89.0</ele><time>2026-04-04T12:45:55.978Z</time></trkpt><trkpt lat="44.99961278324538" lon="9.535711169885404"><ele>89.0</ele><time>2026-04-04T12:45:57.978Z</time></trkpt><trkpt lat="44.999560789187626" lon="9.535591193857115"><ele>89.0</ele><time>2026-04-04T12:45:59.978Z</time></trkpt><trkpt lat="44.99952071963472" lon="9.535465048414574"><ele>89.0</ele><time>2026-04-04T12:46:01.978Z</time></trkpt><trkpt lat="44.999475116910816" lon="9.535344019912747"><ele>89.0</ele><time>2026-04-04T12:46:03.978Z</time></trkpt><trkpt lat="44.999421277497056" lon="9.535236286335754"><ele>89.0</ele><time>2026-04-04T12:46:05.978Z</time></trkpt><trkpt lat="44.99938159006066" lon="9.535124195142549"><ele>89.0</ele><time>2026-04-04T12:46:07.978Z</time></trkpt><trkpt lat="44.99934116111699" lon="9.535022609208673"><ele>89.0</ele><time>2026-04-04T12:46:09.978Z</time></trkpt><trkpt lat="44.99928950137157" lon="9.534927116019217"><ele>89.0</ele><time>2026-04-04T12:46:11.978Z</time></trkpt><trkpt lat="44.99923123792407" lon="9.534823355480214"><ele>89.0</ele><time>2026-04-04T12:46:13.978Z</time></trkpt><trkpt lat="44.999174961900195" lon="9.534734040380366"><ele>89.0</ele><time>2026-04-04T12:46:15.978Z</time></trkpt><trkpt lat="44.99913593357957" lon="9.534611453243466"><ele>89.0</ele><time>2026-04-04T12:46:17.978Z</time></trkpt><trkpt lat="44.99908113252548" lon="9.534510740212411"><ele>89.4</ele><time>2026-04-04T12:46:19.978Z</time></trkpt><trkpt lat="44.99902790677438" lon="9.534397974514214"><ele>89.80000000000001</ele><time>2026-04-04T12:46:21.978Z</time></trkpt><trkpt lat="44.998970764577635" lon="9.534292788202798"><ele>90.19999999999999</ele><time>2026-04-04T12:46:23.978Z</time></trkpt><trkpt lat="44.99890240461893" lon="9.53419637403801"><ele>90.6</ele><time>2026-04-04T12:46:25.978Z</time></trkpt><trkpt lat="44.998854404449226" lon="9.534083452209003"><ele>91.0</ele><time>2026-04-04T12:46:27.978Z</time></trkpt><trkpt lat="44.99879441155012" lon="9.533994443766982"><ele>91.0</ele><time>2026-04-04T12:46:29.978Z</time></trkpt><trkpt lat="44.9987503400251" lon="9.533900255256947"><ele>91.0</ele><time>2026-04-04T12:46:31.978Z</time></trkpt><trkpt lat="44.99870726944693" lon="9.53379603617272"><ele>91.0</ele><time>2026-04-04T12:46:33.978Z</time></trkpt><trkpt lat="44.998650949479455" lon="9.533689780126428"><ele>91.0</ele><time>2026-04-04T12:46:35.978Z</time></trkpt><trkpt lat="44.9985909067015" lon="9.53359233737613"><ele>91.0</ele><time>2026-04-04T12:46:37.978Z</time></trkpt><trkpt lat="44.998528950799056" lon="9.533487912227443"><ele>91.0</ele><time>2026-04-04T12:46:39.978Z</time></trkpt><trkpt lat="44.99848513573514" lon="9.533370912948282"><ele>91.0</ele><time>2026-04-04T12:46:41.978Z</time></trkpt><trkpt lat="44.99844647236226" lon="9.533250767807743"><ele>91.0</ele><time>2026-04-04T12:46:43.978Z</time></trkpt><trkpt lat="44.998408127022124" lon="9.533124018590655"><ele>91.0</ele><time>2026-04-04T12:46:45.978Z</time></trkpt><trkpt lat="44.99838943029432" lon="9.532993925980653"><ele>91.0</ele><time>2026-04-04T12:46:47.978Z</time></trkpt><trkpt lat="44.99838684573145" lon="9.532868292868654"><ele>91.0</ele><time>2026-04-04T12:46:49.978Z</time></trkpt><trkpt lat="44.99837819157519" lon="9.53273747764053"><ele>91.0</ele><time>2026-04-04T12:46:51.978Z</time></trkpt><trkpt lat="44.998391417338546" lon="9.532614529399032"><ele>91.0</ele><time>2026-04-04T12:46:53.978Z</time></trkpt><trkpt lat="44.99839873108932" lon="9.532493244743796"><ele>91.0</ele><time>2026-04-04T12:46:55.978Z</time></trkpt><trkpt lat="44.99840319352482" lon="9.532372350767817"><ele>91.0</ele><time>2026-04-04T12:46:57.978Z</time></trkpt><trkpt lat="44.99840615715181" lon="9.532255567964508"><ele>91.0</ele><time>2026-04-04T12:46:59.978Z</time></trkpt><trkpt lat="44.99839496559371" lon="9.532134767917746"><ele>91.0</ele><time>2026-04-04T12:47:01.978Z</time></trkpt><trkpt lat="44.99839113092338" lon="9.532018865548842"><ele>91.0</ele><time>2026-04-04T12:47:03.978Z</time></trkpt><trkpt lat="44.99836762496074" lon="9.531904360493256"><ele>91.0</ele><time>2026-04-04T12:47:05.978Z</time></trkpt><trkpt lat="44.998339054050064" lon="9.531793172430211"><ele>91.0</ele><time>2026-04-04T12:47:07.978Z</time></trkpt><trkpt lat="44.99829614493565" lon="9.531695785178155"><ele>91.0</ele><time>2026-04-04T12:47:09.978Z</time></trkpt><trkpt lat="44.99825298134824" lon="9.531611112567603"><ele>91.0</ele><time>2026-04-04T12:47:11.978Z</time></trkpt><trkpt lat="44.998203158404564" lon="9.531523318848345"><ele>91.0</ele><time>2026-04-04T12:47:13.978Z</time></trkpt><trkpt lat="44.998143686795835" lon="9.531439797139715"><ele>91.0</ele><time>2026-04-04T12:47:15.978Z</time></trkpt><trkpt lat="44.998073373222084" lon="9.531361215066125"><ele>91.0</ele><time>2026-04-04T12:47:17.978Z</time></trkpt><trkpt lat="44.99802252191717" lon="9.531253083313274"><ele>91.0</ele><time>2026-04-04T12:47:19.978Z</time></trkpt><trkpt lat="44.997960185862965" lon="9.531161044074706"><ele>91.0</ele><time>2026-04-04T12:47:21.978Z</time></trkpt><trkpt lat="44.99789636525795" lon="9.531072813640836"><ele>91.0</ele><time>2026-04-04T12:47:23.978Z</time></trkpt><trkpt lat="44.99783345518162" lon="9.530973485979915"><ele>90.8</ele><time>2026-04-04T12:47:25.978Z</time></trkpt><trkpt lat="44.99778239383163" lon="9.530850511549675"><ele>90.6</ele><time>2026-04-04T12:47:27.978Z</time></trkpt><trkpt lat="44.99772741728593" lon="9.5307432243102"><ele>90.4</ele><time>2026-04-04T12:47:29.978Z</time></trkpt><trkpt lat="44.997671501131684" lon="9.530643700635222"><ele>90.2</ele><time>2026-04-04T12:47:31.978Z</time></trkpt><trkpt lat="44.997608476154944" lon="9.530559066888351"><ele>90.0</ele><time>2026-04-04T12:47:33.978Z</time></trkpt><trkpt lat="44.99755661159168" lon="9.530464244713716"><ele>90.16666666666667</ele><time>2026-04-04T12:47:35.978Z</time></trkpt><trkpt lat="44.997512090329835" lon="9.530367425579213"><ele>90.33333333333333</ele><time>2026-04-04T12:47:37.978Z</time></trkpt><trkpt lat="44.99745357908485" lon="9.530278027437591"><ele>90.5</ele><time>2026-04-04T12:47:39.978Z</time></trkpt><trkpt lat="44.99740180020132" lon="9.530191497839347"><ele>90.66666666666666</ele><time>2026-04-04T12:47:41.978Z</time></trkpt><trkpt lat="44.99735835554514" lon="9.530111831172547"><ele>90.83333333333333</ele><time>2026-04-04T12:47:43.978Z</time></trkpt><trkpt lat="44.997299971847056" lon="9.530032383817456"><ele>91.0</ele><time>2026-04-04T12:47:45.978Z</time></trkpt><trkpt lat="44.997240089777875" lon="9.529942704226098"><ele>91.0</ele><time>2026-04-04T12:47:47.978Z</time></trkpt><trkpt lat="44.99721212187838" lon="9.529823059166826"><ele>91.0</ele><time>2026-04-04T12:47:49.977Z</time></trkpt><trkpt lat="44.997167787858444" lon="9.52971782202704"><ele>91.0</ele><time>2026-04-04T12:47:51.977Z</time></trkpt><trkpt lat="44.9971138744922" lon="9.52962278571061"><ele>91.0</ele><time>2026-04-04T12:47:53.977Z</time></trkpt><trkpt lat="44.99705591163732" lon="9.529526945149062"><ele>91.0</ele><time>2026-04-04T12:47:55.977Z</time></trkpt><trkpt lat="44.99700750104712" lon="9.529429664412042"><ele>91.0</ele><time>2026-04-04T12:47:57.978Z</time></trkpt><trkpt lat="44.99696071397952" lon="9.529326161277838"><ele>90.83333333333333</ele><time>2026-04-04T12:47:59.977Z</time></trkpt><trkpt lat="44.99691674352648" lon="9.529231832564257"><ele>90.66666666666666</ele><time>2026-04-04T12:48:01.977Z</time></trkpt><trkpt lat="44.99686892149287" lon="9.529146061321848"><ele>90.5</ele><time>2026-04-04T12:48:03.977Z</time></trkpt><trkpt lat="44.99682793292286" lon="9.529042583813869"><ele>90.33333333333333</ele><time>2026-04-04T12:48:05.977Z</time></trkpt><trkpt lat="44.99676464724258" lon="9.528948885672117"><ele>90.16666666666667</ele><time>2026-04-04T12:48:07.977Z</time></trkpt><trkpt lat="44.99671827277381" lon="9.52883190932362"><ele>90.0</ele><time>2026-04-04T12:48:09.977Z</time></trkpt><trkpt lat="44.996667764844275" lon="9.528723526945615"><ele>90.0</ele><time>2026-04-04T12:48:11.977Z</time></trkpt><trkpt lat="44.99661317913207" lon="9.528620711837988"><ele>90.0</ele><time>2026-04-04T12:48:13.977Z</time></trkpt><trkpt lat="44.996558896623114" lon="9.528512210972572"><ele>90.0</ele><time>2026-04-04T12:48:15.977Z</time></trkpt><trkpt lat="44.99650804367804" lon="9.528415492643846"><ele>90.0</ele><time>2026-04-04T12:48:17.977Z</time></trkpt><trkpt lat="44.99646061376268" lon="9.52831548303242"><ele>90.0</ele><time>2026-04-04T12:48:19.977Z</time></trkpt><trkpt lat="44.99640640916044" lon="9.52820808415953"><ele>90.0</ele><time>2026-04-04T12:48:21.977Z</time></trkpt><trkpt lat="44.996351017686315" lon="9.528099802667686"><ele>90.0</ele><time>2026-04-04T12:48:23.977Z</time></trkpt><trkpt lat="44.99629542190559" lon="9.527992766726108"><ele>90.0</ele><time>2026-04-04T12:48:25.977Z</time></trkpt><trkpt lat="44.99623783181202" lon="9.527892179621714"><ele>90.0</ele><time>2026-04-04T12:48:27.977Z</time></trkpt><trkpt lat="44.99618467651932" lon="9.527789334443288"><ele>90.0</ele><time>2026-04-04T12:48:29.977Z</time></trkpt><trkpt lat="44.996140965681796" lon="9.52767675545883"><ele>90.0</ele><time>2026-04-04T12:48:31.977Z</time></trkpt><trkpt lat="44.99608480983846" lon="9.527571113300235"><ele>90.0</ele><time>2026-04-04T12:48:33.977Z</time></trkpt><trkpt lat="44.9960369897875" lon="9.527463374075698"><ele>90.0</ele><time>2026-04-04T12:48:35.977Z</time></trkpt><trkpt lat="44.99598198873374" lon="9.527364166846976"><ele>90.0</ele><time>2026-04-04T12:48:37.977Z</time></trkpt><trkpt lat="44.995928870964306" lon="9.527251386147523"><ele>90.0</ele><time>2026-04-04T12:48:39.977Z</time></trkpt><trkpt lat="44.995880176069754" lon="9.527142890955936"><ele>90.0</ele><time>2026-04-04T12:48:41.977Z</time></trkpt><trkpt lat="44.99583653924613" lon="9.527036848648724"><ele>90.33333333333333</ele><time>2026-04-04T12:48:43.977Z</time></trkpt><trkpt lat="44.99579189638245" lon="9.526934933847187"><ele>90.66666666666667</ele><time>2026-04-04T12:48:45.977Z</time></trkpt><trkpt lat="44.99573519930054" lon="9.526851350869856"><ele>91.0</ele><time>2026-04-04T12:48:47.977Z</time></trkpt><trkpt lat="44.99565729447014" lon="9.526787618333888"><ele>91.33333333333334</ele><time>2026-04-04T12:48:49.977Z</time></trkpt><trkpt lat="44.99557511044361" lon="9.526761718209055"><ele>91.66666666666667</ele><time>2026-04-04T12:48:51.977Z</time></trkpt><trkpt lat="44.995490586927005" lon="9.52674603420669"><ele>92.0</ele><time>2026-04-04T12:48:53.977Z</time></trkpt><trkpt lat="44.995399496751254" lon="9.526747416906508"><ele>92.0</ele><time>2026-04-04T12:48:55.977Z</time></trkpt><trkpt lat="44.995309531991275" lon="9.526747145643045"><ele>92.0</ele><time>2026-04-04T12:48:57.977Z</time></trkpt><trkpt lat="44.99522130914707" lon="9.526758871588004"><ele>92.0</ele><time>2026-04-04T12:48:59.977Z</time></trkpt><trkpt lat="44.99513316363634" lon="9.526768880207976"><ele>92.0</ele><time>2026-04-04T12:49:01.977Z</time></trkpt><trkpt lat="44.995046246823286" lon="9.52677951086579"><ele>92.0</ele><time>2026-04-04T12:49:03.977Z</time></trkpt><trkpt lat="44.99495695901371" lon="9.526782053589057"><ele>92.0</ele><time>2026-04-04T12:49:05.977Z</time></trkpt><trkpt lat="44.99486509807722" lon="9.526778792633422"><ele>92.19999999999999</ele><time>2026-04-04T12:49:07.977Z</time></trkpt><trkpt lat="44.994771958486126" lon="9.52678808823173"><ele>92.4</ele><time>2026-04-04T12:49:09.977Z</time></trkpt><trkpt lat="44.99467621790346" lon="9.526783452683366"><ele>92.6</ele><time>2026-04-04T12:49:11.977Z</time></trkpt><trkpt lat="44.9945848826468" lon="9.526780666389762"><ele>92.80000000000001</ele><time>2026-04-04T12:49:13.977Z</time></trkpt><trkpt lat="44.99449354885139" lon="9.526767031675135"><ele>93.0</ele><time>2026-04-04T12:49:15.977Z</time></trkpt><trkpt lat="44.99439706087816" lon="9.526763580038674"><ele>93.0</ele><time>2026-04-04T12:49:17.977Z</time></trkpt><trkpt lat="44.994305683325905" lon="9.526743929678824"><ele>93.0</ele><time>2026-04-04T12:49:19.977Z</time></trkpt><trkpt lat="44.994212515572926" lon="9.52672618882569"><ele>93.0</ele><time>2026-04-04T12:49:21.977Z</time></trkpt><trkpt lat="44.99411612051323" lon="9.526706177804314"><ele>93.0</ele><time>2026-04-04T12:49:23.977Z</time></trkpt><trkpt lat="44.99402239377227" lon="9.526689654048633"><ele>93.0</ele><time>2026-04-04T12:49:25.977Z</time></trkpt><trkpt lat="44.99392674323002" lon="9.526672842991841"><ele>93.4</ele><time>2026-04-04T12:49:27.977Z</time></trkpt><trkpt lat="44.993836261747745" lon="9.526653551950249"><ele>93.80000000000001</ele><time>2026-04-04T12:49:29.977Z</time></trkpt><trkpt lat="44.99374428746623" lon="9.52663657933457"><ele>94.2</ele><time>2026-04-04T12:49:31.977Z</time></trkpt><trkpt lat="44.99365079778598" lon="9.526620542551129"><ele>94.6</ele><time>2026-04-04T12:49:33.977Z</time></trkpt><trkpt lat="44.993561964750356" lon="9.526599303396795"><ele>95.0</ele><time>2026-04-04T12:49:35.977Z</time></trkpt><trkpt lat="44.993472494589376" lon="9.526575331550251"><ele>95.0</ele><time>2026-04-04T12:49:37.977Z</time></trkpt><trkpt lat="44.99338315651796" lon="9.52654921988624"><ele>95.0</ele><time>2026-04-04T12:49:39.977Z</time></trkpt><trkpt lat="44.993296687950874" lon="9.526510825813448"><ele>95.0</ele><time>2026-04-04T12:49:41.977Z</time></trkpt><trkpt lat="44.993202620608514" lon="9.526480094396778"><ele>95.0</ele><time>2026-04-04T12:49:43.977Z</time></trkpt><trkpt lat="44.99311038357212" lon="9.526454423764745"><ele>95.0</ele><time>2026-04-04T12:49:45.977Z</time></trkpt><trkpt lat="44.99301783990457" lon="9.52642378424602"><ele>95.2</ele><time>2026-04-04T12:49:47.977Z</time></trkpt><trkpt lat="44.99292574976005" lon="9.526401276538515"><ele>95.4</ele><time>2026-04-04T12:49:49.977Z</time></trkpt><trkpt lat="44.99283327410916" lon="9.526374361741148"><ele>95.6</ele><time>2026-04-04T12:49:51.977Z</time></trkpt><trkpt lat="44.9927400296536" lon="9.526341816122768"><ele>95.8</ele><time>2026-04-04T12:49:53.977Z</time></trkpt><trkpt lat="44.99264964259679" lon="9.526317291306455"><ele>96.0</ele><time>2026-04-04T12:49:55.976Z</time></trkpt><trkpt lat="44.99255913111335" lon="9.526290028173078"><ele>95.6</ele><time>2026-04-04T12:49:57.976Z</time></trkpt><trkpt lat="44.99247010461281" lon="9.526258832119318"><ele>95.19999999999999</ele><time>2026-04-04T12:49:59.976Z</time></trkpt><trkpt lat="44.99237991892066" lon="9.526229825042197"><ele>94.80000000000001</ele><time>2026-04-04T12:50:01.977Z</time></trkpt><trkpt lat="44.99228704488319" lon="9.526195836594498"><ele>94.4</ele><time>2026-04-04T12:50:03.976Z</time></trkpt><trkpt lat="44.9921998641876" lon="9.526150882156745"><ele>94.0</ele><time>2026-04-04T12:50:05.975Z</time></trkpt><trkpt lat="44.99211999506524" lon="9.526099167503942"><ele>93.83333333333333</ele><time>2026-04-04T12:50:07.976Z</time></trkpt><trkpt lat="44.9920440408926" lon="9.52603052524082"><ele>93.66666666666666</ele><time>2026-04-04T12:50:09.976Z</time></trkpt><trkpt lat="44.99197082327766" lon="9.525956471188298"><ele>93.5</ele><time>2026-04-04T12:50:11.976Z</time></trkpt><trkpt lat="44.991902908700766" lon="9.525869043024871"><ele>93.33333333333333</ele><time>2026-04-04T12:50:13.976Z</time></trkpt><trkpt lat="44.991837577315046" lon="9.525779976943875"><ele>93.16666666666667</ele><time>2026-04-04T12:50:15.976Z</time></trkpt><trkpt lat="44.9917752891047" lon="9.525697603992267"><ele>93.0</ele><time>2026-04-04T12:50:17.976Z</time></trkpt><trkpt lat="44.99171742936734" lon="9.525609511457128"><ele>93.5</ele><time>2026-04-04T12:50:19.976Z</time></trkpt><trkpt lat="44.991658248948006" lon="9.525526385811478"><ele>94.0</ele><time>2026-04-04T12:50:21.976Z</time></trkpt><trkpt lat="44.99160137661228" lon="9.525437628226229"><ele>94.5</ele><time>2026-04-04T12:50:23.976Z</time></trkpt><trkpt lat="44.99153872010171" lon="9.525349719144714"><ele>95.0</ele><time>2026-04-04T12:50:25.976Z</time></trkpt><trkpt lat="44.99146990952628" lon="9.52526541371827"><ele>95.5</ele><time>2026-04-04T12:50:27.976Z</time></trkpt><trkpt lat="44.99140936088139" lon="9.525168406122356"><ele>96.0</ele><time>2026-04-04T12:50:29.976Z</time></trkpt><trkpt lat="44.99134513372921" lon="9.52508143129069"><ele>96.0</ele><time>2026-04-04T12:50:31.976Z</time></trkpt><trkpt lat="44.991279140473495" lon="9.524988983379911"><ele>96.0</ele><time>2026-04-04T12:50:33.976Z</time></trkpt><trkpt lat="44.99121638532913" lon="9.524898890976202"><ele>96.0</ele><time>2026-04-04T12:50:35.976Z</time></trkpt><trkpt lat="44.99115012669105" lon="9.52481046896683"><ele>96.0</ele><time>2026-04-04T12:50:37.976Z</time></trkpt><trkpt lat="44.99108797872045" lon="9.524724451513958"><ele>96.0</ele><time>2026-04-04T12:50:39.976Z</time></trkpt><trkpt lat="44.99102299231664" lon="9.524626619458665"><ele>96.0</ele><time>2026-04-04T12:50:41.976Z</time></trkpt><trkpt lat="44.990956649114544" lon="9.524539761685709"><ele>96.0</ele><time>2026-04-04T12:50:43.976Z</time></trkpt><trkpt lat="44.99089290385748" lon="9.524445332431268"><ele>96.0</ele><time>2026-04-04T12:50:45.976Z</time></trkpt><trkpt lat="44.990828163801844" lon="9.524355688686143"><ele>96.0</ele><time>2026-04-04T12:50:47.976Z</time></trkpt><trkpt lat="44.99076219884592" lon="9.524272907343418"><ele>96.0</ele><time>2026-04-04T12:50:49.976Z</time></trkpt><trkpt lat="44.9907025517886" lon="9.524196997398104"><ele>96.0</ele><time>2026-04-04T12:50:51.976Z</time></trkpt><trkpt lat="44.99064499994941" lon="9.52411297599251"><ele>96.0</ele><time>2026-04-04T12:50:53.976Z</time></trkpt><trkpt lat="44.990583105204045" lon="9.524028913317503"><ele>96.0</ele><time>2026-04-04T12:50:55.976Z</time></trkpt><trkpt lat="44.99053026319313" lon="9.523949539346955"><ele>96.0</ele><time>2026-04-04T12:50:57.976Z</time></trkpt><trkpt lat="44.99047515461227" lon="9.523867990177736"><ele>96.0</ele><time>2026-04-04T12:50:59.976Z</time></trkpt><trkpt lat="44.99041803639034" lon="9.523782500784854"><ele>96.0</ele><time>2026-04-04T12:51:01.976Z</time></trkpt><trkpt lat="44.99035898478094" lon="9.52371366025523"><ele>96.0</ele><time>2026-04-04T12:51:03.976Z</time></trkpt><trkpt lat="44.99030628211216" lon="9.523655930281834"><ele>96.4</ele><time>2026-04-04T12:51:05.976Z</time></trkpt><trkpt lat="44.990252927246075" lon="9.523587824173143"><ele>96.8</ele><time>2026-04-04T12:51:07.976Z</time></trkpt><trkpt lat="44.99017440076826" lon="9.523523077431392"><ele>97.2</ele><time>2026-04-04T12:51:09.976Z</time></trkpt><trkpt lat="44.990082281377944" lon="9.52348091700188"><ele>97.60000000000001</ele><time>2026-04-04T12:51:11.976Z</time></trkpt><trkpt lat="44.98998787619747" lon="9.52342972729379"><ele>98.0</ele><time>2026-04-04T12:51:13.976Z</time></trkpt><trkpt lat="44.98988892888154" lon="9.523384278893715"><ele>98.0</ele><time>2026-04-04T12:51:15.976Z</time></trkpt><trkpt lat="44.98979021068878" lon="9.523339722960907"><ele>98.0</ele><time>2026-04-04T12:51:17.976Z</time></trkpt><trkpt lat="44.98969271187531" lon="9.523302744695444"><ele>98.0</ele><time>2026-04-04T12:51:19.976Z</time></trkpt><trkpt lat="44.989597788984774" lon="9.523264059873329"><ele>98.0</ele><time>2026-04-04T12:51:21.976Z</time></trkpt><trkpt lat="44.989511481832174" lon="9.5232257214966"><ele>98.0</ele><time>2026-04-04T12:51:23.976Z</time></trkpt><trkpt lat="44.98942994543454" lon="9.523197892110538"><ele>97.99999999999999</ele><time>2026-04-04T12:51:25.976Z</time></trkpt><trkpt lat="44.989346941080754" lon="9.523162388454045"><ele>98.0</ele><time>2026-04-04T12:51:27.976Z</time></trkpt><trkpt lat="44.989266305423726" lon="9.523122437271008"><ele>98.0</ele><time>2026-04-04T12:51:29.976Z</time></trkpt><trkpt lat="44.98918327758485" lon="9.52309463900846"><ele>98.0</ele><time>2026-04-04T12:51:31.976Z</time></trkpt><trkpt lat="44.989097838921985" lon="9.523059987410312"><ele>97.99999999999999</ele><time>2026-04-04T12:51:33.976Z</time></trkpt><trkpt lat="44.98901324839978" lon="9.52302573461396"><ele>98.0</ele><time>2026-04-04T12:51:35.976Z</time></trkpt><trkpt lat="44.988925776091975" lon="9.522991794537685"><ele>97.83333333333333</ele><time>2026-04-04T12:51:37.976Z</time></trkpt><trkpt lat="44.98883916670793" lon="9.522959526090167"><ele>97.66666666666666</ele><time>2026-04-04T12:51:39.976Z</time></trkpt><trkpt lat="44.988753585358054" lon="9.522924360784554"><ele>97.5</ele><time>2026-04-04T12:51:41.976Z</time></trkpt><trkpt lat="44.98866504402718" lon="9.522889187893332"><ele>97.33333333333334</ele><time>2026-04-04T12:51:43.976Z</time></trkpt><trkpt lat="44.98857763095009" lon="9.522851877174642"><ele>97.16666666666667</ele><time>2026-04-04T12:51:45.976Z</time></trkpt><trkpt lat="44.988496575446135" lon="9.522819461504962"><ele>97.0</ele><time>2026-04-04T12:51:47.976Z</time></trkpt><trkpt lat="44.98841905106368" lon="9.522779163770013"><ele>97.33333333333334</ele><time>2026-04-04T12:51:49.976Z</time></trkpt><trkpt lat="44.988330404994706" lon="9.522740105865559"><ele>97.66666666666667</ele><time>2026-04-04T12:51:51.976Z</time></trkpt><trkpt lat="44.98824369335712" lon="9.522713398900144"><ele>98.0</ele><time>2026-04-04T12:51:53.976Z</time></trkpt><trkpt lat="44.98815986700168" lon="9.522682299147686"><ele>98.33333333333334</ele><time>2026-04-04T12:51:55.976Z</time></trkpt><trkpt lat="44.988074390415804" lon="9.522655716092917"><ele>98.66666666666667</ele><time>2026-04-04T12:51:57.976Z</time></trkpt><trkpt lat="44.98798800168928" lon="9.522619324208813"><ele>99.0</ele><time>2026-04-04T12:51:59.976Z</time></trkpt><trkpt lat="44.987902896903734" lon="9.522592018451794"><ele>99.0</ele><time>2026-04-04T12:52:01.974Z</time></trkpt><trkpt lat="44.987824340486384" lon="9.522562622561441"><ele>99.0</ele><time>2026-04-04T12:52:03.975Z</time></trkpt><trkpt lat="44.98774546806225" lon="9.52252501025012"><ele>99.0</ele><time>2026-04-04T12:52:05.975Z</time></trkpt><trkpt lat="44.98766413645178" lon="9.52249242560571"><ele>99.0</ele><time>2026-04-04T12:52:07.975Z</time></trkpt><trkpt lat="44.98758380871567" lon="9.522473623561632"><ele>99.0</ele><time>2026-04-04T12:52:09.975Z</time></trkpt><trkpt lat="44.987507796301124" lon="9.52245956191133"><ele>99.0</ele><time>2026-04-04T12:52:11.975Z</time></trkpt><trkpt lat="44.98743597481973" lon="9.522438660707262"><ele>98.83333333333333</ele><time>2026-04-04T12:52:13.974Z</time></trkpt><trkpt lat="44.987358451510346" lon="9.522426719229022"><ele>98.66666666666666</ele><time>2026-04-04T12:52:15.974Z</time></trkpt><trkpt lat="44.987279277935876" lon="9.522414427636196"><ele>98.5</ele><time>2026-04-04T12:52:17.974Z</time></trkpt><trkpt lat="44.987199417407844" lon="9.522408140963288"><ele>98.33333333333333</ele><time>2026-04-04T12:52:19.974Z</time></trkpt><trkpt lat="44.987117605090326" lon="9.522382305851849"><ele>98.16666666666666</ele><time>2026-04-04T12:52:21.974Z</time></trkpt><trkpt lat="44.98703117052968" lon="9.52235742183335"><ele>98.0</ele><time>2026-04-04T12:52:23.974Z</time></trkpt><trkpt lat="44.98694297423889" lon="9.522332596152356"><ele>97.99999999999999</ele><time>2026-04-04T12:52:25.974Z</time></trkpt><trkpt lat="44.98685881909977" lon="9.522318347859239"><ele>98.0</ele><time>2026-04-04T12:52:27.974Z</time></trkpt><trkpt lat="44.98677043395991" lon="9.522310088828243"><ele>98.0</ele><time>2026-04-04T12:52:29.974Z</time></trkpt><trkpt lat="44.98668146385882" lon="9.522298282535454"><ele>98.0</ele><time>2026-04-04T12:52:31.974Z</time></trkpt><trkpt lat="44.986590321094496" lon="9.522287697033967"><ele>97.99999999999999</ele><time>2026-04-04T12:52:33.974Z</time></trkpt><trkpt lat="44.986497527286105" lon="9.52227961559431"><ele>98.0</ele><time>2026-04-04T12:52:35.974Z</time></trkpt><trkpt lat="44.986410515220825" lon="9.522265756984456"><ele>97.60000000000001</ele><time>2026-04-04T12:52:37.974Z</time></trkpt><trkpt lat="44.98632168204333" lon="9.522260065698061"><ele>97.2</ele><time>2026-04-04T12:52:39.974Z</time></trkpt><trkpt lat="44.98623273926219" lon="9.522244781882327"><ele>96.8</ele><time>2026-04-04T12:52:41.974Z</time></trkpt><trkpt lat="44.98613952112747" lon="9.52224167472596"><ele>96.4</ele><time>2026-04-04T12:52:43.974Z</time></trkpt><trkpt lat="44.986050284356935" lon="9.522221027092307"><ele>96.0</ele><time>2026-04-04T12:52:45.974Z</time></trkpt><trkpt lat="44.98595814186709" lon="9.522197443804417"><ele>96.0</ele><time>2026-04-04T12:52:47.974Z</time></trkpt><trkpt lat="44.98586630277979" lon="9.52218446944733"><ele>96.0</ele><time>2026-04-04T12:52:49.974Z</time></trkpt><trkpt lat="44.985771864178744" lon="9.522172688052274"><ele>96.0</ele><time>2026-04-04T12:52:51.974Z</time></trkpt><trkpt lat="44.98567519281445" lon="9.522155725824293"><ele>96.0</ele><time>2026-04-04T12:52:53.974Z</time></trkpt><trkpt lat="44.98558793284735" lon="9.522140311674944"><ele>96.0</ele><time>2026-04-04T12:52:55.974Z</time></trkpt><trkpt lat="44.98550026744829" lon="9.522128229078291"><ele>96.33333333333333</ele><time>2026-04-04T12:52:57.974Z</time></trkpt><trkpt lat="44.985413633001755" lon="9.5221166655714"><ele>96.66666666666666</ele><time>2026-04-04T12:52:59.974Z</time></trkpt><trkpt lat="44.98533528423918" lon="9.522108977643871"><ele>97.0</ele><time>2026-04-04T12:53:01.974Z</time></trkpt><trkpt lat="44.98526460016494" lon="9.522092780695521"><ele>97.33333333333333</ele><time>2026-04-04T12:53:03.974Z</time></trkpt><trkpt lat="44.98519450916146" lon="9.522079042933068"><ele>97.66666666666666</ele><time>2026-04-04T12:53:05.974Z</time></trkpt><trkpt lat="44.985120928093686" lon="9.522070010296792"><ele>98.0</ele><time>2026-04-04T12:53:07.974Z</time></trkpt><trkpt lat="44.98504431524431" lon="9.522067666656607"><ele>98.16666666666666</ele><time>2026-04-04T12:53:09.974Z</time></trkpt><trkpt lat="44.98496645723821" lon="9.522059075075607"><ele>98.33333333333333</ele><time>2026-04-04T12:53:11.974Z</time></trkpt><trkpt lat="44.984893258244576" lon="9.522065106589235"><ele>98.5</ele><time>2026-04-04T12:53:13.974Z</time></trkpt><trkpt lat="44.98481959624348" lon="9.522077305135872"><ele>98.66666666666666</ele><time>2026-04-04T12:53:15.974Z</time></trkpt><trkpt lat="44.984734423916706" lon="9.522102329613524"><ele>98.83333333333333</ele><time>2026-04-04T12:53:17.974Z</time></trkpt><trkpt lat="44.98464667359853" lon="9.522134529979047"><ele>99.0</ele><time>2026-04-04T12:53:19.974Z</time></trkpt><trkpt lat="44.984559436804" lon="9.522167051953563"><ele>99.0</ele><time>2026-04-04T12:53:21.974Z</time></trkpt><trkpt lat="44.98446930158049" lon="9.522196958815812"><ele>99.0</ele><time>2026-04-04T12:53:23.974Z</time></trkpt><trkpt lat="44.98437768534361" lon="9.522230346598649"><ele>99.0</ele><time>2026-04-04T12:53:25.974Z</time></trkpt><trkpt lat="44.98428415799325" lon="9.522255497154847"><ele>99.0</ele><time>2026-04-04T12:53:27.974Z</time></trkpt><trkpt lat="44.984193642900486" lon="9.522273337072715"><ele>99.0</ele><time>2026-04-04T12:53:29.974Z</time></trkpt><trkpt lat="44.98411103492548" lon="9.522306627749"><ele>99.16666666666667</ele><time>2026-04-04T12:53:31.974Z</time></trkpt><trkpt lat="44.984018121159565" lon="9.522319240181952"><ele>99.33333333333334</ele><time>2026-04-04T12:53:33.974Z</time></trkpt><trkpt lat="44.98392604372867" lon="9.522342087267038"><ele>99.5</ele><time>2026-04-04T12:53:35.974Z</time></trkpt><trkpt lat="44.98383566268728" lon="9.522359013384312"><ele>99.66666666666667</ele><time>2026-04-04T12:53:37.974Z</time></trkpt><trkpt lat="44.98374856559631" lon="9.522366960339967"><ele>99.83333333333334</ele><time>2026-04-04T12:53:39.973Z</time></trkpt><trkpt lat="44.98366557492915" lon="9.522387236336858"><ele>100.0</ele><time>2026-04-04T12:53:41.972Z</time></trkpt><trkpt lat="44.98357941515021" lon="9.52239517297712"><ele>100.00000000000001</ele><time>2026-04-04T12:53:43.971Z</time></trkpt><trkpt lat="44.98349076407934" lon="9.5224046930509"><ele>100.0</ele><time>2026-04-04T12:53:45.97Z</time></trkpt><trkpt lat="44.983403584875056" lon="9.522414273089574"><ele>100.0</ele><time>2026-04-04T12:53:47.969Z</time></trkpt><trkpt lat="44.983315902855544" lon="9.52241985435903"><ele>100.0</ele><time>2026-04-04T12:53:49.969Z</time></trkpt><trkpt lat="44.98322713147371" lon="9.522423427476392"><ele>100.00000000000001</ele><time>2026-04-04T12:53:51.968Z</time></trkpt><trkpt lat="44.98314257950364" lon="9.522424233258231"><ele>100.0</ele><time>2026-04-04T12:53:53.968Z</time></trkpt><trkpt lat="44.98305921643966" lon="9.522419073179325"><ele>99.83333333333334</ele><time>2026-04-04T12:53:55.967Z</time></trkpt><trkpt lat="44.982976638755034" lon="9.522403109818496"><ele>99.66666666666667</ele><time>2026-04-04T12:53:57.967Z</time></trkpt><trkpt lat="44.982891673760705" lon="9.522388858002975"><ele>99.5</ele><time>2026-04-04T12:53:59.966Z</time></trkpt><trkpt lat="44.9828085157642" lon="9.522370764046926"><ele>99.33333333333334</ele><time>2026-04-04T12:54:01.966Z</time></trkpt><trkpt lat="44.982725305383234" lon="9.522347719633405"><ele>99.16666666666667</ele><time>2026-04-04T12:54:03.966Z</time></trkpt><trkpt lat="44.982643594455844" lon="9.52231878811563"><ele>99.0</ele><time>2026-04-04T12:54:05.966Z</time></trkpt><trkpt lat="44.982564237895396" lon="9.522297913081687"><ele>99.33333333333333</ele><time>2026-04-04T12:54:07.965Z</time></trkpt><trkpt lat="44.982484320860834" lon="9.522262061482555"><ele>99.66666666666666</ele><time>2026-04-04T12:54:09.965Z</time></trkpt><trkpt lat="44.982406796018886" lon="9.522233060450853"><ele>100.0</ele><time>2026-04-04T12:54:11.965Z</time></trkpt><trkpt lat="44.98233651005336" lon="9.522193402170693"><ele>100.33333333333333</ele><time>2026-04-04T12:54:13.964Z</time></trkpt><trkpt lat="44.98226929924848" lon="9.522157543226522"><ele>100.66666666666666</ele><time>2026-04-04T12:54:15.965Z</time></trkpt><trkpt lat="44.98220066238506" lon="9.522119271634953"><ele>101.0</ele><time>2026-04-04T12:54:17.964Z</time></trkpt><trkpt lat="44.98213502443325" lon="9.522078665419325"><ele>100.99999999999999</ele><time>2026-04-04T12:54:19.964Z</time></trkpt><trkpt lat="44.98207001356502" lon="9.522035987399246"><ele>101.0</ele><time>2026-04-04T12:54:21.964Z</time></trkpt><trkpt lat="44.98199770859592" lon="9.521974068485434"><ele>101.0</ele><time>2026-04-04T12:54:23.964Z</time></trkpt><trkpt lat="44.981921696561336" lon="9.521929333913716"><ele>101.0</ele><time>2026-04-04T12:54:25.964Z</time></trkpt><trkpt lat="44.98183921951171" lon="9.521880885089947"><ele>100.99999999999999</ele><time>2026-04-04T12:54:27.964Z</time></trkpt><trkpt lat="44.98175870749266" lon="9.521836883199752"><ele>101.0</ele><time>2026-04-04T12:54:29.964Z</time></trkpt><trkpt lat="44.98167796689321" lon="9.52179935095857"><ele>101.0</ele><time>2026-04-04T12:54:31.964Z</time></trkpt><trkpt lat="44.98159183954396" lon="9.521761933284187"><ele>101.0</ele><time>2026-04-04T12:54:33.964Z</time></trkpt><trkpt lat="44.98150279051734" lon="9.521749963725085"><ele>101.0</ele><time>2026-04-04T12:54:35.964Z</time></trkpt><trkpt lat="44.98141077960349" lon="9.521745872553199"><ele>101.0</ele><time>2026-04-04T12:54:37.964Z</time></trkpt><trkpt lat="44.98131494672232" lon="9.521752020291752"><ele>101.0</ele><time>2026-04-04T12:54:39.964Z</time></trkpt><trkpt lat="44.98122199608215" lon="9.521767782788151"><ele>101.0</ele><time>2026-04-04T12:54:41.964Z</time></trkpt><trkpt lat="44.98112155685115" lon="9.52177690820924"><ele>101.0</ele><time>2026-04-04T12:54:43.964Z</time></trkpt><trkpt lat="44.98101999633056" lon="9.521806764734738"><ele>101.0</ele><time>2026-04-04T12:54:45.964Z</time></trkpt><trkpt lat="44.980914378470736" lon="9.521834694198303"><ele>101.0</ele><time>2026-04-04T12:54:47.964Z</time></trkpt><trkpt lat="44.98080254182974" lon="9.521845558159683"><ele>101.0</ele><time>2026-04-04T12:54:49.964Z</time></trkpt><trkpt lat="44.98068372337028" lon="9.521877794836996"><ele>100.8</ele><time>2026-04-04T12:54:51.964Z</time></trkpt><trkpt lat="44.98056871265556" lon="9.521923565875877"><ele>100.6</ele><time>2026-04-04T12:54:53.964Z</time></trkpt><trkpt lat="44.980458665866834" lon="9.521961165802733"><ele>100.4</ele><time>2026-04-04T12:54:55.964Z</time></trkpt><trkpt lat="44.98035124291181" lon="9.522000839823967"><ele>100.2</ele><time>2026-04-04T12:54:57.964Z</time></trkpt><trkpt lat="44.98025607805225" lon="9.522060552676294"><ele>100.0</ele><time>2026-04-04T12:54:59.963Z</time></trkpt><trkpt lat="44.98016396026447" lon="9.522106654931134"><ele>100.4</ele><time>2026-04-04T12:55:01.963Z</time></trkpt><trkpt lat="44.980075825192785" lon="9.522184387401195"><ele>100.8</ele><time>2026-04-04T12:55:03.963Z</time></trkpt><trkpt lat="44.97998705986308" lon="9.522260410412603"><ele>101.19999999999999</ele><time>2026-04-04T12:55:05.963Z</time></trkpt><trkpt lat="44.979894699713064" lon="9.522333896359699"><ele>101.6</ele><time>2026-04-04T12:55:07.963Z</time></trkpt><trkpt lat="44.979795590421375" lon="9.522386602459962"><ele>102.0</ele><time>2026-04-04T12:55:09.963Z</time></trkpt><trkpt lat="44.97970278338734" lon="9.522425673326534"><ele>102.0</ele><time>2026-04-04T12:55:11.963Z</time></trkpt><trkpt lat="44.97961372696691" lon="9.522451240511057"><ele>102.0</ele><time>2026-04-04T12:55:13.963Z</time></trkpt><trkpt lat="44.979519457823656" lon="9.522465618820965"><ele>102.0</ele><time>2026-04-04T12:55:15.963Z</time></trkpt><trkpt lat="44.97942976625047" lon="9.522486684168577"><ele>102.0</ele><time>2026-04-04T12:55:17.963Z</time></trkpt><trkpt lat="44.97933610209438" lon="9.522510279991707"><ele>102.0</ele><time>2026-04-04T12:55:19.963Z</time></trkpt><trkpt lat="44.9792417572759" lon="9.522527199523175"><ele>101.6</ele><time>2026-04-04T12:55:21.963Z</time></trkpt><trkpt lat="44.97914747505091" lon="9.522544950926964"><ele>101.19999999999999</ele><time>2026-04-04T12:55:23.963Z</time></trkpt><trkpt lat="44.97905195137071" lon="9.52256092760295"><ele>100.8</ele><time>2026-04-04T12:55:25.963Z</time></trkpt><trkpt lat="44.978954823141" lon="9.522575808096704"><ele>100.4</ele><time>2026-04-04T12:55:27.963Z</time></trkpt><trkpt lat="44.9788563120909" lon="9.522593112387435"><ele>100.0</ele><time>2026-04-04T12:55:29.963Z</time></trkpt><trkpt lat="44.97875526143979" lon="9.522611903952757"><ele>100.0</ele><time>2026-04-04T12:55:31.963Z</time></trkpt><trkpt lat="44.97865892261562" lon="9.522625719280404"><ele>100.0</ele><time>2026-04-04T12:55:33.963Z</time></trkpt><trkpt lat="44.97856222188743" lon="9.52263993306632"><ele>100.0</ele><time>2026-04-04T12:55:35.963Z</time></trkpt><trkpt lat="44.978467079464465" lon="9.522638645643866"><ele>100.0</ele><time>2026-04-04T12:55:37.963Z</time></trkpt><trkpt lat="44.97837437620918" lon="9.522627977240786"><ele>100.0</ele><time>2026-04-04T12:55:39.963Z</time></trkpt><trkpt lat="44.97827706470352" lon="9.522601845266337"><ele>100.4</ele><time>2026-04-04T12:55:41.963Z</time></trkpt><trkpt lat="44.978180878778154" lon="9.522572615809542"><ele>100.8</ele><time>2026-04-04T12:55:43.963Z</time></trkpt><trkpt lat="44.97808939237369" lon="9.522549509771219"><ele>101.19999999999999</ele><time>2026-04-04T12:55:45.963Z</time></trkpt><trkpt lat="44.977997935872054" lon="9.522519741836007"><ele>101.6</ele><time>2026-04-04T12:55:47.963Z</time></trkpt><trkpt lat="44.97790372431633" lon="9.522490074134513"><ele>102.0</ele><time>2026-04-04T12:55:49.963Z</time></trkpt><trkpt lat="44.97780920043327" lon="9.522457369681137"><ele>102.0</ele><time>2026-04-04T12:55:51.963Z</time></trkpt><trkpt lat="44.97771770501174" lon="9.522430355185772"><ele>102.0</ele><time>2026-04-04T12:55:53.963Z</time></trkpt><trkpt lat="44.9776213190911" lon="9.522403793876537"><ele>102.0</ele><time>2026-04-04T12:55:55.963Z</time></trkpt><trkpt lat="44.97752720012686" lon="9.522369220736907"><ele>102.0</ele><time>2026-04-04T12:55:57.963Z</time></trkpt><trkpt lat="44.977437221282536" lon="9.522346084996054"><ele>102.0</ele><time>2026-04-04T12:55:59.963Z</time></trkpt><trkpt lat="44.97734909625986" lon="9.522316603098911"><ele>102.19999999999999</ele><time>2026-04-04T12:56:01.963Z</time></trkpt><trkpt lat="44.97726151126808" lon="9.522294278710886"><ele>102.4</ele><time>2026-04-04T12:56:03.963Z</time></trkpt><trkpt lat="44.97716929140803" lon="9.522260961279587"><ele>102.6</ele><time>2026-04-04T12:56:05.963Z</time></trkpt><trkpt lat="44.977080204012516" lon="9.522229548813526"><ele>102.80000000000001</ele><time>2026-04-04T12:56:07.963Z</time></trkpt><trkpt lat="44.97698998695701" lon="9.522202530865432"><ele>103.0</ele><time>2026-04-04T12:56:09.963Z</time></trkpt><trkpt lat="44.97689802208372" lon="9.522180915832884"><ele>103.00000000000001</ele><time>2026-04-04T12:56:11.963Z</time></trkpt><trkpt lat="44.97681247349446" lon="9.52215677538757"><ele>103.0</ele><time>2026-04-04T12:56:13.962Z</time></trkpt><trkpt lat="44.97673095785675" lon="9.52212219362601"><ele>103.0</ele><time>2026-04-04T12:56:15.962Z</time></trkpt><trkpt lat="44.97664916459327" lon="9.522098896062236"><ele>103.0</ele><time>2026-04-04T12:56:17.962Z</time></trkpt><trkpt lat="44.97655669634515" lon="9.522070714543288"><ele>103.00000000000001</ele><time>2026-04-04T12:56:19.962Z</time></trkpt><trkpt lat="44.9764640759844" lon="9.522048977564896"><ele>103.0</ele><time>2026-04-04T12:56:21.963Z</time></trkpt><trkpt lat="44.976368876561864" lon="9.52201983517464"><ele>103.16666666666667</ele><time>2026-04-04T12:56:23.962Z</time></trkpt><trkpt lat="44.97628382276564" lon="9.521989738149015"><ele>103.33333333333334</ele><time>2026-04-04T12:56:25.962Z</time></trkpt><trkpt lat="44.97619681851311" lon="9.52195958938582"><ele>103.5</ele><time>2026-04-04T12:56:27.962Z</time></trkpt><trkpt lat="44.976109696325146" lon="9.521932406030876"><ele>103.66666666666666</ele><time>2026-04-04T12:56:29.962Z</time></trkpt><trkpt lat="44.976022852514895" lon="9.521913782221418"><ele>103.83333333333333</ele><time>2026-04-04T12:56:31.962Z</time></trkpt><trkpt lat="44.97593320691119" lon="9.521879634183701"><ele>104.0</ele><time>2026-04-04T12:56:33.962Z</time></trkpt><trkpt lat="44.975842910661456" lon="9.521852479762977"><ele>104.16666666666666</ele><time>2026-04-04T12:56:35.962Z</time></trkpt><trkpt lat="44.97575887560225" lon="9.521821190139454"><ele>104.33333333333333</ele><time>2026-04-04T12:56:37.962Z</time></trkpt><trkpt lat="44.97566798194841" lon="9.521796966443482"><ele>104.5</ele><time>2026-04-04T12:56:39.962Z</time></trkpt><trkpt lat="44.97557767143982" lon="9.52177120647483"><ele>104.66666666666666</ele><time>2026-04-04T12:56:41.962Z</time></trkpt><trkpt lat="44.97549073115189" lon="9.521742925693726"><ele>104.83333333333333</ele><time>2026-04-04T12:56:43.962Z</time></trkpt><trkpt lat="44.97540618653306" lon="9.521711442852505"><ele>105.0</ele><time>2026-04-04T12:56:45.962Z</time></trkpt><trkpt lat="44.97532460440391" lon="9.521686952368698"><ele>105.0</ele><time>2026-04-04T12:56:47.962Z</time></trkpt><trkpt lat="44.97524797950147" lon="9.521661755785718"><ele>105.0</ele><time>2026-04-04T12:56:49.962Z</time></trkpt><trkpt lat="44.97517142352539" lon="9.521639148336485"><ele>105.0</ele><time>2026-04-04T12:56:51.962Z</time></trkpt><trkpt lat="44.97509471438677" lon="9.521627901589179"><ele>105.0</ele><time>2026-04-04T12:56:53.961Z</time></trkpt><trkpt lat="44.97502597524027" lon="9.521686237344259"><ele>105.0</ele><time>2026-04-04T12:56:55.961Z</time></trkpt><trkpt lat="44.97497742989484" lon="9.5217791333696"><ele>105.0</ele><time>2026-04-04T12:56:57.961Z</time></trkpt><trkpt lat="44.974946251014025" lon="9.521886498069206"><ele>105.16666666666667</ele><time>2026-04-04T12:56:59.961Z</time></trkpt><trkpt lat="44.97493045887983" lon="9.521994635092875"><ele>105.33333333333334</ele><time>2026-04-04T12:57:01.961Z</time></trkpt><trkpt lat="44.97491611829618" lon="9.522104789985642"><ele>105.5</ele><time>2026-04-04T12:57:03.961Z</time></trkpt><trkpt lat="44.974895003264045" lon="9.522209119203687"><ele>105.66666666666667</ele><time>2026-04-04T12:57:05.961Z</time></trkpt><trkpt lat="44.97487916874693" lon="9.522314289944873"><ele>105.83333333333334</ele><time>2026-04-04T12:57:07.961Z</time></trkpt><trkpt lat="44.97486567709816" lon="9.52241902088358"><ele>106.0</ele><time>2026-04-04T12:57:09.961Z</time></trkpt><trkpt lat="44.97485417550212" lon="9.522520404655845"><ele>106.57142857142857</ele><time>2026-04-04T12:57:11.961Z</time></trkpt><trkpt lat="44.97484781372731" lon="9.52261730961748"><ele>107.14285714285714</ele><time>2026-04-04T12:57:13.961Z</time></trkpt><trkpt lat="44.97484313837305" lon="9.522714849451388"><ele>107.71428571428571</ele><time>2026-04-04T12:57:15.961Z</time></trkpt><trkpt lat="44.974833185775054" lon="9.522812403533758"><ele>108.28571428571428</ele><time>2026-04-04T12:57:17.961Z</time></trkpt><trkpt lat="44.97482965243037" lon="9.522903460123747"><ele>108.85714285714286</ele><time>2026-04-04T12:57:19.961Z</time></trkpt><trkpt lat="44.97482330834597" lon="9.522997184178355"><ele>109.42857142857142</ele><time>2026-04-04T12:57:21.961Z</time></trkpt><trkpt lat="44.97481339703487" lon="9.523085864183221"><ele>110.0</ele><time>2026-04-04T12:57:23.961Z</time></trkpt><trkpt lat="44.97480587947621" lon="9.523215494643386"><ele>110.42857142857142</ele><time>2026-04-04T12:57:26.961Z</time></trkpt><trkpt lat="44.97479508466337" lon="9.523305156188334"><ele>110.85714285714286</ele><time>2026-04-04T12:57:28.961Z</time></trkpt><trkpt lat="44.97478803998897" lon="9.523395557508678"><ele>111.28571428571428</ele><time>2026-04-04T12:57:30.961Z</time></trkpt><trkpt lat="44.97478066518067" lon="9.523484781988829"><ele>111.71428571428571</ele><time>2026-04-04T12:57:32.961Z</time></trkpt><trkpt lat="44.97476811726633" lon="9.523611161002776"><ele>112.14285714285714</ele><time>2026-04-04T12:57:35.961Z</time></trkpt><trkpt lat="44.97475509444228" lon="9.523728580601265"><ele>112.57142857142857</ele><time>2026-04-04T12:57:38.961Z</time></trkpt><trkpt lat="44.974738333518545" lon="9.523835792476488"><ele>113.0</ele><time>2026-04-04T12:57:41.961Z</time></trkpt><trkpt lat="44.97472716869143" lon="9.523936872076401"><ele>113.0</ele><time>2026-04-04T12:57:44.961Z</time></trkpt><trkpt lat="44.97477174091578" lon="9.52384309960175"><ele>113.00000000000001</ele><time>2026-04-04T12:58:31.961Z</time></trkpt><trkpt lat="44.974778296733774" lon="9.52373733942307"><ele>113.00000000000001</ele><time>2026-04-04T12:58:33.961Z</time></trkpt><trkpt lat="44.97479445383732" lon="9.523604705532632"><ele>113.0</ele><time>2026-04-04T12:58:35.961Z</time></trkpt><trkpt lat="44.974817169139136" lon="9.523451568614346"><ele>113.0</ele><time>2026-04-04T12:58:37.961Z</time></trkpt><trkpt lat="44.9748381572357" lon="9.52327756721507"><ele>112.99999999999999</ele><time>2026-04-04T12:58:39.961Z</time></trkpt><trkpt lat="44.97484452413465" lon="9.523182293755657"><ele>113.0</ele><time>2026-04-04T12:58:40.961Z</time></trkpt><trkpt lat="44.97485445932071" lon="9.523084599791334"><ele>113.0</ele><time>2026-04-04T12:58:41.961Z</time></trkpt><trkpt lat="44.97486956238179" lon="9.522934055260802"><ele>113.0</ele><time>2026-04-04T12:58:43.961Z</time></trkpt><trkpt lat="44.974880401049504" lon="9.52279799155175"><ele>112.99999999999999</ele><time>2026-04-04T12:58:45.961Z</time></trkpt><trkpt lat="44.97489416479047" lon="9.522648686499473"><ele>113.0</ele><time>2026-04-04T12:58:47.961Z</time></trkpt><trkpt lat="44.974905363227684" lon="9.522478096798787"><ele>112.49999999999999</ele><time>2026-04-04T12:58:49.961Z</time></trkpt><trkpt lat="44.97491674036003" lon="9.522386882727623"><ele>112.0</ele><time>2026-04-04T12:58:50.961Z</time></trkpt><trkpt lat="44.97492659178732" lon="9.522287822261893"><ele>111.5</ele><time>2026-04-04T12:58:51.961Z</time></trkpt><trkpt lat="44.97494245268651" lon="9.522186886998952"><ele>111.0</ele><time>2026-04-04T12:58:52.961Z</time></trkpt><trkpt lat="44.97495882483308" lon="9.522084935327523"><ele>110.49999999999999</ele><time>2026-04-04T12:58:53.961Z</time></trkpt><trkpt lat="44.97497319319119" lon="9.521989674293481"><ele>110.0</ele><time>2026-04-04T12:58:54.961Z</time></trkpt><trkpt lat="44.97499277466216" lon="9.521821259960358"><ele>109.0</ele><time>2026-04-04T12:58:56.961Z</time></trkpt><trkpt lat="44.975051321233366" lon="9.521682746236035"><ele>108.0</ele><time>2026-04-04T12:58:58.961Z</time></trkpt><trkpt lat="44.97520675708669" lon="9.521680516491537"><ele>107.0</ele><time>2026-04-04T12:59:00.961Z</time></trkpt><trkpt lat="44.97527234801239" lon="9.521708916324997"><ele>106.0</ele><time>2026-04-04T12:59:01.961Z</time></trkpt><trkpt lat="44.975336450365674" lon="9.521731433719397"><ele>105.0</ele><time>2026-04-04T12:59:02.961Z</time></trkpt><trkpt lat="44.97545584488294" lon="9.521779450939663"><ele>105.0</ele><time>2026-04-04T12:59:04.961Z</time></trkpt><trkpt lat="44.97556738178901" lon="9.521817471007342"><ele>105.0</ele><time>2026-04-04T12:59:06.961Z</time></trkpt><trkpt lat="44.97567621729108" lon="9.521857550478229"><ele>105.0</ele><time>2026-04-04T12:59:08.96Z</time></trkpt><trkpt lat="44.975783422574494" lon="9.52189475822948"><ele>105.0</ele><time>2026-04-04T12:59:10.96Z</time></trkpt><trkpt lat="44.97589196723325" lon="9.521932999979445"><ele>105.0</ele><time>2026-04-04T12:59:12.96Z</time></trkpt><trkpt lat="44.9759969937222" lon="9.521963021205773"><ele>105.0</ele><time>2026-04-04T12:59:14.96Z</time></trkpt><trkpt lat="44.97609771156995" lon="9.521994525280885"><ele>105.0</ele><time>2026-04-04T12:59:16.96Z</time></trkpt><trkpt lat="44.97619790951148" lon="9.522026352082161"><ele>105.0</ele><time>2026-04-04T12:59:18.96Z</time></trkpt><trkpt lat="44.97630422007212" lon="9.522058719905331"><ele>105.0</ele><time>2026-04-04T12:59:20.96Z</time></trkpt><trkpt lat="44.97640948997681" lon="9.522083141996335"><ele>105.0</ele><time>2026-04-04T12:59:22.96Z</time></trkpt><trkpt lat="44.976514986054326" lon="9.52211853843047"><ele>105.0</ele><time>2026-04-04T12:59:24.96Z</time></trkpt><trkpt lat="44.97661781521325" lon="9.522149490817158"><ele>105.0</ele><time>2026-04-04T12:59:26.96Z</time></trkpt><trkpt lat="44.97672138528563" lon="9.522187766164544"><ele>105.0</ele><time>2026-04-04T12:59:28.96Z</time></trkpt><trkpt lat="44.97682026304718" lon="9.522217096922233"><ele>105.0</ele><time>2026-04-04T12:59:30.96Z</time></trkpt><trkpt lat="44.97692581376198" lon="9.522246639780576"><ele>105.0</ele><time>2026-04-04T12:59:32.96Z</time></trkpt><trkpt lat="44.97702848567818" lon="9.522283863037321"><ele>104.6</ele><time>2026-04-04T12:59:34.96Z</time></trkpt><trkpt lat="44.97713144106173" lon="9.522313935346244"><ele>104.2</ele><time>2026-04-04T12:59:36.96Z</time></trkpt><trkpt lat="44.97723429288526" lon="9.522348744403219"><ele>103.80000000000001</ele><time>2026-04-04T12:59:38.96Z</time></trkpt><trkpt lat="44.97733046605572" lon="9.52237245619896"><ele>103.4</ele><time>2026-04-04T12:59:40.96Z</time></trkpt><trkpt lat="44.97742441717844" lon="9.522393221635141"><ele>103.0</ele><time>2026-04-04T12:59:42.96Z</time></trkpt><trkpt lat="44.977522965793256" lon="9.522420564856345"><ele>102.80000000000001</ele><time>2026-04-04T12:59:44.96Z</time></trkpt><trkpt lat="44.97761661326131" lon="9.522445605987391"><ele>102.6</ele><time>2026-04-04T12:59:46.96Z</time></trkpt><trkpt lat="44.97770842626222" lon="9.522469944511306"><ele>102.4</ele><time>2026-04-04T12:59:48.96Z</time></trkpt><trkpt lat="44.9778013239143" lon="9.522492382487366"><ele>102.19999999999999</ele><time>2026-04-04T12:59:50.96Z</time></trkpt><trkpt lat="44.97789651566232" lon="9.522528842090987"><ele>102.0</ele><time>2026-04-04T12:59:52.96Z</time></trkpt><trkpt lat="44.97799384850009" lon="9.522560138948853"><ele>102.0</ele><time>2026-04-04T12:59:54.96Z</time></trkpt><trkpt lat="44.97809889614893" lon="9.522587419381045"><ele>102.0</ele><time>2026-04-04T12:59:56.96Z</time></trkpt><trkpt lat="44.97819835850526" lon="9.522617529135106"><ele>102.0</ele><time>2026-04-04T12:59:58.96Z</time></trkpt><trkpt lat="44.978292147440754" lon="9.522648823180576"><ele>102.0</ele><time>2026-04-04T13:00:00.96Z</time></trkpt><trkpt lat="44.978388092438884" lon="9.522665573344705"><ele>102.0</ele><time>2026-04-04T13:00:02.96Z</time></trkpt><trkpt lat="44.978483894598284" lon="9.522683683673376"><ele>101.6</ele><time>2026-04-04T13:00:04.96Z</time></trkpt><trkpt lat="44.97857988001617" lon="9.522678109714377"><ele>101.19999999999999</ele><time>2026-04-04T13:00:06.96Z</time></trkpt><trkpt lat="44.97867668670095" lon="9.522663371685171"><ele>100.8</ele><time>2026-04-04T13:00:08.96Z</time></trkpt><trkpt lat="44.97878074808154" lon="9.522649737593193"><ele>100.4</ele><time>2026-04-04T13:00:10.96Z</time></trkpt><trkpt lat="44.978885092962926" lon="9.522631910367773"><ele>100.0</ele><time>2026-04-04T13:00:12.96Z</time></trkpt><trkpt lat="44.97898799857978" lon="9.522610125150681"><ele>100.0</ele><time>2026-04-04T13:00:14.96Z</time></trkpt><trkpt lat="44.979086502391695" lon="9.522596793856502"><ele>100.0</ele><time>2026-04-04T13:00:16.96Z</time></trkpt><trkpt lat="44.97918480800581" lon="9.522572648430453"><ele>100.0</ele><time>2026-04-04T13:00:18.96Z</time></trkpt><trkpt lat="44.97928499634603" lon="9.522553469037973"><ele>100.0</ele><time>2026-04-04T13:00:20.96Z</time></trkpt><trkpt lat="44.979386265875625" lon="9.522538051029997"><ele>100.0</ele><time>2026-04-04T13:00:22.96Z</time></trkpt><trkpt lat="44.97949418032114" lon="9.522519389574729"><ele>100.4</ele><time>2026-04-04T13:00:24.959Z</time></trkpt><trkpt lat="44.979599455028094" lon="9.522496189357005"><ele>100.8</ele><time>2026-04-04T13:00:26.959Z</time></trkpt><trkpt lat="44.97970597307735" lon="9.52246135836053"><ele>101.19999999999999</ele><time>2026-04-04T13:00:28.958Z</time></trkpt><trkpt lat="44.97981327784489" lon="9.522419235758544"><ele>101.6</ele><time>2026-04-04T13:00:30.959Z</time></trkpt><trkpt lat="44.97991968888246" lon="9.522361983486356"><ele>102.0</ele><time>2026-04-04T13:00:32.959Z</time></trkpt><trkpt lat="44.980020937425444" lon="9.522284799405826"><ele>102.39999999999999</ele><time>2026-04-04T13:00:34.959Z</time></trkpt><trkpt lat="44.980121428082995" lon="9.52220567287822"><ele>102.8</ele><time>2026-04-04T13:00:36.959Z</time></trkpt><trkpt lat="44.980214263897054" lon="9.522124390969799"><ele>103.2</ele><time>2026-04-04T13:00:38.959Z</time></trkpt><trkpt lat="44.98031416215098" lon="9.522051430979765"><ele>103.6</ele><time>2026-04-04T13:00:40.959Z</time></trkpt><trkpt lat="44.980412694602464" lon="9.52200233455812"><ele>104.0</ele><time>2026-04-04T13:00:42.959Z</time></trkpt><trkpt lat="44.980513058464794" lon="9.521976873041082"><ele>103.4</ele><time>2026-04-04T13:00:44.959Z</time></trkpt><trkpt lat="44.98060866368476" lon="9.521948561431884"><ele>102.80000000000001</ele><time>2026-04-04T13:00:46.959Z</time></trkpt><trkpt lat="44.98070427151212" lon="9.52192561116022"><ele>102.19999999999999</ele><time>2026-04-04T13:00:48.959Z</time></trkpt><trkpt lat="44.98079676344509" lon="9.521905211227248"><ele>101.6</ele><time>2026-04-04T13:00:50.959Z</time></trkpt><trkpt lat="44.98088350982574" lon="9.521881844479944"><ele>101.0</ele><time>2026-04-04T13:00:52.959Z</time></trkpt><trkpt lat="44.98096840608195" lon="9.521858584399547"><ele>100.99999999999999</ele><time>2026-04-04T13:00:54.959Z</time></trkpt><trkpt lat="44.98105301087181" lon="9.521837187718036"><ele>101.0</ele><time>2026-04-04T13:00:56.959Z</time></trkpt><trkpt lat="44.981138063685385" lon="9.521818474825952"><ele>101.0</ele><time>2026-04-04T13:00:58.959Z</time></trkpt><trkpt lat="44.98122059191634" lon="9.521802871464066"><ele>101.0</ele><time>2026-04-04T13:01:00.959Z</time></trkpt><trkpt lat="44.98130575281522" lon="9.521795251573254"><ele>100.99999999999999</ele><time>2026-04-04T13:01:02.959Z</time></trkpt><trkpt lat="44.98138986294844" lon="9.521787124958905"><ele>101.0</ele><time>2026-04-04T13:01:04.959Z</time></trkpt><trkpt lat="44.98147519124822" lon="9.52178871607812"><ele>100.99999999999999</ele><time>2026-04-04T13:01:06.959Z</time></trkpt><trkpt lat="44.98156352850745" lon="9.521805854397071"><ele>101.0</ele><time>2026-04-04T13:01:08.959Z</time></trkpt><trkpt lat="44.98165350421927" lon="9.521823496415854"><ele>101.0</ele><time>2026-04-04T13:01:10.959Z</time></trkpt><trkpt lat="44.98173224061022" lon="9.52186987032298"><ele>101.0</ele><time>2026-04-04T13:01:12.959Z</time></trkpt><trkpt lat="44.981803214284454" lon="9.521907169047916"><ele>100.99999999999999</ele><time>2026-04-04T13:01:14.959Z</time></trkpt><trkpt lat="44.98187169448631" lon="9.521954203572154"><ele>101.0</ele><time>2026-04-04T13:01:16.959Z</time></trkpt><trkpt lat="44.98194743401621" lon="9.522012403861439"><ele>100.99999999999999</ele><time>2026-04-04T13:01:18.959Z</time></trkpt><trkpt lat="44.98202585941265" lon="9.522054704838727"><ele>101.0</ele><time>2026-04-04T13:01:20.959Z</time></trkpt><trkpt lat="44.982099390379815" lon="9.522106075762078"><ele>101.0</ele><time>2026-04-04T13:01:22.959Z</time></trkpt><trkpt lat="44.98217589054621" lon="9.522155813044625"><ele>101.0</ele><time>2026-04-04T13:01:24.959Z</time></trkpt><trkpt lat="44.98224769872495" lon="9.52220040281255"><ele>100.99999999999999</ele><time>2026-04-04T13:01:26.959Z</time></trkpt><trkpt lat="44.982318458284226" lon="9.522239732318921"><ele>101.0</ele><time>2026-04-04T13:01:28.959Z</time></trkpt><trkpt lat="44.98239983549307" lon="9.522276121420264"><ele>101.0</ele><time>2026-04-04T13:01:30.959Z</time></trkpt><trkpt lat="44.98248696176454" lon="9.522309988380796"><ele>101.0</ele><time>2026-04-04T13:01:32.959Z</time></trkpt><trkpt lat="44.982576042907745" lon="9.522345234143614"><ele>101.0</ele><time>2026-04-04T13:01:34.959Z</time></trkpt><trkpt lat="44.982677120597096" lon="9.522361811048906"><ele>101.0</ele><time>2026-04-04T13:01:36.959Z</time></trkpt><trkpt lat="44.98278242416273" lon="9.52239494838719"><ele>101.0</ele><time>2026-04-04T13:01:38.959Z</time></trkpt><trkpt lat="44.98289046646836" lon="9.522426372539497"><ele>100.8</ele><time>2026-04-04T13:01:40.959Z</time></trkpt><trkpt lat="44.982999386666656" lon="9.522445918239782"><ele>100.6</ele><time>2026-04-04T13:01:42.959Z</time></trkpt><trkpt lat="44.983105644568155" lon="9.522456565515618"><ele>100.4</ele><time>2026-04-04T13:01:44.959Z</time></trkpt><trkpt lat="44.98321473881962" lon="9.522472477852729"><ele>100.2</ele><time>2026-04-04T13:01:46.959Z</time></trkpt><trkpt lat="44.98332608795622" lon="9.522473883841315"><ele>100.0</ele><time>2026-04-04T13:01:48.959Z</time></trkpt><trkpt lat="44.983437786904204" lon="9.522464967642742"><ele>100.0</ele><time>2026-04-04T13:01:50.959Z</time></trkpt><trkpt lat="44.98354699253823" lon="9.522453350523172"><ele>100.0</ele><time>2026-04-04T13:01:52.959Z</time></trkpt><trkpt lat="44.98365249160151" lon="9.522435665448802"><ele>100.0</ele><time>2026-04-04T13:01:54.959Z</time></trkpt><trkpt lat="44.98375669025987" lon="9.52241760477979"><ele>100.0</ele><time>2026-04-04T13:01:56.959Z</time></trkpt><trkpt lat="44.98385723375838" lon="9.522401170616792"><ele>100.0</ele><time>2026-04-04T13:01:58.958Z</time></trkpt><trkpt lat="44.983954131001155" lon="9.522376428149913"><ele>100.0</ele><time>2026-04-04T13:02:00.958Z</time></trkpt><trkpt lat="44.98405677478064" lon="9.52236236675601"><ele>100.0</ele><time>2026-04-04T13:02:02.958Z</time></trkpt><trkpt lat="44.98416107181857" lon="9.522335417900486"><ele>100.0</ele><time>2026-04-04T13:02:04.958Z</time></trkpt><trkpt lat="44.98426287739808" lon="9.522304110917144"><ele>100.0</ele><time>2026-04-04T13:02:06.958Z</time></trkpt><trkpt lat="44.984366127755315" lon="9.52227907228512"><ele>100.0</ele><time>2026-04-04T13:02:08.958Z</time></trkpt><trkpt lat="44.98446437937783" lon="9.5222442192325"><ele>99.8</ele><time>2026-04-04T13:02:10.958Z</time></trkpt><trkpt lat="44.98457095890869" lon="9.522212858994047"><ele>99.6</ele><time>2026-04-04T13:02:12.958Z</time></trkpt><trkpt lat="44.984673535290725" lon="9.522178402066789"><ele>99.4</ele><time>2026-04-04T13:02:14.958Z</time></trkpt><trkpt lat="44.984775238756235" lon="9.522154901930676"><ele>99.2</ele><time>2026-04-04T13:02:16.958Z</time></trkpt><trkpt lat="44.984879489075794" lon="9.522129264187322"><ele>99.0</ele><time>2026-04-04T13:02:18.958Z</time></trkpt><trkpt lat="44.984982014042366" lon="9.522117450486565"><ele>98.80000000000001</ele><time>2026-04-04T13:02:20.958Z</time></trkpt><trkpt lat="44.98508301109928" lon="9.5221162373717"><ele>98.60000000000001</ele><time>2026-04-04T13:02:22.958Z</time></trkpt><trkpt lat="44.98518536512018" lon="9.522127172579633"><ele>98.4</ele><time>2026-04-04T13:02:24.958Z</time></trkpt><trkpt lat="44.98528799099252" lon="9.522143844002679"><ele>98.2</ele><time>2026-04-04T13:02:26.958Z</time></trkpt><trkpt lat="44.98538902516381" lon="9.522163036848106"><ele>98.0</ele><time>2026-04-04T13:02:28.958Z</time></trkpt><trkpt lat="44.98549097576944" lon="9.522186353643221"><ele>97.99999999999999</ele><time>2026-04-04T13:02:30.957Z</time></trkpt><trkpt lat="44.98558717882316" lon="9.522203052294797"><ele>98.0</ele><time>2026-04-04T13:02:32.957Z</time></trkpt><trkpt lat="44.985677721021986" lon="9.522220423924459"><ele>98.0</ele><time>2026-04-04T13:02:34.957Z</time></trkpt><trkpt lat="44.98576585975417" lon="9.522224069741243"><ele>98.0</ele><time>2026-04-04T13:02:36.957Z</time></trkpt><trkpt lat="44.98584733176302" lon="9.522241918071401"><ele>97.99999999999999</ele><time>2026-04-04T13:02:38.957Z</time></trkpt><trkpt lat="44.985925963872745" lon="9.52225878040189"><ele>98.0</ele><time>2026-04-04T13:02:40.957Z</time></trkpt><trkpt lat="44.98601202683023" lon="9.522268585993874"><ele>97.66666666666666</ele><time>2026-04-04T13:02:42.957Z</time></trkpt><trkpt lat="44.986098564716684" lon="9.522284292856947"><ele>97.33333333333333</ele><time>2026-04-04T13:02:44.957Z</time></trkpt><trkpt lat="44.98618700991759" lon="9.522293480731827"><ele>97.0</ele><time>2026-04-04T13:02:46.957Z</time></trkpt><trkpt lat="44.986274775091154" lon="9.522297375086339"><ele>96.66666666666666</ele><time>2026-04-04T13:02:48.957Z</time></trkpt><trkpt lat="44.98636134695529" lon="9.522312462312707"><ele>96.33333333333333</ele><time>2026-04-04T13:02:50.957Z</time></trkpt><trkpt lat="44.986444498933295" lon="9.522318812732774"><ele>96.0</ele><time>2026-04-04T13:02:52.957Z</time></trkpt><trkpt lat="44.986529817881895" lon="9.522333194160558"><ele>96.0</ele><time>2026-04-04T13:02:54.957Z</time></trkpt><trkpt lat="44.98661588256548" lon="9.522353772118505"><ele>96.0</ele><time>2026-04-04T13:02:56.957Z</time></trkpt><trkpt lat="44.98671010796256" lon="9.522362545343437"><ele>96.0</ele><time>2026-04-04T13:02:58.957Z</time></trkpt><trkpt lat="44.986802444256675" lon="9.522371583807997"><ele>96.0</ele><time>2026-04-04T13:03:00.957Z</time></trkpt><trkpt lat="44.98689094444465" lon="9.522393200604975"><ele>96.0</ele><time>2026-04-04T13:03:02.957Z</time></trkpt><trkpt lat="44.98697573356548" lon="9.522398547101274"><ele>96.0</ele><time>2026-04-04T13:03:04.957Z</time></trkpt><trkpt lat="44.987059772612334" lon="9.522414903699843"><ele>96.33333333333333</ele><time>2026-04-04T13:03:06.957Z</time></trkpt><trkpt lat="44.98714552465138" lon="9.522428975524742"><ele>96.66666666666666</ele><time>2026-04-04T13:03:08.957Z</time></trkpt><trkpt lat="44.98722806266308" lon="9.52244171257865"><ele>97.0</ele><time>2026-04-04T13:03:10.957Z</time></trkpt><trkpt lat="44.987313395911826" lon="9.522462719199824"><ele>97.33333333333333</ele><time>2026-04-04T13:03:12.957Z</time></trkpt><trkpt lat="44.98739988619725" lon="9.522475114240923"><ele>97.66666666666666</ele><time>2026-04-04T13:03:14.957Z</time></trkpt><trkpt lat="44.98748831629014" lon="9.522498029933073"><ele>98.0</ele><time>2026-04-04T13:03:16.957Z</time></trkpt><trkpt lat="44.987575279479394" lon="9.522522019611456"><ele>98.16666666666666</ele><time>2026-04-04T13:03:18.957Z</time></trkpt><trkpt lat="44.98766496120084" lon="9.522545049257737"><ele>98.33333333333333</ele><time>2026-04-04T13:03:20.957Z</time></trkpt><trkpt lat="44.9877525335257" lon="9.522570873565714"><ele>98.5</ele><time>2026-04-04T13:03:22.957Z</time></trkpt><trkpt lat="44.98783456753359" lon="9.522597851853146"><ele>98.66666666666666</ele><time>2026-04-04T13:03:24.957Z</time></trkpt><trkpt lat="44.98792196153775" lon="9.522633785121872"><ele>98.83333333333333</ele><time>2026-04-04T13:03:26.957Z</time></trkpt><trkpt lat="44.98800861034683" lon="9.522669809810708"><ele>99.0</ele><time>2026-04-04T13:03:28.957Z</time></trkpt><trkpt lat="44.98809260969002" lon="9.5227006411942"><ele>99.0</ele><time>2026-04-04T13:03:30.957Z</time></trkpt><trkpt lat="44.988169829800725" lon="9.52273905934289"><ele>99.0</ele><time>2026-04-04T13:03:32.957Z</time></trkpt><trkpt lat="44.98825664726356" lon="9.52277375392622"><ele>99.0</ele><time>2026-04-04T13:03:34.957Z</time></trkpt><trkpt lat="44.988337086646446" lon="9.52280699346861"><ele>99.0</ele><time>2026-04-04T13:03:36.957Z</time></trkpt><trkpt lat="44.98841843857307" lon="9.522846814352688"><ele>99.0</ele><time>2026-04-04T13:03:38.957Z</time></trkpt><trkpt lat="44.98850778297016" lon="9.5228814218759"><ele>99.0</ele><time>2026-04-04T13:03:40.957Z</time></trkpt><trkpt lat="44.98859290076441" lon="9.522912229714871"><ele>98.6</ele><time>2026-04-04T13:03:42.957Z</time></trkpt><trkpt lat="44.988683962388045" lon="9.522940438007296"><ele>98.2</ele><time>2026-04-04T13:03:44.957Z</time></trkpt><trkpt lat="44.98876980821881" lon="9.52297722081759"><ele>97.8</ele><time>2026-04-04T13:03:46.957Z</time></trkpt><trkpt lat="44.988862695516765" lon="9.523023264573077"><ele>97.39999999999999</ele><time>2026-04-04T13:03:48.957Z</time></trkpt><trkpt lat="44.98895946600276" lon="9.523061491758288"><ele>97.0</ele><time>2026-04-04T13:03:50.957Z</time></trkpt><trkpt lat="44.989053316197904" lon="9.523095281033013"><ele>97.0</ele><time>2026-04-04T13:03:52.957Z</time></trkpt><trkpt lat="44.989146122984074" lon="9.523142127131878"><ele>97.0</ele><time>2026-04-04T13:03:54.957Z</time></trkpt><trkpt lat="44.98923536862008" lon="9.523175641179119"><ele>97.0</ele><time>2026-04-04T13:03:56.957Z</time></trkpt><trkpt lat="44.98932346753393" lon="9.523205244758149"><ele>97.0</ele><time>2026-04-04T13:03:58.957Z</time></trkpt><trkpt lat="44.98941333994631" lon="9.523245511392085"><ele>97.0</ele><time>2026-04-04T13:04:00.957Z</time></trkpt><trkpt lat="44.989505546064315" lon="9.523284248512727"><ele>97.16666666666667</ele><time>2026-04-04T13:04:02.957Z</time></trkpt><trkpt lat="44.98959267450158" lon="9.523314325290363"><ele>97.33333333333334</ele><time>2026-04-04T13:04:04.957Z</time></trkpt><trkpt lat="44.989679701989914" lon="9.523348492276309"><ele>97.5</ele><time>2026-04-04T13:04:06.957Z</time></trkpt><trkpt lat="44.989768149306876" lon="9.52338145402057"><ele>97.66666666666666</ele><time>2026-04-04T13:04:08.957Z</time></trkpt><trkpt lat="44.98984883872084" lon="9.523417648532298"><ele>97.83333333333333</ele><time>2026-04-04T13:04:10.957Z</time></trkpt><trkpt lat="44.989928546896714" lon="9.52345807577474"><ele>98.0</ele><time>2026-04-04T13:04:12.957Z</time></trkpt><trkpt lat="44.99000939035993" lon="9.523489963397525"><ele>98.0</ele><time>2026-04-04T13:04:14.957Z</time></trkpt><trkpt lat="44.99008556301574" lon="9.523525715442702"><ele>98.0</ele><time>2026-04-04T13:04:16.957Z</time></trkpt><trkpt lat="44.99015805691783" lon="9.523566806175337"><ele>98.0</ele><time>2026-04-04T13:04:18.957Z</time></trkpt><trkpt lat="44.990229250324965" lon="9.523615090231074"><ele>98.0</ele><time>2026-04-04T13:04:20.957Z</time></trkpt><trkpt lat="44.990288171136214" lon="9.523662467079996"><ele>98.0</ele><time>2026-04-04T13:04:22.957Z</time></trkpt><trkpt lat="44.990339981360364" lon="9.523719626330982"><ele>98.0</ele><time>2026-04-04T13:04:24.957Z</time></trkpt><trkpt lat="44.99039330505102" lon="9.523795136582324"><ele>98.0</ele><time>2026-04-04T13:04:26.957Z</time></trkpt><trkpt lat="44.99044976307428" lon="9.523866211987315"><ele>97.66666666666666</ele><time>2026-04-04T13:04:28.957Z</time></trkpt><trkpt lat="44.990503075774576" lon="9.52394613621941"><ele>97.33333333333333</ele><time>2026-04-04T13:04:30.957Z</time></trkpt><trkpt lat="44.990555004690016" lon="9.524028610532621"><ele>97.0</ele><time>2026-04-04T13:04:32.957Z</time></trkpt><trkpt lat="44.990606099477525" lon="9.52410357673546"><ele>96.66666666666666</ele><time>2026-04-04T13:04:34.957Z</time></trkpt><trkpt lat="44.99066532979214" lon="9.524192942456041"><ele>96.33333333333333</ele><time>2026-04-04T13:04:36.955Z</time></trkpt><trkpt lat="44.99072573418059" lon="9.524280126657711"><ele>96.0</ele><time>2026-04-04T13:04:38.956Z</time></trkpt><trkpt lat="44.990791671644544" lon="9.524363667218601"><ele>96.0</ele><time>2026-04-04T13:04:40.956Z</time></trkpt><trkpt lat="44.990853757810925" lon="9.524451075739103"><ele>96.0</ele><time>2026-04-04T13:04:42.955Z</time></trkpt><trkpt lat="44.99091616584464" lon="9.524538342150379"><ele>96.0</ele><time>2026-04-04T13:04:44.955Z</time></trkpt><trkpt lat="44.99098165095495" lon="9.524635574548086"><ele>96.0</ele><time>2026-04-04T13:04:46.956Z</time></trkpt><trkpt lat="44.99105183697608" lon="9.524741251571827"><ele>96.0</ele><time>2026-04-04T13:04:48.956Z</time></trkpt><trkpt lat="44.99112853195038" lon="9.52484120985901"><ele>96.0</ele><time>2026-04-04T13:04:50.956Z</time></trkpt><trkpt lat="44.991208017467834" lon="9.524956164943871"><ele>96.0</ele><time>2026-04-04T13:04:52.956Z</time></trkpt><trkpt lat="44.991282033657704" lon="9.525063208517128"><ele>96.0</ele><time>2026-04-04T13:04:54.956Z</time></trkpt><trkpt lat="44.99135540436163" lon="9.525167182126033"><ele>96.0</ele><time>2026-04-04T13:04:56.956Z</time></trkpt><trkpt lat="44.9914282821747" lon="9.525270935099003"><ele>96.0</ele><time>2026-04-04T13:04:58.956Z</time></trkpt><trkpt lat="44.99150462466626" lon="9.52537438033116"><ele>96.0</ele><time>2026-04-04T13:05:00.956Z</time></trkpt><trkpt lat="44.9915789299475" lon="9.525475709424235"><ele>96.0</ele><time>2026-04-04T13:05:02.956Z</time></trkpt><trkpt lat="44.99165272181177" lon="9.525576047415838"><ele>96.0</ele><time>2026-04-04T13:05:04.956Z</time></trkpt><trkpt lat="44.99173119488253" lon="9.525678146113867"><ele>96.0</ele><time>2026-04-04T13:05:06.956Z</time></trkpt><trkpt lat="44.99180233168421" lon="9.525787448645003"><ele>96.0</ele><time>2026-04-04T13:05:08.956Z</time></trkpt><trkpt lat="44.99187627685719" lon="9.525889995091282"><ele>95.6</ele><time>2026-04-04T13:05:10.956Z</time></trkpt><trkpt lat="44.991954177856414" lon="9.525984382680019"><ele>95.19999999999999</ele><time>2026-04-04T13:05:12.956Z</time></trkpt><trkpt lat="44.99203527430065" lon="9.526066035857369"><ele>94.80000000000001</ele><time>2026-04-04T13:05:14.956Z</time></trkpt><trkpt lat="44.992124867836836" lon="9.52614517472591"><ele>94.4</ele><time>2026-04-04T13:05:16.956Z</time></trkpt><trkpt lat="44.99222216504364" lon="9.526212050685517"><ele>94.0</ele><time>2026-04-04T13:05:18.956Z</time></trkpt><trkpt lat="44.992324109171456" lon="9.526251572925563"><ele>94.0</ele><time>2026-04-04T13:05:20.956Z</time></trkpt><trkpt lat="44.99242543359371" lon="9.526289703574784"><ele>94.0</ele><time>2026-04-04T13:05:22.956Z</time></trkpt><trkpt lat="44.99252877436919" lon="9.526318352729511"><ele>94.0</ele><time>2026-04-04T13:05:24.956Z</time></trkpt><trkpt lat="44.992630072616734" lon="9.526351717089828"><ele>94.0</ele><time>2026-04-04T13:05:26.956Z</time></trkpt><trkpt lat="44.99273356142253" lon="9.526383712810636"><ele>94.0</ele><time>2026-04-04T13:05:28.956Z</time></trkpt><trkpt lat="44.99282919995303" lon="9.526407850101705"><ele>94.4</ele><time>2026-04-04T13:05:30.956Z</time></trkpt><trkpt lat="44.99293007815901" lon="9.52644297580894"><ele>94.80000000000001</ele><time>2026-04-04T13:05:32.956Z</time></trkpt><trkpt lat="44.993028573422166" lon="9.526476895502588"><ele>95.19999999999999</ele><time>2026-04-04T13:05:34.956Z</time></trkpt><trkpt lat="44.993126721793075" lon="9.52650812630857"><ele>95.6</ele><time>2026-04-04T13:05:36.956Z</time></trkpt><trkpt lat="44.99322765497429" lon="9.526538464961439"><ele>96.0</ele><time>2026-04-04T13:05:38.956Z</time></trkpt><trkpt lat="44.99333063705173" lon="9.52656830462575"><ele>95.8</ele><time>2026-04-04T13:05:40.956Z</time></trkpt><trkpt lat="44.99343407569016" lon="9.526601994087821"><ele>95.6</ele><time>2026-04-04T13:05:42.956Z</time></trkpt><trkpt lat="44.993534183387254" lon="9.526635292405144"><ele>95.4</ele><time>2026-04-04T13:05:44.956Z</time></trkpt><trkpt lat="44.993626994856996" lon="9.526663217165629"><ele>95.2</ele><time>2026-04-04T13:05:46.956Z</time></trkpt><trkpt lat="44.99372585330679" lon="9.526685313512846"><ele>95.0</ele><time>2026-04-04T13:05:48.956Z</time></trkpt><trkpt lat="44.993832183155206" lon="9.52671018457168"><ele>95.0</ele><time>2026-04-04T13:05:50.956Z</time></trkpt><trkpt lat="44.99393859394268" lon="9.526729838909912"><ele>95.0</ele><time>2026-04-04T13:05:52.956Z</time></trkpt><trkpt lat="44.99404857488379" lon="9.526747666233163"><ele>95.0</ele><time>2026-04-04T13:05:54.956Z</time></trkpt><trkpt lat="44.99415414607229" lon="9.52676163743291"><ele>95.0</ele><time>2026-04-04T13:05:56.956Z</time></trkpt><trkpt lat="44.99425825893545" lon="9.526775576286894"><ele>95.0</ele><time>2026-04-04T13:05:58.956Z</time></trkpt><trkpt lat="44.99436303777563" lon="9.526794380438481"><ele>94.6</ele><time>2026-04-04T13:06:00.956Z</time></trkpt><trkpt lat="44.99446291232117" lon="9.526817866173682"><ele>94.2</ele><time>2026-04-04T13:06:02.955Z</time></trkpt><trkpt lat="44.99456544881967" lon="9.526821128544746"><ele>93.80000000000001</ele><time>2026-04-04T13:06:04.955Z</time></trkpt><trkpt lat="44.99466617422725" lon="9.526833264339428"><ele>93.4</ele><time>2026-04-04T13:06:06.955Z</time></trkpt><trkpt lat="44.99477453305121" lon="9.526831121481255"><ele>93.0</ele><time>2026-04-04T13:06:08.955Z</time></trkpt><trkpt lat="44.99488682292974" lon="9.526828837973918"><ele>93.0</ele><time>2026-04-04T13:06:10.955Z</time></trkpt><trkpt lat="44.99500101394456" lon="9.526820704983184"><ele>93.0</ele><time>2026-04-04T13:06:12.955Z</time></trkpt><trkpt lat="44.99511448461905" lon="9.526816274325402"><ele>93.0</ele><time>2026-04-04T13:06:14.955Z</time></trkpt><trkpt lat="44.995224739657566" lon="9.526809986787654"><ele>93.0</ele><time>2026-04-04T13:06:16.955Z</time></trkpt><trkpt lat="44.99532898076597" lon="9.526803733205854"><ele>93.0</ele><time>2026-04-04T13:06:18.955Z</time></trkpt><trkpt lat="44.99543975470667" lon="9.526796565438255"><ele>92.80000000000001</ele><time>2026-04-04T13:06:20.955Z</time></trkpt><trkpt lat="44.99555433487392" lon="9.52680028965724"><ele>92.6</ele><time>2026-04-04T13:06:22.955Z</time></trkpt><trkpt lat="44.99566220345318" lon="9.526838734262089"><ele>92.4</ele><time>2026-04-04T13:06:24.955Z</time></trkpt><trkpt lat="44.995752442607134" lon="9.52693135446286"><ele>92.19999999999999</ele><time>2026-04-04T13:06:26.955Z</time></trkpt><trkpt lat="44.99581595637527" lon="9.527055694811708"><ele>92.0</ele><time>2026-04-04T13:06:28.955Z</time></trkpt><trkpt lat="44.99587383484618" lon="9.527188814257917"><ele>91.6</ele><time>2026-04-04T13:06:30.955Z</time></trkpt><trkpt lat="44.99592628867813" lon="9.527328783485656"><ele>91.19999999999999</ele><time>2026-04-04T13:06:32.955Z</time></trkpt><trkpt lat="44.99598916513891" lon="9.5274575477316"><ele>90.8</ele><time>2026-04-04T13:06:34.955Z</time></trkpt><trkpt lat="44.99604669170965" lon="9.527587336598284"><ele>90.4</ele><time>2026-04-04T13:06:36.955Z</time></trkpt><trkpt lat="44.99611068993896" lon="9.527714079950032"><ele>90.0</ele><time>2026-04-04T13:06:38.955Z</time></trkpt><trkpt lat="44.996171539689186" lon="9.527840893233632"><ele>90.0</ele><time>2026-04-04T13:06:40.955Z</time></trkpt><trkpt lat="44.99623607271829" lon="9.527963714239034"><ele>90.0</ele><time>2026-04-04T13:06:42.955Z</time></trkpt><trkpt lat="44.996297054782865" lon="9.528087598605897"><ele>90.0</ele><time>2026-04-04T13:06:44.954Z</time></trkpt><trkpt lat="44.996357324241984" lon="9.528206153498386"><ele>90.0</ele><time>2026-04-04T13:06:46.954Z</time></trkpt><trkpt lat="44.996419927698376" lon="9.528323943056744"><ele>90.0</ele><time>2026-04-04T13:06:48.954Z</time></trkpt><trkpt lat="44.99648130375334" lon="9.528437315327482"><ele>90.0</ele><time>2026-04-04T13:06:50.954Z</time></trkpt><trkpt lat="44.99653966330314" lon="9.528554983602254"><ele>90.0</ele><time>2026-04-04T13:06:52.954Z</time></trkpt><trkpt lat="44.99659697608446" lon="9.528666700642894"><ele>90.0</ele><time>2026-04-04T13:06:54.954Z</time></trkpt><trkpt lat="44.99665345964124" lon="9.528781762239221"><ele>90.0</ele><time>2026-04-04T13:06:56.954Z</time></trkpt><trkpt lat="44.996710329200255" lon="9.528889694308116"><ele>90.0</ele><time>2026-04-04T13:06:58.954Z</time></trkpt><trkpt lat="44.996758109665336" lon="9.52900586662573"><ele>90.0</ele><time>2026-04-04T13:07:00.954Z</time></trkpt><trkpt lat="44.99681165607561" lon="9.529109172846185"><ele>90.0</ele><time>2026-04-04T13:07:02.954Z</time></trkpt><trkpt lat="44.99686698052001" lon="9.529214353048717"><ele>90.0</ele><time>2026-04-04T13:07:04.954Z</time></trkpt><trkpt lat="44.996920824201595" lon="9.529318683811209"><ele>90.0</ele><time>2026-04-04T13:07:06.954Z</time></trkpt><trkpt lat="44.99697476502272" lon="9.529416860051649"><ele>90.0</ele><time>2026-04-04T13:07:08.954Z</time></trkpt><trkpt lat="44.997028740318726" lon="9.529516377171355"><ele>90.2</ele><time>2026-04-04T13:07:10.954Z</time></trkpt><trkpt lat="44.997089925757486" lon="9.529619981346867"><ele>90.4</ele><time>2026-04-04T13:07:12.954Z</time></trkpt><trkpt lat="44.99714804659979" lon="9.529726562917794"><ele>90.6</ele><time>2026-04-04T13:07:14.954Z</time></trkpt><trkpt lat="44.99720728922863" lon="9.529838442125476"><ele>90.8</ele><time>2026-04-04T13:07:16.954Z</time></trkpt><trkpt lat="44.99726572865491" lon="9.529946710564923"><ele>91.0</ele><time>2026-04-04T13:07:18.954Z</time></trkpt><trkpt lat="44.99732996898866" lon="9.53006125401177"><ele>91.0</ele><time>2026-04-04T13:07:20.954Z</time></trkpt><trkpt lat="44.997382468203476" lon="9.530175069204553"><ele>91.0</ele><time>2026-04-04T13:07:22.954Z</time></trkpt><trkpt lat="44.99743529604539" lon="9.530275139681962"><ele>91.0</ele><time>2026-04-04T13:07:24.954Z</time></trkpt><trkpt lat="44.99748191191688" lon="9.530386197847342"><ele>91.0</ele><time>2026-04-04T13:07:26.954Z</time></trkpt><trkpt lat="44.99753673981343" lon="9.530499194050558"><ele>91.0</ele><time>2026-04-04T13:07:28.954Z</time></trkpt><trkpt lat="44.99759464058433" lon="9.53060475000805"><ele>90.8</ele><time>2026-04-04T13:07:30.954Z</time></trkpt><trkpt lat="44.99765299532281" lon="9.5307161839995"><ele>90.6</ele><time>2026-04-04T13:07:32.954Z</time></trkpt><trkpt lat="44.99772172746224" lon="9.530831093384379"><ele>90.4</ele><time>2026-04-04T13:07:34.954Z</time></trkpt><trkpt lat="44.99778826288836" lon="9.530933464743164"><ele>90.2</ele><time>2026-04-04T13:07:36.954Z</time></trkpt><trkpt lat="44.997856592918986" lon="9.531045851475827"><ele>90.0</ele><time>2026-04-04T13:07:38.954Z</time></trkpt><trkpt lat="44.997920037593026" lon="9.531146592524369"><ele>90.16666666666667</ele><time>2026-04-04T13:07:40.954Z</time></trkpt><trkpt lat="44.99798149348659" lon="9.53123933391576"><ele>90.33333333333333</ele><time>2026-04-04T13:07:42.954Z</time></trkpt><trkpt lat="44.998047745847664" lon="9.53133154079177"><ele>90.5</ele><time>2026-04-04T13:07:44.954Z</time></trkpt><trkpt lat="44.99811149011881" lon="9.531411382668214"><ele>90.66666666666666</ele><time>2026-04-04T13:07:46.954Z</time></trkpt><trkpt lat="44.998164140097074" lon="9.531504447262883"><ele>90.83333333333333</ele><time>2026-04-04T13:07:48.954Z</time></trkpt><trkpt lat="44.99821457776828" lon="9.531604197874378"><ele>91.0</ele><time>2026-04-04T13:07:50.954Z</time></trkpt><trkpt lat="44.998271638242095" lon="9.53169661231815"><ele>91.0</ele><time>2026-04-04T13:07:52.954Z</time></trkpt><trkpt lat="44.998334808698786" lon="9.53176418784397"><ele>91.0</ele><time>2026-04-04T13:07:54.954Z</time></trkpt><trkpt lat="44.99836399454607" lon="9.531888695682616"><ele>91.0</ele><time>2026-04-04T13:07:56.954Z</time></trkpt><trkpt lat="44.99838238190556" lon="9.531996016187351"><ele>91.0</ele><time>2026-04-04T13:07:58.954Z</time></trkpt><trkpt lat="44.99838434037658" lon="9.532097229878248"><ele>91.0</ele><time>2026-04-04T13:08:00.954Z</time></trkpt><trkpt lat="44.998385854007914" lon="9.532221556464439"><ele>91.0</ele><time>2026-04-04T13:08:02.954Z</time></trkpt><trkpt lat="44.99839737375433" lon="9.532350138055188"><ele>91.0</ele><time>2026-04-04T13:08:04.954Z</time></trkpt><trkpt lat="44.998410181713346" lon="9.532483273039693"><ele>91.0</ele><time>2026-04-04T13:08:06.954Z</time></trkpt><trkpt lat="44.99839985783047" lon="9.532623488740237"><ele>91.0</ele><time>2026-04-04T13:08:08.954Z</time></trkpt><trkpt lat="44.998389943540275" lon="9.53277710808579"><ele>91.0</ele><time>2026-04-04T13:08:10.954Z</time></trkpt><trkpt lat="44.998372969390125" lon="9.532930363167624"><ele>91.0</ele><time>2026-04-04T13:08:12.954Z</time></trkpt><trkpt lat="44.99839987238884" lon="9.53307456982731"><ele>91.0</ele><time>2026-04-04T13:08:14.953Z</time></trkpt><trkpt lat="44.99840912522971" lon="9.533218012017798"><ele>91.0</ele><time>2026-04-04T13:08:16.953Z</time></trkpt><trkpt lat="44.99845765676214" lon="9.533339620226094"><ele>91.0</ele><time>2026-04-04T13:08:18.953Z</time></trkpt><trkpt lat="44.998508366336836" lon="9.533475249722127"><ele>91.0</ele><time>2026-04-04T13:08:20.953Z</time></trkpt><trkpt lat="44.99856351362042" lon="9.533599560537805"><ele>91.0</ele><time>2026-04-04T13:08:22.953Z</time></trkpt><trkpt lat="44.998618801023106" lon="9.533719782346193"><ele>91.0</ele><time>2026-04-04T13:08:24.953Z</time></trkpt><trkpt lat="44.99868047640801" lon="9.533830025408264"><ele>91.0</ele><time>2026-04-04T13:08:26.953Z</time></trkpt><trkpt lat="44.99874087280378" lon="9.533928492770276"><ele>91.0</ele><time>2026-04-04T13:08:28.953Z</time></trkpt><trkpt lat="44.998789683869624" lon="9.534019851182077"><ele>91.0</ele><time>2026-04-04T13:08:30.953Z</time></trkpt><trkpt lat="44.99884412395967" lon="9.534122510763364"><ele>91.0</ele><time>2026-04-04T13:08:32.953Z</time></trkpt><trkpt lat="44.99889959014348" lon="9.534226640588034"><ele>91.0</ele><time>2026-04-04T13:08:34.953Z</time></trkpt><trkpt lat="44.998954143876965" lon="9.53433450592887"><ele>91.0</ele><time>2026-04-04T13:08:36.953Z</time></trkpt><trkpt lat="44.999013840806924" lon="9.534438416821942"><ele>91.0</ele><time>2026-04-04T13:08:38.953Z</time></trkpt><trkpt lat="44.999073607514106" lon="9.534536399368882"><ele>91.0</ele><time>2026-04-04T13:08:40.953Z</time></trkpt><trkpt lat="44.999139805625724" lon="9.534640746199253"><ele>91.0</ele><time>2026-04-04T13:08:42.953Z</time></trkpt><trkpt lat="44.99919655528646" lon="9.534752567395323"><ele>90.6</ele><time>2026-04-04T13:08:44.953Z</time></trkpt><trkpt lat="44.99925910239262" lon="9.534866741317089"><ele>90.19999999999999</ele><time>2026-04-04T13:08:46.953Z</time></trkpt><trkpt lat="44.99930708137326" lon="9.535011449615027"><ele>89.80000000000001</ele><time>2026-04-04T13:08:48.953Z</time></trkpt><trkpt lat="44.99936647335551" lon="9.535143558373804"><ele>89.4</ele><time>2026-04-04T13:08:50.953Z</time></trkpt><trkpt lat="44.99941824693293" lon="9.535269042855315"><ele>89.0</ele><time>2026-04-04T13:08:52.953Z</time></trkpt><trkpt lat="44.99946464035822" lon="9.535395582615532"><ele>89.0</ele><time>2026-04-04T13:08:54.953Z</time></trkpt><trkpt lat="44.9995221361424" lon="9.535525574707366"><ele>89.0</ele><time>2026-04-04T13:08:56.954Z</time></trkpt><trkpt lat="44.999558941538744" lon="9.535652834046152"><ele>89.0</ele><time>2026-04-04T13:08:58.953Z</time></trkpt><trkpt lat="44.999607450115136" lon="9.535778110461198"><ele>89.0</ele><time>2026-04-04T13:09:00.953Z</time></trkpt><trkpt lat="44.999644325033756" lon="9.535892569893681"><ele>89.0</ele><time>2026-04-04T13:09:02.953Z</time></trkpt><trkpt lat="44.99967560468968" lon="9.536005588497218"><ele>89.0</ele><time>2026-04-04T13:09:04.953Z</time></trkpt><trkpt lat="44.99971442993975" lon="9.536109004457831"><ele>89.0</ele><time>2026-04-04T13:09:06.953Z</time></trkpt><trkpt lat="44.999741596411575" lon="9.536214805409557"><ele>89.0</ele><time>2026-04-04T13:09:08.953Z</time></trkpt><trkpt lat="44.99976373325232" lon="9.536342044632296"><ele>89.0</ele><time>2026-04-04T13:09:10.953Z</time></trkpt><trkpt lat="44.99981332522659" lon="9.536455228942843"><ele>89.0</ele><time>2026-04-04T13:09:12.953Z</time></trkpt><trkpt lat="44.99983885152136" lon="9.536578836053597"><ele>89.0</ele><time>2026-04-04T13:09:14.953Z</time></trkpt><trkpt lat="44.99987165437452" lon="9.536697417542044"><ele>89.16666666666667</ele><time>2026-04-04T13:09:16.953Z</time></trkpt><trkpt lat="44.999903972607775" lon="9.536818410800436"><ele>89.33333333333334</ele><time>2026-04-04T13:09:18.953Z</time></trkpt><trkpt lat="44.999928226477216" lon="9.536944281199467"><ele>89.5</ele><time>2026-04-04T13:09:20.953Z</time></trkpt><trkpt lat="44.99995666778843" lon="9.537063251700056"><ele>89.66666666666667</ele><time>2026-04-04T13:09:22.953Z</time></trkpt><trkpt lat="44.99998633653496" lon="9.537177949168074"><ele>89.83333333333333</ele><time>2026-04-04T13:09:24.953Z</time></trkpt><trkpt lat="45.00001341677445" lon="9.53729937780336"><ele>90.0</ele><time>2026-04-04T13:09:26.953Z</time></trkpt><trkpt lat="45.000046810940226" lon="9.537423305446271"><ele>90.0</ele><time>2026-04-04T13:09:28.953Z</time></trkpt><trkpt lat="45.00008129039776" lon="9.537550118766996"><ele>90.0</ele><time>2026-04-04T13:09:30.953Z</time></trkpt><trkpt lat="45.00011496902082" lon="9.537676532429959"><ele>90.0</ele><time>2026-04-04T13:09:32.953Z</time></trkpt><trkpt lat="45.000152475444686" lon="9.537802098980027"><ele>90.0</ele><time>2026-04-04T13:09:34.952Z</time></trkpt><trkpt lat="45.00019245518262" lon="9.537924031511523"><ele>90.0</ele><time>2026-04-04T13:09:36.901Z</time></trkpt><trkpt lat="45.00022961670829" lon="9.538050632948927"><ele>90.0</ele><time>2026-04-04T13:09:38.9Z</time></trkpt><trkpt lat="45.000281032162334" lon="9.538172991467226"><ele>90.0</ele><time>2026-04-04T13:09:40.9Z</time></trkpt><trkpt lat="45.000319055872396" lon="9.538292878809061"><ele>90.0</ele><time>2026-04-04T13:09:42.9Z</time></trkpt><trkpt lat="45.00035667796976" lon="9.538409821364514"><ele>90.0</ele><time>2026-04-04T13:09:44.9Z</time></trkpt><trkpt lat="45.000395639040036" lon="9.538529075335429"><ele>90.0</ele><time>2026-04-04T13:09:46.9Z</time></trkpt><trkpt lat="45.00043649682325" lon="9.538649862356374"><ele>90.0</ele><time>2026-04-04T13:09:48.9Z</time></trkpt><trkpt lat="45.00048272843419" lon="9.538773572411717"><ele>90.0</ele><time>2026-04-04T13:09:50.9Z</time></trkpt><trkpt lat="45.000526582864126" lon="9.538898583858813"><ele>90.0</ele><time>2026-04-04T13:09:52.9Z</time></trkpt><trkpt lat="45.00056677649714" lon="9.539017893673629"><ele>90.0</ele><time>2026-04-04T13:09:54.9Z</time></trkpt><trkpt lat="45.00060666684292" lon="9.53913051733282"><ele>90.0</ele><time>2026-04-04T13:09:56.9Z</time></trkpt><trkpt lat="45.0006433757071" lon="9.539247445728273"><ele>90.0</ele><time>2026-04-04T13:09:58.9Z</time></trkpt><trkpt lat="45.00068594201088" lon="9.539373234995843"><ele>90.0</ele><time>2026-04-04T13:10:00.9Z</time></trkpt><trkpt lat="45.00073031246452" lon="9.539498527778626"><ele>90.0</ele><time>2026-04-04T13:10:02.9Z</time></trkpt><trkpt lat="45.00077252986498" lon="9.539615851636261"><ele>90.0</ele><time>2026-04-04T13:10:04.9Z</time></trkpt><trkpt lat="45.00081093746144" lon="9.539737518630437"><ele>90.0</ele><time>2026-04-04T13:10:06.9Z</time></trkpt><trkpt lat="45.00085467142551" lon="9.539855115407777"><ele>89.8</ele><time>2026-04-04T13:10:08.9Z</time></trkpt><trkpt lat="45.000896143977165" lon="9.539973199310463"><ele>89.6</ele><time>2026-04-04T13:10:10.9Z</time></trkpt><trkpt lat="45.00094127748774" lon="9.54009115436911"><ele>89.4</ele><time>2026-04-04T13:10:12.9Z</time></trkpt><trkpt lat="45.00098105321269" lon="9.540215795616986"><ele>89.2</ele><time>2026-04-04T13:10:14.9Z</time></trkpt><trkpt lat="45.00102468144398" lon="9.540346749983062"><ele>89.0</ele><time>2026-04-04T13:10:16.9Z</time></trkpt><trkpt lat="45.001070856575716" lon="9.540474626207917"><ele>88.80000000000001</ele><time>2026-04-04T13:10:18.9Z</time></trkpt><trkpt lat="45.00111544013127" lon="9.540602503282805"><ele>88.60000000000001</ele><time>2026-04-04T13:10:20.9Z</time></trkpt><trkpt lat="45.00115962030107" lon="9.540734219152746"><ele>88.4</ele><time>2026-04-04T13:10:22.9Z</time></trkpt><trkpt lat="45.001203818352494" lon="9.540861098776741"><ele>88.2</ele><time>2026-04-04T13:10:24.9Z</time></trkpt><trkpt lat="45.00125163929858" lon="9.540985989472832"><ele>88.0</ele><time>2026-04-04T13:10:26.9Z</time></trkpt><trkpt lat="45.00129835121975" lon="9.541125142678855"><ele>88.0</ele><time>2026-04-04T13:10:28.9Z</time></trkpt><trkpt lat="45.00134166805" lon="9.541257840104306"><ele>88.0</ele><time>2026-04-04T13:10:30.9Z</time></trkpt><trkpt lat="45.00138775500974" lon="9.541389895211424"><ele>88.0</ele><time>2026-04-04T13:10:32.9Z</time></trkpt><trkpt lat="45.00143164346203" lon="9.541518178459418"><ele>88.0</ele><time>2026-04-04T13:10:34.9Z</time></trkpt><trkpt lat="45.00147741551187" lon="9.54164832854545"><ele>88.0</ele><time>2026-04-04T13:10:36.9Z</time></trkpt><trkpt lat="45.00152227813656" lon="9.54176990985349"><ele>88.0</ele><time>2026-04-04T13:10:38.899Z</time></trkpt><trkpt lat="45.00156624819799" lon="9.541897178854827"><ele>88.0</ele><time>2026-04-04T13:10:40.899Z</time></trkpt><trkpt lat="45.00161153296556" lon="9.542023525080083"><ele>88.0</ele><time>2026-04-04T13:10:42.899Z</time></trkpt><trkpt lat="45.001653460690285" lon="9.542143976552689"><ele>88.0</ele><time>2026-04-04T13:10:44.899Z</time></trkpt><trkpt lat="45.00169762891118" lon="9.542268431482725"><ele>88.0</ele><time>2026-04-04T13:10:46.899Z</time></trkpt><trkpt lat="45.00174081529021" lon="9.542386541148472"><ele>87.4</ele><time>2026-04-04T13:10:48.899Z</time></trkpt><trkpt lat="45.001780334533116" lon="9.542511266032065"><ele>86.80000000000001</ele><time>2026-04-04T13:10:50.899Z</time></trkpt><trkpt lat="45.00182446200823" lon="9.542633339052518"><ele>86.2</ele><time>2026-04-04T13:10:52.899Z</time></trkpt><trkpt lat="45.00186881273839" lon="9.542763215388176"><ele>85.6</ele><time>2026-04-04T13:10:54.899Z</time></trkpt><trkpt lat="45.00190973051921" lon="9.542887930696887"><ele>85.0</ele><time>2026-04-04T13:10:56.899Z</time></trkpt><trkpt lat="45.001956211439925" lon="9.543013345761953"><ele>85.0</ele><time>2026-04-04T13:10:58.899Z</time></trkpt><trkpt lat="45.00200201158566" lon="9.54313419767509"><ele>85.0</ele><time>2026-04-04T13:11:00.899Z</time></trkpt><trkpt lat="45.00204456313518" lon="9.543258400032192"><ele>85.0</ele><time>2026-04-04T13:11:02.899Z</time></trkpt><trkpt lat="45.002088472260716" lon="9.543384489749723"><ele>85.0</ele><time>2026-04-04T13:11:04.899Z</time></trkpt><trkpt lat="45.00213249221465" lon="9.543517616187128"><ele>85.0</ele><time>2026-04-04T13:11:06.899Z</time></trkpt><trkpt lat="45.00217872168384" lon="9.543647120443916"><ele>85.4</ele><time>2026-04-04T13:11:08.899Z</time></trkpt><trkpt lat="45.00222906497891" lon="9.54378080624986"><ele>85.8</ele><time>2026-04-04T13:11:10.899Z</time></trkpt><trkpt lat="45.00227247626303" lon="9.543917765903943"><ele>86.19999999999999</ele><time>2026-04-04T13:11:12.899Z</time></trkpt><trkpt lat="45.00231982923104" lon="9.544047252123521"><ele>86.6</ele><time>2026-04-04T13:11:14.899Z</time></trkpt><trkpt lat="45.002367992821895" lon="9.544189857725078"><ele>87.0</ele><time>2026-04-04T13:11:16.899Z</time></trkpt><trkpt lat="45.00241959805901" lon="9.544329914856622"><ele>87.0</ele><time>2026-04-04T13:11:18.899Z</time></trkpt><trkpt lat="45.00246653460237" lon="9.5444646799491"><ele>87.0</ele><time>2026-04-04T13:11:20.899Z</time></trkpt><trkpt lat="45.00251332078057" lon="9.544588222725947"><ele>87.0</ele><time>2026-04-04T13:11:22.899Z</time></trkpt><trkpt lat="45.0025590515128" lon="9.544716221113429"><ele>87.0</ele><time>2026-04-04T13:11:24.899Z</time></trkpt><trkpt lat="45.0026045209085" lon="9.544840571908924"><ele>87.0</ele><time>2026-04-04T13:11:26.899Z</time></trkpt><trkpt lat="45.002648854510475" lon="9.544971694386433"><ele>87.0</ele><time>2026-04-04T13:11:28.899Z</time></trkpt><trkpt lat="45.002694181608035" lon="9.54510927813786"><ele>87.0</ele><time>2026-04-04T13:11:30.899Z</time></trkpt><trkpt lat="45.00274129235709" lon="9.545242763252714"><ele>87.0</ele><time>2026-04-04T13:11:32.899Z</time></trkpt><trkpt lat="45.002781935833866" lon="9.545365658777472"><ele>87.0</ele><time>2026-04-04T13:11:34.899Z</time></trkpt><trkpt lat="45.00282819461544" lon="9.545490501019168"><ele>87.0</ele><time>2026-04-04T13:11:36.899Z</time></trkpt><trkpt lat="45.002872319288606" lon="9.545618330393957"><ele>86.8</ele><time>2026-04-04T13:11:38.899Z</time></trkpt><trkpt lat="45.00291824058389" lon="9.545743373238624"><ele>86.6</ele><time>2026-04-04T13:11:40.899Z</time></trkpt><trkpt lat="45.0029649811591" lon="9.545871434910605"><ele>86.39999999999999</ele><time>2026-04-04T13:11:42.899Z</time></trkpt><trkpt lat="45.00301541885976" lon="9.546003144933469"><ele>86.19999999999999</ele><time>2026-04-04T13:11:44.899Z</time></trkpt><trkpt lat="45.0030556512248" lon="9.546132535087313"><ele>86.0</ele><time>2026-04-04T13:11:46.898Z</time></trkpt><trkpt lat="45.003103190067904" lon="9.546252164600586"><ele>85.8</ele><time>2026-04-04T13:11:48.898Z</time></trkpt><trkpt lat="45.003149430926015" lon="9.546384520062258"><ele>85.6</ele><time>2026-04-04T13:11:50.898Z</time></trkpt><trkpt lat="45.00318570172935" lon="9.546529270194778"><ele>85.4</ele><time>2026-04-04T13:11:52.898Z</time></trkpt><trkpt lat="45.00323467894633" lon="9.546668607044802"><ele>85.2</ele><time>2026-04-04T13:11:54.898Z</time></trkpt><trkpt lat="45.003285429915685" lon="9.546798092367888"><ele>85.0</ele><time>2026-04-04T13:11:56.898Z</time></trkpt><trkpt lat="45.00333367969862" lon="9.546930244081718"><ele>85.2</ele><time>2026-04-04T13:11:58.898Z</time></trkpt><trkpt lat="45.00338417836429" lon="9.547065417813211"><ele>85.4</ele><time>2026-04-04T13:12:00.898Z</time></trkpt><trkpt lat="45.00342820790915" lon="9.547192548852335"><ele>85.6</ele><time>2026-04-04T13:12:02.898Z</time></trkpt><trkpt lat="45.00346954134806" lon="9.54731574237544"><ele>85.8</ele><time>2026-04-04T13:12:04.898Z</time></trkpt><trkpt lat="45.003515378166234" lon="9.547431837896484"><ele>86.0</ele><time>2026-04-04T13:12:06.898Z</time></trkpt><trkpt lat="45.00355891283443" lon="9.547553740925522"><ele>86.0</ele><time>2026-04-04T13:12:08.898Z</time></trkpt><trkpt lat="45.00360558937459" lon="9.547678522108008"><ele>86.0</ele><time>2026-04-04T13:12:10.898Z</time></trkpt><trkpt lat="45.00365360477167" lon="9.547805888027966"><ele>86.0</ele><time>2026-04-04T13:12:12.898Z</time></trkpt><trkpt lat="45.00369682486694" lon="9.54792598969298"><ele>86.0</ele><time>2026-04-04T13:12:14.898Z</time></trkpt><trkpt lat="45.003743620730624" lon="9.548058815110023"><ele>86.0</ele><time>2026-04-04T13:12:16.898Z</time></trkpt><trkpt lat="45.00379167961922" lon="9.548191804694381"><ele>86.0</ele><time>2026-04-04T13:12:18.898Z</time></trkpt><trkpt lat="45.00384152733034" lon="9.548320658876092"><ele>86.0</ele><time>2026-04-04T13:12:20.898Z</time></trkpt><trkpt lat="45.00388344305235" lon="9.548456050162784"><ele>86.0</ele><time>2026-04-04T13:12:22.898Z</time></trkpt><trkpt lat="45.00393323011975" lon="9.54859268622671"><ele>86.0</ele><time>2026-04-04T13:12:24.898Z</time></trkpt><trkpt lat="45.00398026408458" lon="9.548729122399406"><ele>86.0</ele><time>2026-04-04T13:12:26.898Z</time></trkpt><trkpt lat="45.00402894208724" lon="9.54886055855468"><ele>86.19999999999999</ele><time>2026-04-04T13:12:28.898Z</time></trkpt><trkpt lat="45.00407568638349" lon="9.54900195237324"><ele>86.39999999999999</ele><time>2026-04-04T13:12:30.898Z</time></trkpt><trkpt lat="45.00412313891485" lon="9.549137875068595"><ele>86.6</ele><time>2026-04-04T13:12:32.898Z</time></trkpt><trkpt lat="45.004171181455014" lon="9.549275931272721"><ele>86.8</ele><time>2026-04-04T13:12:34.898Z</time></trkpt><trkpt lat="45.00421715344505" lon="9.549408649522547"><ele>87.0</ele><time>2026-04-04T13:12:36.898Z</time></trkpt><trkpt lat="45.004260398912606" lon="9.549544922264692"><ele>86.39999999999999</ele><time>2026-04-04T13:12:38.898Z</time></trkpt><trkpt lat="45.00431045734255" lon="9.54967904891235"><ele>85.8</ele><time>2026-04-04T13:12:40.898Z</time></trkpt><trkpt lat="45.00436037676642" lon="9.549808490593977"><ele>85.2</ele><time>2026-04-04T13:12:42.898Z</time></trkpt><trkpt lat="45.00441396682706" lon="9.549938733190361"><ele>84.6</ele><time>2026-04-04T13:12:44.897Z</time></trkpt><trkpt lat="45.00446471517275" lon="9.550070933681457"><ele>84.0</ele><time>2026-04-04T13:12:46.897Z</time></trkpt><trkpt lat="45.00451383707409" lon="9.55020217193923"><ele>84.0</ele><time>2026-04-04T13:12:48.897Z</time></trkpt><trkpt lat="45.00455922320536" lon="9.550331386799995"><ele>84.0</ele><time>2026-04-04T13:12:50.897Z</time></trkpt><trkpt lat="45.004606344414576" lon="9.550461845669389"><ele>84.0</ele><time>2026-04-04T13:12:52.897Z</time></trkpt><trkpt lat="45.00465328246115" lon="9.550593118047294"><ele>84.0</ele><time>2026-04-04T13:12:54.897Z</time></trkpt><trkpt lat="45.004702761603355" lon="9.550723289113693"><ele>84.0</ele><time>2026-04-04T13:12:56.897Z</time></trkpt><trkpt lat="45.004749478096294" lon="9.550851904481693"><ele>84.0</ele><time>2026-04-04T13:12:58.897Z</time></trkpt><trkpt lat="45.00479345755751" lon="9.550983718534967"><ele>84.0</ele><time>2026-04-04T13:13:00.896Z</time></trkpt><trkpt lat="45.00483974260883" lon="9.551104619660439"><ele>84.0</ele><time>2026-04-04T13:13:02.896Z</time></trkpt><trkpt lat="45.004882363747896" lon="9.551224344115507"><ele>84.0</ele><time>2026-04-04T13:13:04.896Z</time></trkpt><trkpt lat="45.004931353220876" lon="9.551347828191599"><ele>84.0</ele><time>2026-04-04T13:13:06.897Z</time></trkpt><trkpt lat="45.00497414066481" lon="9.55148199690771"><ele>84.0</ele><time>2026-04-04T13:13:08.897Z</time></trkpt><trkpt lat="45.005029446406" lon="9.551605355585865"><ele>84.0</ele><time>2026-04-04T13:13:10.896Z</time></trkpt><trkpt lat="45.005078084991055" lon="9.55174082978463"><ele>84.0</ele><time>2026-04-04T13:13:12.897Z</time></trkpt><trkpt lat="45.00512320150981" lon="9.551874317508435"><ele>84.0</ele><time>2026-04-04T13:13:14.896Z</time></trkpt><trkpt lat="45.0051702250608" lon="9.552006275547733"><ele>84.0</ele><time>2026-04-04T13:13:16.896Z</time></trkpt><trkpt lat="45.00521972621009" lon="9.552140819901101"><ele>84.0</ele><time>2026-04-04T13:13:18.896Z</time></trkpt><trkpt lat="45.00527097110102" lon="9.552273687586498"><ele>84.0</ele><time>2026-04-04T13:13:20.896Z</time></trkpt><trkpt lat="45.005316021534" lon="9.552392708880383"><ele>84.0</ele><time>2026-04-04T13:13:22.896Z</time></trkpt><trkpt lat="45.00535870786636" lon="9.552524545988204"><ele>84.0</ele><time>2026-04-04T13:13:24.896Z</time></trkpt><trkpt lat="45.00540701560951" lon="9.552657806282932"><ele>84.0</ele><time>2026-04-04T13:13:26.896Z</time></trkpt><trkpt lat="45.00545803741075" lon="9.552797825466154"><ele>83.6</ele><time>2026-04-04T13:13:28.896Z</time></trkpt><trkpt lat="45.00550457775542" lon="9.552929157433947"><ele>83.2</ele><time>2026-04-04T13:13:30.896Z</time></trkpt><trkpt lat="45.00555205660415" lon="9.553062549259128"><ele>82.8</ele><time>2026-04-04T13:13:32.896Z</time></trkpt><trkpt lat="45.0056010773453" lon="9.553191926117377"><ele>82.39999999999999</ele><time>2026-04-04T13:13:34.896Z</time></trkpt><trkpt lat="45.005648489458295" lon="9.553330564184112"><ele>82.0</ele><time>2026-04-04T13:13:36.896Z</time></trkpt><trkpt lat="45.00569843401037" lon="9.553465614624548"><ele>82.0</ele><time>2026-04-04T13:13:38.896Z</time></trkpt><trkpt lat="45.00574463413466" lon="9.553596929258125"><ele>82.0</ele><time>2026-04-04T13:13:40.896Z</time></trkpt><trkpt lat="45.00579072311829" lon="9.553725250308611"><ele>82.0</ele><time>2026-04-04T13:13:42.896Z</time></trkpt><trkpt lat="45.005834946167376" lon="9.553853988551548"><ele>82.0</ele><time>2026-04-04T13:13:44.896Z</time></trkpt><trkpt lat="45.00587849258798" lon="9.553979780637555"><ele>82.0</ele><time>2026-04-04T13:13:46.896Z</time></trkpt><trkpt lat="45.00592815026619" lon="9.554119074709714"><ele>82.0</ele><time>2026-04-04T13:13:48.896Z</time></trkpt><trkpt lat="45.00597597450751" lon="9.554259457580644"><ele>82.0</ele><time>2026-04-04T13:13:50.895Z</time></trkpt><trkpt lat="45.00602218407682" lon="9.554396750953712"><ele>82.0</ele><time>2026-04-04T13:13:52.895Z</time></trkpt><trkpt lat="45.006066285208874" lon="9.554530961456777"><ele>82.0</ele><time>2026-04-04T13:13:54.895Z</time></trkpt><trkpt lat="45.00611149740128" lon="9.554658340692479"><ele>82.0</ele><time>2026-04-04T13:13:56.895Z</time></trkpt><trkpt lat="45.00616264932338" lon="9.554788155072119"><ele>82.0</ele><time>2026-04-04T13:13:58.895Z</time></trkpt><trkpt lat="45.00620639554225" lon="9.554920569131317"><ele>82.0</ele><time>2026-04-04T13:14:00.895Z</time></trkpt><trkpt lat="45.00624930498508" lon="9.555051828500341"><ele>82.0</ele><time>2026-04-04T13:14:02.895Z</time></trkpt><trkpt lat="45.00629219709525" lon="9.55517571804024"><ele>82.0</ele><time>2026-04-04T13:14:04.895Z</time></trkpt><trkpt lat="45.00633820357833" lon="9.555304091723336"><ele>82.0</ele><time>2026-04-04T13:14:06.895Z</time></trkpt><trkpt lat="45.00638331611126" lon="9.555432650610191"><ele>81.6</ele><time>2026-04-04T13:14:08.895Z</time></trkpt><trkpt lat="45.006428633431675" lon="9.555562172184958"><ele>81.19999999999999</ele><time>2026-04-04T13:14:10.895Z</time></trkpt><trkpt lat="45.00647411486345" lon="9.555694264114376"><ele>80.8</ele><time>2026-04-04T13:14:12.895Z</time></trkpt><trkpt lat="45.00651840251796" lon="9.555816777627141"><ele>80.4</ele><time>2026-04-04T13:14:14.895Z</time></trkpt><trkpt lat="45.00655860406715" lon="9.55593062646204"><ele>80.0</ele><time>2026-04-04T13:14:16.895Z</time></trkpt><trkpt lat="45.00659646693239" lon="9.55604378036201"><ele>80.0</ele><time>2026-04-04T13:14:18.895Z</time></trkpt><trkpt lat="45.00663667960267" lon="9.556150476879235"><ele>80.0</ele><time>2026-04-04T13:14:20.895Z</time></trkpt><trkpt lat="45.00667355938274" lon="9.556263347470122"><ele>80.0</ele><time>2026-04-04T13:14:22.895Z</time></trkpt><trkpt lat="45.00671117284922" lon="9.556388670821233"><ele>80.0</ele><time>2026-04-04T13:14:24.895Z</time></trkpt><trkpt lat="45.00675556407518" lon="9.556518459133523"><ele>80.0</ele><time>2026-04-04T13:14:26.895Z</time></trkpt><trkpt lat="45.006803972198604" lon="9.55664131791909"><ele>80.4</ele><time>2026-04-04T13:14:28.895Z</time></trkpt><trkpt lat="45.0068499150545" lon="9.55677411601407"><ele>80.8</ele><time>2026-04-04T13:14:30.895Z</time></trkpt><trkpt lat="45.00689888591923" lon="9.556905010014757"><ele>81.19999999999999</ele><time>2026-04-04T13:14:32.895Z</time></trkpt><trkpt lat="45.00694307354076" lon="9.557031898440341"><ele>81.6</ele><time>2026-04-04T13:14:34.895Z</time></trkpt><trkpt lat="45.006984841974834" lon="9.557149588525006"><ele>82.0</ele><time>2026-04-04T13:14:36.895Z</time></trkpt><trkpt lat="45.00702734908243" lon="9.557267904856998"><ele>82.0</ele><time>2026-04-04T13:14:38.895Z</time></trkpt><trkpt lat="45.00706856400468" lon="9.557380248715674"><ele>82.0</ele><time>2026-04-04T13:14:40.895Z</time></trkpt><trkpt lat="45.00710482072845" lon="9.557492462373572"><ele>82.0</ele><time>2026-04-04T13:14:42.895Z</time></trkpt><trkpt lat="45.00714335802591" lon="9.557598134314086"><ele>82.0</ele><time>2026-04-04T13:14:44.895Z</time></trkpt><trkpt lat="45.00718485909567" lon="9.557702295562091"><ele>82.0</ele><time>2026-04-04T13:14:46.895Z</time></trkpt><trkpt lat="45.00722603462584" lon="9.557814693735644"><ele>82.0</ele><time>2026-04-04T13:14:48.894Z</time></trkpt><trkpt lat="45.00726321905289" lon="9.557938390559793"><ele>82.0</ele><time>2026-04-04T13:14:50.894Z</time></trkpt><trkpt lat="45.007307022621816" lon="9.558055800669456"><ele>82.0</ele><time>2026-04-04T13:14:52.894Z</time></trkpt><trkpt lat="45.00735217424675" lon="9.55816988078182"><ele>82.0</ele><time>2026-04-04T13:14:54.894Z</time></trkpt><trkpt lat="45.00738736752161" lon="9.55829149153715"><ele>82.0</ele><time>2026-04-04T13:14:56.894Z</time></trkpt><trkpt lat="45.00743206135005" lon="9.558414390696491"><ele>82.0</ele><time>2026-04-04T13:14:58.894Z</time></trkpt><trkpt lat="45.00747515764458" lon="9.558540462562595"><ele>82.0</ele><time>2026-04-04T13:15:00.894Z</time></trkpt><trkpt lat="45.00752311615171" lon="9.558674911634133"><ele>82.0</ele><time>2026-04-04T13:15:02.894Z</time></trkpt><trkpt lat="45.007572054586674" lon="9.558807235425514"><ele>82.0</ele><time>2026-04-04T13:15:04.894Z</time></trkpt><trkpt lat="45.00761730974832" lon="9.55893755986867"><ele>82.0</ele><time>2026-04-04T13:15:06.894Z</time></trkpt><trkpt lat="45.007672383941745" lon="9.559057145693782"><ele>82.0</ele><time>2026-04-04T13:15:08.894Z</time></trkpt><trkpt lat="45.00771523168364" lon="9.55918543070042"><ele>82.0</ele><time>2026-04-04T13:15:10.894Z</time></trkpt><trkpt lat="45.00776117625474" lon="9.559301436931708"><ele>82.0</ele><time>2026-04-04T13:15:12.894Z</time></trkpt><trkpt lat="45.007811963872754" lon="9.559429234272958"><ele>82.0</ele><time>2026-04-04T13:15:14.893Z</time></trkpt><trkpt lat="45.00786758864984" lon="9.559556839491613"><ele>82.0</ele><time>2026-04-04T13:15:16.894Z</time></trkpt><trkpt lat="45.00792328853956" lon="9.559684142482476"><ele>82.0</ele><time>2026-04-04T13:15:18.893Z</time></trkpt><trkpt lat="45.00797927708517" lon="9.55981483704829"><ele>81.8</ele><time>2026-04-04T13:15:20.894Z</time></trkpt><trkpt lat="45.0080332875064" lon="9.55994150187219"><ele>81.6</ele><time>2026-04-04T13:15:22.894Z</time></trkpt><trkpt lat="45.00809003996146" lon="9.560059395562748"><ele>81.39999999999999</ele><time>2026-04-04T13:15:24.894Z</time></trkpt><trkpt lat="45.00814715235778" lon="9.560179608678387"><ele>81.19999999999999</ele><time>2026-04-04T13:15:26.894Z</time></trkpt><trkpt lat="45.00820124408659" lon="9.560306321468298"><ele>81.0</ele><time>2026-04-04T13:15:28.894Z</time></trkpt><trkpt lat="45.00825737637496" lon="9.560445139761974"><ele>81.0</ele><time>2026-04-04T13:15:30.894Z</time></trkpt><trkpt lat="45.00832054961804" lon="9.560578745197605"><ele>81.0</ele><time>2026-04-04T13:15:32.894Z</time></trkpt><trkpt lat="45.0083777461849" lon="9.560713356073382"><ele>81.0</ele><time>2026-04-04T13:15:34.894Z</time></trkpt><trkpt lat="45.008431736794044" lon="9.560845295802471"><ele>81.0</ele><time>2026-04-04T13:15:36.894Z</time></trkpt><trkpt lat="45.0084897812317" lon="9.560971309670865"><ele>81.0</ele><time>2026-04-04T13:15:38.894Z</time></trkpt><trkpt lat="45.00854686940331" lon="9.561105026541334"><ele>81.19999999999999</ele><time>2026-04-04T13:15:40.894Z</time></trkpt><trkpt lat="45.008605068385556" lon="9.561240079641374"><ele>81.39999999999999</ele><time>2026-04-04T13:15:42.894Z</time></trkpt><trkpt lat="45.008663045925545" lon="9.561375441292158"><ele>81.6</ele><time>2026-04-04T13:15:44.893Z</time></trkpt><trkpt lat="45.00872137288109" lon="9.5614999039161"><ele>81.8</ele><time>2026-04-04T13:15:46.893Z</time></trkpt><trkpt lat="45.00877510431618" lon="9.561617671291375"><ele>82.0</ele><time>2026-04-04T13:15:48.893Z</time></trkpt><trkpt lat="45.0088331755798" lon="9.561737704887273"><ele>82.0</ele><time>2026-04-04T13:15:50.893Z</time></trkpt><trkpt lat="45.00888701031185" lon="9.56186102446069"><ele>82.0</ele><time>2026-04-04T13:15:52.893Z</time></trkpt><trkpt lat="45.00894348784963" lon="9.561984102299835"><ele>82.0</ele><time>2026-04-04T13:15:54.893Z</time></trkpt><trkpt lat="45.00900070431589" lon="9.562111177302945"><ele>82.0</ele><time>2026-04-04T13:15:56.893Z</time></trkpt><trkpt lat="45.00905278153257" lon="9.562231799559"><ele>82.0</ele><time>2026-04-04T13:15:58.893Z</time></trkpt><trkpt lat="45.009105544645465" lon="9.562356184689854"><ele>81.8</ele><time>2026-04-04T13:16:00.893Z</time></trkpt><trkpt lat="45.00915322396515" lon="9.562477441119531"><ele>81.6</ele><time>2026-04-04T13:16:02.893Z</time></trkpt><trkpt lat="45.00920276142726" lon="9.5626014949628"><ele>81.39999999999999</ele><time>2026-04-04T13:16:04.893Z</time></trkpt><trkpt lat="45.00923856767932" lon="9.562727691903472"><ele>81.19999999999999</ele><time>2026-04-04T13:16:06.893Z</time></trkpt><trkpt lat="45.00927742522546" lon="9.562862754216427"><ele>81.0</ele><time>2026-04-04T13:16:08.893Z</time></trkpt><trkpt lat="45.00931117873866" lon="9.56300499064386"><ele>80.6</ele><time>2026-04-04T13:16:10.893Z</time></trkpt><trkpt lat="45.00934408568842" lon="9.56314207755925"><ele>80.19999999999999</ele><time>2026-04-04T13:16:12.893Z</time></trkpt><trkpt lat="45.009371175124336" lon="9.563283575280453"><ele>79.80000000000001</ele><time>2026-04-04T13:16:14.893Z</time></trkpt><trkpt lat="45.009398195391114" lon="9.563437005825342"><ele>79.4</ele><time>2026-04-04T13:16:16.893Z</time></trkpt><trkpt lat="45.009417626862934" lon="9.563568523373618"><ele>79.0</ele><time>2026-04-04T13:16:18.893Z</time></trkpt><trkpt lat="45.009445213106645" lon="9.563699894353748"><ele>78.8</ele><time>2026-04-04T13:16:20.893Z</time></trkpt><trkpt lat="45.00947443066825" lon="9.563845756260632"><ele>78.60000000000001</ele><time>2026-04-04T13:16:22.893Z</time></trkpt><trkpt lat="45.00949606274154" lon="9.563995955896317"><ele>78.4</ele><time>2026-04-04T13:16:24.893Z</time></trkpt><trkpt lat="45.009520034654145" lon="9.56414589538113"><ele>78.2</ele><time>2026-04-04T13:16:26.893Z</time></trkpt><trkpt lat="45.00954843838326" lon="9.564291776750787"><ele>78.0</ele><time>2026-04-04T13:16:28.893Z</time></trkpt><trkpt lat="45.00957405992878" lon="9.564437379506323"><ele>77.8</ele><time>2026-04-04T13:16:30.893Z</time></trkpt><trkpt lat="45.00959912754585" lon="9.564580059932261"><ele>77.6</ele><time>2026-04-04T13:16:32.893Z</time></trkpt><trkpt lat="45.00962659266803" lon="9.5647163815332"><ele>77.4</ele><time>2026-04-04T13:16:34.893Z</time></trkpt><trkpt lat="45.00965231886107" lon="9.564855864258867"><ele>77.2</ele><time>2026-04-04T13:16:36.893Z</time></trkpt><trkpt lat="45.009673769996226" lon="9.564994592768315"><ele>77.0</ele><time>2026-04-04T13:16:38.893Z</time></trkpt><trkpt lat="45.009698490190864" lon="9.56513711481857"><ele>77.0</ele><time>2026-04-04T13:16:40.893Z</time></trkpt><trkpt lat="45.009724665417515" lon="9.565270148676108"><ele>77.0</ele><time>2026-04-04T13:16:42.892Z</time></trkpt><trkpt lat="45.009749437330555" lon="9.565405268604243"><ele>77.0</ele><time>2026-04-04T13:16:44.892Z</time></trkpt><trkpt lat="45.00977205283815" lon="9.565540919819357"><ele>77.0</ele><time>2026-04-04T13:16:46.892Z</time></trkpt><trkpt lat="45.009800658249745" lon="9.565676144338005"><ele>77.0</ele><time>2026-04-04T13:16:48.892Z</time></trkpt><trkpt lat="45.00982588891966" lon="9.565814592367184"><ele>77.0</ele><time>2026-04-04T13:16:50.892Z</time></trkpt><trkpt lat="45.00985478302637" lon="9.565954348624361"><ele>77.0</ele><time>2026-04-04T13:16:52.892Z</time></trkpt><trkpt lat="45.009881424168476" lon="9.566089855365812"><ele>77.0</ele><time>2026-04-04T13:16:54.892Z</time></trkpt><trkpt lat="45.00990785672584" lon="9.566221868841716"><ele>77.0</ele><time>2026-04-04T13:16:56.892Z</time></trkpt><trkpt lat="45.00993697756324" lon="9.566358756307894"><ele>77.0</ele><time>2026-04-04T13:16:58.892Z</time></trkpt><trkpt lat="45.00996721745806" lon="9.566497115840567"><ele>77.0</ele><time>2026-04-04T13:17:00.892Z</time></trkpt><trkpt lat="45.009998197935225" lon="9.56664191877379"><ele>77.0</ele><time>2026-04-04T13:17:02.892Z</time></trkpt><trkpt lat="45.01002814119307" lon="9.566778031333092"><ele>77.0</ele><time>2026-04-04T13:17:04.892Z</time></trkpt><trkpt lat="45.0100505235967" lon="9.566908658746256"><ele>77.0</ele><time>2026-04-04T13:17:06.892Z</time></trkpt><trkpt lat="45.010075124072884" lon="9.567038097942568"><ele>77.0</ele><time>2026-04-04T13:17:08.892Z</time></trkpt><trkpt lat="45.010099773891156" lon="9.567171426072417"><ele>77.0</ele><time>2026-04-04T13:17:10.892Z</time></trkpt><trkpt lat="45.01012381378372" lon="9.56729167111809"><ele>77.0</ele><time>2026-04-04T13:17:12.892Z</time></trkpt><trkpt lat="45.01015263821915" lon="9.567410483326327"><ele>77.0</ele><time>2026-04-04T13:17:14.891Z</time></trkpt><trkpt lat="45.01017776332396" lon="9.567521534148513"><ele>77.0</ele><time>2026-04-04T13:17:16.891Z</time></trkpt><trkpt lat="45.010199090335306" lon="9.567623570033497"><ele>77.0</ele><time>2026-04-04T13:17:18.892Z</time></trkpt><trkpt lat="45.01021576087165" lon="9.567722397124475"><ele>77.0</ele><time>2026-04-04T13:17:20.891Z</time></trkpt><trkpt lat="45.01024820639008" lon="9.567833421886759"><ele>77.16666666666667</ele><time>2026-04-04T13:17:22.891Z</time></trkpt><trkpt lat="45.01026563132608" lon="9.567952967137023"><ele>77.33333333333334</ele><time>2026-04-04T13:17:24.891Z</time></trkpt><trkpt lat="45.01023005082862" lon="9.56804094509941"><ele>77.5</ele><time>2026-04-04T13:17:26.891Z</time></trkpt><trkpt lat="45.01014327231955" lon="9.56806595177397"><ele>77.66666666666667</ele><time>2026-04-04T13:17:28.891Z</time></trkpt><trkpt lat="45.01003930518025" lon="9.56806466922012"><ele>77.83333333333333</ele><time>2026-04-04T13:17:30.891Z</time></trkpt><trkpt lat="45.00994267600239" lon="9.568075088226486"><ele>78.0</ele><time>2026-04-04T13:17:32.891Z</time></trkpt><trkpt lat="45.00985668824846" lon="9.568080330113439"><ele>78.0</ele><time>2026-04-04T13:17:34.891Z</time></trkpt><trkpt lat="45.00976759608211" lon="9.5680896452959"><ele>78.0</ele><time>2026-04-04T13:17:36.891Z</time></trkpt><trkpt lat="45.00967206738813" lon="9.568100201203537"><ele>78.0</ele><time>2026-04-04T13:17:38.891Z</time></trkpt><trkpt lat="45.009581384767515" lon="9.568110904261202"><ele>78.0</ele><time>2026-04-04T13:17:40.891Z</time></trkpt><trkpt lat="45.009497174068485" lon="9.568117559073507"><ele>78.0</ele><time>2026-04-04T13:17:42.891Z</time></trkpt><trkpt lat="45.00940595861027" lon="9.568118350428378"><ele>78.0</ele><time>2026-04-04T13:17:44.891Z</time></trkpt><trkpt lat="45.00931732356943" lon="9.568118012959042"><ele>78.0</ele><time>2026-04-04T13:17:46.891Z</time></trkpt><trkpt lat="45.00923062515135" lon="9.568124613803572"><ele>78.0</ele><time>2026-04-04T13:17:48.891Z</time></trkpt><trkpt lat="45.00914010091706" lon="9.568127359784377"><ele>78.0</ele><time>2026-04-04T13:17:50.891Z</time></trkpt><trkpt lat="45.00905065872878" lon="9.568119572804468"><ele>78.0</ele><time>2026-04-04T13:17:52.891Z</time></trkpt><trkpt lat="45.00895589902785" lon="9.568126012065395"><ele>78.2</ele><time>2026-04-04T13:17:54.891Z</time></trkpt><trkpt lat="45.00885893470092" lon="9.568130140949648"><ele>78.4</ele><time>2026-04-04T13:17:56.891Z</time></trkpt><trkpt lat="45.00876092054115" lon="9.568149770830091"><ele>78.60000000000001</ele><time>2026-04-04T13:17:58.891Z</time></trkpt><trkpt lat="45.00866493252723" lon="9.568139939247667"><ele>78.8</ele><time>2026-04-04T13:18:00.89Z</time></trkpt><trkpt lat="45.00856605549788" lon="9.568141156350773"><ele>79.0</ele><time>2026-04-04T13:18:02.89Z</time></trkpt><trkpt lat="45.00847480951974" lon="9.568140908293941"><ele>79.0</ele><time>2026-04-04T13:18:04.89Z</time></trkpt><trkpt lat="45.00839073329865" lon="9.56813018123007"><ele>79.0</ele><time>2026-04-04T13:18:06.89Z</time></trkpt><trkpt lat="45.00831337337024" lon="9.568128165247906"><ele>79.0</ele><time>2026-04-04T13:18:08.89Z</time></trkpt><trkpt lat="45.008250177809344" lon="9.568203268444595"><ele>79.0</ele><time>2026-04-04T13:18:10.89Z</time></trkpt><trkpt lat="45.008233076223604" lon="9.568306254574859"><ele>79.0</ele><time>2026-04-04T13:18:12.89Z</time></trkpt><trkpt lat="45.008222566518654" lon="9.568403987964302"><ele>79.0</ele><time>2026-04-04T13:18:14.89Z</time></trkpt><trkpt lat="45.00821508891874" lon="9.568506002670615"><ele>79.0</ele><time>2026-04-04T13:18:16.89Z</time></trkpt><trkpt lat="45.00820976044835" lon="9.568621938389528"><ele>79.0</ele><time>2026-04-04T13:18:18.89Z</time></trkpt><trkpt lat="45.00820009145437" lon="9.568738858450786"><ele>79.0</ele><time>2026-04-04T13:18:20.89Z</time></trkpt><trkpt lat="45.00819650678254" lon="9.5688576428758"><ele>79.0</ele><time>2026-04-04T13:18:22.89Z</time></trkpt><trkpt lat="45.00818077980375" lon="9.568970575017753"><ele>79.0</ele><time>2026-04-04T13:18:24.89Z</time></trkpt><trkpt lat="45.00817920614065" lon="9.569071070542325"><ele>79.0</ele><time>2026-04-04T13:18:26.89Z</time></trkpt><trkpt lat="45.00817051508091" lon="9.569167116802245"><ele>79.00000000000001</ele><time>2026-04-04T13:18:28.89Z</time></trkpt><trkpt lat="45.00815355343785" lon="9.569258043011468"><ele>79.0</ele><time>2026-04-04T13:18:30.89Z</time></trkpt><trkpt lat="45.00814044034653" lon="9.569357328699251"><ele>79.0</ele><time>2026-04-04T13:18:32.89Z</time></trkpt><trkpt lat="45.008122981075566" lon="9.569466065276275"><ele>79.0</ele><time>2026-04-04T13:18:35.89Z</time></trkpt><trkpt lat="45.00809838223209" lon="9.569575711912524"><ele>79.0</ele><time>2026-04-04T13:18:38.89Z</time></trkpt><trkpt lat="45.00807833860829" lon="9.569671461085603"><ele>79.00000000000001</ele><time>2026-04-04T13:18:42.89Z</time></trkpt><trkpt lat="45.00805508698389" lon="9.569754314704626"><ele>79.0</ele><time>2026-04-04T13:18:44.89Z</time></trkpt><trkpt lat="45.00804315012943" lon="9.569854685383339"><ele>79.16666666666666</ele><time>2026-04-04T13:18:46.89Z</time></trkpt><trkpt lat="45.0080259390904" lon="9.569961426917192"><ele>79.33333333333333</ele><time>2026-04-04T13:18:48.89Z</time></trkpt><trkpt lat="45.00800780418831" lon="9.57007988528975"><ele>79.5</ele><time>2026-04-04T13:18:50.89Z</time></trkpt><trkpt lat="45.00798687439117" lon="9.570197840173027"><ele>79.66666666666667</ele><time>2026-04-04T13:18:52.89Z</time></trkpt><trkpt lat="45.007969804414735" lon="9.570311296455248"><ele>79.83333333333334</ele><time>2026-04-04T13:18:54.89Z</time></trkpt><trkpt lat="45.00795253422329" lon="9.570419704782967"><ele>80.0</ele><time>2026-04-04T13:18:56.89Z</time></trkpt><trkpt lat="45.00794628703619" lon="9.570521983626117"><ele>80.0</ele><time>2026-04-04T13:18:58.889Z</time></trkpt><trkpt lat="45.007945243205796" lon="9.570634183497571"><ele>80.0</ele><time>2026-04-04T13:19:00.889Z</time></trkpt><trkpt lat="45.00795286482216" lon="9.570744947956646"><ele>80.0</ele><time>2026-04-04T13:19:02.889Z</time></trkpt><trkpt lat="45.00793586578533" lon="9.570850297844693"><ele>80.0</ele><time>2026-04-04T13:19:04.889Z</time></trkpt><trkpt lat="45.00791811694915" lon="9.570963637447184"><ele>80.0</ele><time>2026-04-04T13:19:06.889Z</time></trkpt><trkpt lat="45.007918888490586" lon="9.57107814824175"><ele>80.0</ele><time>2026-04-04T13:19:08.889Z</time></trkpt><trkpt lat="45.00791613594163" lon="9.57119086328455"><ele>79.83333333333334</ele><time>2026-04-04T13:19:10.889Z</time></trkpt><trkpt lat="45.007916082419825" lon="9.571304597940484"><ele>79.66666666666667</ele><time>2026-04-04T13:19:12.889Z</time></trkpt><trkpt lat="45.007916281264116" lon="9.571424573571534"><ele>79.5</ele><time>2026-04-04T13:19:14.889Z</time></trkpt><trkpt lat="45.0079174082086" lon="9.571535418577897"><ele>79.33333333333333</ele><time>2026-04-04T13:19:16.889Z</time></trkpt><trkpt lat="45.00791488168648" lon="9.571645287912705"><ele>79.16666666666666</ele><time>2026-04-04T13:19:18.889Z</time></trkpt><trkpt lat="45.00789345483377" lon="9.571747370192789"><ele>79.0</ele><time>2026-04-04T13:19:20.889Z</time></trkpt><trkpt lat="45.007895343822916" lon="9.571848744973282"><ele>79.0</ele><time>2026-04-04T13:19:22.888Z</time></trkpt><trkpt lat="45.00792055276657" lon="9.571932463661945"><ele>79.0</ele><time>2026-04-04T13:19:24.889Z</time></trkpt><trkpt lat="45.00798965331484" lon="9.571964297837969"><ele>79.0</ele><time>2026-04-04T13:19:26.888Z</time></trkpt><trkpt lat="45.008060621500725" lon="9.571945868289731"><ele>79.0</ele><time>2026-04-04T13:19:28.888Z</time></trkpt><trkpt lat="45.00814732626449" lon="9.571918816148566"><ele>79.0</ele><time>2026-04-04T13:19:30.889Z</time></trkpt><trkpt lat="45.008238331696106" lon="9.571894455688037"><ele>79.0</ele><time>2026-04-04T13:19:32.888Z</time></trkpt><trkpt lat="45.008333592260705" lon="9.571859712793316"><ele>79.2</ele><time>2026-04-04T13:19:34.888Z</time></trkpt><trkpt lat="45.00842071515489" lon="9.571854215779583"><ele>79.4</ele><time>2026-04-04T13:19:36.888Z</time></trkpt><trkpt lat="45.00851359737065" lon="9.571826638046701"><ele>79.6</ele><time>2026-04-04T13:19:38.888Z</time></trkpt><trkpt lat="45.008604568363126" lon="9.571815698504674"><ele>79.8</ele><time>2026-04-04T13:19:40.888Z</time></trkpt><trkpt lat="45.00869526097969" lon="9.571799268666847"><ele>80.0</ele><time>2026-04-04T13:19:42.888Z</time></trkpt><trkpt lat="45.00878265149228" lon="9.571775029236717"><ele>80.0</ele><time>2026-04-04T13:19:44.888Z</time></trkpt><trkpt lat="45.00886158137937" lon="9.571766256648464"><ele>80.0</ele><time>2026-04-04T13:19:46.888Z</time></trkpt><trkpt lat="45.00894517150386" lon="9.571757097535787"><ele>80.0</ele><time>2026-04-04T13:19:48.888Z</time></trkpt><trkpt lat="45.00903065682379" lon="9.571739995229148"><ele>80.0</ele><time>2026-04-04T13:19:50.888Z</time></trkpt><trkpt lat="45.009106246670505" lon="9.571721097856196"><ele>80.0</ele><time>2026-04-04T13:19:52.888Z</time></trkpt><trkpt lat="45.009184156268944" lon="9.571703970645663"><ele>80.0</ele><time>2026-04-04T13:19:54.888Z</time></trkpt><trkpt lat="45.00926352300309" lon="9.57170094578115"><ele>80.0</ele><time>2026-04-04T13:19:56.888Z</time></trkpt><trkpt lat="45.0093539069821" lon="9.571696182640167"><ele>80.0</ele><time>2026-04-04T13:19:58.888Z</time></trkpt><trkpt lat="45.00944106605483" lon="9.571677096340071"><ele>80.0</ele><time>2026-04-04T13:20:00.888Z</time></trkpt><trkpt lat="45.00952212178942" lon="9.571654240327337"><ele>80.0</ele><time>2026-04-04T13:20:02.888Z</time></trkpt><trkpt lat="45.00961381234838" lon="9.571630628836507"><ele>80.0</ele><time>2026-04-04T13:20:04.888Z</time></trkpt><trkpt lat="45.009695972792684" lon="9.57163108727985"><ele>80.0</ele><time>2026-04-04T13:20:06.887Z</time></trkpt><trkpt lat="45.00978356336515" lon="9.571610717756128"><ele>80.0</ele><time>2026-04-04T13:20:08.887Z</time></trkpt><trkpt lat="45.00985240827568" lon="9.571604600131904"><ele>80.0</ele><time>2026-04-04T13:20:10.887Z</time></trkpt><trkpt lat="45.00993688557076" lon="9.571588807284192"><ele>80.0</ele><time>2026-04-04T13:20:12.887Z</time></trkpt><trkpt lat="45.01001189750297" lon="9.571572402277567"><ele>80.0</ele><time>2026-04-04T13:20:14.887Z</time></trkpt><trkpt lat="45.01009023069018" lon="9.571546209634015"><ele>80.0</ele><time>2026-04-04T13:20:16.887Z</time></trkpt><trkpt lat="45.01016858912559" lon="9.571533892255617"><ele>80.0</ele><time>2026-04-04T13:20:18.887Z</time></trkpt><trkpt lat="45.01024072222431" lon="9.571504651222266"><ele>80.0</ele><time>2026-04-04T13:20:20.887Z</time></trkpt><trkpt lat="45.01031250021958" lon="9.571496400882742"><ele>80.0</ele><time>2026-04-04T13:20:22.887Z</time></trkpt><trkpt lat="45.010383784864565" lon="9.571505714067918"><ele>80.0</ele><time>2026-04-04T13:20:24.887Z</time></trkpt><trkpt lat="45.01045928764213" lon="9.571488215792225"><ele>80.0</ele><time>2026-04-04T13:20:26.887Z</time></trkpt><trkpt lat="45.01054311179381" lon="9.57147324248414"><ele>80.0</ele><time>2026-04-04T13:20:28.887Z</time></trkpt><trkpt lat="45.0106251595602" lon="9.571463781854623"><ele>80.0</ele><time>2026-04-04T13:20:30.887Z</time></trkpt><trkpt lat="45.01070826007157" lon="9.571454270438105"><ele>80.0</ele><time>2026-04-04T13:20:32.887Z</time></trkpt><trkpt lat="45.0107955611307" lon="9.5714431296916"><ele>80.0</ele><time>2026-04-04T13:20:34.887Z</time></trkpt><trkpt lat="45.01087814730983" lon="9.571439137965312"><ele>80.0</ele><time>2026-04-04T13:20:36.887Z</time></trkpt><trkpt lat="45.010967805447116" lon="9.571439274289771"><ele>80.0</ele><time>2026-04-04T13:20:38.887Z</time></trkpt><trkpt lat="45.01105411545601" lon="9.57143231857171"><ele>80.0</ele><time>2026-04-04T13:20:40.887Z</time></trkpt><trkpt lat="45.01114273456168" lon="9.571418098043152"><ele>80.0</ele><time>2026-04-04T13:20:42.887Z</time></trkpt><trkpt lat="45.01122136754882" lon="9.571403089934714"><ele>79.83333333333334</ele><time>2026-04-04T13:20:44.887Z</time></trkpt><trkpt lat="45.01130721370016" lon="9.57138940304692"><ele>79.66666666666667</ele><time>2026-04-04T13:20:46.887Z</time></trkpt><trkpt lat="45.011396199020815" lon="9.571377077830373"><ele>79.5</ele><time>2026-04-04T13:20:48.888Z</time></trkpt><trkpt lat="45.01147753227907" lon="9.57136066669303"><ele>79.33333333333333</ele><time>2026-04-04T13:20:50.888Z</time></trkpt><trkpt lat="45.01156016317601" lon="9.571353769223242"><ele>79.16666666666666</ele><time>2026-04-04T13:20:52.888Z</time></trkpt><trkpt lat="45.01164885719184" lon="9.571357911993658"><ele>79.0</ele><time>2026-04-04T13:20:54.888Z</time></trkpt><trkpt lat="45.0117257418164" lon="9.57132825425282"><ele>79.0</ele><time>2026-04-04T13:20:56.888Z</time></trkpt><trkpt lat="45.01181232534044" lon="9.571298990015771"><ele>79.0</ele><time>2026-04-04T13:20:58.888Z</time></trkpt><trkpt lat="45.011906721988524" lon="9.571310509662931"><ele>79.0</ele><time>2026-04-04T13:21:00.888Z</time></trkpt><trkpt lat="45.01199781858334" lon="9.571316464237892"><ele>79.0</ele><time>2026-04-04T13:21:02.887Z</time></trkpt><trkpt lat="45.01208398479548" lon="9.571310071371053"><ele>79.0</ele><time>2026-04-04T13:21:04.887Z</time></trkpt><trkpt lat="45.01216717721404" lon="9.571296907137196"><ele>79.0</ele><time>2026-04-04T13:21:06.887Z</time></trkpt><trkpt lat="45.012254694845005" lon="9.571307664279106"><ele>79.0</ele><time>2026-04-04T13:21:08.887Z</time></trkpt><trkpt lat="45.01234184344098" lon="9.571302742954009"><ele>79.0</ele><time>2026-04-04T13:21:10.887Z</time></trkpt><trkpt lat="45.01243122623406" lon="9.571316310983525"><ele>79.0</ele><time>2026-04-04T13:21:12.887Z</time></trkpt><trkpt lat="45.01252032837926" lon="9.571322462166442"><ele>79.0</ele><time>2026-04-04T13:21:14.887Z</time></trkpt><trkpt lat="45.012609956990126" lon="9.571319296424148"><ele>79.0</ele><time>2026-04-04T13:21:16.887Z</time></trkpt><trkpt lat="45.01269787967943" lon="9.571320527868837"><ele>79.0</ele><time>2026-04-04T13:21:18.887Z</time></trkpt><trkpt lat="45.01278258814119" lon="9.571301420064287"><ele>79.0</ele><time>2026-04-04T13:21:20.887Z</time></trkpt><trkpt lat="45.01285912776832" lon="9.571302959410252"><ele>79.0</ele><time>2026-04-04T13:21:22.887Z</time></trkpt><trkpt lat="45.01293790939572" lon="9.571288358470365"><ele>79.0</ele><time>2026-04-04T13:21:24.887Z</time></trkpt><trkpt lat="45.01301816004501" lon="9.571292530043637"><ele>79.0</ele><time>2026-04-04T13:21:26.887Z</time></trkpt><trkpt lat="45.01310221133145" lon="9.571314324043831"><ele>79.0</ele><time>2026-04-04T13:21:28.887Z</time></trkpt><trkpt lat="45.0131734125474" lon="9.571327123881982"><ele>79.0</ele><time>2026-04-04T13:21:30.887Z</time></trkpt><trkpt lat="45.01325080048958" lon="9.571342403535764"><ele>78.60000000000001</ele><time>2026-04-04T13:21:32.887Z</time></trkpt><trkpt lat="45.013345949126915" lon="9.571341406057726"><ele>78.2</ele><time>2026-04-04T13:21:34.887Z</time></trkpt><trkpt lat="45.013437001225526" lon="9.5713435165335"><ele>77.80000000000001</ele><time>2026-04-04T13:21:36.886Z</time></trkpt><trkpt lat="45.01352087250767" lon="9.571348546614596"><ele>77.4</ele><time>2026-04-04T13:21:38.886Z</time></trkpt><trkpt lat="45.01360685560044" lon="9.571357890525542"><ele>77.0</ele><time>2026-04-04T13:21:40.886Z</time></trkpt><trkpt lat="45.013700763702744" lon="9.571376655552022"><ele>77.0</ele><time>2026-04-04T13:21:42.886Z</time></trkpt><trkpt lat="45.01378983164604" lon="9.571374110437587"><ele>77.0</ele><time>2026-04-04T13:21:44.886Z</time></trkpt><trkpt lat="45.013878818145464" lon="9.571387913644001"><ele>77.0</ele><time>2026-04-04T13:21:46.886Z</time></trkpt><trkpt lat="45.01396450766783" lon="9.571381565316255"><ele>77.0</ele><time>2026-04-04T13:21:48.886Z</time></trkpt><trkpt lat="45.01405496128772" lon="9.571402623836226"><ele>77.0</ele><time>2026-04-04T13:21:50.886Z</time></trkpt><trkpt lat="45.01415042713235" lon="9.571406817696724"><ele>77.0</ele><time>2026-04-04T13:21:52.886Z</time></trkpt><trkpt lat="45.01424021854774" lon="9.571411740261585"><ele>77.0</ele><time>2026-04-04T13:21:54.886Z</time></trkpt><trkpt lat="45.01432292447913" lon="9.571415675855027"><ele>77.0</ele><time>2026-04-04T13:21:56.886Z</time></trkpt><trkpt lat="45.01440936053428" lon="9.57140896585324"><ele>77.0</ele><time>2026-04-04T13:21:58.886Z</time></trkpt><trkpt lat="45.01450042304567" lon="9.571402986518711"><ele>77.0</ele><time>2026-04-04T13:22:00.886Z</time></trkpt><trkpt lat="45.0145890895148" lon="9.571394802923589"><ele>77.0</ele><time>2026-04-04T13:22:02.886Z</time></trkpt><trkpt lat="45.01467997319305" lon="9.57137823777107"><ele>77.0</ele><time>2026-04-04T13:22:04.886Z</time></trkpt><trkpt lat="45.014767749294705" lon="9.571367243664449"><ele>77.0</ele><time>2026-04-04T13:22:06.886Z</time></trkpt><trkpt lat="45.01485741138067" lon="9.571359643022523"><ele>77.0</ele><time>2026-04-04T13:22:08.886Z</time></trkpt><trkpt lat="45.01494572901902" lon="9.57135134009812"><ele>77.0</ele><time>2026-04-04T13:22:10.886Z</time></trkpt><trkpt lat="45.01503706495791" lon="9.571342695620638"><ele>77.0</ele><time>2026-04-04T13:22:12.886Z</time></trkpt><trkpt lat="45.01512609902251" lon="9.571314799106942"><ele>77.0</ele><time>2026-04-04T13:22:14.886Z</time></trkpt><trkpt lat="45.01521751851142" lon="9.571302380966053"><ele>77.0</ele><time>2026-04-04T13:22:16.886Z</time></trkpt><trkpt lat="45.01531503014936" lon="9.57128770077668"><ele>77.0</ele><time>2026-04-04T13:22:18.886Z</time></trkpt><trkpt lat="45.01539855515081" lon="9.571271783031555"><ele>77.0</ele><time>2026-04-04T13:22:20.886Z</time></trkpt><trkpt lat="45.01547550756712" lon="9.571255717826205"><ele>77.0</ele><time>2026-04-04T13:22:22.886Z</time></trkpt><trkpt lat="45.015567071865945" lon="9.571257542775678"><ele>77.0</ele><time>2026-04-04T13:22:24.886Z</time></trkpt><trkpt lat="45.015657903380266" lon="9.57125506474293"><ele>77.0</ele><time>2026-04-04T13:22:26.885Z</time></trkpt><trkpt lat="45.01575669616417" lon="9.571237340803645"><ele>77.0</ele><time>2026-04-04T13:22:28.885Z</time></trkpt><trkpt lat="45.01585310768828" lon="9.571234665347976"><ele>77.0</ele><time>2026-04-04T13:22:30.885Z</time></trkpt><trkpt lat="45.015947802960284" lon="9.571231279025369"><ele>77.0</ele><time>2026-04-04T13:22:32.885Z</time></trkpt><trkpt lat="45.016049746874955" lon="9.571220016993433"><ele>77.0</ele><time>2026-04-04T13:22:34.885Z</time></trkpt><trkpt lat="45.01613396829456" lon="9.571196834902231"><ele>77.0</ele><time>2026-04-04T13:22:36.885Z</time></trkpt><trkpt lat="45.01621662333861" lon="9.571191034066702"><ele>77.0</ele><time>2026-04-04T13:22:38.885Z</time></trkpt><trkpt lat="45.01631029207878" lon="9.571194503007403"><ele>77.0</ele><time>2026-04-04T13:22:40.885Z</time></trkpt><trkpt lat="45.01640424224423" lon="9.571196865600465"><ele>77.0</ele><time>2026-04-04T13:22:42.885Z</time></trkpt><trkpt lat="45.01648999835518" lon="9.571189467493628"><ele>77.0</ele><time>2026-04-04T13:22:44.885Z</time></trkpt><trkpt lat="45.01657495512661" lon="9.57117373307291"><ele>77.0</ele><time>2026-04-04T13:22:46.885Z</time></trkpt><trkpt lat="45.0166701024088" lon="9.57116509535402"><ele>77.0</ele><time>2026-04-04T13:22:48.885Z</time></trkpt><trkpt lat="45.01675094195478" lon="9.571168561846205"><ele>77.0</ele><time>2026-04-04T13:22:50.885Z</time></trkpt><trkpt lat="45.01682916626471" lon="9.571155845896653"><ele>77.0</ele><time>2026-04-04T13:22:52.885Z</time></trkpt><trkpt lat="45.016918050876264" lon="9.571142410753362"><ele>77.0</ele><time>2026-04-04T13:22:54.885Z</time></trkpt><trkpt lat="45.017000918507755" lon="9.571134402967719"><ele>77.0</ele><time>2026-04-04T13:22:56.885Z</time></trkpt><trkpt lat="45.01707460587807" lon="9.57121237478338"><ele>77.0</ele><time>2026-04-04T13:22:59.885Z</time></trkpt><trkpt lat="45.01709494291166" lon="9.571346702015626"><ele>77.0</ele><time>2026-04-04T13:23:01.885Z</time></trkpt><trkpt lat="45.017117821836806" lon="9.571468541763023"><ele>77.0</ele><time>2026-04-04T13:23:03.885Z</time></trkpt><trkpt lat="45.01714746676982" lon="9.571589379641255"><ele>77.0</ele><time>2026-04-04T13:23:05.885Z</time></trkpt><trkpt lat="45.01718626586527" lon="9.571703223680068"><ele>77.0</ele><time>2026-04-04T13:23:07.885Z</time></trkpt><trkpt lat="45.01722123036422" lon="9.571822581788348"><ele>77.0</ele><time>2026-04-04T13:23:09.885Z</time></trkpt><trkpt lat="45.01726641202463" lon="9.571931618451817"><ele>76.83333333333334</ele><time>2026-04-04T13:23:11.885Z</time></trkpt><trkpt lat="45.01730833072443" lon="9.572038747895617"><ele>76.66666666666667</ele><time>2026-04-04T13:23:13.885Z</time></trkpt><trkpt lat="45.01735744276767" lon="9.572143221875663"><ele>76.5</ele><time>2026-04-04T13:23:15.885Z</time></trkpt><trkpt lat="45.0174058148292" lon="9.572230785740292"><ele>76.33333333333333</ele><time>2026-04-04T13:23:17.885Z</time></trkpt><trkpt lat="45.01744216461203" lon="9.572334075102141"><ele>76.16666666666666</ele><time>2026-04-04T13:23:19.885Z</time></trkpt><trkpt lat="45.01748890066137" lon="9.572410158281864"><ele>76.0</ele><time>2026-04-04T13:23:21.885Z</time></trkpt><trkpt lat="45.01754844379277" lon="9.572477568601093"><ele>76.0</ele><time>2026-04-04T13:23:23.885Z</time></trkpt><trkpt lat="45.01759860005152" lon="9.572560447197782"><ele>76.0</ele><time>2026-04-04T13:23:25.884Z</time></trkpt><trkpt lat="45.017655025893525" lon="9.572644692468753"><ele>76.0</ele><time>2026-04-04T13:23:27.884Z</time></trkpt><trkpt lat="45.01771786755868" lon="9.572719898781815"><ele>76.0</ele><time>2026-04-04T13:23:29.884Z</time></trkpt><trkpt lat="45.01777196934391" lon="9.57281635481886"><ele>76.0</ele><time>2026-04-04T13:23:31.884Z</time></trkpt><trkpt lat="45.01783281510499" lon="9.5729142560766"><ele>76.0</ele><time>2026-04-04T13:23:33.884Z</time></trkpt><trkpt lat="45.01789981909298" lon="9.573014089994993"><ele>76.0</ele><time>2026-04-04T13:23:35.883Z</time></trkpt><trkpt lat="45.01796739623184" lon="9.57311414566301"><ele>76.0</ele><time>2026-04-04T13:23:37.884Z</time></trkpt><trkpt lat="45.01802994221823" lon="9.573214849396606"><ele>76.0</ele><time>2026-04-04T13:23:39.884Z</time></trkpt><trkpt lat="45.018095009527244" lon="9.57331057797326"><ele>76.0</ele><time>2026-04-04T13:23:41.883Z</time></trkpt><trkpt lat="45.01816036082658" lon="9.57340613422291"><ele>76.0</ele><time>2026-04-04T13:23:43.883Z</time></trkpt><trkpt lat="45.01822925556684" lon="9.573496400546256"><ele>76.0</ele><time>2026-04-04T13:23:45.883Z</time></trkpt><trkpt lat="45.01829517857146" lon="9.573586190214568"><ele>76.0</ele><time>2026-04-04T13:23:47.883Z</time></trkpt><trkpt lat="45.01836010586345" lon="9.573676180541534"><ele>76.0</ele><time>2026-04-04T13:23:49.883Z</time></trkpt><trkpt lat="45.01842424210418" lon="9.573769867059346"><ele>76.0</ele><time>2026-04-04T13:23:51.883Z</time></trkpt><trkpt lat="45.018490682467416" lon="9.573857416881348"><ele>76.0</ele><time>2026-04-04T13:23:53.883Z</time></trkpt><trkpt lat="45.01855704839557" lon="9.573950478916611"><ele>75.66666666666666</ele><time>2026-04-04T13:23:55.883Z</time></trkpt><trkpt lat="45.018605450271004" lon="9.574055941484769"><ele>75.33333333333333</ele><time>2026-04-04T13:23:57.883Z</time></trkpt><trkpt lat="45.01865305448274" lon="9.574165815003695"><ele>75.0</ele><time>2026-04-04T13:23:59.883Z</time></trkpt><trkpt lat="45.01869903135386" lon="9.574269956545354"><ele>74.66666666666667</ele><time>2026-04-04T13:24:01.883Z</time></trkpt><trkpt lat="45.01874769390348" lon="9.57437493509657"><ele>74.33333333333334</ele><time>2026-04-04T13:24:03.883Z</time></trkpt><trkpt lat="45.018792264638954" lon="9.574479167637872"><ele>74.0</ele><time>2026-04-04T13:24:05.883Z</time></trkpt><trkpt lat="45.01884159911134" lon="9.574578391541303"><ele>74.0</ele><time>2026-04-04T13:24:07.883Z</time></trkpt><trkpt lat="45.01887576192495" lon="9.574687362141363"><ele>74.0</ele><time>2026-04-04T13:24:09.883Z</time></trkpt><trkpt lat="45.01892474229286" lon="9.574795987051793"><ele>74.0</ele><time>2026-04-04T13:24:11.883Z</time></trkpt><trkpt lat="45.018976974271816" lon="9.574899797024939"><ele>74.0</ele><time>2026-04-04T13:24:13.883Z</time></trkpt><trkpt lat="45.01902404119274" lon="9.575010739971379"><ele>74.0</ele><time>2026-04-04T13:24:15.883Z</time></trkpt><trkpt lat="45.01907161464361" lon="9.575117042648548"><ele>74.0</ele><time>2026-04-04T13:24:17.883Z</time></trkpt><trkpt lat="45.01911401890143" lon="9.575228166496954"><ele>74.0</ele><time>2026-04-04T13:24:19.883Z</time></trkpt><trkpt lat="45.01916660291139" lon="9.575324457230968"><ele>74.0</ele><time>2026-04-04T13:24:21.883Z</time></trkpt><trkpt lat="45.01921445330725" lon="9.575428766350216"><ele>74.0</ele><time>2026-04-04T13:24:23.883Z</time></trkpt><trkpt lat="45.019255784175854" lon="9.575546704164172"><ele>74.0</ele><time>2026-04-04T13:24:25.883Z</time></trkpt><trkpt lat="45.01930550308748" lon="9.575654040843078"><ele>74.0</ele><time>2026-04-04T13:24:27.883Z</time></trkpt><trkpt lat="45.01934994070636" lon="9.575764535461161"><ele>74.0</ele><time>2026-04-04T13:24:29.883Z</time></trkpt><trkpt lat="45.019394068779654" lon="9.575882636190496"><ele>74.0</ele><time>2026-04-04T13:24:31.883Z</time></trkpt><trkpt lat="45.0194456463982" lon="9.575983873705674"><ele>74.0</ele><time>2026-04-04T13:24:33.883Z</time></trkpt><trkpt lat="45.01948718172364" lon="9.57609372942276"><ele>74.0</ele><time>2026-04-04T13:24:35.882Z</time></trkpt><trkpt lat="45.019519565310326" lon="9.576202872409148"><ele>74.0</ele><time>2026-04-04T13:24:37.882Z</time></trkpt><trkpt lat="45.01955574260376" lon="9.576315053473307"><ele>74.0</ele><time>2026-04-04T13:24:39.882Z</time></trkpt><trkpt lat="45.0195934722426" lon="9.576423562282002"><ele>74.0</ele><time>2026-04-04T13:24:41.882Z</time></trkpt><trkpt lat="45.01962575166176" lon="9.57653236702458"><ele>74.16666666666667</ele><time>2026-04-04T13:24:43.882Z</time></trkpt><trkpt lat="45.01965941899896" lon="9.57664803632922"><ele>74.33333333333334</ele><time>2026-04-04T13:24:45.882Z</time></trkpt><trkpt lat="45.01969064757261" lon="9.576764944662143"><ele>74.5</ele><time>2026-04-04T13:24:47.882Z</time></trkpt><trkpt lat="45.019734718109746" lon="9.576875484967246"><ele>74.66666666666667</ele><time>2026-04-04T13:24:49.882Z</time></trkpt><trkpt lat="45.0197708696517" lon="9.576986526914638"><ele>74.83333333333333</ele><time>2026-04-04T13:24:51.882Z</time></trkpt><trkpt lat="45.019799874888726" lon="9.577098267895938"><ele>75.0</ele><time>2026-04-04T13:24:53.882Z</time></trkpt><trkpt lat="45.01983567001267" lon="9.57721059366594"><ele>75.0</ele><time>2026-04-04T13:24:55.882Z</time></trkpt><trkpt lat="45.01987517195301" lon="9.577319461144336"><ele>75.0</ele><time>2026-04-04T13:24:57.882Z</time></trkpt><trkpt lat="45.01991251345597" lon="9.577429143333381"><ele>75.0</ele><time>2026-04-04T13:24:59.882Z</time></trkpt><trkpt lat="45.01994330035595" lon="9.577544515088926"><ele>75.0</ele><time>2026-04-04T13:25:01.882Z</time></trkpt><trkpt lat="45.019965408487415" lon="9.577658812703245"><ele>75.0</ele><time>2026-04-04T13:25:03.882Z</time></trkpt><trkpt lat="45.01999229120845" lon="9.57777187761543"><ele>75.0</ele><time>2026-04-04T13:25:05.882Z</time></trkpt><trkpt lat="45.02003033951761" lon="9.577886649994197"><ele>74.8</ele><time>2026-04-04T13:25:07.882Z</time></trkpt><trkpt lat="45.020075782773084" lon="9.57800026142588"><ele>74.6</ele><time>2026-04-04T13:25:09.882Z</time></trkpt><trkpt lat="45.02011264080271" lon="9.578117617565809"><ele>74.4</ele><time>2026-04-04T13:25:11.882Z</time></trkpt><trkpt lat="45.02016154161735" lon="9.578232089507258"><ele>74.2</ele><time>2026-04-04T13:25:13.882Z</time></trkpt><trkpt lat="45.020212556843376" lon="9.57834947258561"><ele>74.0</ele><time>2026-04-04T13:25:15.882Z</time></trkpt><trkpt lat="45.02026142531803" lon="9.578468804411514"><ele>74.0</ele><time>2026-04-04T13:25:17.882Z</time></trkpt><trkpt lat="45.020319163565105" lon="9.578585245619069"><ele>74.0</ele><time>2026-04-04T13:25:19.882Z</time></trkpt><trkpt lat="45.0203691783732" lon="9.578694798269549"><ele>74.0</ele><time>2026-04-04T13:25:21.882Z</time></trkpt><trkpt lat="45.020414788568054" lon="9.578810315667043"><ele>74.0</ele><time>2026-04-04T13:25:23.882Z</time></trkpt><trkpt lat="45.020468248585736" lon="9.578923368051251"><ele>74.0</ele><time>2026-04-04T13:25:25.882Z</time></trkpt><trkpt lat="45.02052217469347" lon="9.579039424733967"><ele>74.2</ele><time>2026-04-04T13:25:27.882Z</time></trkpt><trkpt lat="45.02057574901938" lon="9.579149865972814"><ele>74.4</ele><time>2026-04-04T13:25:29.882Z</time></trkpt><trkpt lat="45.020622031997476" lon="9.579266043197576"><ele>74.6</ele><time>2026-04-04T13:25:31.882Z</time></trkpt><trkpt lat="45.020667472459074" lon="9.579377744053325"><ele>74.8</ele><time>2026-04-04T13:25:33.881Z</time></trkpt><trkpt lat="45.02070580295447" lon="9.579495108460618"><ele>75.0</ele><time>2026-04-04T13:25:35.881Z</time></trkpt><trkpt lat="45.020749900485875" lon="9.57961171331135"><ele>75.0</ele><time>2026-04-04T13:25:37.88Z</time></trkpt><trkpt lat="45.020796353608496" lon="9.579722667394543"><ele>75.0</ele><time>2026-04-04T13:25:39.879Z</time></trkpt><trkpt lat="45.02083578892322" lon="9.579839298067768"><ele>75.0</ele><time>2026-04-04T13:25:41.878Z</time></trkpt><trkpt lat="45.02088306190134" lon="9.579954709068057"><ele>75.0</ele><time>2026-04-04T13:25:43.877Z</time></trkpt><trkpt lat="45.020926393522174" lon="9.580079216451674"><ele>75.0</ele><time>2026-04-04T13:25:45.876Z</time></trkpt><trkpt lat="45.02096181610879" lon="9.580196358213387"><ele>75.2</ele><time>2026-04-04T13:25:47.874Z</time></trkpt><trkpt lat="45.020999797297286" lon="9.580309171309116"><ele>75.4</ele><time>2026-04-04T13:25:49.873Z</time></trkpt><trkpt lat="45.02103838304016" lon="9.58042101288149"><ele>75.6</ele><time>2026-04-04T13:25:51.873Z</time></trkpt><trkpt lat="45.02108481802804" lon="9.580532139472819"><ele>75.8</ele><time>2026-04-04T13:25:53.872Z</time></trkpt><trkpt lat="45.02112224673247" lon="9.58065207318173"><ele>76.0</ele><time>2026-04-04T13:25:55.872Z</time></trkpt><trkpt lat="45.02116593755292" lon="9.580777173453114"><ele>75.6</ele><time>2026-04-04T13:25:57.871Z</time></trkpt><trkpt lat="45.021211243703156" lon="9.58089300657948"><ele>75.19999999999999</ele><time>2026-04-04T13:25:59.871Z</time></trkpt><trkpt lat="45.0212604488893" lon="9.580998718478263"><ele>74.80000000000001</ele><time>2026-04-04T13:26:01.87Z</time></trkpt><trkpt lat="45.02130561159066" lon="9.581105695782394"><ele>74.4</ele><time>2026-04-04T13:26:03.87Z</time></trkpt><trkpt lat="45.021353628291315" lon="9.581215455622555"><ele>74.0</ele><time>2026-04-04T13:26:05.87Z</time></trkpt><trkpt lat="45.02140394849652" lon="9.58132007676122"><ele>74.0</ele><time>2026-04-04T13:26:07.869Z</time></trkpt><trkpt lat="45.021456762593075" lon="9.581424317074573"><ele>74.0</ele><time>2026-04-04T13:26:09.869Z</time></trkpt><trkpt lat="45.02150868633591" lon="9.581527823681212"><ele>74.0</ele><time>2026-04-04T13:26:11.869Z</time></trkpt><trkpt lat="45.021567338911716" lon="9.581623807990086"><ele>74.0</ele><time>2026-04-04T13:26:13.869Z</time></trkpt><trkpt lat="45.021623740328096" lon="9.581729753816797"><ele>74.0</ele><time>2026-04-04T13:26:15.868Z</time></trkpt><trkpt lat="45.02168141982767" lon="9.5818370268268"><ele>74.0</ele><time>2026-04-04T13:26:17.868Z</time></trkpt><trkpt lat="45.02174372353081" lon="9.581945992844801"><ele>74.0</ele><time>2026-04-04T13:26:19.868Z</time></trkpt><trkpt lat="45.0218124543224" lon="9.58204693236703"><ele>74.0</ele><time>2026-04-04T13:26:21.868Z</time></trkpt><trkpt lat="45.02187473195935" lon="9.582149603345698"><ele>74.0</ele><time>2026-04-04T13:26:23.868Z</time></trkpt><trkpt lat="45.02194307644018" lon="9.582254938567745"><ele>74.0</ele><time>2026-04-04T13:26:25.868Z</time></trkpt><trkpt lat="45.022008560557445" lon="9.58236238361594"><ele>74.0</ele><time>2026-04-04T13:26:27.868Z</time></trkpt><trkpt lat="45.022066694094214" lon="9.582476867628758"><ele>74.0</ele><time>2026-04-04T13:26:29.867Z</time></trkpt><trkpt lat="45.02212693920114" lon="9.582586402828916"><ele>74.0</ele><time>2026-04-04T13:26:31.867Z</time></trkpt><trkpt lat="45.02219152301065" lon="9.582710648967717"><ele>74.0</ele><time>2026-04-04T13:26:33.867Z</time></trkpt><trkpt lat="45.022243930099876" lon="9.582839183612963"><ele>74.0</ele><time>2026-04-04T13:26:35.867Z</time></trkpt><trkpt lat="45.02229671674277" lon="9.582957260805829"><ele>73.60000000000001</ele><time>2026-04-04T13:26:37.867Z</time></trkpt><trkpt lat="45.02234521098138" lon="9.583076276554628"><ele>73.2</ele><time>2026-04-04T13:26:39.867Z</time></trkpt><trkpt lat="45.02238978343493" lon="9.583197014947523"><ele>72.80000000000001</ele><time>2026-04-04T13:26:41.867Z</time></trkpt><trkpt lat="45.02243737531746" lon="9.583309218537078"><ele>72.4</ele><time>2026-04-04T13:26:43.867Z</time></trkpt><trkpt lat="45.022486070992635" lon="9.583430745826595"><ele>72.0</ele><time>2026-04-04T13:26:45.867Z</time></trkpt><trkpt lat="45.022531300816425" lon="9.58354812474052"><ele>71.8</ele><time>2026-04-04T13:26:47.867Z</time></trkpt><trkpt lat="45.022577621135355" lon="9.583665778439483"><ele>71.6</ele><time>2026-04-04T13:26:49.867Z</time></trkpt><trkpt lat="45.022628773067545" lon="9.583782574472103"><ele>71.39999999999999</ele><time>2026-04-04T13:26:51.867Z</time></trkpt><trkpt lat="45.022676390409146" lon="9.583905385051896"><ele>71.2</ele><time>2026-04-04T13:26:53.867Z</time></trkpt><trkpt lat="45.02272271963308" lon="9.584023482117251"><ele>71.0</ele><time>2026-04-04T13:26:55.867Z</time></trkpt><trkpt lat="45.02276685610083" lon="9.584136322786117"><ele>71.0</ele><time>2026-04-04T13:26:57.867Z</time></trkpt><trkpt lat="45.022813565515435" lon="9.584244504489607"><ele>71.0</ele><time>2026-04-04T13:26:59.867Z</time></trkpt><trkpt lat="45.022857432183436" lon="9.584363600079108"><ele>71.0</ele><time>2026-04-04T13:27:01.866Z</time></trkpt><trkpt lat="45.02290386260754" lon="9.584477097406202"><ele>71.0</ele><time>2026-04-04T13:27:03.866Z</time></trkpt><trkpt lat="45.02295546158666" lon="9.58458663405199"><ele>71.0</ele><time>2026-04-04T13:27:05.866Z</time></trkpt><trkpt lat="45.023014436967635" lon="9.584677383538336"><ele>71.2</ele><time>2026-04-04T13:27:07.866Z</time></trkpt><trkpt lat="45.02311782594842" lon="9.584673586868213"><ele>71.39999999999999</ele><time>2026-04-04T13:27:09.866Z</time></trkpt><trkpt lat="45.02321678247689" lon="9.584659834246438"><ele>71.6</ele><time>2026-04-04T13:27:11.866Z</time></trkpt><trkpt lat="45.02330450646984" lon="9.584630694121516"><ele>71.8</ele><time>2026-04-04T13:27:13.866Z</time></trkpt><trkpt lat="45.02340239367453" lon="9.584603461656494"><ele>72.0</ele><time>2026-04-04T13:27:15.866Z</time></trkpt><trkpt lat="45.02349766123952" lon="9.584587626425522"><ele>72.0</ele><time>2026-04-04T13:27:17.866Z</time></trkpt><trkpt lat="45.02358947122289" lon="9.584561899925443"><ele>72.0</ele><time>2026-04-04T13:27:19.866Z</time></trkpt><trkpt lat="45.023683571756536" lon="9.584532191374635"><ele>72.0</ele><time>2026-04-04T13:27:21.866Z</time></trkpt><trkpt lat="45.02377909166227" lon="9.584509076023"><ele>72.0</ele><time>2026-04-04T13:27:23.866Z</time></trkpt><trkpt lat="45.02387268323267" lon="9.58447045684019"><ele>72.0</ele><time>2026-04-04T13:27:25.866Z</time></trkpt><trkpt lat="45.023966440668204" lon="9.584441613388371"><ele>71.8</ele><time>2026-04-04T13:27:27.866Z</time></trkpt><trkpt lat="45.02406361745476" lon="9.58442080685799"><ele>71.6</ele><time>2026-04-04T13:27:29.866Z</time></trkpt><trkpt lat="45.02415269816995" lon="9.58439703870432"><ele>71.39999999999999</ele><time>2026-04-04T13:27:31.866Z</time></trkpt><trkpt lat="45.02424299344822" lon="9.584371818157589"><ele>71.2</ele><time>2026-04-04T13:27:33.866Z</time></trkpt><trkpt lat="45.02433643155612" lon="9.58434948424891"><ele>71.0</ele><time>2026-04-04T13:27:35.866Z</time></trkpt><trkpt lat="45.024432624942044" lon="9.584322932551645"><ele>71.0</ele><time>2026-04-04T13:27:37.866Z</time></trkpt><trkpt lat="45.02452731479682" lon="9.584300415271546"><ele>71.0</ele><time>2026-04-04T13:27:39.866Z</time></trkpt><trkpt lat="45.024613839303235" lon="9.584270838911344"><ele>71.0</ele><time>2026-04-04T13:27:41.866Z</time></trkpt><trkpt lat="45.02470452028531" lon="9.584262197948112"><ele>71.0</ele><time>2026-04-04T13:27:43.866Z</time></trkpt><trkpt lat="45.02479435990925" lon="9.58424047815407"><ele>71.0</ele><time>2026-04-04T13:27:45.865Z</time></trkpt><trkpt lat="45.024887988558774" lon="9.584213056204177"><ele>71.0</ele><time>2026-04-04T13:27:47.866Z</time></trkpt><trkpt lat="45.02497309349322" lon="9.584187632296137"><ele>71.0</ele><time>2026-04-04T13:27:49.865Z</time></trkpt><trkpt lat="45.025063440469715" lon="9.584162724658032"><ele>71.0</ele><time>2026-04-04T13:27:51.866Z</time></trkpt><trkpt lat="45.025152258106004" lon="9.584131764984425"><ele>71.0</ele><time>2026-04-04T13:27:53.865Z</time></trkpt><trkpt lat="45.02524022718006" lon="9.584103726708026"><ele>71.0</ele><time>2026-04-04T13:27:55.866Z</time></trkpt><trkpt lat="45.025328297490205" lon="9.584076917202937"><ele>71.0</ele><time>2026-04-04T13:27:57.865Z</time></trkpt><trkpt lat="45.02541410838086" lon="9.584044457465078"><ele>71.0</ele><time>2026-04-04T13:27:59.865Z</time></trkpt><trkpt lat="45.02550079196577" lon="9.584000448639017"><ele>71.0</ele><time>2026-04-04T13:28:01.865Z</time></trkpt><trkpt lat="45.02558961512039" lon="9.583956165806653"><ele>71.0</ele><time>2026-04-04T13:28:03.865Z</time></trkpt><trkpt lat="45.02566975704477" lon="9.583904122630203"><ele>71.0</ele><time>2026-04-04T13:28:05.865Z</time></trkpt><trkpt lat="45.02575320410195" lon="9.583854965269712"><ele>70.8</ele><time>2026-04-04T13:28:07.865Z</time></trkpt><trkpt lat="45.025836831373205" lon="9.583809481368514"><ele>70.6</ele><time>2026-04-04T13:28:09.865Z</time></trkpt><trkpt lat="45.02592419095618" lon="9.583761534724603"><ele>70.4</ele><time>2026-04-04T13:28:11.865Z</time></trkpt><trkpt lat="45.02601095695224" lon="9.583709258562"><ele>70.2</ele><time>2026-04-04T13:28:13.865Z</time></trkpt><trkpt lat="45.02609548806205" lon="9.583657588594065"><ele>70.0</ele><time>2026-04-04T13:28:15.865Z</time></trkpt><trkpt lat="45.026180992833815" lon="9.583614903781113"><ele>70.0</ele><time>2026-04-04T13:28:17.865Z</time></trkpt><trkpt lat="45.02626610807837" lon="9.583569704292318"><ele>70.0</ele><time>2026-04-04T13:28:19.865Z</time></trkpt><trkpt lat="45.026349172096026" lon="9.583598179740237"><ele>70.0</ele><time>2026-04-04T13:28:21.865Z</time></trkpt><trkpt lat="45.02639149994683" lon="9.583717709720435"><ele>70.0</ele><time>2026-04-04T13:28:23.865Z</time></trkpt><trkpt lat="45.02640389006886" lon="9.58385282767858"><ele>70.0</ele><time>2026-04-04T13:28:25.865Z</time></trkpt><trkpt lat="45.026421981534355" lon="9.583979143922258"><ele>70.0</ele><time>2026-04-04T13:28:27.865Z</time></trkpt><trkpt lat="45.02644857572377" lon="9.584103725260796"><ele>70.0</ele><time>2026-04-04T13:28:29.865Z</time></trkpt><trkpt lat="45.02646115928585" lon="9.58423693187213"><ele>70.0</ele><time>2026-04-04T13:28:31.865Z</time></trkpt><trkpt lat="45.02647775701301" lon="9.58436676268533"><ele>70.0</ele><time>2026-04-04T13:28:33.865Z</time></trkpt><trkpt lat="45.02649728109506" lon="9.58449532596407"><ele>70.0</ele><time>2026-04-04T13:28:35.865Z</time></trkpt><trkpt lat="45.02651427937265" lon="9.584624297318566"><ele>70.0</ele><time>2026-04-04T13:28:37.865Z</time></trkpt><trkpt lat="45.02654027304507" lon="9.584746286905784"><ele>70.0</ele><time>2026-04-04T13:28:39.865Z</time></trkpt><trkpt lat="45.026555155369444" lon="9.584871396961434"><ele>70.0</ele><time>2026-04-04T13:28:41.865Z</time></trkpt><trkpt lat="45.02657470590003" lon="9.584994727610525"><ele>70.0</ele><time>2026-04-04T13:28:43.865Z</time></trkpt><trkpt lat="45.02658827057689" lon="9.585113116102203"><ele>70.0</ele><time>2026-04-04T13:28:45.865Z</time></trkpt><trkpt lat="45.02662355306269" lon="9.58521867920998"><ele>70.0</ele><time>2026-04-04T13:28:47.864Z</time></trkpt><trkpt lat="45.02668372329276" lon="9.585295374665172"><ele>70.2</ele><time>2026-04-04T13:28:49.864Z</time></trkpt><trkpt lat="45.026751668288185" lon="9.585364095985007"><ele>70.4</ele><time>2026-04-04T13:28:51.864Z</time></trkpt><trkpt lat="45.02683096517468" lon="9.585422134419517"><ele>70.6</ele><time>2026-04-04T13:28:53.864Z</time></trkpt><trkpt lat="45.026921037460085" lon="9.585430743638634"><ele>70.8</ele><time>2026-04-04T13:28:55.864Z</time></trkpt><trkpt lat="45.02701686599755" lon="9.585426703554782"><ele>71.0</ele><time>2026-04-04T13:28:57.864Z</time></trkpt><trkpt lat="45.02711285037878" lon="9.585419511456342"><ele>71.0</ele><time>2026-04-04T13:28:59.864Z</time></trkpt><trkpt lat="45.02720884890378" lon="9.585395636403057"><ele>71.0</ele><time>2026-04-04T13:29:01.864Z</time></trkpt><trkpt lat="45.02730658678123" lon="9.585382032779895"><ele>71.0</ele><time>2026-04-04T13:29:03.864Z</time></trkpt><trkpt lat="45.02739987291029" lon="9.585365036598098"><ele>71.0</ele><time>2026-04-04T13:29:05.864Z</time></trkpt><trkpt lat="45.02749348789851" lon="9.585354330069274"><ele>71.0</ele><time>2026-04-04T13:29:07.864Z</time></trkpt><trkpt lat="45.0275861109707" lon="9.585332400905605"><ele>71.0</ele><time>2026-04-04T13:29:09.864Z</time></trkpt><trkpt lat="45.02768168037952" lon="9.585318634716232"><ele>71.0</ele><time>2026-04-04T13:29:11.864Z</time></trkpt><trkpt lat="45.027776009112834" lon="9.585298250921547"><ele>71.0</ele><time>2026-04-04T13:29:13.864Z</time></trkpt><trkpt lat="45.02786790351893" lon="9.585281280324446"><ele>71.0</ele><time>2026-04-04T13:29:15.864Z</time></trkpt><trkpt lat="45.0279561284654" lon="9.585260878843778"><ele>71.0</ele><time>2026-04-04T13:29:17.864Z</time></trkpt><trkpt lat="45.02805016986407" lon="9.585255340540844"><ele>71.0</ele><time>2026-04-04T13:29:19.864Z</time></trkpt><trkpt lat="45.028137272560315" lon="9.585243003024525"><ele>71.0</ele><time>2026-04-04T13:29:21.864Z</time></trkpt><trkpt lat="45.028227868189155" lon="9.585227446674164"><ele>71.0</ele><time>2026-04-04T13:29:23.864Z</time></trkpt><trkpt lat="45.02831931152155" lon="9.58521071472605"><ele>71.0</ele><time>2026-04-04T13:29:25.864Z</time></trkpt><trkpt lat="45.028411764888524" lon="9.585183888893662"><ele>71.0</ele><time>2026-04-04T13:29:27.864Z</time></trkpt><trkpt lat="45.0284948293602" lon="9.585149667398808"><ele>71.2</ele><time>2026-04-04T13:29:29.864Z</time></trkpt><trkpt lat="45.02857738729556" lon="9.585098819333005"><ele>71.39999999999999</ele><time>2026-04-04T13:29:31.864Z</time></trkpt><trkpt lat="45.0286599131499" lon="9.585040341246136"><ele>71.6</ele><time>2026-04-04T13:29:33.864Z</time></trkpt><trkpt lat="45.02873755023324" lon="9.584980120987774"><ele>71.8</ele><time>2026-04-04T13:29:35.864Z</time></trkpt><trkpt lat="45.02883981248271" lon="9.584938348862295"><ele>72.0</ele><time>2026-04-04T13:29:37.863Z</time></trkpt><trkpt lat="45.028940918743174" lon="9.584911240385026"><ele>72.0</ele><time>2026-04-04T13:29:39.863Z</time></trkpt><trkpt lat="45.0290337059615" lon="9.584892052390034"><ele>72.0</ele><time>2026-04-04T13:29:41.863Z</time></trkpt><trkpt lat="45.02912431027893" lon="9.584871067858858"><ele>72.0</ele><time>2026-04-04T13:29:43.863Z</time></trkpt><trkpt lat="45.02921952136071" lon="9.584854056432109"><ele>72.0</ele><time>2026-04-04T13:29:45.863Z</time></trkpt><trkpt lat="45.029314375399494" lon="9.584846100749585"><ele>72.0</ele><time>2026-04-04T13:29:47.863Z</time></trkpt><trkpt lat="45.029412608211615" lon="9.584835276952008"><ele>71.4</ele><time>2026-04-04T13:29:49.862Z</time></trkpt><trkpt lat="45.02950742938763" lon="9.584820414132547"><ele>70.80000000000001</ele><time>2026-04-04T13:29:51.863Z</time></trkpt><trkpt lat="45.029596434151735" lon="9.584811398885698"><ele>70.2</ele><time>2026-04-04T13:29:53.862Z</time></trkpt><trkpt lat="45.029684912734126" lon="9.584789282783252"><ele>69.60000000000001</ele><time>2026-04-04T13:29:55.862Z</time></trkpt><trkpt lat="45.029776675037155" lon="9.584783954837949"><ele>69.0</ele><time>2026-04-04T13:29:57.862Z</time></trkpt><trkpt lat="45.02986499750867" lon="9.584760820833658"><ele>69.0</ele><time>2026-04-04T13:29:59.863Z</time></trkpt><trkpt lat="45.02995447369395" lon="9.58474976871868"><ele>69.0</ele><time>2026-04-04T13:30:01.862Z</time></trkpt><trkpt lat="45.030044375324366" lon="9.58472908560664"><ele>69.0</ele><time>2026-04-04T13:30:03.862Z</time></trkpt><trkpt lat="45.030136102856794" lon="9.584714997704035"><ele>69.0</ele><time>2026-04-04T13:30:05.862Z</time></trkpt><trkpt lat="45.030225175" lon="9.584710745432487"><ele>69.0</ele><time>2026-04-04T13:30:07.862Z</time></trkpt><trkpt lat="45.03032228306503" lon="9.584683728834811"><ele>68.8</ele><time>2026-04-04T13:30:09.862Z</time></trkpt><trkpt lat="45.030412572910514" lon="9.58466739080976"><ele>68.60000000000001</ele><time>2026-04-04T13:30:11.862Z</time></trkpt><trkpt lat="45.030501554079784" lon="9.584653733058854"><ele>68.4</ele><time>2026-04-04T13:30:13.862Z</time></trkpt><trkpt lat="45.03058547474278" lon="9.584616982876813"><ele>68.2</ele><time>2026-04-04T13:30:15.862Z</time></trkpt><trkpt lat="45.03067971824567" lon="9.584596449820689"><ele>68.0</ele><time>2026-04-04T13:30:17.862Z</time></trkpt><trkpt lat="45.03076636588007" lon="9.584595736434807"><ele>68.0</ele><time>2026-04-04T13:30:19.862Z</time></trkpt><trkpt lat="45.03085772884958" lon="9.584559812260947"><ele>68.0</ele><time>2026-04-04T13:30:21.862Z</time></trkpt><trkpt lat="45.03094895748114" lon="9.584542819430393"><ele>68.0</ele><time>2026-04-04T13:30:23.862Z</time></trkpt><trkpt lat="45.03103487996982" lon="9.584520709020003"><ele>68.0</ele><time>2026-04-04T13:30:25.862Z</time></trkpt><trkpt lat="45.03113248554493" lon="9.584506389223643"><ele>68.0</ele><time>2026-04-04T13:30:27.862Z</time></trkpt><trkpt lat="45.03121947733424" lon="9.584494163272284"><ele>68.16666666666667</ele><time>2026-04-04T13:30:29.862Z</time></trkpt><trkpt lat="45.031307667834476" lon="9.584478005559479"><ele>68.33333333333334</ele><time>2026-04-04T13:30:31.862Z</time></trkpt><trkpt lat="45.031391328577605" lon="9.584442847721846"><ele>68.5</ele><time>2026-04-04T13:30:33.862Z</time></trkpt><trkpt lat="45.03148006755093" lon="9.584422244669799"><ele>68.66666666666667</ele><time>2026-04-04T13:30:35.862Z</time></trkpt><trkpt lat="45.03157133007654" lon="9.584406325660602"><ele>68.83333333333333</ele><time>2026-04-04T13:30:37.861Z</time></trkpt><trkpt lat="45.031660688944235" lon="9.584383314661817"><ele>69.0</ele><time>2026-04-04T13:30:39.861Z</time></trkpt><trkpt lat="45.03175697105368" lon="9.58435217797405"><ele>69.0</ele><time>2026-04-04T13:30:41.861Z</time></trkpt><trkpt lat="45.03185201447864" lon="9.584336872464899"><ele>69.0</ele><time>2026-04-04T13:30:43.861Z</time></trkpt><trkpt lat="45.031940887653235" lon="9.584307366816631"><ele>69.0</ele><time>2026-04-04T13:30:45.861Z</time></trkpt><trkpt lat="45.0320373872026" lon="9.584282969762981"><ele>69.0</ele><time>2026-04-04T13:30:47.861Z</time></trkpt><trkpt lat="45.0321331910185" lon="9.584254228454265"><ele>69.0</ele><time>2026-04-04T13:30:49.861Z</time></trkpt><trkpt lat="45.03222370050579" lon="9.584227339851758"><ele>69.0</ele><time>2026-04-04T13:30:51.861Z</time></trkpt><trkpt lat="45.032307949154564" lon="9.584212311666366"><ele>69.0</ele><time>2026-04-04T13:30:53.861Z</time></trkpt><trkpt lat="45.03240141248949" lon="9.5842078360939"><ele>69.0</ele><time>2026-04-04T13:30:55.861Z</time></trkpt><trkpt lat="45.032497041318244" lon="9.584197920957605"><ele>69.0</ele><time>2026-04-04T13:30:57.861Z</time></trkpt><trkpt lat="45.032584614767934" lon="9.584183948040254"><ele>69.0</ele><time>2026-04-04T13:30:59.861Z</time></trkpt><trkpt lat="45.032672587202164" lon="9.584171661342115"><ele>69.0</ele><time>2026-04-04T13:31:01.861Z</time></trkpt><trkpt lat="45.03275949914757" lon="9.584139070315208"><ele>69.0</ele><time>2026-04-04T13:31:03.861Z</time></trkpt><trkpt lat="45.03283376567419" lon="9.584108871780254"><ele>69.0</ele><time>2026-04-04T13:31:05.861Z</time></trkpt><trkpt lat="45.03291420005081" lon="9.584088727106979"><ele>69.0</ele><time>2026-04-04T13:31:07.861Z</time></trkpt><trkpt lat="45.03299497661217" lon="9.584051861375478"><ele>69.0</ele><time>2026-04-04T13:31:09.861Z</time></trkpt><trkpt lat="45.03307661482261" lon="9.584006825433825"><ele>69.0</ele><time>2026-04-04T13:31:11.861Z</time></trkpt><trkpt lat="45.03315170032461" lon="9.583985502434805"><ele>69.0</ele><time>2026-04-04T13:31:13.861Z</time></trkpt><trkpt lat="45.033217227341" lon="9.584020903673233"><ele>69.0</ele><time>2026-04-04T13:31:15.861Z</time></trkpt><trkpt lat="45.0332383154639" lon="9.584116878056491"><ele>69.0</ele><time>2026-04-04T13:31:17.861Z</time></trkpt><trkpt lat="45.03326993403837" lon="9.584202326026958"><ele>69.0</ele><time>2026-04-04T13:31:19.861Z</time></trkpt><trkpt lat="45.033311559802335" lon="9.584284191298305"><ele>69.0</ele><time>2026-04-04T13:31:21.861Z</time></trkpt><trkpt lat="45.03335313125883" lon="9.584382090517288"><ele>69.0</ele><time>2026-04-04T13:31:23.861Z</time></trkpt><trkpt lat="45.03339019543307" lon="9.584480981543512"><ele>69.0</ele><time>2026-04-04T13:31:25.861Z</time></trkpt><trkpt lat="45.03341740049904" lon="9.584588308534798"><ele>69.0</ele><time>2026-04-04T13:31:27.86Z</time></trkpt><trkpt lat="45.03344431944597" lon="9.584702133607063"><ele>69.0</ele><time>2026-04-04T13:31:29.86Z</time></trkpt><trkpt lat="45.033469755415055" lon="9.584818985434229"><ele>69.0</ele><time>2026-04-04T13:31:31.86Z</time></trkpt><trkpt lat="45.033505317286476" lon="9.584928859781996"><ele>69.0</ele><time>2026-04-04T13:31:33.86Z</time></trkpt><trkpt lat="45.033542759031036" lon="9.585043414632194"><ele>69.0</ele><time>2026-04-04T13:31:35.86Z</time></trkpt><trkpt lat="45.03358096162212" lon="9.58515971227798"><ele>69.0</ele><time>2026-04-04T13:31:37.86Z</time></trkpt><trkpt lat="45.03361784896538" lon="9.58528114296057"><ele>68.8</ele><time>2026-04-04T13:31:39.86Z</time></trkpt><trkpt lat="45.03365361164891" lon="9.585398462557338"><ele>68.60000000000001</ele><time>2026-04-04T13:31:41.86Z</time></trkpt><trkpt lat="45.033696047004135" lon="9.585508780922018"><ele>68.4</ele><time>2026-04-04T13:31:43.86Z</time></trkpt><trkpt lat="45.03375157597133" lon="9.58561547521483"><ele>68.2</ele><time>2026-04-04T13:31:45.86Z</time></trkpt><trkpt lat="45.03381121092993" lon="9.585714759082032"><ele>68.0</ele><time>2026-04-04T13:31:47.86Z</time></trkpt><trkpt lat="45.03385984855364" lon="9.585826107192847"><ele>68.0</ele><time>2026-04-04T13:31:49.86Z</time></trkpt><trkpt lat="45.03390340366878" lon="9.585935740517385"><ele>68.0</ele><time>2026-04-04T13:31:51.86Z</time></trkpt><trkpt lat="45.033938432883026" lon="9.586046223759489"><ele>68.0</ele><time>2026-04-04T13:31:53.86Z</time></trkpt><trkpt lat="45.03398777348338" lon="9.586146610154394"><ele>68.0</ele><time>2026-04-04T13:31:55.859Z</time></trkpt><trkpt lat="45.03404168774973" lon="9.586252847402331"><ele>68.0</ele><time>2026-04-04T13:31:57.859Z</time></trkpt><trkpt lat="45.034091027188154" lon="9.58636457702471"><ele>68.0</ele><time>2026-04-04T13:31:59.859Z</time></trkpt><trkpt lat="45.034132309251504" lon="9.58646956283053"><ele>68.0</ele><time>2026-04-04T13:32:01.859Z</time></trkpt><trkpt lat="45.034178683746994" lon="9.586566446822518"><ele>68.0</ele><time>2026-04-04T13:32:03.859Z</time></trkpt><trkpt lat="45.034229479752156" lon="9.58667406190005"><ele>68.0</ele><time>2026-04-04T13:32:05.859Z</time></trkpt><trkpt lat="45.03427166026567" lon="9.58679748951695"><ele>68.0</ele><time>2026-04-04T13:32:07.859Z</time></trkpt><trkpt lat="45.03429831561238" lon="9.586924758298608"><ele>68.0</ele><time>2026-04-04T13:32:09.859Z</time></trkpt><trkpt lat="45.03431944267613" lon="9.587052985642012"><ele>68.0</ele><time>2026-04-04T13:32:11.859Z</time></trkpt><trkpt lat="45.03432508884554" lon="9.587197417055442"><ele>68.0</ele><time>2026-04-04T13:32:13.859Z</time></trkpt><trkpt lat="45.034328612243115" lon="9.587339592055747"><ele>68.0</ele><time>2026-04-04T13:32:15.859Z</time></trkpt><trkpt lat="45.03432230008365" lon="9.587476668335347"><ele>68.0</ele><time>2026-04-04T13:32:17.859Z</time></trkpt><trkpt lat="45.03430186383568" lon="9.587599911953225"><ele>68.0</ele><time>2026-04-04T13:32:19.859Z</time></trkpt><trkpt lat="45.034277230520665" lon="9.587708609781878"><ele>68.0</ele><time>2026-04-04T13:32:21.859Z</time></trkpt><trkpt lat="45.03423981418491" lon="9.587804814809292"><ele>68.0</ele><time>2026-04-04T13:32:23.859Z</time></trkpt><trkpt lat="45.03420219471183" lon="9.587905779396902"><ele>68.0</ele><time>2026-04-04T13:32:25.858Z</time></trkpt><trkpt lat="45.03415727195444" lon="9.588003653712187"><ele>68.0</ele><time>2026-04-04T13:32:27.858Z</time></trkpt><trkpt lat="45.034102437506995" lon="9.588091777052341"><ele>68.0</ele><time>2026-04-04T13:32:29.858Z</time></trkpt><trkpt lat="45.03403942423723" lon="9.588179067996283"><ele>68.0</ele><time>2026-04-04T13:32:31.858Z</time></trkpt><trkpt lat="45.03397040338774" lon="9.588258096956814"><ele>67.83333333333334</ele><time>2026-04-04T13:32:33.858Z</time></trkpt><trkpt lat="45.03389710248934" lon="9.5883374396489"><ele>67.66666666666667</ele><time>2026-04-04T13:32:35.858Z</time></trkpt><trkpt lat="45.033827243088176" lon="9.588418276676224"><ele>67.5</ele><time>2026-04-04T13:32:37.858Z</time></trkpt><trkpt lat="45.03375243541618" lon="9.588487768672861"><ele>67.33333333333333</ele><time>2026-04-04T13:32:39.858Z</time></trkpt><trkpt lat="45.033690376732395" lon="9.588557230283293"><ele>67.16666666666666</ele><time>2026-04-04T13:32:41.858Z</time></trkpt><trkpt lat="45.033616410827406" lon="9.588619123975775"><ele>67.0</ele><time>2026-04-04T13:32:43.858Z</time></trkpt><trkpt lat="45.033550988478986" lon="9.58870331517939"><ele>67.0</ele><time>2026-04-04T13:32:45.858Z</time></trkpt><trkpt lat="45.0334812193736" lon="9.588784880323269"><ele>67.0</ele><time>2026-04-04T13:32:47.858Z</time></trkpt><trkpt lat="45.03341166032485" lon="9.588857222438683"><ele>67.0</ele><time>2026-04-04T13:32:49.858Z</time></trkpt><trkpt lat="45.03334383582542" lon="9.58891900547516"><ele>67.0</ele><time>2026-04-04T13:32:51.858Z</time></trkpt><trkpt lat="45.033281595629425" lon="9.589003565284866"><ele>67.0</ele><time>2026-04-04T13:32:53.858Z</time></trkpt><trkpt lat="45.03321768682315" lon="9.589089036250726"><ele>67.0</ele><time>2026-04-04T13:32:55.858Z</time></trkpt><trkpt lat="45.03313937752773" lon="9.589159398659596"><ele>67.0</ele><time>2026-04-04T13:32:57.858Z</time></trkpt><trkpt lat="45.033074224160174" lon="9.589249239036311"><ele>67.0</ele><time>2026-04-04T13:32:59.858Z</time></trkpt><trkpt lat="45.03300924191744" lon="9.589333087030154"><ele>67.0</ele><time>2026-04-04T13:33:01.858Z</time></trkpt><trkpt lat="45.03295288366766" lon="9.589421527316276"><ele>67.0</ele><time>2026-04-04T13:33:03.858Z</time></trkpt><trkpt lat="45.03289394483466" lon="9.589506034413404"><ele>67.0</ele><time>2026-04-04T13:33:05.858Z</time></trkpt><trkpt lat="45.03283577970992" lon="9.589608328498768"><ele>67.0</ele><time>2026-04-04T13:33:07.858Z</time></trkpt><trkpt lat="45.03276738640216" lon="9.589704737230116"><ele>67.2</ele><time>2026-04-04T13:33:09.858Z</time></trkpt><trkpt lat="45.03269070340159" lon="9.58979364275343"><ele>67.4</ele><time>2026-04-04T13:33:11.858Z</time></trkpt><trkpt lat="45.03263002790088" lon="9.589893571051402"><ele>67.6</ele><time>2026-04-04T13:33:13.858Z</time></trkpt><trkpt lat="45.032570196130585" lon="9.589993078431107"><ele>67.8</ele><time>2026-04-04T13:33:15.857Z</time></trkpt><trkpt lat="45.032514835033915" lon="9.590092879594026"><ele>68.0</ele><time>2026-04-04T13:33:17.857Z</time></trkpt><trkpt lat="45.03245455160022" lon="9.590196223854521"><ele>68.0</ele><time>2026-04-04T13:33:19.857Z</time></trkpt><trkpt lat="45.03239735903104" lon="9.590302792186211"><ele>68.0</ele><time>2026-04-04T13:33:21.857Z</time></trkpt><trkpt lat="45.032340129148224" lon="9.590404445939402"><ele>68.0</ele><time>2026-04-04T13:33:23.857Z</time></trkpt><trkpt lat="45.03228536147647" lon="9.590510831820637"><ele>68.0</ele><time>2026-04-04T13:33:25.857Z</time></trkpt><trkpt lat="45.032230377880495" lon="9.590623174951908"><ele>68.0</ele><time>2026-04-04T13:33:27.857Z</time></trkpt><trkpt lat="45.032183953263576" lon="9.59073334039031"><ele>68.0</ele><time>2026-04-04T13:33:29.857Z</time></trkpt><trkpt lat="45.032135697694116" lon="9.590841747066406"><ele>68.0</ele><time>2026-04-04T13:33:31.857Z</time></trkpt><trkpt lat="45.03209184725572" lon="9.590939316331253"><ele>68.0</ele><time>2026-04-04T13:33:33.857Z</time></trkpt><trkpt lat="45.03205332068885" lon="9.591041661099379"><ele>68.0</ele><time>2026-04-04T13:33:35.857Z</time></trkpt><trkpt lat="45.032000204529695" lon="9.591136692198667"><ele>68.0</ele><time>2026-04-04T13:33:37.857Z</time></trkpt><trkpt lat="45.031963165806836" lon="9.591241355472489"><ele>68.0</ele><time>2026-04-04T13:33:39.857Z</time></trkpt><trkpt lat="45.03191990029131" lon="9.591339491933882"><ele>67.66666666666667</ele><time>2026-04-04T13:33:41.857Z</time></trkpt><trkpt lat="45.03188132236446" lon="9.591448178792248"><ele>67.33333333333334</ele><time>2026-04-04T13:33:43.857Z</time></trkpt><trkpt lat="45.03184207633196" lon="9.591553362030227"><ele>67.0</ele><time>2026-04-04T13:33:45.857Z</time></trkpt><trkpt lat="45.03180866713873" lon="9.591658683601045"><ele>66.66666666666667</ele><time>2026-04-04T13:33:47.857Z</time></trkpt><trkpt lat="45.03176292476688" lon="9.59176345364647"><ele>66.33333333333333</ele><time>2026-04-04T13:33:49.857Z</time></trkpt><trkpt lat="45.03172825126961" lon="9.591880381277203"><ele>66.0</ele><time>2026-04-04T13:33:51.857Z</time></trkpt><trkpt lat="45.031692337249694" lon="9.592001020539305"><ele>66.2</ele><time>2026-04-04T13:33:53.857Z</time></trkpt><trkpt lat="45.031648768123475" lon="9.59211694328711"><ele>66.39999999999999</ele><time>2026-04-04T13:33:55.857Z</time></trkpt><trkpt lat="45.03160884837514" lon="9.592230201905796"><ele>66.6</ele><time>2026-04-04T13:33:57.857Z</time></trkpt><trkpt lat="45.03157403120028" lon="9.59234861546093"><ele>66.8</ele><time>2026-04-04T13:33:59.857Z</time></trkpt><trkpt lat="45.03153475763623" lon="9.592466850222282"><ele>67.0</ele><time>2026-04-04T13:34:01.856Z</time></trkpt><trkpt lat="45.031500235075114" lon="9.592591511449456"><ele>67.0</ele><time>2026-04-04T13:34:03.856Z</time></trkpt><trkpt lat="45.03145321576146" lon="9.592701660892585"><ele>67.0</ele><time>2026-04-04T13:34:05.856Z</time></trkpt><trkpt lat="45.03138397933144" lon="9.592781895495746"><ele>67.0</ele><time>2026-04-04T13:34:07.855Z</time></trkpt><trkpt lat="45.03130329428165" lon="9.592833690249169"><ele>67.0</ele><time>2026-04-04T13:34:09.856Z</time></trkpt><trkpt lat="45.03127031359941" lon="9.592950242465136"><ele>67.0</ele><time>2026-04-04T13:34:11.856Z</time></trkpt><trkpt lat="45.03126803607086" lon="9.5930841453916"><ele>67.0</ele><time>2026-04-04T13:34:13.855Z</time></trkpt><trkpt lat="45.031274781813266" lon="9.59320506591075"><ele>67.0</ele><time>2026-04-04T13:34:15.855Z</time></trkpt><trkpt lat="45.03128048509177" lon="9.593332926614428"><ele>67.0</ele><time>2026-04-04T13:34:17.855Z</time></trkpt><trkpt lat="45.03128551693387" lon="9.593468407425716"><ele>67.0</ele><time>2026-04-04T13:34:19.855Z</time></trkpt><trkpt lat="45.031274605039805" lon="9.59360512226863"><ele>67.0</ele><time>2026-04-04T13:34:21.855Z</time></trkpt><trkpt lat="45.03125306820287" lon="9.593737345357338"><ele>67.0</ele><time>2026-04-04T13:34:23.855Z</time></trkpt><trkpt lat="45.03123069142761" lon="9.593870125672499"><ele>67.0</ele><time>2026-04-04T13:34:25.855Z</time></trkpt><trkpt lat="45.0312049171302" lon="9.594002883348415"><ele>67.0</ele><time>2026-04-04T13:34:27.855Z</time></trkpt><trkpt lat="45.031188686206896" lon="9.59413709935615"><ele>67.0</ele><time>2026-04-04T13:34:29.855Z</time></trkpt><trkpt lat="45.031167452937986" lon="9.594273512133071"><ele>67.0</ele><time>2026-04-04T13:34:31.855Z</time></trkpt><trkpt lat="45.03114781497167" lon="9.5944100625098"><ele>67.2</ele><time>2026-04-04T13:34:33.855Z</time></trkpt><trkpt lat="45.031136799934664" lon="9.594545386944121"><ele>67.4</ele><time>2026-04-04T13:34:35.855Z</time></trkpt><trkpt lat="45.031126935677605" lon="9.594683176509138"><ele>67.6</ele><time>2026-04-04T13:34:37.855Z</time></trkpt><trkpt lat="45.0311155322676" lon="9.594817220881776"><ele>67.8</ele><time>2026-04-04T13:34:39.855Z</time></trkpt><trkpt lat="45.03110364097751" lon="9.594960054500657"><ele>68.0</ele><time>2026-04-04T13:34:41.855Z</time></trkpt><trkpt lat="45.031091962885846" lon="9.595096315750222"><ele>68.0</ele><time>2026-04-04T13:34:43.855Z</time></trkpt><trkpt lat="45.031095604391666" lon="9.59523432977458"><ele>68.0</ele><time>2026-04-04T13:34:45.855Z</time></trkpt><trkpt lat="45.03109186046104" lon="9.59536739777719"><ele>68.0</ele><time>2026-04-04T13:34:47.855Z</time></trkpt><trkpt lat="45.03108094957243" lon="9.59551105330137"><ele>68.0</ele><time>2026-04-04T13:34:49.855Z</time></trkpt><trkpt lat="45.03107303089565" lon="9.595666812555434"><ele>68.0</ele><time>2026-04-04T13:34:51.855Z</time></trkpt><trkpt lat="45.03107500183992" lon="9.595822679859273"><ele>68.0</ele><time>2026-04-04T13:34:53.855Z</time></trkpt><trkpt lat="45.03106130790884" lon="9.59597480344823"><ele>68.0</ele><time>2026-04-04T13:34:55.855Z</time></trkpt><trkpt lat="45.03105991297718" lon="9.596125722739876"><ele>68.0</ele><time>2026-04-04T13:34:57.854Z</time></trkpt><trkpt lat="45.03105404854693" lon="9.596277944658086"><ele>68.0</ele><time>2026-04-04T13:34:59.854Z</time></trkpt><trkpt lat="45.03106124219322" lon="9.596429134422515"><ele>68.0</ele><time>2026-04-04T13:35:01.854Z</time></trkpt><trkpt lat="45.031090796863175" lon="9.596573163413442"><ele>67.4</ele><time>2026-04-04T13:35:03.854Z</time></trkpt><trkpt lat="45.03117218335092" lon="9.596664318724097"><ele>66.8</ele><time>2026-04-04T13:35:05.854Z</time></trkpt><trkpt lat="45.03125016225998" lon="9.59673296344759"><ele>66.2</ele><time>2026-04-04T13:35:07.854Z</time></trkpt><trkpt lat="45.03132057411693" lon="9.596814100206396"><ele>65.6</ele><time>2026-04-04T13:35:09.854Z</time></trkpt><trkpt lat="45.031394383999" lon="9.596874039213287"><ele>65.0</ele><time>2026-04-04T13:35:11.854Z</time></trkpt><trkpt lat="45.03147675983183" lon="9.596961392883612"><ele>64.83333333333334</ele><time>2026-04-04T13:35:13.854Z</time></trkpt><trkpt lat="45.03155921294285" lon="9.597029924722834"><ele>64.66666666666667</ele><time>2026-04-04T13:35:15.854Z</time></trkpt><trkpt lat="45.03164145400003" lon="9.597074389544021"><ele>64.5</ele><time>2026-04-04T13:35:17.854Z</time></trkpt><trkpt lat="45.03171739957193" lon="9.597062530688705"><ele>64.33333333333333</ele><time>2026-04-04T13:35:19.854Z</time></trkpt><trkpt lat="45.03177475572858" lon="9.597022296414156"><ele>64.16666666666666</ele><time>2026-04-04T13:35:21.854Z</time></trkpt><trkpt lat="45.03175499290025" lon="9.596899857002505"><ele>64.0</ele><time>2026-04-04T13:35:24.854Z</time></trkpt><trkpt lat="45.03173810566077" lon="9.596807983033244"><ele>64.14285714285714</ele><time>2026-04-04T13:35:26.854Z</time></trkpt><trkpt lat="45.031708995090085" lon="9.59671914717201"><ele>64.28571428571428</ele><time>2026-04-04T13:35:28.854Z</time></trkpt><trkpt lat="45.031684341630104" lon="9.596623553130184"><ele>64.42857142857143</ele><time>2026-04-04T13:35:30.854Z</time></trkpt><trkpt lat="45.03166650988759" lon="9.59653265308109"><ele>64.57142857142857</ele><time>2026-04-04T13:35:32.854Z</time></trkpt><trkpt lat="45.03164975457538" lon="9.596438890519023"><ele>64.71428571428572</ele><time>2026-04-04T13:35:34.854Z</time></trkpt><trkpt lat="45.0316294154051" lon="9.596352701089613"><ele>64.85714285714286</ele><time>2026-04-04T13:35:36.854Z</time></trkpt><trkpt lat="45.03161752920416" lon="9.596259552783005"><ele>65.0</ele><time>2026-04-04T13:35:38.854Z</time></trkpt><trkpt lat="45.0315854692821" lon="9.596136576846366"><ele>65.00000000000001</ele><time>2026-04-04T13:35:41.854Z</time></trkpt><trkpt lat="45.03156097626747" lon="9.596016266382646"><ele>65.0</ele><time>2026-04-04T13:35:44.854Z</time></trkpt><trkpt lat="45.03152161396808" lon="9.59593645166004"><ele>65.0</ele><time>2026-04-04T13:35:47.853Z</time></trkpt><trkpt lat="45.03146159400194" lon="9.595984023600318"><ele>65.0</ele><time>2026-04-04T13:35:50.853Z</time></trkpt><trkpt lat="45.0314613090522" lon="9.59608126321085"><ele>65.0</ele><time>2026-04-04T13:35:52.853Z</time></trkpt><trkpt lat="45.03146905489412" lon="9.596172078747221"><ele>65.00000000000001</ele><time>2026-04-04T13:35:54.853Z</time></trkpt><trkpt lat="45.03145910530888" lon="9.596269721736308"><ele>65.0</ele><time>2026-04-04T13:35:56.853Z</time></trkpt><trkpt lat="45.03142829546874" lon="9.59636578961552"><ele>65.0</ele><time>2026-04-04T13:35:58.853Z</time></trkpt><trkpt lat="45.03138924171664" lon="9.596440282368208"><ele>65.0</ele><time>2026-04-04T13:36:00.853Z</time></trkpt><trkpt lat="45.031373785306734" lon="9.596573628694385"><ele>65.0</ele><time>2026-04-04T13:36:03.853Z</time></trkpt><trkpt lat="45.03138144596748" lon="9.596683083956353"><ele>65.0</ele><time>2026-04-04T13:36:05.853Z</time></trkpt><trkpt lat="45.031393753606345" lon="9.59678365872356"><ele>65.0</ele><time>2026-04-04T13:36:07.852Z</time></trkpt><trkpt lat="45.03139793247115" lon="9.596904942357513"><ele>65.0</ele><time>2026-04-04T13:36:09.852Z</time></trkpt><trkpt lat="45.03140515217627" lon="9.597027156791707"><ele>64.5</ele><time>2026-04-04T13:36:11.852Z</time></trkpt><trkpt lat="45.03141208791171" lon="9.597149179076208"><ele>64.0</ele><time>2026-04-04T13:36:13.851Z</time></trkpt><trkpt lat="45.031418807275465" lon="9.597271510179857"><ele>63.5</ele><time>2026-04-04T13:36:15.852Z</time></trkpt><trkpt lat="45.03142246527179" lon="9.597395266874894"><ele>63.0</ele><time>2026-04-04T13:36:17.851Z</time></trkpt><trkpt lat="45.03143927118823" lon="9.597521666846655"><ele>62.50000000000001</ele><time>2026-04-04T13:36:19.851Z</time></trkpt><trkpt lat="45.031462835028556" lon="9.597633246198763"><ele>62.0</ele><time>2026-04-04T13:36:21.851Z</time></trkpt><trkpt lat="45.03148365860557" lon="9.597765382774304"><ele>62.00000000000001</ele><time>2026-04-04T13:36:23.851Z</time></trkpt><trkpt lat="45.03150872505441" lon="9.597885723069314"><ele>62.0</ele><time>2026-04-04T13:36:25.851Z</time></trkpt><trkpt lat="45.03151901471731" lon="9.598013315747234"><ele>62.0</ele><time>2026-04-04T13:36:27.851Z</time></trkpt><trkpt lat="45.031516084211646" lon="9.598144794358708"><ele>62.0</ele><time>2026-04-04T13:36:29.851Z</time></trkpt><trkpt lat="45.03152161963834" lon="9.5982696918914"><ele>62.00000000000001</ele><time>2026-04-04T13:36:31.851Z</time></trkpt><trkpt lat="45.031534741717856" lon="9.598389738048292"><ele>62.0</ele><time>2026-04-04T13:36:33.851Z</time></trkpt><trkpt lat="45.031539794619185" lon="9.598513656507814"><ele>62.0</ele><time>2026-04-04T13:36:35.851Z</time></trkpt><trkpt lat="45.03154660330479" lon="9.598633591528039"><ele>62.0</ele><time>2026-04-04T13:36:37.851Z</time></trkpt><trkpt lat="45.031545103544325" lon="9.598766716091937"><ele>62.0</ele><time>2026-04-04T13:36:39.851Z</time></trkpt><trkpt lat="45.03153531480823" lon="9.598891016090485"><ele>62.0</ele><time>2026-04-04T13:36:41.851Z</time></trkpt><trkpt lat="45.0315354739551" lon="9.599015817887885"><ele>62.0</ele><time>2026-04-04T13:36:43.851Z</time></trkpt><trkpt lat="45.03153657286469" lon="9.599149958109631"><ele>62.2</ele><time>2026-04-04T13:36:45.851Z</time></trkpt><trkpt lat="45.03152150841014" lon="9.599275405697686"><ele>62.400000000000006</ele><time>2026-04-04T13:36:47.851Z</time></trkpt><trkpt lat="45.03150702728014" lon="9.59940749062515"><ele>62.599999999999994</ele><time>2026-04-04T13:36:49.851Z</time></trkpt><trkpt lat="45.03150846020657" lon="9.599529839220212"><ele>62.8</ele><time>2026-04-04T13:36:51.851Z</time></trkpt><trkpt lat="45.03150657872761" lon="9.599667042684311"><ele>63.0</ele><time>2026-04-04T13:36:53.851Z</time></trkpt><trkpt lat="45.03150741146237" lon="9.599789001149015"><ele>63.166666666666664</ele><time>2026-04-04T13:36:55.851Z</time></trkpt><trkpt lat="45.0315020523244" lon="9.599917889785207"><ele>63.33333333333333</ele><time>2026-04-04T13:36:57.851Z</time></trkpt><trkpt lat="45.03148393036597" lon="9.600027697619531"><ele>63.5</ele><time>2026-04-04T13:36:59.851Z</time></trkpt><trkpt lat="45.031479209398285" lon="9.600145888395499"><ele>63.666666666666664</ele><time>2026-04-04T13:37:01.85Z</time></trkpt><trkpt lat="45.03147251361788" lon="9.600267796273386"><ele>63.83333333333333</ele><time>2026-04-04T13:37:03.85Z</time></trkpt><trkpt lat="45.03147846334218" lon="9.600389848857914"><ele>64.0</ele><time>2026-04-04T13:37:05.85Z</time></trkpt><trkpt lat="45.03147314391962" lon="9.600515262282128"><ele>64.16666666666666</ele><time>2026-04-04T13:37:07.85Z</time></trkpt><trkpt lat="45.03147432060605" lon="9.600633868558916"><ele>64.33333333333333</ele><time>2026-04-04T13:37:09.85Z</time></trkpt><trkpt lat="45.03146032977404" lon="9.60074233304909"><ele>64.5</ele><time>2026-04-04T13:37:11.85Z</time></trkpt><trkpt lat="45.0314585966304" lon="9.600851209476016"><ele>64.66666666666667</ele><time>2026-04-04T13:37:13.85Z</time></trkpt><trkpt lat="45.0314607361732" lon="9.600965904708932"><ele>64.83333333333334</ele><time>2026-04-04T13:37:15.85Z</time></trkpt><trkpt lat="45.031468370574544" lon="9.601080127027048"><ele>65.0</ele><time>2026-04-04T13:37:17.85Z</time></trkpt><trkpt lat="45.0314624134351" lon="9.60119817683739"><ele>65.0</ele><time>2026-04-04T13:37:19.85Z</time></trkpt><trkpt lat="45.03144944332263" lon="9.601329752445011"><ele>65.0</ele><time>2026-04-04T13:37:21.85Z</time></trkpt><trkpt lat="45.03144542751099" lon="9.601464698176077"><ele>65.0</ele><time>2026-04-04T13:37:23.85Z</time></trkpt><trkpt lat="45.03142591880802" lon="9.601580657076779"><ele>65.0</ele><time>2026-04-04T13:37:25.85Z</time></trkpt><trkpt lat="45.03142910316315" lon="9.601692336387199"><ele>65.0</ele><time>2026-04-04T13:37:27.85Z</time></trkpt><trkpt lat="45.03142481875411" lon="9.601797496632257"><ele>65.0</ele><time>2026-04-04T13:37:29.85Z</time></trkpt><trkpt lat="45.03141696451987" lon="9.60191955499465"><ele>65.16666666666667</ele><time>2026-04-04T13:37:31.85Z</time></trkpt><trkpt lat="45.03141603479164" lon="9.602022949655202"><ele>65.33333333333334</ele><time>2026-04-04T13:37:33.85Z</time></trkpt><trkpt lat="45.031414405262204" lon="9.60212964322033"><ele>65.5</ele><time>2026-04-04T13:37:35.85Z</time></trkpt><trkpt lat="45.03140514722905" lon="9.60224572304125"><ele>65.66666666666667</ele><time>2026-04-04T13:37:37.85Z</time></trkpt><trkpt lat="45.03140836972453" lon="9.602366007961447"><ele>65.83333333333333</ele><time>2026-04-04T13:37:39.85Z</time></trkpt><trkpt lat="45.03140069017593" lon="9.602485591757638"><ele>66.0</ele><time>2026-04-04T13:37:41.85Z</time></trkpt><trkpt lat="45.03140669012964" lon="9.60261632516265"><ele>66.0</ele><time>2026-04-04T13:37:43.85Z</time></trkpt><trkpt lat="45.0314001657198" lon="9.602730936276402"><ele>66.0</ele><time>2026-04-04T13:37:45.85Z</time></trkpt><trkpt lat="45.03140410831347" lon="9.602831619419923"><ele>66.0</ele><time>2026-04-04T13:37:47.85Z</time></trkpt><trkpt lat="45.03140520680445" lon="9.602955702806817"><ele>66.0</ele><time>2026-04-04T13:37:49.85Z</time></trkpt><trkpt lat="45.03140475493395" lon="9.603076800910946"><ele>66.0</ele><time>2026-04-04T13:37:51.849Z</time></trkpt><trkpt lat="45.03141305534592" lon="9.60319802874958"><ele>66.0</ele><time>2026-04-04T13:37:53.849Z</time></trkpt><trkpt lat="45.031408054379405" lon="9.603320278415534"><ele>66.0</ele><time>2026-04-04T13:37:55.849Z</time></trkpt><trkpt lat="45.03141822305462" lon="9.603438259366655"><ele>66.0</ele><time>2026-04-04T13:37:57.849Z</time></trkpt><trkpt lat="45.03141914254215" lon="9.60356419975035"><ele>66.0</ele><time>2026-04-04T13:37:59.849Z</time></trkpt><trkpt lat="45.0314205053935" lon="9.60368375038503"><ele>66.0</ele><time>2026-04-04T13:38:01.849Z</time></trkpt><trkpt lat="45.03142174032946" lon="9.603797256244945"><ele>66.0</ele><time>2026-04-04T13:38:03.849Z</time></trkpt><trkpt lat="45.03141342471558" lon="9.603907085502954"><ele>66.0</ele><time>2026-04-04T13:38:05.849Z</time></trkpt><trkpt lat="45.031405384066915" lon="9.604036440624887"><ele>66.16666666666667</ele><time>2026-04-04T13:38:07.849Z</time></trkpt><trkpt lat="45.03141236818268" lon="9.604156411085993"><ele>66.33333333333333</ele><time>2026-04-04T13:38:09.849Z</time></trkpt><trkpt lat="45.03141906592372" lon="9.604275124694642"><ele>66.5</ele><time>2026-04-04T13:38:11.849Z</time></trkpt><trkpt lat="45.03141651094551" lon="9.604391715511793"><ele>66.66666666666666</ele><time>2026-04-04T13:38:13.848Z</time></trkpt><trkpt lat="45.03140291174902" lon="9.604506453394801"><ele>66.83333333333333</ele><time>2026-04-04T13:38:15.849Z</time></trkpt><trkpt lat="45.031403589460005" lon="9.604620589477907"><ele>67.0</ele><time>2026-04-04T13:38:17.848Z</time></trkpt><trkpt lat="45.03141398662665" lon="9.604739761822664"><ele>67.0</ele><time>2026-04-04T13:38:19.848Z</time></trkpt><trkpt lat="45.0314275355173" lon="9.604835145490979"><ele>67.0</ele><time>2026-04-04T13:38:21.848Z</time></trkpt><trkpt lat="45.031466066038746" lon="9.604911042580419"><ele>67.0</ele><time>2026-04-04T13:38:23.849Z</time></trkpt><trkpt lat="45.031500975944894" lon="9.604995460472805"><ele>67.0</ele><time>2026-04-04T13:38:25.848Z</time></trkpt><trkpt lat="45.03150387618283" lon="9.60512262154619"><ele>67.0</ele><time>2026-04-04T13:38:27.848Z</time></trkpt><trkpt lat="45.031504805345364" lon="9.605249216620544"><ele>67.0</ele><time>2026-04-04T13:38:29.848Z</time></trkpt><trkpt lat="45.031500814645575" lon="9.605397175071973"><ele>67.2</ele><time>2026-04-04T13:38:31.848Z</time></trkpt><trkpt lat="45.031502568392206" lon="9.60553528701805"><ele>67.4</ele><time>2026-04-04T13:38:33.848Z</time></trkpt><trkpt lat="45.03150179256551" lon="9.605684976304698"><ele>67.6</ele><time>2026-04-04T13:38:35.848Z</time></trkpt><trkpt lat="45.03149724785108" lon="9.60583033151225"><ele>67.8</ele><time>2026-04-04T13:38:37.848Z</time></trkpt><trkpt lat="45.03149517440982" lon="9.605973993694004"><ele>68.0</ele><time>2026-04-04T13:38:39.848Z</time></trkpt><trkpt lat="45.0314936647062" lon="9.60612141970935"><ele>67.6</ele><time>2026-04-04T13:38:41.848Z</time></trkpt><trkpt lat="45.03150250425039" lon="9.606267461690232"><ele>67.19999999999999</ele><time>2026-04-04T13:38:43.848Z</time></trkpt><trkpt lat="45.03149386017518" lon="9.606403254592339"><ele>66.8</ele><time>2026-04-04T13:38:45.848Z</time></trkpt><trkpt lat="45.03148802295029" lon="9.60653991654258"><ele>66.39999999999999</ele><time>2026-04-04T13:38:47.848Z</time></trkpt><trkpt lat="45.031494804476864" lon="9.606672446691212"><ele>66.0</ele><time>2026-04-04T13:38:49.848Z</time></trkpt><trkpt lat="45.0314950909759" lon="9.60680677311901"><ele>66.0</ele><time>2026-04-04T13:38:51.848Z</time></trkpt><trkpt lat="45.03149665669665" lon="9.606937423197165"><ele>66.0</ele><time>2026-04-04T13:38:53.848Z</time></trkpt><trkpt lat="45.031496745478705" lon="9.60706655774926"><ele>66.0</ele><time>2026-04-04T13:38:55.848Z</time></trkpt><trkpt lat="45.03149223884634" lon="9.60719620475339"><ele>66.0</ele><time>2026-04-04T13:38:57.847Z</time></trkpt><trkpt lat="45.03148360131643" lon="9.607331480347662"><ele>66.0</ele><time>2026-04-04T13:38:59.847Z</time></trkpt><trkpt lat="45.03148592236097" lon="9.607471150545317"><ele>66.16666666666667</ele><time>2026-04-04T13:39:01.847Z</time></trkpt><trkpt lat="45.03148645191053" lon="9.607604207675237"><ele>66.33333333333333</ele><time>2026-04-04T13:39:03.847Z</time></trkpt><trkpt lat="45.03149132864121" lon="9.60772512034305"><ele>66.5</ele><time>2026-04-04T13:39:05.847Z</time></trkpt><trkpt lat="45.031489886404195" lon="9.607849919495514"><ele>66.66666666666666</ele><time>2026-04-04T13:39:07.847Z</time></trkpt><trkpt lat="45.03149181436272" lon="9.60796766833144"><ele>66.83333333333333</ele><time>2026-04-04T13:39:09.847Z</time></trkpt><trkpt lat="45.031493051516954" lon="9.608081900781023"><ele>67.0</ele><time>2026-04-04T13:39:11.847Z</time></trkpt><trkpt lat="45.03149722150682" lon="9.608196342013038"><ele>67.0</ele><time>2026-04-04T13:39:13.847Z</time></trkpt><trkpt lat="45.03148901154651" lon="9.608307638828428"><ele>67.0</ele><time>2026-04-04T13:39:15.847Z</time></trkpt><trkpt lat="45.031490201949964" lon="9.608423004086601"><ele>67.0</ele><time>2026-04-04T13:39:17.847Z</time></trkpt><trkpt lat="45.03149145480795" lon="9.608552988043058"><ele>67.0</ele><time>2026-04-04T13:39:19.847Z</time></trkpt><trkpt lat="45.03149971097817" lon="9.608673772639815"><ele>67.0</ele><time>2026-04-04T13:39:21.847Z</time></trkpt><trkpt lat="45.031494607529325" lon="9.608788176930018"><ele>67.0</ele><time>2026-04-04T13:39:23.847Z</time></trkpt><trkpt lat="45.031494041982654" lon="9.608905037539435"><ele>67.0</ele><time>2026-04-04T13:39:25.847Z</time></trkpt><trkpt lat="45.03150802681462" lon="9.609021192942427"><ele>67.0</ele><time>2026-04-04T13:39:27.847Z</time></trkpt><trkpt lat="45.0315212291942" lon="9.609140208663986"><ele>67.0</ele><time>2026-04-04T13:39:29.847Z</time></trkpt><trkpt lat="45.03153851810149" lon="9.609264385113676"><ele>67.0</ele><time>2026-04-04T13:39:31.847Z</time></trkpt><trkpt lat="45.03155490567715" lon="9.609391071706096"><ele>67.0</ele><time>2026-04-04T13:39:33.847Z</time></trkpt><trkpt lat="45.03156395266057" lon="9.609523207778345"><ele>67.0</ele><time>2026-04-04T13:39:35.847Z</time></trkpt><trkpt lat="45.03155942747264" lon="9.609655869690714"><ele>66.8</ele><time>2026-04-04T13:39:37.847Z</time></trkpt><trkpt lat="45.03156259704632" lon="9.60978929920213"><ele>66.6</ele><time>2026-04-04T13:39:39.847Z</time></trkpt><trkpt lat="45.03155923864618" lon="9.6099228099718"><ele>66.39999999999999</ele><time>2026-04-04T13:39:41.847Z</time></trkpt><trkpt lat="45.03156401918159" lon="9.610053087783141"><ele>66.2</ele><time>2026-04-04T13:39:43.847Z</time></trkpt><trkpt lat="45.03155738696453" lon="9.610193428954151"><ele>66.0</ele><time>2026-04-04T13:39:45.847Z</time></trkpt><trkpt lat="45.03155439323294" lon="9.610334754774117"><ele>65.8</ele><time>2026-04-04T13:39:47.846Z</time></trkpt><trkpt lat="45.03155373494942" lon="9.610477365518726"><ele>65.6</ele><time>2026-04-04T13:39:49.846Z</time></trkpt><trkpt lat="45.03155104377873" lon="9.610620112371246"><ele>65.4</ele><time>2026-04-04T13:39:51.846Z</time></trkpt><trkpt lat="45.03155715219919" lon="9.610758201598037"><ele>65.2</ele><time>2026-04-04T13:39:53.846Z</time></trkpt><trkpt lat="45.03155509872598" lon="9.610906825491586"><ele>65.0</ele><time>2026-04-04T13:39:55.846Z</time></trkpt><trkpt lat="45.03154699374588" lon="9.611047112317328"><ele>65.2</ele><time>2026-04-04T13:39:57.846Z</time></trkpt><trkpt lat="45.03154883595374" lon="9.611184186198427"><ele>65.4</ele><time>2026-04-04T13:39:59.846Z</time></trkpt><trkpt lat="45.03155057753586" lon="9.61132402747743"><ele>65.6</ele><time>2026-04-04T13:40:01.846Z</time></trkpt><trkpt lat="45.03154811010262" lon="9.611462401938565"><ele>65.8</ele><time>2026-04-04T13:40:03.846Z</time></trkpt><trkpt lat="45.03154911008234" lon="9.611601708925336"><ele>66.0</ele><time>2026-04-04T13:40:05.846Z</time></trkpt><trkpt lat="45.031552723067485" lon="9.611741313932345"><ele>66.0</ele><time>2026-04-04T13:40:07.846Z</time></trkpt><trkpt lat="45.03154913121677" lon="9.611876033659996"><ele>66.0</ele><time>2026-04-04T13:40:09.846Z</time></trkpt><trkpt lat="45.03154541207149" lon="9.612014040560073"><ele>66.0</ele><time>2026-04-04T13:40:11.846Z</time></trkpt><trkpt lat="45.03154158591545" lon="9.61214347833271"><ele>66.0</ele><time>2026-04-04T13:40:13.846Z</time></trkpt><trkpt lat="45.031543947782865" lon="9.612280757610314"><ele>66.0</ele><time>2026-04-04T13:40:15.846Z</time></trkpt><trkpt lat="45.0315455851851" lon="9.612413070684163"><ele>66.2</ele><time>2026-04-04T13:40:17.846Z</time></trkpt><trkpt lat="45.03154526963833" lon="9.61254390855812"><ele>66.39999999999999</ele><time>2026-04-04T13:40:19.845Z</time></trkpt><trkpt lat="45.031545531325754" lon="9.612676407768557"><ele>66.6</ele><time>2026-04-04T13:40:21.845Z</time></trkpt><trkpt lat="45.03154270013154" lon="9.612808175304606"><ele>66.8</ele><time>2026-04-04T13:40:23.846Z</time></trkpt><trkpt lat="45.03154392234941" lon="9.612941827156181"><ele>67.0</ele><time>2026-04-04T13:40:25.845Z</time></trkpt><trkpt lat="45.031545064694804" lon="9.613068219932627"><ele>67.0</ele><time>2026-04-04T13:40:27.845Z</time></trkpt><trkpt lat="45.03154778752969" lon="9.613201939200685"><ele>67.0</ele><time>2026-04-04T13:40:29.845Z</time></trkpt><trkpt lat="45.03154456033964" lon="9.613334575866508"><ele>67.0</ele><time>2026-04-04T13:40:31.844Z</time></trkpt><trkpt lat="45.03154280339207" lon="9.613469294022225"><ele>67.0</ele><time>2026-04-04T13:40:33.844Z</time></trkpt><trkpt lat="45.03154264339355" lon="9.613595800222377"><ele>67.0</ele><time>2026-04-04T13:40:35.844Z</time></trkpt><trkpt lat="45.031543865766935" lon="9.613729233950169"><ele>67.0</ele><time>2026-04-04T13:40:37.844Z</time></trkpt><trkpt lat="45.03154609946735" lon="9.613864075652602"><ele>67.0</ele><time>2026-04-04T13:40:39.844Z</time></trkpt><trkpt lat="45.03154729488699" lon="9.613998475758052"><ele>67.0</ele><time>2026-04-04T13:40:41.844Z</time></trkpt><trkpt lat="45.03154559873888" lon="9.6141374700788"><ele>67.0</ele><time>2026-04-04T13:40:43.844Z</time></trkpt><trkpt lat="45.03154570046276" lon="9.614276060784942"><ele>67.0</ele><time>2026-04-04T13:40:45.844Z</time></trkpt><trkpt lat="45.0315459726484" lon="9.614416503359456"><ele>66.8</ele><time>2026-04-04T13:40:47.844Z</time></trkpt><trkpt lat="45.03154502157235" lon="9.614554085397305"><ele>66.6</ele><time>2026-04-04T13:40:49.844Z</time></trkpt><trkpt lat="45.03154621190235" lon="9.614690085917983"><ele>66.39999999999999</ele><time>2026-04-04T13:40:51.844Z</time></trkpt><trkpt lat="45.03154876272944" lon="9.614819321852062"><ele>66.2</ele><time>2026-04-04T13:40:53.844Z</time></trkpt><trkpt lat="45.03154854244731" lon="9.614955969759412"><ele>66.0</ele><time>2026-04-04T13:40:55.844Z</time></trkpt><trkpt lat="45.031556201552185" lon="9.615085354915035"><ele>66.0</ele><time>2026-04-04T13:40:57.844Z</time></trkpt><trkpt lat="45.0315548705606" lon="9.615215685986298"><ele>66.0</ele><time>2026-04-04T13:40:59.844Z</time></trkpt><trkpt lat="45.031556372565525" lon="9.615350351733616"><ele>66.0</ele><time>2026-04-04T13:41:01.844Z</time></trkpt><trkpt lat="45.03155366659256" lon="9.615487817105896"><ele>66.0</ele><time>2026-04-04T13:41:03.844Z</time></trkpt><trkpt lat="45.031557743341835" lon="9.615627400564357"><ele>66.0</ele><time>2026-04-04T13:41:05.844Z</time></trkpt><trkpt lat="45.03155717952631" lon="9.615769653163944"><ele>66.0</ele><time>2026-04-04T13:41:07.844Z</time></trkpt><trkpt lat="45.031558842705024" lon="9.615904513279574"><ele>66.0</ele><time>2026-04-04T13:41:09.844Z</time></trkpt><trkpt lat="45.03155258790456" lon="9.61604328013136"><ele>66.0</ele><time>2026-04-04T13:41:11.844Z</time></trkpt><trkpt lat="45.03155143922225" lon="9.616179879404106"><ele>66.0</ele><time>2026-04-04T13:41:13.844Z</time></trkpt><trkpt lat="45.03155348867011" lon="9.616313571673283"><ele>66.0</ele><time>2026-04-04T13:41:15.844Z</time></trkpt><trkpt lat="45.0315539460911" lon="9.61644323786873"><ele>66.0</ele><time>2026-04-04T13:41:17.844Z</time></trkpt><trkpt lat="45.031556365907434" lon="9.616572122901283"><ele>66.0</ele><time>2026-04-04T13:41:19.843Z</time></trkpt><trkpt lat="45.03156494352212" lon="9.616704045201786"><ele>66.0</ele><time>2026-04-04T13:41:21.843Z</time></trkpt><trkpt lat="45.0315624148" lon="9.616837719951889"><ele>66.0</ele><time>2026-04-04T13:41:23.843Z</time></trkpt><trkpt lat="45.03156238034363" lon="9.616969873026678"><ele>66.0</ele><time>2026-04-04T13:41:25.843Z</time></trkpt><trkpt lat="45.03156294362503" lon="9.617104681357478"><ele>66.0</ele><time>2026-04-04T13:41:27.843Z</time></trkpt><trkpt lat="45.03155959124391" lon="9.617240058178153"><ele>66.0</ele><time>2026-04-04T13:41:29.843Z</time></trkpt><trkpt lat="45.031562820443874" lon="9.617377870641"><ele>66.0</ele><time>2026-04-04T13:41:31.843Z</time></trkpt><trkpt lat="45.03156476691317" lon="9.6175125352805"><ele>66.0</ele><time>2026-04-04T13:41:33.843Z</time></trkpt><trkpt lat="45.031564355090474" lon="9.617655831406983"><ele>66.0</ele><time>2026-04-04T13:41:35.843Z</time></trkpt><trkpt lat="45.031560969035674" lon="9.617799105566284"><ele>66.0</ele><time>2026-04-04T13:41:37.845Z</time></trkpt><trkpt lat="45.03156529335193" lon="9.617938709827463"><ele>66.0</ele><time>2026-04-04T13:41:39.849Z</time></trkpt><trkpt lat="45.0315677167197" lon="9.618073597663326"><ele>66.0</ele><time>2026-04-04T13:41:41.852Z</time></trkpt><trkpt lat="45.031561019358826" lon="9.618201033761807"><ele>66.0</ele><time>2026-04-04T13:41:43.855Z</time></trkpt><trkpt lat="45.03156167445442" lon="9.618337642129879"><ele>66.0</ele><time>2026-04-04T13:41:45.857Z</time></trkpt><trkpt lat="45.03156373362607" lon="9.61847238026112"><ele>66.0</ele><time>2026-04-04T13:41:47.859Z</time></trkpt><trkpt lat="45.03156052621974" lon="9.61860667036312"><ele>66.0</ele><time>2026-04-04T13:41:49.861Z</time></trkpt><trkpt lat="45.03156632560242" lon="9.61873490222323"><ele>66.0</ele><time>2026-04-04T13:41:51.863Z</time></trkpt><trkpt lat="45.03156507019379" lon="9.618862539931783"><ele>66.0</ele><time>2026-04-04T13:41:53.864Z</time></trkpt><trkpt lat="45.031564842601256" lon="9.618990966692937"><ele>66.0</ele><time>2026-04-04T13:41:55.866Z</time></trkpt><trkpt lat="45.03156029875745" lon="9.61912532536213"><ele>66.0</ele><time>2026-04-04T13:41:57.867Z</time></trkpt><trkpt lat="45.031568256637435" lon="9.619259295083895"><ele>66.0</ele><time>2026-04-04T13:41:59.868Z</time></trkpt><trkpt lat="45.03156754091856" lon="9.619389452740581"><ele>66.0</ele><time>2026-04-04T13:42:01.869Z</time></trkpt><trkpt lat="45.03156328012458" lon="9.61951750141871"><ele>66.0</ele><time>2026-04-04T13:42:03.869Z</time></trkpt><trkpt lat="45.03156067224299" lon="9.619643794936849"><ele>66.0</ele><time>2026-04-04T13:42:05.87Z</time></trkpt><trkpt lat="45.031558448928344" lon="9.61976791420385"><ele>66.0</ele><time>2026-04-04T13:42:07.871Z</time></trkpt><trkpt lat="45.03156174839809" lon="9.619895272512093"><ele>66.0</ele><time>2026-04-04T13:42:09.871Z</time></trkpt><trkpt lat="45.03155554574629" lon="9.620016402056295"><ele>66.0</ele><time>2026-04-04T13:42:11.872Z</time></trkpt><trkpt lat="45.0315556687219" lon="9.620146646114447"><ele>66.0</ele><time>2026-04-04T13:42:13.872Z</time></trkpt><trkpt lat="45.03156065148461" lon="9.620274562973814"><ele>66.0</ele><time>2026-04-04T13:42:15.872Z</time></trkpt><trkpt lat="45.03155786706806" lon="9.620400184600857"><ele>66.0</ele><time>2026-04-04T13:42:17.873Z</time></trkpt><trkpt lat="45.03155788810999" lon="9.620523103751779"><ele>66.5</ele><time>2026-04-04T13:42:19.873Z</time></trkpt><trkpt lat="45.031560003327456" lon="9.62064701394526"><ele>67.0</ele><time>2026-04-04T13:42:21.873Z</time></trkpt><trkpt lat="45.03155909000536" lon="9.620761815434314"><ele>67.5</ele><time>2026-04-04T13:42:23.873Z</time></trkpt><trkpt lat="45.031560665179505" lon="9.620881929847512"><ele>68.0</ele><time>2026-04-04T13:42:25.873Z</time></trkpt><trkpt lat="45.03155452963645" lon="9.620991448824196"><ele>68.5</ele><time>2026-04-04T13:42:27.874Z</time></trkpt><trkpt lat="45.031559364636806" lon="9.62110617522831"><ele>69.0</ele><time>2026-04-04T13:42:29.873Z</time></trkpt><trkpt lat="45.031552735070555" lon="9.62122267183067"><ele>69.0</ele><time>2026-04-04T13:42:31.873Z</time></trkpt><trkpt lat="45.03155012348339" lon="9.621340733673211"><ele>69.0</ele><time>2026-04-04T13:42:33.873Z</time></trkpt><trkpt lat="45.03154426457303" lon="9.62145931449939"><ele>69.0</ele><time>2026-04-04T13:42:35.873Z</time></trkpt><trkpt lat="45.03154456660344" lon="9.621581084740319"><ele>69.0</ele><time>2026-04-04T13:42:37.874Z</time></trkpt><trkpt lat="45.03154359762726" lon="9.621705749422482"><ele>69.0</ele><time>2026-04-04T13:42:39.874Z</time></trkpt><trkpt lat="45.03155132078411" lon="9.621838705523452"><ele>69.0</ele><time>2026-04-04T13:42:41.874Z</time></trkpt><trkpt lat="45.031552447257845" lon="9.621965968797534"><ele>68.8</ele><time>2026-04-04T13:42:43.874Z</time></trkpt><trkpt lat="45.03155517165193" lon="9.622099936529318"><ele>68.60000000000001</ele><time>2026-04-04T13:42:45.874Z</time></trkpt><trkpt lat="45.03155246503248" lon="9.622231448785836"><ele>68.4</ele><time>2026-04-04T13:42:47.874Z</time></trkpt><trkpt lat="45.03155124330727" lon="9.622357694000467"><ele>68.2</ele><time>2026-04-04T13:42:49.874Z</time></trkpt><trkpt lat="45.031554832346316" lon="9.622482569809604"><ele>68.0</ele><time>2026-04-04T13:42:51.874Z</time></trkpt><trkpt lat="45.03155413829911" lon="9.622611063573093"><ele>68.0</ele><time>2026-04-04T13:42:53.874Z</time></trkpt><trkpt lat="45.03155674795853" lon="9.622741876121657"><ele>68.0</ele><time>2026-04-04T13:42:55.874Z</time></trkpt><trkpt lat="45.031560471530426" lon="9.622877781993472"><ele>68.0</ele><time>2026-04-04T13:42:57.874Z</time></trkpt><trkpt lat="45.03156122203775" lon="9.623008929615704"><ele>68.0</ele><time>2026-04-04T13:42:59.874Z</time></trkpt><trkpt lat="45.03156186272869" lon="9.6231408774642"><ele>68.0</ele><time>2026-04-04T13:43:01.874Z</time></trkpt><trkpt lat="45.03156437571477" lon="9.623271022168787"><ele>68.0</ele><time>2026-04-04T13:43:03.874Z</time></trkpt><trkpt lat="45.03157399546719" lon="9.623405371484468"><ele>68.0</ele><time>2026-04-04T13:43:05.874Z</time></trkpt><trkpt lat="45.03157946454217" lon="9.623538464511808"><ele>68.0</ele><time>2026-04-04T13:43:07.874Z</time></trkpt><trkpt lat="45.0315807017265" lon="9.623676791607897"><ele>68.0</ele><time>2026-04-04T13:43:09.874Z</time></trkpt><trkpt lat="45.031587939171594" lon="9.623802654070563"><ele>68.0</ele><time>2026-04-04T13:43:11.874Z</time></trkpt><trkpt lat="45.03159801414465" lon="9.62393188750328"><ele>68.0</ele><time>2026-04-04T13:43:13.874Z</time></trkpt><trkpt lat="45.03159216057995" lon="9.624056327468432"><ele>68.0</ele><time>2026-04-04T13:43:15.874Z</time></trkpt><trkpt lat="45.031594550596616" lon="9.624187370744643"><ele>68.0</ele><time>2026-04-04T13:43:17.874Z</time></trkpt><trkpt lat="45.031601805948" lon="9.62431928754865"><ele>68.0</ele><time>2026-04-04T13:43:19.874Z</time></trkpt><trkpt lat="45.0316103533048" lon="9.624453374174676"><ele>68.0</ele><time>2026-04-04T13:43:21.874Z</time></trkpt><trkpt lat="45.03162183177284" lon="9.624583883999538"><ele>68.0</ele><time>2026-04-04T13:43:23.873Z</time></trkpt><trkpt lat="45.03162737218365" lon="9.624708075394501"><ele>68.0</ele><time>2026-04-04T13:43:25.873Z</time></trkpt><trkpt lat="45.03164354195004" lon="9.624838894134179"><ele>68.0</ele><time>2026-04-04T13:43:27.873Z</time></trkpt><trkpt lat="45.031651356510025" lon="9.624967283205931"><ele>68.0</ele><time>2026-04-04T13:43:29.873Z</time></trkpt><trkpt lat="45.0316733771332" lon="9.62510006306534"><ele>68.0</ele><time>2026-04-04T13:43:31.873Z</time></trkpt><trkpt lat="45.03169050010227" lon="9.625233115101619"><ele>67.4</ele><time>2026-04-04T13:43:33.873Z</time></trkpt><trkpt lat="45.031700836529936" lon="9.625359029905226"><ele>66.8</ele><time>2026-04-04T13:43:35.873Z</time></trkpt><trkpt lat="45.03171464763635" lon="9.625492673642796"><ele>66.2</ele><time>2026-04-04T13:43:37.873Z</time></trkpt><trkpt lat="45.03173837800821" lon="9.625623004638136"><ele>65.6</ele><time>2026-04-04T13:43:39.873Z</time></trkpt><trkpt lat="45.03176787567503" lon="9.625751075306571"><ele>65.0</ele><time>2026-04-04T13:43:41.873Z</time></trkpt><trkpt lat="45.03181419255862" lon="9.625874000250722"><ele>65.0</ele><time>2026-04-04T13:43:43.873Z</time></trkpt><trkpt lat="45.03186352910328" lon="9.625997103884805"><ele>65.0</ele><time>2026-04-04T13:43:45.873Z</time></trkpt><trkpt lat="45.03191319071519" lon="9.626112658309435"><ele>65.0</ele><time>2026-04-04T13:43:47.873Z</time></trkpt><trkpt lat="45.031963187994066" lon="9.626237112758377"><ele>65.0</ele><time>2026-04-04T13:43:49.873Z</time></trkpt><trkpt lat="45.031992677006485" lon="9.626367053758313"><ele>65.0</ele><time>2026-04-04T13:43:51.873Z</time></trkpt><trkpt lat="45.03200589180055" lon="9.62649858040865"><ele>65.2</ele><time>2026-04-04T13:43:53.873Z</time></trkpt><trkpt lat="45.0320102915503" lon="9.626628359702565"><ele>65.4</ele><time>2026-04-04T13:43:55.873Z</time></trkpt><trkpt lat="45.0320128997556" lon="9.626762352029239"><ele>65.6</ele><time>2026-04-04T13:43:57.873Z</time></trkpt><trkpt lat="45.03201848693576" lon="9.626898902027678"><ele>65.8</ele><time>2026-04-04T13:43:59.873Z</time></trkpt><trkpt lat="45.032019241643965" lon="9.627029349688062"><ele>66.0</ele><time>2026-04-04T13:44:01.873Z</time></trkpt><trkpt lat="45.032003708204755" lon="9.627154596419023"><ele>66.16666666666667</ele><time>2026-04-04T13:44:03.873Z</time></trkpt><trkpt lat="45.031988996112915" lon="9.62727779819183"><ele>66.33333333333333</ele><time>2026-04-04T13:44:05.873Z</time></trkpt><trkpt lat="45.03199078940988" lon="9.627400854717214"><ele>66.5</ele><time>2026-04-04T13:44:07.873Z</time></trkpt><trkpt lat="45.03200257575237" lon="9.62752355294285"><ele>66.66666666666666</ele><time>2026-04-04T13:44:09.873Z</time></trkpt><trkpt lat="45.03202459615013" lon="9.627646418743275"><ele>66.83333333333333</ele><time>2026-04-04T13:44:11.873Z</time></trkpt><trkpt lat="45.03206519603413" lon="9.627762020986214"><ele>67.0</ele><time>2026-04-04T13:44:13.873Z</time></trkpt><trkpt lat="45.03210656070459" lon="9.627876681145809"><ele>67.0</ele><time>2026-04-04T13:44:15.873Z</time></trkpt><trkpt lat="45.03215188048213" lon="9.627986059371068"><ele>67.0</ele><time>2026-04-04T13:44:17.873Z</time></trkpt><trkpt lat="45.03219257135132" lon="9.628102729487066"><ele>67.0</ele><time>2026-04-04T13:44:19.873Z</time></trkpt><trkpt lat="45.032234283436864" lon="9.628220939345198"><ele>67.0</ele><time>2026-04-04T13:44:21.873Z</time></trkpt><trkpt lat="45.03227349547383" lon="9.62833419983299"><ele>67.0</ele><time>2026-04-04T13:44:23.873Z</time></trkpt><trkpt lat="45.03231088055543" lon="9.628455826078731"><ele>67.0</ele><time>2026-04-04T13:44:25.873Z</time></trkpt><trkpt lat="45.03235709832941" lon="9.628575780114451"><ele>67.0</ele><time>2026-04-04T13:44:27.873Z</time></trkpt><trkpt lat="45.03239716288437" lon="9.628693748995264"><ele>67.0</ele><time>2026-04-04T13:44:29.873Z</time></trkpt><trkpt lat="45.0324456613235" lon="9.628800688295625"><ele>67.0</ele><time>2026-04-04T13:44:31.871Z</time></trkpt><trkpt lat="45.032488266152" lon="9.628917271783266"><ele>67.0</ele><time>2026-04-04T13:44:33.872Z</time></trkpt><trkpt lat="45.03253138256619" lon="9.629031790791144"><ele>67.0</ele><time>2026-04-04T13:44:35.871Z</time></trkpt><trkpt lat="45.03257412388077" lon="9.62915669321711"><ele>67.0</ele><time>2026-04-04T13:44:37.871Z</time></trkpt><trkpt lat="45.03261724539803" lon="9.629276958166178"><ele>67.0</ele><time>2026-04-04T13:44:39.871Z</time></trkpt><trkpt lat="45.03266190852311" lon="9.629402848238438"><ele>67.0</ele><time>2026-04-04T13:44:41.871Z</time></trkpt><trkpt lat="45.03270328146552" lon="9.629514193178013"><ele>67.0</ele><time>2026-04-04T13:44:43.871Z</time></trkpt><trkpt lat="45.03274950457631" lon="9.62963455223114"><ele>67.0</ele><time>2026-04-04T13:44:45.871Z</time></trkpt><trkpt lat="45.03279028488415" lon="9.62975952286977"><ele>67.0</ele><time>2026-04-04T13:44:47.871Z</time></trkpt><trkpt lat="45.03283534196221" lon="9.62988040283052"><ele>67.0</ele><time>2026-04-04T13:44:49.871Z</time></trkpt><trkpt lat="45.03287693296467" lon="9.630004023122055"><ele>67.0</ele><time>2026-04-04T13:44:51.871Z</time></trkpt><trkpt lat="45.03292186072088" lon="9.630122294430866"><ele>67.0</ele><time>2026-04-04T13:44:53.871Z</time></trkpt><trkpt lat="45.0329582627277" lon="9.630241509978099"><ele>66.8</ele><time>2026-04-04T13:44:55.871Z</time></trkpt><trkpt lat="45.03299889422192" lon="9.63035880791789"><ele>66.6</ele><time>2026-04-04T13:44:57.871Z</time></trkpt><trkpt lat="45.033037533683995" lon="9.63047590050725"><ele>66.39999999999999</ele><time>2026-04-04T13:44:59.871Z</time></trkpt><trkpt lat="45.033080999270815" lon="9.630593616574417"><ele>66.2</ele><time>2026-04-04T13:45:01.871Z</time></trkpt><trkpt lat="45.033116932741265" lon="9.630719733993764"><ele>66.0</ele><time>2026-04-04T13:45:03.871Z</time></trkpt><trkpt lat="45.03316609987689" lon="9.630836370054299"><ele>66.0</ele><time>2026-04-04T13:45:05.871Z</time></trkpt><trkpt lat="45.03320130977815" lon="9.630955918254532"><ele>66.0</ele><time>2026-04-04T13:45:07.871Z</time></trkpt><trkpt lat="45.03324328055553" lon="9.631078149318352"><ele>66.0</ele><time>2026-04-04T13:45:09.871Z</time></trkpt><trkpt lat="45.03328077125785" lon="9.631200656536482"><ele>66.0</ele><time>2026-04-04T13:45:11.871Z</time></trkpt><trkpt lat="45.03332449328562" lon="9.631323626363942"><ele>66.0</ele><time>2026-04-04T13:45:13.871Z</time></trkpt><trkpt lat="45.03336657696545" lon="9.631432598900695"><ele>66.0</ele><time>2026-04-04T13:45:15.871Z</time></trkpt><trkpt lat="45.03340577570818" lon="9.63154452719821"><ele>66.0</ele><time>2026-04-04T13:45:17.871Z</time></trkpt><trkpt lat="45.03344637012783" lon="9.631659797396251"><ele>66.0</ele><time>2026-04-04T13:45:19.871Z</time></trkpt><trkpt lat="45.0334825071698" lon="9.631775571975007"><ele>66.0</ele><time>2026-04-04T13:45:21.87Z</time></trkpt><trkpt lat="45.033529448117584" lon="9.631893252711574"><ele>66.0</ele><time>2026-04-04T13:45:23.87Z</time></trkpt><trkpt lat="45.03356937824927" lon="9.632012961999605"><ele>66.0</ele><time>2026-04-04T13:45:25.87Z</time></trkpt><trkpt lat="45.033614783326094" lon="9.632129719020043"><ele>66.0</ele><time>2026-04-04T13:45:27.87Z</time></trkpt><trkpt lat="45.033649749273366" lon="9.632252006247247"><ele>66.0</ele><time>2026-04-04T13:45:29.87Z</time></trkpt><trkpt lat="45.0336889515737" lon="9.63236721787686"><ele>66.0</ele><time>2026-04-04T13:45:31.87Z</time></trkpt><trkpt lat="45.033729998074364" lon="9.632487373522345"><ele>66.0</ele><time>2026-04-04T13:45:33.87Z</time></trkpt><trkpt lat="45.03377178932444" lon="9.632611979508454"><ele>66.0</ele><time>2026-04-04T13:45:35.87Z</time></trkpt><trkpt lat="45.03382054993887" lon="9.63272966631954"><ele>66.0</ele><time>2026-04-04T13:45:37.87Z</time></trkpt><trkpt lat="45.03386289869365" lon="9.63284966589535"><ele>66.0</ele><time>2026-04-04T13:45:39.87Z</time></trkpt><trkpt lat="45.03390471453145" lon="9.632969568586113"><ele>66.0</ele><time>2026-04-04T13:45:41.87Z</time></trkpt><trkpt lat="45.03394902993642" lon="9.633085094619142"><ele>66.0</ele><time>2026-04-04T13:45:43.87Z</time></trkpt><trkpt lat="45.03398957185859" lon="9.6332004145628"><ele>66.0</ele><time>2026-04-04T13:45:45.87Z</time></trkpt><trkpt lat="45.034031567322224" lon="9.63331702885512"><ele>66.0</ele><time>2026-04-04T13:45:47.87Z</time></trkpt><trkpt lat="45.03407661758239" lon="9.633432312002292"><ele>66.0</ele><time>2026-04-04T13:45:49.87Z</time></trkpt><trkpt lat="45.03412140214125" lon="9.633550035115796"><ele>66.0</ele><time>2026-04-04T13:45:51.87Z</time></trkpt><trkpt lat="45.03416288726312" lon="9.633665921355885"><ele>66.0</ele><time>2026-04-04T13:45:53.87Z</time></trkpt><trkpt lat="45.03420990461185" lon="9.633784890710851"><ele>66.0</ele><time>2026-04-04T13:45:55.87Z</time></trkpt><trkpt lat="45.034249968048016" lon="9.633905769918691"><ele>66.0</ele><time>2026-04-04T13:45:57.87Z</time></trkpt><trkpt lat="45.03428909378415" lon="9.63402934924415"><ele>66.0</ele><time>2026-04-04T13:45:59.87Z</time></trkpt><trkpt lat="45.03433302952169" lon="9.634148267493458"><ele>66.0</ele><time>2026-04-04T13:46:01.87Z</time></trkpt><trkpt lat="45.03437772752861" lon="9.63427445906695"><ele>66.0</ele><time>2026-04-04T13:46:03.87Z</time></trkpt><trkpt lat="45.034420282335965" lon="9.634391424553886"><ele>66.2</ele><time>2026-04-04T13:46:05.87Z</time></trkpt><trkpt lat="45.034458825019314" lon="9.634514177540463"><ele>66.39999999999999</ele><time>2026-04-04T13:46:07.87Z</time></trkpt><trkpt lat="45.03449694869419" lon="9.63462872450951"><ele>66.6</ele><time>2026-04-04T13:46:09.87Z</time></trkpt><trkpt lat="45.03454055976651" lon="9.634740394423908"><ele>66.8</ele><time>2026-04-04T13:46:11.87Z</time></trkpt><trkpt lat="45.034581501882" lon="9.634855059266807"><ele>67.0</ele><time>2026-04-04T13:46:13.87Z</time></trkpt><trkpt lat="45.03462591322868" lon="9.634970658075481"><ele>67.0</ele><time>2026-04-04T13:46:15.87Z</time></trkpt><trkpt lat="45.03467265293947" lon="9.635087690925982"><ele>67.0</ele><time>2026-04-04T13:46:17.87Z</time></trkpt><trkpt lat="45.03470926648322" lon="9.635205448524122"><ele>67.0</ele><time>2026-04-04T13:46:19.87Z</time></trkpt><trkpt lat="45.0347510186485" lon="9.635323291934398"><ele>67.0</ele><time>2026-04-04T13:46:21.87Z</time></trkpt><trkpt lat="45.03478675023986" lon="9.63544420478659"><ele>67.0</ele><time>2026-04-04T13:46:23.87Z</time></trkpt><trkpt lat="45.03482778553826" lon="9.635550035015617"><ele>67.0</ele><time>2026-04-04T13:46:25.87Z</time></trkpt><trkpt lat="45.03486495436692" lon="9.635659911910354"><ele>67.0</ele><time>2026-04-04T13:46:27.87Z</time></trkpt><trkpt lat="45.034906047207826" lon="9.635772212372501"><ele>67.0</ele><time>2026-04-04T13:46:29.87Z</time></trkpt><trkpt lat="45.03494576633223" lon="9.635886002723481"><ele>67.0</ele><time>2026-04-04T13:46:31.87Z</time></trkpt><trkpt lat="45.034989750070764" lon="9.635994857649987"><ele>67.0</ele><time>2026-04-04T13:46:33.869Z</time></trkpt><trkpt lat="45.035031413784694" lon="9.63611314675815"><ele>67.0</ele><time>2026-04-04T13:46:35.869Z</time></trkpt><trkpt lat="45.035068201445185" lon="9.636219662395597"><ele>67.0</ele><time>2026-04-04T13:46:37.869Z</time></trkpt><trkpt lat="45.03510465902871" lon="9.636312493625043"><ele>67.0</ele><time>2026-04-04T13:46:39.869Z</time></trkpt><trkpt lat="45.03513892134784" lon="9.636422927799206"><ele>67.0</ele><time>2026-04-04T13:46:41.869Z</time></trkpt><trkpt lat="45.03518267915643" lon="9.636539550640133"><ele>67.0</ele><time>2026-04-04T13:46:43.869Z</time></trkpt><trkpt lat="45.03523234215564" lon="9.63665449810067"><ele>67.0</ele><time>2026-04-04T13:46:45.869Z</time></trkpt><trkpt lat="45.03527332219105" lon="9.636769472272197"><ele>67.0</ele><time>2026-04-04T13:46:47.869Z</time></trkpt><trkpt lat="45.03531357583187" lon="9.636892394345114"><ele>67.0</ele><time>2026-04-04T13:46:49.868Z</time></trkpt><trkpt lat="45.03535640161322" lon="9.63700754608742"><ele>67.0</ele><time>2026-04-04T13:46:51.868Z</time></trkpt><trkpt lat="45.03539883946126" lon="9.637120130063652"><ele>67.0</ele><time>2026-04-04T13:46:53.868Z</time></trkpt><trkpt lat="45.03543670436579" lon="9.63723755839761"><ele>67.0</ele><time>2026-04-04T13:46:55.868Z</time></trkpt><trkpt lat="45.035484330327435" lon="9.637356677095937"><ele>67.0</ele><time>2026-04-04T13:46:57.868Z</time></trkpt><trkpt lat="45.03552680635469" lon="9.637471951848843"><ele>67.0</ele><time>2026-04-04T13:46:59.868Z</time></trkpt><trkpt lat="45.035569362699626" lon="9.637586894225468"><ele>67.0</ele><time>2026-04-04T13:47:01.868Z</time></trkpt><trkpt lat="45.03561611099469" lon="9.637697822817273"><ele>67.0</ele><time>2026-04-04T13:47:03.868Z</time></trkpt><trkpt lat="45.03565233099541" lon="9.637809439284869"><ele>67.0</ele><time>2026-04-04T13:47:05.868Z</time></trkpt><trkpt lat="45.03569260042671" lon="9.637911015152548"><ele>67.0</ele><time>2026-04-04T13:47:07.868Z</time></trkpt><trkpt lat="45.03572706699714" lon="9.638011427588665"><ele>67.0</ele><time>2026-04-04T13:47:09.868Z</time></trkpt><trkpt lat="45.035767568900546" lon="9.638105358028"><ele>67.0</ele><time>2026-04-04T13:47:11.868Z</time></trkpt><trkpt lat="45.03580266254329" lon="9.638201858485326"><ele>67.0</ele><time>2026-04-04T13:47:13.868Z</time></trkpt><trkpt lat="45.03583987961073" lon="9.638302858668306"><ele>67.0</ele><time>2026-04-04T13:47:15.868Z</time></trkpt><trkpt lat="45.0358759191812" lon="9.638404228181866"><ele>67.0</ele><time>2026-04-04T13:47:17.868Z</time></trkpt><trkpt lat="45.03591394688453" lon="9.638514307296782"><ele>67.0</ele><time>2026-04-04T13:47:19.868Z</time></trkpt><trkpt lat="45.035960286387215" lon="9.638614760743573"><ele>67.0</ele><time>2026-04-04T13:47:21.868Z</time></trkpt><trkpt lat="45.035994685888504" lon="9.638716734084506"><ele>66.85714285714286</ele><time>2026-04-04T13:47:23.868Z</time></trkpt><trkpt lat="45.03602753262962" lon="9.638811793127422"><ele>66.71428571428571</ele><time>2026-04-04T13:47:25.868Z</time></trkpt><trkpt lat="45.03606267908381" lon="9.638905632505141"><ele>66.57142857142857</ele><time>2026-04-04T13:47:27.868Z</time></trkpt><trkpt lat="45.03609010968115" lon="9.63898746708573"><ele>66.42857142857143</ele><time>2026-04-04T13:47:29.868Z</time></trkpt><trkpt lat="45.03611997416608" lon="9.639081581742236"><ele>66.28571428571429</ele><time>2026-04-04T13:47:31.868Z</time></trkpt><trkpt lat="45.036147336092334" lon="9.639170894963982"><ele>66.14285714285714</ele><time>2026-04-04T13:47:33.868Z</time></trkpt><trkpt lat="45.03618872375537" lon="9.63926043330759"><ele>66.0</ele><time>2026-04-04T13:47:35.868Z</time></trkpt><trkpt lat="45.036234575464306" lon="9.639321997966613"><ele>66.0</ele><time>2026-04-04T13:47:37.868Z</time></trkpt><trkpt lat="45.036275659461374" lon="9.639405486509546"><ele>66.0</ele><time>2026-04-04T13:47:39.868Z</time></trkpt><trkpt lat="45.03630024427172" lon="9.639509989822862"><ele>66.0</ele><time>2026-04-04T13:47:41.868Z</time></trkpt><trkpt lat="45.03633560627236" lon="9.63960302329477"><ele>66.0</ele><time>2026-04-04T13:47:43.868Z</time></trkpt><trkpt lat="45.03637005902644" lon="9.639702722540788"><ele>66.0</ele><time>2026-04-04T13:47:45.868Z</time></trkpt><trkpt lat="45.03640640183092" lon="9.63981266868069"><ele>66.0</ele><time>2026-04-04T13:47:47.867Z</time></trkpt><trkpt lat="45.03644093003061" lon="9.63993327430983"><ele>66.0</ele><time>2026-04-04T13:47:49.867Z</time></trkpt><trkpt lat="45.036473661976984" lon="9.640039641912898"><ele>66.0</ele><time>2026-04-04T13:47:51.867Z</time></trkpt><trkpt lat="45.03651251999308" lon="9.640146462407465"><ele>66.0</ele><time>2026-04-04T13:47:53.867Z</time></trkpt><trkpt lat="45.03655199132243" lon="9.640256907521819"><ele>66.0</ele><time>2026-04-04T13:47:55.867Z</time></trkpt><trkpt lat="45.03658448356795" lon="9.640365214992848"><ele>66.0</ele><time>2026-04-04T13:47:57.867Z</time></trkpt><trkpt lat="45.036618969832965" lon="9.640460530273215"><ele>66.0</ele><time>2026-04-04T13:47:59.867Z</time></trkpt><trkpt lat="45.03664785483371" lon="9.640558543579267"><ele>66.33333333333333</ele><time>2026-04-04T13:48:01.867Z</time></trkpt><trkpt lat="45.03668701564527" lon="9.640648448146669"><ele>66.66666666666667</ele><time>2026-04-04T13:48:03.867Z</time></trkpt><trkpt lat="45.03672471564661" lon="9.64075730892054"><ele>67.0</ele><time>2026-04-04T13:48:05.867Z</time></trkpt><trkpt lat="45.036761058480444" lon="9.640848560988074"><ele>67.33333333333334</ele><time>2026-04-04T13:48:07.867Z</time></trkpt><trkpt lat="45.036803772412526" lon="9.640947180676068"><ele>67.66666666666667</ele><time>2026-04-04T13:48:09.867Z</time></trkpt><trkpt lat="45.03684684824947" lon="9.641063563705568"><ele>68.0</ele><time>2026-04-04T13:48:11.867Z</time></trkpt><trkpt lat="45.03688334902839" lon="9.64118220389186"><ele>68.0</ele><time>2026-04-04T13:48:13.867Z</time></trkpt><trkpt lat="45.0369306036154" lon="9.641305676019295"><ele>68.0</ele><time>2026-04-04T13:48:15.867Z</time></trkpt><trkpt lat="45.036973411404695" lon="9.64141596047035"><ele>68.0</ele><time>2026-04-04T13:48:17.867Z</time></trkpt><trkpt lat="45.037007342229096" lon="9.641533864667265"><ele>68.0</ele><time>2026-04-04T13:48:19.867Z</time></trkpt><trkpt lat="45.03704804775498" lon="9.641650540656691"><ele>68.0</ele><time>2026-04-04T13:48:21.867Z</time></trkpt><trkpt lat="45.03708838487025" lon="9.641785038437504"><ele>68.0</ele><time>2026-04-04T13:48:23.867Z</time></trkpt><trkpt lat="45.03712942683902" lon="9.641906757550123"><ele>68.0</ele><time>2026-04-04T13:48:25.867Z</time></trkpt><trkpt lat="45.037166598730884" lon="9.642033685886936"><ele>68.0</ele><time>2026-04-04T13:48:27.867Z</time></trkpt><trkpt lat="45.03720747804717" lon="9.64214887110188"><ele>68.0</ele><time>2026-04-04T13:48:29.867Z</time></trkpt><trkpt lat="45.03724559640443" lon="9.642270100149451"><ele>68.0</ele><time>2026-04-04T13:48:31.867Z</time></trkpt><trkpt lat="45.0372782501802" lon="9.642379978253441"><ele>67.83333333333334</ele><time>2026-04-04T13:48:33.867Z</time></trkpt><trkpt lat="45.03731513959862" lon="9.642491007439418"><ele>67.66666666666667</ele><time>2026-04-04T13:48:35.867Z</time></trkpt><trkpt lat="45.03735319506337" lon="9.642603683586126"><ele>67.5</ele><time>2026-04-04T13:48:37.867Z</time></trkpt><trkpt lat="45.03739472988668" lon="9.642712066662797"><ele>67.33333333333333</ele><time>2026-04-04T13:48:39.867Z</time></trkpt><trkpt lat="45.037432934345325" lon="9.64282370833252"><ele>67.16666666666666</ele><time>2026-04-04T13:48:41.867Z</time></trkpt><trkpt lat="45.03747698658271" lon="9.642931868812196"><ele>67.0</ele><time>2026-04-04T13:48:43.866Z</time></trkpt><trkpt lat="45.03751725861302" lon="9.643049938326078"><ele>67.0</ele><time>2026-04-04T13:48:45.866Z</time></trkpt><trkpt lat="45.03755998452152" lon="9.643171595241027"><ele>67.0</ele><time>2026-04-04T13:48:47.867Z</time></trkpt><trkpt lat="45.037603054346704" lon="9.643287079248624"><ele>67.0</ele><time>2026-04-04T13:48:49.866Z</time></trkpt><trkpt lat="45.03764360767354" lon="9.64339722309469"><ele>67.0</ele><time>2026-04-04T13:48:51.867Z</time></trkpt><trkpt lat="45.03768594875012" lon="9.643509759994863"><ele>67.0</ele><time>2026-04-04T13:48:53.866Z</time></trkpt><trkpt lat="45.03772582985989" lon="9.643625719848439"><ele>66.6</ele><time>2026-04-04T13:48:55.866Z</time></trkpt><trkpt lat="45.03776251115423" lon="9.643750426507996"><ele>66.2</ele><time>2026-04-04T13:48:57.866Z</time></trkpt><trkpt lat="45.03780424950265" lon="9.64387065079981"><ele>65.8</ele><time>2026-04-04T13:48:59.866Z</time></trkpt><trkpt lat="45.037847885920954" lon="9.643984229592782"><ele>65.4</ele><time>2026-04-04T13:49:01.866Z</time></trkpt><trkpt lat="45.03789387992522" lon="9.644103616182024"><ele>65.0</ele><time>2026-04-04T13:49:03.866Z</time></trkpt><trkpt lat="45.03793128040165" lon="9.644218507804283"><ele>65.0</ele><time>2026-04-04T13:49:05.866Z</time></trkpt><trkpt lat="45.03797258289561" lon="9.644334227820048"><ele>65.0</ele><time>2026-04-04T13:49:07.866Z</time></trkpt><trkpt lat="45.038017600858886" lon="9.644449697682907"><ele>65.0</ele><time>2026-04-04T13:49:09.866Z</time></trkpt><trkpt lat="45.03805346059922" lon="9.644581518243724"><ele>65.0</ele><time>2026-04-04T13:49:11.866Z</time></trkpt><trkpt lat="45.03809429673442" lon="9.644705003850504"><ele>65.0</ele><time>2026-04-04T13:49:13.866Z</time></trkpt><trkpt lat="45.03813763429782" lon="9.644832017048321"><ele>65.0</ele><time>2026-04-04T13:49:15.866Z</time></trkpt><trkpt lat="45.03817893094487" lon="9.644959443406357"><ele>65.0</ele><time>2026-04-04T13:49:17.866Z</time></trkpt><trkpt lat="45.03822070039202" lon="9.645081575320472"><ele>65.0</ele><time>2026-04-04T13:49:19.866Z</time></trkpt><trkpt lat="45.03826714732862" lon="9.645199911187662"><ele>65.0</ele><time>2026-04-04T13:49:21.866Z</time></trkpt><trkpt lat="45.03831224933762" lon="9.645323887567896"><ele>65.0</ele><time>2026-04-04T13:49:23.866Z</time></trkpt><trkpt lat="45.038355431084334" lon="9.645452338571484"><ele>65.0</ele><time>2026-04-04T13:49:25.866Z</time></trkpt><trkpt lat="45.03840092565496" lon="9.645579870570094"><ele>65.0</ele><time>2026-04-04T13:49:27.866Z</time></trkpt><trkpt lat="45.03844459983818" lon="9.645707122738692"><ele>65.0</ele><time>2026-04-04T13:49:29.866Z</time></trkpt><trkpt lat="45.038490942694054" lon="9.645836020874974"><ele>65.0</ele><time>2026-04-04T13:49:31.866Z</time></trkpt><trkpt lat="45.0385321140269" lon="9.645971027296632"><ele>65.0</ele><time>2026-04-04T13:49:33.866Z</time></trkpt><trkpt lat="45.038579163316214" lon="9.646100474054125"><ele>64.8</ele><time>2026-04-04T13:49:35.866Z</time></trkpt><trkpt lat="45.03861867313775" lon="9.64622131528688"><ele>64.6</ele><time>2026-04-04T13:49:37.866Z</time></trkpt><trkpt lat="45.038656563650335" lon="9.646340624179293"><ele>64.4</ele><time>2026-04-04T13:49:39.866Z</time></trkpt><trkpt lat="45.03870281916453" lon="9.646459572973326"><ele>64.2</ele><time>2026-04-04T13:49:41.866Z</time></trkpt><trkpt lat="45.038745062784955" lon="9.646567312388944"><ele>64.0</ele><time>2026-04-04T13:49:43.866Z</time></trkpt><trkpt lat="45.03878381891095" lon="9.64668297939456"><ele>64.0</ele><time>2026-04-04T13:49:45.865Z</time></trkpt><trkpt lat="45.038827629208235" lon="9.646802364470227"><ele>64.0</ele><time>2026-04-04T13:49:47.865Z</time></trkpt><trkpt lat="45.03886724231081" lon="9.646923075235629"><ele>64.0</ele><time>2026-04-04T13:49:49.865Z</time></trkpt><trkpt lat="45.03890967127116" lon="9.647040924488039"><ele>64.0</ele><time>2026-04-04T13:49:51.865Z</time></trkpt><trkpt lat="45.038947468628784" lon="9.647151595206452"><ele>64.0</ele><time>2026-04-04T13:49:53.865Z</time></trkpt><trkpt lat="45.03899038531707" lon="9.647266271099106"><ele>64.4</ele><time>2026-04-04T13:49:55.865Z</time></trkpt><trkpt lat="45.03903294375634" lon="9.64738691569547"><ele>64.80000000000001</ele><time>2026-04-04T13:49:57.865Z</time></trkpt><trkpt lat="45.03908165837977" lon="9.647504146357665"><ele>65.19999999999999</ele><time>2026-04-04T13:49:59.865Z</time></trkpt><trkpt lat="45.03912261657345" lon="9.64761956431498"><ele>65.6</ele><time>2026-04-04T13:50:01.865Z</time></trkpt><trkpt lat="45.039161827382735" lon="9.647733810272351"><ele>66.0</ele><time>2026-04-04T13:50:03.865Z</time></trkpt><trkpt lat="45.039202223009184" lon="9.647849606469139"><ele>65.0</ele><time>2026-04-04T13:50:05.865Z</time></trkpt><trkpt lat="45.03925134382933" lon="9.647963615633703"><ele>63.99999999999999</ele><time>2026-04-04T13:50:07.865Z</time></trkpt><trkpt lat="45.03928501264001" lon="9.648084519001221"><ele>62.99999999999999</ele><time>2026-04-04T13:50:09.865Z</time></trkpt><trkpt lat="45.03932154121598" lon="9.648201306775853"><ele>62.0</ele><time>2026-04-04T13:50:11.865Z</time></trkpt><trkpt lat="45.03935984528139" lon="9.648310633648894"><ele>61.0</ele><time>2026-04-04T13:50:13.865Z</time></trkpt><trkpt lat="45.03939493377665" lon="9.648423352452141"><ele>60.99999999999999</ele><time>2026-04-04T13:50:15.865Z</time></trkpt><trkpt lat="45.03943703397856" lon="9.64852264606168"><ele>61.0</ele><time>2026-04-04T13:50:17.865Z</time></trkpt><trkpt lat="45.03947401654431" lon="9.648612566006337"><ele>61.0</ele><time>2026-04-04T13:50:19.865Z</time></trkpt><trkpt lat="45.03950453587943" lon="9.648719531528586"><ele>61.0</ele><time>2026-04-04T13:50:21.865Z</time></trkpt><trkpt lat="45.039543304453474" lon="9.648839728950566"><ele>60.99999999999999</ele><time>2026-04-04T13:50:23.865Z</time></trkpt><trkpt lat="45.03958703420446" lon="9.648950626625103"><ele>61.0</ele><time>2026-04-04T13:50:25.865Z</time></trkpt><trkpt lat="45.039628437638214" lon="9.649060699620305"><ele>60.99999999999999</ele><time>2026-04-04T13:50:27.865Z</time></trkpt><trkpt lat="45.039668365892624" lon="9.64916481489873"><ele>61.0</ele><time>2026-04-04T13:50:29.865Z</time></trkpt><trkpt lat="45.03970309498271" lon="9.64927016754588"><ele>61.0</ele><time>2026-04-04T13:50:31.865Z</time></trkpt><trkpt lat="45.0397384275244" lon="9.649378500190398"><ele>61.0</ele><time>2026-04-04T13:50:33.865Z</time></trkpt><trkpt lat="45.039775978535225" lon="9.649498011993035"><ele>60.99999999999999</ele><time>2026-04-04T13:50:35.865Z</time></trkpt><trkpt lat="45.03981692546452" lon="9.64961215807056"><ele>61.0</ele><time>2026-04-04T13:50:37.865Z</time></trkpt><trkpt lat="45.03985209002564" lon="9.64972206263322"><ele>61.0</ele><time>2026-04-04T13:50:39.865Z</time></trkpt><trkpt lat="45.03988767090228" lon="9.649834256689703"><ele>60.99999999999999</ele><time>2026-04-04T13:50:41.865Z</time></trkpt><trkpt lat="45.039926581214964" lon="9.649949975116838"><ele>60.99999999999999</ele><time>2026-04-04T13:50:43.865Z</time></trkpt><trkpt lat="45.039959742986305" lon="9.650066830159933"><ele>61.0</ele><time>2026-04-04T13:50:45.865Z</time></trkpt><trkpt lat="45.03999419570898" lon="9.650186655001418"><ele>61.0</ele><time>2026-04-04T13:50:47.865Z</time></trkpt><trkpt lat="45.040039681743636" lon="9.650304650303664"><ele>61.0</ele><time>2026-04-04T13:50:49.863Z</time></trkpt><trkpt lat="45.04008130306852" lon="9.6504183155736"><ele>60.99999999999999</ele><time>2026-04-04T13:50:51.864Z</time></trkpt><trkpt lat="45.04012387503529" lon="9.65053204869636"><ele>60.99999999999999</ele><time>2026-04-04T13:50:53.864Z</time></trkpt><trkpt lat="45.040169211758766" lon="9.650639100075582"><ele>61.0</ele><time>2026-04-04T13:50:55.864Z</time></trkpt><trkpt lat="45.04021565816305" lon="9.650753869211787"><ele>61.0</ele><time>2026-04-04T13:50:57.864Z</time></trkpt><trkpt lat="45.04025711805941" lon="9.650868791647138"><ele>61.0</ele><time>2026-04-04T13:50:59.864Z</time></trkpt><trkpt lat="45.04029914336963" lon="9.650984442177144"><ele>60.99999999999999</ele><time>2026-04-04T13:51:01.864Z</time></trkpt><trkpt lat="45.04034346765009" lon="9.651095090969015"><ele>60.99999999999999</ele><time>2026-04-04T13:51:03.864Z</time></trkpt><trkpt lat="45.04039107235703" lon="9.651206217368687"><ele>61.0</ele><time>2026-04-04T13:51:05.864Z</time></trkpt><trkpt lat="45.040432431630016" lon="9.651320375764202"><ele>61.0</ele><time>2026-04-04T13:51:07.864Z</time></trkpt><trkpt lat="45.04047552444841" lon="9.651434188158133"><ele>61.0</ele><time>2026-04-04T13:51:09.864Z</time></trkpt><trkpt lat="45.04051741868956" lon="9.65155074032389"><ele>60.99999999999999</ele><time>2026-04-04T13:51:11.864Z</time></trkpt><trkpt lat="45.04056138993155" lon="9.651667024031267"><ele>60.99999999999999</ele><time>2026-04-04T13:51:13.863Z</time></trkpt><trkpt lat="45.04060094039558" lon="9.651786403783527"><ele>61.0</ele><time>2026-04-04T13:51:15.863Z</time></trkpt><trkpt lat="45.040646508593" lon="9.65191398805151"><ele>61.0</ele><time>2026-04-04T13:51:17.863Z</time></trkpt><trkpt lat="45.04069625591375" lon="9.652029975675841"><ele>61.0</ele><time>2026-04-04T13:51:19.863Z</time></trkpt><trkpt lat="45.04073215010247" lon="9.6521525584076"><ele>60.99999999999999</ele><time>2026-04-04T13:51:21.863Z</time></trkpt><trkpt lat="45.04076840629155" lon="9.652277648518385"><ele>60.99999999999999</ele><time>2026-04-04T13:51:23.863Z</time></trkpt><trkpt lat="45.040808151145214" lon="9.65239131070395"><ele>61.0</ele><time>2026-04-04T13:51:25.863Z</time></trkpt><trkpt lat="45.040849067391825" lon="9.652501852888467"><ele>61.0</ele><time>2026-04-04T13:51:27.863Z</time></trkpt><trkpt lat="45.040894076985" lon="9.652615239369315"><ele>60.8</ele><time>2026-04-04T13:51:29.863Z</time></trkpt><trkpt lat="45.040939130451775" lon="9.652730715496396"><ele>60.599999999999994</ele><time>2026-04-04T13:51:31.863Z</time></trkpt><trkpt lat="45.04098430359004" lon="9.65284533194046"><ele>60.4</ele><time>2026-04-04T13:51:33.863Z</time></trkpt><trkpt lat="45.04102958596289" lon="9.652961161029472"><ele>60.2</ele><time>2026-04-04T13:51:35.863Z</time></trkpt><trkpt lat="45.041068649299845" lon="9.653075413634108"><ele>60.0</ele><time>2026-04-04T13:51:37.863Z</time></trkpt><trkpt lat="45.04111427069532" lon="9.653182350608724"><ele>60.0</ele><time>2026-04-04T13:51:39.863Z</time></trkpt><trkpt lat="45.041154492149225" lon="9.653298032948664"><ele>60.0</ele><time>2026-04-04T13:51:41.863Z</time></trkpt><trkpt lat="45.04119434565806" lon="9.653415544736157"><ele>60.0</ele><time>2026-04-04T13:51:43.863Z</time></trkpt><trkpt lat="45.04123278496881" lon="9.653529877739686"><ele>60.0</ele><time>2026-04-04T13:51:45.863Z</time></trkpt><trkpt lat="45.041274431875905" lon="9.653640586201618"><ele>60.0</ele><time>2026-04-04T13:51:47.863Z</time></trkpt><trkpt lat="45.04131318316918" lon="9.65374208174158"><ele>60.0</ele><time>2026-04-04T13:51:49.863Z</time></trkpt><trkpt lat="45.04135088009831" lon="9.653853242254874"><ele>60.0</ele><time>2026-04-04T13:51:51.863Z</time></trkpt><trkpt lat="45.041392881010076" lon="9.6539642452115"><ele>60.0</ele><time>2026-04-04T13:51:53.863Z</time></trkpt><trkpt lat="45.041430727025215" lon="9.654070184361759"><ele>60.0</ele><time>2026-04-04T13:51:55.863Z</time></trkpt><trkpt lat="45.04146872051819" lon="9.654183701634988"><ele>60.0</ele><time>2026-04-04T13:51:57.863Z</time></trkpt><trkpt lat="45.04151731425815" lon="9.654292588889263"><ele>60.0</ele><time>2026-04-04T13:51:59.863Z</time></trkpt><trkpt lat="45.04155595051045" lon="9.654412823036095"><ele>60.0</ele><time>2026-04-04T13:52:01.863Z</time></trkpt><trkpt lat="45.04159652552935" lon="9.654528962272892"><ele>60.666666666666664</ele><time>2026-04-04T13:52:03.863Z</time></trkpt><trkpt lat="45.04164162917942" lon="9.654637780087304"><ele>61.33333333333333</ele><time>2026-04-04T13:52:05.863Z</time></trkpt><trkpt lat="45.04168069196144" lon="9.654746589490951"><ele>62.0</ele><time>2026-04-04T13:52:07.863Z</time></trkpt><trkpt lat="45.04172003906499" lon="9.654858571013051"><ele>62.666666666666664</ele><time>2026-04-04T13:52:09.863Z</time></trkpt><trkpt lat="45.04175492617823" lon="9.65497203402307"><ele>63.33333333333333</ele><time>2026-04-04T13:52:11.863Z</time></trkpt><trkpt lat="45.04179560918453" lon="9.655084672896491"><ele>64.0</ele><time>2026-04-04T13:52:13.863Z</time></trkpt><trkpt lat="45.04183382847098" lon="9.655200626295642"><ele>63.83333333333333</ele><time>2026-04-04T13:52:15.863Z</time></trkpt><trkpt lat="45.04187516850254" lon="9.655313570130582"><ele>63.666666666666664</ele><time>2026-04-04T13:52:17.863Z</time></trkpt><trkpt lat="45.04191047279132" lon="9.6554266003851"><ele>63.5</ele><time>2026-04-04T13:52:19.863Z</time></trkpt><trkpt lat="45.04195349604114" lon="9.655537878762797"><ele>63.33333333333333</ele><time>2026-04-04T13:52:21.863Z</time></trkpt><trkpt lat="45.041995513733006" lon="9.655648592119878"><ele>63.166666666666664</ele><time>2026-04-04T13:52:23.863Z</time></trkpt><trkpt lat="45.042035607037185" lon="9.655766374542567"><ele>63.0</ele><time>2026-04-04T13:52:25.862Z</time></trkpt><trkpt lat="45.042076461561464" lon="9.655888180265508"><ele>63.0</ele><time>2026-04-04T13:52:27.862Z</time></trkpt><trkpt lat="45.042116692410055" lon="9.65600446961654"><ele>63.0</ele><time>2026-04-04T13:52:29.862Z</time></trkpt><trkpt lat="45.042154264595005" lon="9.656113175864519"><ele>63.0</ele><time>2026-04-04T13:52:31.862Z</time></trkpt><trkpt lat="45.04219814943455" lon="9.65622374173277"><ele>63.0</ele><time>2026-04-04T13:52:33.862Z</time></trkpt><trkpt lat="45.042235303450944" lon="9.656339264572676"><ele>63.0</ele><time>2026-04-04T13:52:35.862Z</time></trkpt><trkpt lat="45.04227433980019" lon="9.656457975506095"><ele>63.0</ele><time>2026-04-04T13:52:37.862Z</time></trkpt><trkpt lat="45.04232016707042" lon="9.656574459966778"><ele>63.166666666666664</ele><time>2026-04-04T13:52:39.862Z</time></trkpt><trkpt lat="45.04236740750979" lon="9.656680455970205"><ele>63.33333333333333</ele><time>2026-04-04T13:52:41.862Z</time></trkpt><trkpt lat="45.042404193810945" lon="9.65679138989758"><ele>63.5</ele><time>2026-04-04T13:52:43.862Z</time></trkpt><trkpt lat="45.042433062616105" lon="9.656898421792247"><ele>63.666666666666664</ele><time>2026-04-04T13:52:45.862Z</time></trkpt><trkpt lat="45.04247352822493" lon="9.6570037018657"><ele>63.83333333333333</ele><time>2026-04-04T13:52:47.862Z</time></trkpt><trkpt lat="45.04251677450789" lon="9.65710917493351"><ele>64.0</ele><time>2026-04-04T13:52:49.862Z</time></trkpt><trkpt lat="45.042547083098746" lon="9.657220795458176"><ele>63.400000000000006</ele><time>2026-04-04T13:52:51.862Z</time></trkpt><trkpt lat="45.04257350861682" lon="9.657346605359477"><ele>62.800000000000004</ele><time>2026-04-04T13:52:53.862Z</time></trkpt><trkpt lat="45.042611393012" lon="9.657462677346727"><ele>62.199999999999996</ele><time>2026-04-04T13:52:55.862Z</time></trkpt><trkpt lat="45.04265174158825" lon="9.657571813402575"><ele>61.599999999999994</ele><time>2026-04-04T13:52:57.863Z</time></trkpt><trkpt lat="45.042694185561814" lon="9.657683539643347"><ele>61.0</ele><time>2026-04-04T13:52:59.862Z</time></trkpt><trkpt lat="45.04273193264151" lon="9.657801951039195"><ele>61.0</ele><time>2026-04-04T13:53:01.862Z</time></trkpt><trkpt lat="45.042774223528234" lon="9.657914159978782"><ele>60.99999999999999</ele><time>2026-04-04T13:53:03.862Z</time></trkpt><trkpt lat="45.04281515964142" lon="9.65803074019864"><ele>60.99999999999999</ele><time>2026-04-04T13:53:05.862Z</time></trkpt><trkpt lat="45.04285462167216" lon="9.658142242968063"><ele>61.0</ele><time>2026-04-04T13:53:07.862Z</time></trkpt><trkpt lat="45.04289587309538" lon="9.658259248678531"><ele>61.0</ele><time>2026-04-04T13:53:09.862Z</time></trkpt><trkpt lat="45.0429412790824" lon="9.658369781213317"><ele>60.99999999999999</ele><time>2026-04-04T13:53:11.862Z</time></trkpt><trkpt lat="45.042978789270485" lon="9.658477103016988"><ele>61.0</ele><time>2026-04-04T13:53:13.862Z</time></trkpt><trkpt lat="45.04301422062561" lon="9.658585018630275"><ele>61.0</ele><time>2026-04-04T13:53:15.862Z</time></trkpt><trkpt lat="45.04305809332998" lon="9.658695267796165"><ele>61.0</ele><time>2026-04-04T13:53:17.862Z</time></trkpt><trkpt lat="45.043098414789874" lon="9.658808235154437"><ele>60.99999999999999</ele><time>2026-04-04T13:53:19.862Z</time></trkpt><trkpt lat="45.043130069826084" lon="9.658922031271796"><ele>61.0</ele><time>2026-04-04T13:53:21.862Z</time></trkpt><trkpt lat="45.04317151729418" lon="9.659030385409004"><ele>60.99999999999999</ele><time>2026-04-04T13:53:23.862Z</time></trkpt><trkpt lat="45.043209641756704" lon="9.659135431403968"><ele>61.0</ele><time>2026-04-04T13:53:25.862Z</time></trkpt><trkpt lat="45.04324504475969" lon="9.659236891727277"><ele>61.0</ele><time>2026-04-04T13:53:27.862Z</time></trkpt><trkpt lat="45.043276386987024" lon="9.659337548990308"><ele>61.0</ele><time>2026-04-04T13:53:29.862Z</time></trkpt><trkpt lat="45.04331287669069" lon="9.659430598572188"><ele>60.99999999999999</ele><time>2026-04-04T13:53:31.862Z</time></trkpt><trkpt lat="45.04335026509421" lon="9.659532107224946"><ele>61.0</ele><time>2026-04-04T13:53:33.862Z</time></trkpt><trkpt lat="45.04338914295485" lon="9.659630803486142"><ele>60.83333333333333</ele><time>2026-04-04T13:53:35.862Z</time></trkpt><trkpt lat="45.04342246570169" lon="9.659732239133621"><ele>60.666666666666664</ele><time>2026-04-04T13:53:37.861Z</time></trkpt><trkpt lat="45.04345629933612" lon="9.659832992916462"><ele>60.5</ele><time>2026-04-04T13:53:39.861Z</time></trkpt><trkpt lat="45.043478078108436" lon="9.659943486791674"><ele>60.33333333333333</ele><time>2026-04-04T13:53:41.861Z</time></trkpt><trkpt lat="45.04347375535139" lon="9.660065867376577"><ele>60.166666666666664</ele><time>2026-04-04T13:53:43.861Z</time></trkpt><trkpt lat="45.04346848294253" lon="9.660184969680452"><ele>60.0</ele><time>2026-04-04T13:53:45.861Z</time></trkpt><trkpt lat="45.04346555292342" lon="9.660294900651802"><ele>62.0</ele><time>2026-04-04T13:53:47.861Z</time></trkpt><trkpt lat="45.04345993524313" lon="9.660402805058213"><ele>62.0</ele><time>2026-04-04T13:53:49.861Z</time></trkpt><trkpt lat="45.04348898807202" lon="9.6604986474575"><ele>62.0</ele><time>2026-04-04T13:53:52.861Z</time></trkpt></trkseg></trk></gpx>